<?xml version="1.0" encoding="UTF-8" standalone="no" ?>
<gpx xmlns="http://www.topografix.com/GPX/1/1" xmlns:xsi="http://www.w3.org/2001/XMLSchema-instance" xsi:schemaLocation="http://www.topografix.com/GPX/1/1 http://www.topografix.com/GPX/1/1/gpx.xsd" version="1.1" creator="VisuGPX - https://www.visugpx.com">
  <metadata>
    <name>ski st martin de Belleville J3</name>
    <desc><![CDATA[Ski st martin de Belleville
J3 
28 janvier 2014]]></desc>
  </metadata>
  <trk>
    <name><![CDATA[2014-01-28 09:12]]></name>
    <desc><![CDATA[<h1>OruxMaps</h1><br /><hr align="center" width="480" style="height: 2px; width: 517px"/><h2>Nom: 2014-01-28 09:12</h2><br /><p>Temps de départ: 01/28/2014 09:13</p><p>Temps d'arrivée: 01/28/2014 16:59</p><p>Distance: 90,4 km (07:45)</p><p>Temps déplacement: 05:20</p><p>Vitesse moyenne: 11,6 km/h</p><p>Vitesse moyenne: 16,9 km/h</p><p>Vitess Max.: 66,5 km/h</p><p>Altitude minimale: 1259 m</p><p>Altitude maximale: 2839 m</p><p>Vitesse d'élévation: 2760,6 m/h</p><p>Vitesse de descente: -2479,6 m/h</p><p>Gain Altitude: 9639 m</p><p>Perte Altitude: -9627 m</p><p>Temps d'élévation: 03:29</p><p>Temps de descente: 03:52</p><hr align="center" width="480" style="height: 2px; width: 517px"/>]]></desc>
    <trkseg>
      <trkpt lat="45.37749" lon="6.50421">
        <ele>1419.59</ele>
        <time>2014-01-28T08:13:28Z</time>
      </trkpt>
      <trkpt lat="45.37755" lon="6.50466">
        <ele>1424.35</ele>
        <time>2014-01-28T08:13:57Z</time>
      </trkpt>
      <trkpt lat="45.37771" lon="6.50453">
        <ele>1422.39</ele>
        <time>2014-01-28T08:14:36Z</time>
      </trkpt>
      <trkpt lat="45.37753" lon="6.50448">
        <ele>1422.3</ele>
        <time>2014-01-28T08:17:02Z</time>
      </trkpt>
      <trkpt lat="45.37747" lon="6.50423">
        <ele>1420.15</ele>
        <time>2014-01-28T08:20:11Z</time>
      </trkpt>
      <trkpt lat="45.37744" lon="6.50483">
        <ele>1426.7</ele>
        <time>2014-01-28T08:22:00Z</time>
      </trkpt>
      <trkpt lat="45.3774" lon="6.50455">
        <ele>1424.38</ele>
        <time>2014-01-28T08:22:11Z</time>
      </trkpt>
      <trkpt lat="45.37752" lon="6.50435">
        <ele>1420.88</ele>
        <time>2014-01-28T08:26:15Z</time>
      </trkpt>
      <trkpt lat="45.3774" lon="6.50416">
        <ele>1420.29</ele>
        <time>2014-01-28T08:26:31Z</time>
      </trkpt>
      <trkpt lat="45.37729" lon="6.50436">
        <ele>1424.17</ele>
        <time>2014-01-28T08:27:01Z</time>
      </trkpt>
      <trkpt lat="45.37713" lon="6.50449">
        <ele>1426.39</ele>
        <time>2014-01-28T08:27:27Z</time>
      </trkpt>
      <trkpt lat="45.37694" lon="6.50449">
        <ele>1426.44</ele>
        <time>2014-01-28T08:27:42Z</time>
      </trkpt>
      <trkpt lat="45.37677" lon="6.50439">
        <ele>1424.72</ele>
        <time>2014-01-28T08:29:06Z</time>
      </trkpt>
      <trkpt lat="45.37675" lon="6.50465">
        <ele>1428.02</ele>
        <time>2014-01-28T08:30:05Z</time>
      </trkpt>
      <trkpt lat="45.3767" lon="6.50496">
        <ele>1432.28</ele>
        <time>2014-01-28T08:30:10Z</time>
      </trkpt>
      <trkpt lat="45.37667" lon="6.50523">
        <ele>1436.23</ele>
        <time>2014-01-28T08:30:14Z</time>
      </trkpt>
      <trkpt lat="45.3766" lon="6.50553">
        <ele>1441.53</ele>
        <time>2014-01-28T08:30:19Z</time>
      </trkpt>
      <trkpt lat="45.37657" lon="6.50584">
        <ele>1448.76</ele>
        <time>2014-01-28T08:30:24Z</time>
      </trkpt>
      <trkpt lat="45.37652" lon="6.5061">
        <ele>1452.94</ele>
        <time>2014-01-28T08:30:29Z</time>
      </trkpt>
      <trkpt lat="45.37646" lon="6.50636">
        <ele>1457.83</ele>
        <time>2014-01-28T08:30:34Z</time>
      </trkpt>
      <trkpt lat="45.37641" lon="6.50661">
        <ele>1466.58</ele>
        <time>2014-01-28T08:30:38Z</time>
      </trkpt>
      <trkpt lat="45.37637" lon="6.50687">
        <ele>1474.26</ele>
        <time>2014-01-28T08:30:43Z</time>
      </trkpt>
      <trkpt lat="45.37635" lon="6.50716">
        <ele>1480.24</ele>
        <time>2014-01-28T08:30:48Z</time>
      </trkpt>
      <trkpt lat="45.37633" lon="6.50744">
        <ele>1486.58</ele>
        <time>2014-01-28T08:30:53Z</time>
      </trkpt>
      <trkpt lat="45.37629" lon="6.50771">
        <ele>1488.68</ele>
        <time>2014-01-28T08:30:58Z</time>
      </trkpt>
      <trkpt lat="45.37625" lon="6.508">
        <ele>1491.49</ele>
        <time>2014-01-28T08:31:04Z</time>
      </trkpt>
      <trkpt lat="45.3762" lon="6.50825">
        <ele>1494.6</ele>
        <time>2014-01-28T08:31:09Z</time>
      </trkpt>
      <trkpt lat="45.37616" lon="6.50851">
        <ele>1499.3</ele>
        <time>2014-01-28T08:31:14Z</time>
      </trkpt>
      <trkpt lat="45.37611" lon="6.50878">
        <ele>1505.73</ele>
        <time>2014-01-28T08:31:19Z</time>
      </trkpt>
      <trkpt lat="45.37607" lon="6.50905">
        <ele>1510.95</ele>
        <time>2014-01-28T08:31:24Z</time>
      </trkpt>
      <trkpt lat="45.37602" lon="6.50933">
        <ele>1516</ele>
        <time>2014-01-28T08:31:29Z</time>
      </trkpt>
      <trkpt lat="45.37598" lon="6.5096">
        <ele>1521.24</ele>
        <time>2014-01-28T08:31:34Z</time>
      </trkpt>
      <trkpt lat="45.37594" lon="6.50991">
        <ele>1528.93</ele>
        <time>2014-01-28T08:31:39Z</time>
      </trkpt>
      <trkpt lat="45.37589" lon="6.51017">
        <ele>1536.26</ele>
        <time>2014-01-28T08:31:43Z</time>
      </trkpt>
      <trkpt lat="45.37584" lon="6.51044">
        <ele>1541.69</ele>
        <time>2014-01-28T08:31:48Z</time>
      </trkpt>
      <trkpt lat="45.37578" lon="6.51069">
        <ele>1544.92</ele>
        <time>2014-01-28T08:31:53Z</time>
      </trkpt>
      <trkpt lat="45.37573" lon="6.511">
        <ele>1550.09</ele>
        <time>2014-01-28T08:31:58Z</time>
      </trkpt>
      <trkpt lat="45.37569" lon="6.51125">
        <ele>1559.05</ele>
        <time>2014-01-28T08:32:02Z</time>
      </trkpt>
      <trkpt lat="45.37564" lon="6.51157">
        <ele>1570.27</ele>
        <time>2014-01-28T08:32:07Z</time>
      </trkpt>
      <trkpt lat="45.37564" lon="6.51184">
        <ele>1575.91</ele>
        <time>2014-01-28T08:32:11Z</time>
      </trkpt>
      <trkpt lat="45.37556" lon="6.5121">
        <ele>1579.32</ele>
        <time>2014-01-28T08:32:16Z</time>
      </trkpt>
      <trkpt lat="45.37551" lon="6.51237">
        <ele>1581.7</ele>
        <time>2014-01-28T08:32:21Z</time>
      </trkpt>
      <trkpt lat="45.37549" lon="6.51262">
        <ele>1583.85</ele>
        <time>2014-01-28T08:32:26Z</time>
      </trkpt>
      <trkpt lat="45.37548" lon="6.51291">
        <ele>1587.05</ele>
        <time>2014-01-28T08:32:33Z</time>
      </trkpt>
      <trkpt lat="45.37547" lon="6.51318">
        <ele>1590.02</ele>
        <time>2014-01-28T08:32:38Z</time>
      </trkpt>
      <trkpt lat="45.37544" lon="6.51346">
        <ele>1592.8</ele>
        <time>2014-01-28T08:32:43Z</time>
      </trkpt>
      <trkpt lat="45.37541" lon="6.51373">
        <ele>1594.99</ele>
        <time>2014-01-28T08:32:49Z</time>
      </trkpt>
      <trkpt lat="45.37537" lon="6.51401">
        <ele>1596.95</ele>
        <time>2014-01-28T08:32:54Z</time>
      </trkpt>
      <trkpt lat="45.37534" lon="6.51427">
        <ele>1598.83</ele>
        <time>2014-01-28T08:32:58Z</time>
      </trkpt>
      <trkpt lat="45.3753" lon="6.51458">
        <ele>1601.73</ele>
        <time>2014-01-28T08:33:04Z</time>
      </trkpt>
      <trkpt lat="45.37525" lon="6.51484">
        <ele>1606.34</ele>
        <time>2014-01-28T08:33:09Z</time>
      </trkpt>
      <trkpt lat="45.3752" lon="6.51513">
        <ele>1611.35</ele>
        <time>2014-01-28T08:33:14Z</time>
      </trkpt>
      <trkpt lat="45.37512" lon="6.5154">
        <ele>1614.76</ele>
        <time>2014-01-28T08:33:19Z</time>
      </trkpt>
      <trkpt lat="45.37508" lon="6.51567">
        <ele>1617.1</ele>
        <time>2014-01-28T08:33:24Z</time>
      </trkpt>
      <trkpt lat="45.37505" lon="6.51593">
        <ele>1618.01</ele>
        <time>2014-01-28T08:33:29Z</time>
      </trkpt>
      <trkpt lat="45.37505" lon="6.51624">
        <ele>1619.24</ele>
        <time>2014-01-28T08:33:34Z</time>
      </trkpt>
      <trkpt lat="45.37504" lon="6.5165">
        <ele>1620.1</ele>
        <time>2014-01-28T08:33:38Z</time>
      </trkpt>
      <trkpt lat="45.37499" lon="6.51677">
        <ele>1620.07</ele>
        <time>2014-01-28T08:33:43Z</time>
      </trkpt>
      <trkpt lat="45.37492" lon="6.51702">
        <ele>1619.53</ele>
        <time>2014-01-28T08:33:48Z</time>
      </trkpt>
      <trkpt lat="45.37488" lon="6.51728">
        <ele>1619.86</ele>
        <time>2014-01-28T08:33:52Z</time>
      </trkpt>
      <trkpt lat="45.37484" lon="6.51758">
        <ele>1619.4</ele>
        <time>2014-01-28T08:33:57Z</time>
      </trkpt>
      <trkpt lat="45.37479" lon="6.51787">
        <ele>1619.15</ele>
        <time>2014-01-28T08:34:02Z</time>
      </trkpt>
      <trkpt lat="45.37475" lon="6.51817">
        <ele>1619.58</ele>
        <time>2014-01-28T08:34:08Z</time>
      </trkpt>
      <trkpt lat="45.37473" lon="6.51846">
        <ele>1621.13</ele>
        <time>2014-01-28T08:34:13Z</time>
      </trkpt>
      <trkpt lat="45.37468" lon="6.51874">
        <ele>1624.34</ele>
        <time>2014-01-28T08:34:18Z</time>
      </trkpt>
      <trkpt lat="45.37463" lon="6.51903">
        <ele>1628.94</ele>
        <time>2014-01-28T08:34:23Z</time>
      </trkpt>
      <trkpt lat="45.37459" lon="6.51929">
        <ele>1635.27</ele>
        <time>2014-01-28T08:34:28Z</time>
      </trkpt>
      <trkpt lat="45.37455" lon="6.51956">
        <ele>1645.05</ele>
        <time>2014-01-28T08:34:33Z</time>
      </trkpt>
      <trkpt lat="45.3745" lon="6.51982">
        <ele>1653.38</ele>
        <time>2014-01-28T08:34:37Z</time>
      </trkpt>
      <trkpt lat="45.37448" lon="6.52008">
        <ele>1658.94</ele>
        <time>2014-01-28T08:34:42Z</time>
      </trkpt>
      <trkpt lat="45.37445" lon="6.52033">
        <ele>1663.56</ele>
        <time>2014-01-28T08:34:47Z</time>
      </trkpt>
      <trkpt lat="45.37441" lon="6.5206">
        <ele>1671.71</ele>
        <time>2014-01-28T08:34:52Z</time>
      </trkpt>
      <trkpt lat="45.37434" lon="6.52089">
        <ele>1684.44</ele>
        <time>2014-01-28T08:34:57Z</time>
      </trkpt>
      <trkpt lat="45.37432" lon="6.52116">
        <ele>1693.34</ele>
        <time>2014-01-28T08:35:02Z</time>
      </trkpt>
      <trkpt lat="45.3743" lon="6.52142">
        <ele>1700.73</ele>
        <time>2014-01-28T08:35:07Z</time>
      </trkpt>
      <trkpt lat="45.37428" lon="6.52169">
        <ele>1707.29</ele>
        <time>2014-01-28T08:35:12Z</time>
      </trkpt>
      <trkpt lat="45.37422" lon="6.52196">
        <ele>1712.54</ele>
        <time>2014-01-28T08:35:17Z</time>
      </trkpt>
      <trkpt lat="45.37417" lon="6.52227">
        <ele>1718.07</ele>
        <time>2014-01-28T08:35:22Z</time>
      </trkpt>
      <trkpt lat="45.37413" lon="6.52254">
        <ele>1724.74</ele>
        <time>2014-01-28T08:35:27Z</time>
      </trkpt>
      <trkpt lat="45.37409" lon="6.52283">
        <ele>1733.13</ele>
        <time>2014-01-28T08:35:32Z</time>
      </trkpt>
      <trkpt lat="45.37406" lon="6.52313">
        <ele>1742.41</ele>
        <time>2014-01-28T08:35:37Z</time>
      </trkpt>
      <trkpt lat="45.37402" lon="6.52343">
        <ele>1750.68</ele>
        <time>2014-01-28T08:35:42Z</time>
      </trkpt>
      <trkpt lat="45.37398" lon="6.52368">
        <ele>1755.98</ele>
        <time>2014-01-28T08:35:46Z</time>
      </trkpt>
      <trkpt lat="45.37392" lon="6.52397">
        <ele>1760.92</ele>
        <time>2014-01-28T08:35:51Z</time>
      </trkpt>
      <trkpt lat="45.37388" lon="6.52428">
        <ele>1766.2</ele>
        <time>2014-01-28T08:35:56Z</time>
      </trkpt>
      <trkpt lat="45.37386" lon="6.52458">
        <ele>1774.14</ele>
        <time>2014-01-28T08:36:01Z</time>
      </trkpt>
      <trkpt lat="45.37382" lon="6.52486">
        <ele>1783.55</ele>
        <time>2014-01-28T08:36:08Z</time>
      </trkpt>
      <trkpt lat="45.37375" lon="6.52509">
        <ele>1786.93</ele>
        <time>2014-01-28T08:36:14Z</time>
      </trkpt>
      <trkpt lat="45.37371" lon="6.5254">
        <ele>1785.1</ele>
        <time>2014-01-28T08:36:19Z</time>
      </trkpt>
      <trkpt lat="45.37369" lon="6.52568">
        <ele>1782.6</ele>
        <time>2014-01-28T08:36:25Z</time>
      </trkpt>
      <trkpt lat="45.37364" lon="6.52595">
        <ele>1780.81</ele>
        <time>2014-01-28T08:36:30Z</time>
      </trkpt>
      <trkpt lat="45.3736" lon="6.52623">
        <ele>1779.88</ele>
        <time>2014-01-28T08:36:35Z</time>
      </trkpt>
      <trkpt lat="45.37355" lon="6.52651">
        <ele>1779.65</ele>
        <time>2014-01-28T08:36:40Z</time>
      </trkpt>
      <trkpt lat="45.37351" lon="6.5268">
        <ele>1782.04</ele>
        <time>2014-01-28T08:36:45Z</time>
      </trkpt>
      <trkpt lat="45.37347" lon="6.52706">
        <ele>1785.9</ele>
        <time>2014-01-28T08:36:50Z</time>
      </trkpt>
      <trkpt lat="45.37342" lon="6.52735">
        <ele>1788.56</ele>
        <time>2014-01-28T08:36:55Z</time>
      </trkpt>
      <trkpt lat="45.37337" lon="6.52765">
        <ele>1789.41</ele>
        <time>2014-01-28T08:37:00Z</time>
      </trkpt>
      <trkpt lat="45.37333" lon="6.52793">
        <ele>1790.13</ele>
        <time>2014-01-28T08:37:05Z</time>
      </trkpt>
      <trkpt lat="45.37328" lon="6.52824">
        <ele>1792.91</ele>
        <time>2014-01-28T08:37:10Z</time>
      </trkpt>
      <trkpt lat="45.37324" lon="6.52851">
        <ele>1795.78</ele>
        <time>2014-01-28T08:37:15Z</time>
      </trkpt>
      <trkpt lat="45.37324" lon="6.52877">
        <ele>1798.77</ele>
        <time>2014-01-28T08:37:35Z</time>
      </trkpt>
      <trkpt lat="45.37304" lon="6.52881">
        <ele>1796.97</ele>
        <time>2014-01-28T08:38:57Z</time>
      </trkpt>
      <trkpt lat="45.37287" lon="6.52874">
        <ele>1794.09</ele>
        <time>2014-01-28T08:39:04Z</time>
      </trkpt>
      <trkpt lat="45.37271" lon="6.5286">
        <ele>1790.28</ele>
        <time>2014-01-28T08:39:15Z</time>
      </trkpt>
      <trkpt lat="45.37259" lon="6.52878">
        <ele>1788.86</ele>
        <time>2014-01-28T08:39:59Z</time>
      </trkpt>
      <trkpt lat="45.37248" lon="6.52905">
        <ele>1791.08</ele>
        <time>2014-01-28T08:40:15Z</time>
      </trkpt>
      <trkpt lat="45.37243" lon="6.52932">
        <ele>1796.71</ele>
        <time>2014-01-28T08:40:20Z</time>
      </trkpt>
      <trkpt lat="45.37239" lon="6.52957">
        <ele>1801.32</ele>
        <time>2014-01-28T08:40:24Z</time>
      </trkpt>
      <trkpt lat="45.3723" lon="6.52986">
        <ele>1805.43</ele>
        <time>2014-01-28T08:40:29Z</time>
      </trkpt>
      <trkpt lat="45.37224" lon="6.53011">
        <ele>1808.73</ele>
        <time>2014-01-28T08:40:33Z</time>
      </trkpt>
      <trkpt lat="45.37217" lon="6.5304">
        <ele>1812.55</ele>
        <time>2014-01-28T08:40:39Z</time>
      </trkpt>
      <trkpt lat="45.37212" lon="6.53069">
        <ele>1816.44</ele>
        <time>2014-01-28T08:40:44Z</time>
      </trkpt>
      <trkpt lat="45.37206" lon="6.53098">
        <ele>1821.22</ele>
        <time>2014-01-28T08:40:49Z</time>
      </trkpt>
      <trkpt lat="45.37199" lon="6.53127">
        <ele>1827.26</ele>
        <time>2014-01-28T08:40:54Z</time>
      </trkpt>
      <trkpt lat="45.3719" lon="6.53157">
        <ele>1836.37</ele>
        <time>2014-01-28T08:40:59Z</time>
      </trkpt>
      <trkpt lat="45.37181" lon="6.53184">
        <ele>1848.14</ele>
        <time>2014-01-28T08:41:04Z</time>
      </trkpt>
      <trkpt lat="45.37175" lon="6.53214">
        <ele>1857.86</ele>
        <time>2014-01-28T08:41:09Z</time>
      </trkpt>
      <trkpt lat="45.37169" lon="6.53242">
        <ele>1867.21</ele>
        <time>2014-01-28T08:41:14Z</time>
      </trkpt>
      <trkpt lat="45.37162" lon="6.53269">
        <ele>1873.2</ele>
        <time>2014-01-28T08:41:19Z</time>
      </trkpt>
      <trkpt lat="45.37154" lon="6.53297">
        <ele>1877.41</ele>
        <time>2014-01-28T08:41:24Z</time>
      </trkpt>
      <trkpt lat="45.37145" lon="6.53324">
        <ele>1880.78</ele>
        <time>2014-01-28T08:41:29Z</time>
      </trkpt>
      <trkpt lat="45.37136" lon="6.5335">
        <ele>1883.7</ele>
        <time>2014-01-28T08:41:34Z</time>
      </trkpt>
      <trkpt lat="45.37127" lon="6.53379">
        <ele>1887.34</ele>
        <time>2014-01-28T08:41:39Z</time>
      </trkpt>
      <trkpt lat="45.37118" lon="6.53408">
        <ele>1891.75</ele>
        <time>2014-01-28T08:41:44Z</time>
      </trkpt>
      <trkpt lat="45.3711" lon="6.53434">
        <ele>1897.22</ele>
        <time>2014-01-28T08:41:49Z</time>
      </trkpt>
      <trkpt lat="45.37103" lon="6.5346">
        <ele>1901.69</ele>
        <time>2014-01-28T08:41:54Z</time>
      </trkpt>
      <trkpt lat="45.37095" lon="6.53484">
        <ele>1905.03</ele>
        <time>2014-01-28T08:41:58Z</time>
      </trkpt>
      <trkpt lat="45.37087" lon="6.53512">
        <ele>1908.87</ele>
        <time>2014-01-28T08:42:03Z</time>
      </trkpt>
      <trkpt lat="45.3708" lon="6.53541">
        <ele>1913.74</ele>
        <time>2014-01-28T08:42:08Z</time>
      </trkpt>
      <trkpt lat="45.37072" lon="6.53568">
        <ele>1919.74</ele>
        <time>2014-01-28T08:42:13Z</time>
      </trkpt>
      <trkpt lat="45.37065" lon="6.53596">
        <ele>1926.2</ele>
        <time>2014-01-28T08:42:18Z</time>
      </trkpt>
      <trkpt lat="45.37057" lon="6.53624">
        <ele>1934.47</ele>
        <time>2014-01-28T08:42:23Z</time>
      </trkpt>
      <trkpt lat="45.37051" lon="6.53651">
        <ele>1941.26</ele>
        <time>2014-01-28T08:42:28Z</time>
      </trkpt>
      <trkpt lat="45.37043" lon="6.5368">
        <ele>1944.9</ele>
        <time>2014-01-28T08:42:33Z</time>
      </trkpt>
      <trkpt lat="45.37035" lon="6.53708">
        <ele>1952.1</ele>
        <time>2014-01-28T08:42:38Z</time>
      </trkpt>
      <trkpt lat="45.37028" lon="6.53735">
        <ele>1962.17</ele>
        <time>2014-01-28T08:42:43Z</time>
      </trkpt>
      <trkpt lat="45.3702" lon="6.53762">
        <ele>1968.32</ele>
        <time>2014-01-28T08:42:48Z</time>
      </trkpt>
      <trkpt lat="45.37011" lon="6.53791">
        <ele>1973.02</ele>
        <time>2014-01-28T08:42:53Z</time>
      </trkpt>
      <trkpt lat="45.37004" lon="6.53815">
        <ele>1977.13</ele>
        <time>2014-01-28T08:42:57Z</time>
      </trkpt>
      <trkpt lat="45.36997" lon="6.53841">
        <ele>1984.13</ele>
        <time>2014-01-28T08:43:02Z</time>
      </trkpt>
      <trkpt lat="45.36988" lon="6.53867">
        <ele>1991.13</ele>
        <time>2014-01-28T08:43:07Z</time>
      </trkpt>
      <trkpt lat="45.36982" lon="6.53897">
        <ele>1995.78</ele>
        <time>2014-01-28T08:43:12Z</time>
      </trkpt>
      <trkpt lat="45.36974" lon="6.53923">
        <ele>1999.24</ele>
        <time>2014-01-28T08:43:17Z</time>
      </trkpt>
      <trkpt lat="45.36964" lon="6.5395">
        <ele>2000.96</ele>
        <time>2014-01-28T08:43:22Z</time>
      </trkpt>
      <trkpt lat="45.36954" lon="6.53979">
        <ele>2004.16</ele>
        <time>2014-01-28T08:43:27Z</time>
      </trkpt>
      <trkpt lat="45.36948" lon="6.54007">
        <ele>2008.49</ele>
        <time>2014-01-28T08:43:32Z</time>
      </trkpt>
      <trkpt lat="45.36941" lon="6.54035">
        <ele>2012.46</ele>
        <time>2014-01-28T08:43:37Z</time>
      </trkpt>
      <trkpt lat="45.36934" lon="6.54062">
        <ele>2016.49</ele>
        <time>2014-01-28T08:43:42Z</time>
      </trkpt>
      <trkpt lat="45.36928" lon="6.5409">
        <ele>2026.42</ele>
        <time>2014-01-28T08:43:47Z</time>
      </trkpt>
      <trkpt lat="45.3692" lon="6.54115">
        <ele>2037.39</ele>
        <time>2014-01-28T08:43:52Z</time>
      </trkpt>
      <trkpt lat="45.36913" lon="6.54141">
        <ele>2049.6</ele>
        <time>2014-01-28T08:43:57Z</time>
      </trkpt>
      <trkpt lat="45.36906" lon="6.54166">
        <ele>2060.57</ele>
        <time>2014-01-28T08:44:02Z</time>
      </trkpt>
      <trkpt lat="45.36901" lon="6.5419">
        <ele>2070.76</ele>
        <time>2014-01-28T08:44:06Z</time>
      </trkpt>
      <trkpt lat="45.36894" lon="6.54219">
        <ele>2079.32</ele>
        <time>2014-01-28T08:44:11Z</time>
      </trkpt>
      <trkpt lat="45.36886" lon="6.54248">
        <ele>2085.2</ele>
        <time>2014-01-28T08:44:16Z</time>
      </trkpt>
      <trkpt lat="45.36876" lon="6.54274">
        <ele>2091.5</ele>
        <time>2014-01-28T08:44:21Z</time>
      </trkpt>
      <trkpt lat="45.3687" lon="6.54302">
        <ele>2098.15</ele>
        <time>2014-01-28T08:44:26Z</time>
      </trkpt>
      <trkpt lat="45.36864" lon="6.54329">
        <ele>2101.87</ele>
        <time>2014-01-28T08:44:31Z</time>
      </trkpt>
      <trkpt lat="45.36856" lon="6.54352">
        <ele>2097.78</ele>
        <time>2014-01-28T08:44:35Z</time>
      </trkpt>
      <trkpt lat="45.36846" lon="6.5438">
        <ele>2099.32</ele>
        <time>2014-01-28T08:44:40Z</time>
      </trkpt>
      <trkpt lat="45.36837" lon="6.54407">
        <ele>2102.66</ele>
        <time>2014-01-28T08:44:45Z</time>
      </trkpt>
      <trkpt lat="45.3683" lon="6.54436">
        <ele>2105.21</ele>
        <time>2014-01-28T08:44:50Z</time>
      </trkpt>
      <trkpt lat="45.36822" lon="6.54464">
        <ele>2111.66</ele>
        <time>2014-01-28T08:44:55Z</time>
      </trkpt>
      <trkpt lat="45.36816" lon="6.54493">
        <ele>2121.03</ele>
        <time>2014-01-28T08:45:00Z</time>
      </trkpt>
      <trkpt lat="45.36808" lon="6.5452">
        <ele>2126.57</ele>
        <time>2014-01-28T08:45:05Z</time>
      </trkpt>
      <trkpt lat="45.36799" lon="6.54549">
        <ele>2129.29</ele>
        <time>2014-01-28T08:45:10Z</time>
      </trkpt>
      <trkpt lat="45.36789" lon="6.54577">
        <ele>2130.54</ele>
        <time>2014-01-28T08:45:15Z</time>
      </trkpt>
      <trkpt lat="45.3678" lon="6.54605">
        <ele>2131.23</ele>
        <time>2014-01-28T08:45:20Z</time>
      </trkpt>
      <trkpt lat="45.36772" lon="6.54633">
        <ele>2134.28</ele>
        <time>2014-01-28T08:45:25Z</time>
      </trkpt>
      <trkpt lat="45.36766" lon="6.54661">
        <ele>2141.49</ele>
        <time>2014-01-28T08:45:30Z</time>
      </trkpt>
      <trkpt lat="45.36762" lon="6.54689">
        <ele>2148.64</ele>
        <time>2014-01-28T08:45:35Z</time>
      </trkpt>
      <trkpt lat="45.36755" lon="6.54716">
        <ele>2158.21</ele>
        <time>2014-01-28T08:45:40Z</time>
      </trkpt>
      <trkpt lat="45.36747" lon="6.54742">
        <ele>2178.12</ele>
        <time>2014-01-28T08:45:45Z</time>
      </trkpt>
      <trkpt lat="45.36742" lon="6.54767">
        <ele>2190.02</ele>
        <time>2014-01-28T08:45:50Z</time>
      </trkpt>
      <trkpt lat="45.36734" lon="6.54795">
        <ele>2191.73</ele>
        <time>2014-01-28T08:45:55Z</time>
      </trkpt>
      <trkpt lat="45.36724" lon="6.54817">
        <ele>2189.82</ele>
        <time>2014-01-28T08:45:59Z</time>
      </trkpt>
      <trkpt lat="45.36715" lon="6.5484">
        <ele>2191.94</ele>
        <time>2014-01-28T08:46:03Z</time>
      </trkpt>
      <trkpt lat="45.36706" lon="6.54869">
        <ele>2195.87</ele>
        <time>2014-01-28T08:46:08Z</time>
      </trkpt>
      <trkpt lat="45.36699" lon="6.54899">
        <ele>2198.93</ele>
        <time>2014-01-28T08:46:13Z</time>
      </trkpt>
      <trkpt lat="45.36692" lon="6.54925">
        <ele>2199.06</ele>
        <time>2014-01-28T08:46:17Z</time>
      </trkpt>
      <trkpt lat="45.36685" lon="6.54951">
        <ele>2194.96</ele>
        <time>2014-01-28T08:46:22Z</time>
      </trkpt>
      <trkpt lat="45.36676" lon="6.54978">
        <ele>2195.78</ele>
        <time>2014-01-28T08:46:27Z</time>
      </trkpt>
      <trkpt lat="45.36667" lon="6.55007">
        <ele>2201.42</ele>
        <time>2014-01-28T08:46:32Z</time>
      </trkpt>
      <trkpt lat="45.3666" lon="6.55036">
        <ele>2206.44</ele>
        <time>2014-01-28T08:46:37Z</time>
      </trkpt>
      <trkpt lat="45.36655" lon="6.55065">
        <ele>2215.18</ele>
        <time>2014-01-28T08:46:42Z</time>
      </trkpt>
      <trkpt lat="45.3665" lon="6.55094">
        <ele>2222.99</ele>
        <time>2014-01-28T08:46:47Z</time>
      </trkpt>
      <trkpt lat="45.36644" lon="6.5512">
        <ele>2230.71</ele>
        <time>2014-01-28T08:46:52Z</time>
      </trkpt>
      <trkpt lat="45.36637" lon="6.55149">
        <ele>2238.82</ele>
        <time>2014-01-28T08:46:57Z</time>
      </trkpt>
      <trkpt lat="45.36628" lon="6.55177">
        <ele>2245.09</ele>
        <time>2014-01-28T08:47:02Z</time>
      </trkpt>
      <trkpt lat="45.36619" lon="6.55204">
        <ele>2250.07</ele>
        <time>2014-01-28T08:47:07Z</time>
      </trkpt>
      <trkpt lat="45.36609" lon="6.55231">
        <ele>2253.77</ele>
        <time>2014-01-28T08:47:12Z</time>
      </trkpt>
      <trkpt lat="45.36601" lon="6.5526">
        <ele>2258.96</ele>
        <time>2014-01-28T08:47:17Z</time>
      </trkpt>
      <trkpt lat="45.36595" lon="6.55288">
        <ele>2263.36</ele>
        <time>2014-01-28T08:47:22Z</time>
      </trkpt>
      <trkpt lat="45.36586" lon="6.55314">
        <ele>2266.27</ele>
        <time>2014-01-28T08:47:27Z</time>
      </trkpt>
      <trkpt lat="45.36577" lon="6.55343">
        <ele>2268.63</ele>
        <time>2014-01-28T08:47:32Z</time>
      </trkpt>
      <trkpt lat="45.36569" lon="6.55372">
        <ele>2276.11</ele>
        <time>2014-01-28T08:47:37Z</time>
      </trkpt>
      <trkpt lat="45.36561" lon="6.554">
        <ele>2283.56</ele>
        <time>2014-01-28T08:47:42Z</time>
      </trkpt>
      <trkpt lat="45.36552" lon="6.55428">
        <ele>2289.48</ele>
        <time>2014-01-28T08:47:47Z</time>
      </trkpt>
      <trkpt lat="45.36544" lon="6.55456">
        <ele>2293.5</ele>
        <time>2014-01-28T08:47:52Z</time>
      </trkpt>
      <trkpt lat="45.36537" lon="6.55484">
        <ele>2297.17</ele>
        <time>2014-01-28T08:47:57Z</time>
      </trkpt>
      <trkpt lat="45.36533" lon="6.55513">
        <ele>2304.64</ele>
        <time>2014-01-28T08:48:02Z</time>
      </trkpt>
      <trkpt lat="45.36529" lon="6.5554">
        <ele>2313.27</ele>
        <time>2014-01-28T08:48:07Z</time>
      </trkpt>
      <trkpt lat="45.36523" lon="6.55568">
        <ele>2320.85</ele>
        <time>2014-01-28T08:48:12Z</time>
      </trkpt>
      <trkpt lat="45.36515" lon="6.55596">
        <ele>2330.79</ele>
        <time>2014-01-28T08:48:18Z</time>
      </trkpt>
      <trkpt lat="45.36506" lon="6.5562">
        <ele>2344.53</ele>
        <time>2014-01-28T08:48:23Z</time>
      </trkpt>
      <trkpt lat="45.365" lon="6.55647">
        <ele>2364.12</ele>
        <time>2014-01-28T08:48:28Z</time>
      </trkpt>
      <trkpt lat="45.36495" lon="6.55672">
        <ele>2375.26</ele>
        <time>2014-01-28T08:48:33Z</time>
      </trkpt>
      <trkpt lat="45.36492" lon="6.55698">
        <ele>2387.31</ele>
        <time>2014-01-28T08:48:38Z</time>
      </trkpt>
      <trkpt lat="45.36487" lon="6.55726">
        <ele>2397.35</ele>
        <time>2014-01-28T08:48:43Z</time>
      </trkpt>
      <trkpt lat="45.36484" lon="6.55751">
        <ele>2403.02</ele>
        <time>2014-01-28T08:48:51Z</time>
      </trkpt>
      <trkpt lat="45.36503" lon="6.55748">
        <ele>2405.99</ele>
        <time>2014-01-28T08:49:01Z</time>
      </trkpt>
      <trkpt lat="45.3652" lon="6.55728">
        <ele>2404.25</ele>
        <time>2014-01-28T08:49:13Z</time>
      </trkpt>
      <trkpt lat="45.36539" lon="6.55717">
        <ele>2403.42</ele>
        <time>2014-01-28T08:49:19Z</time>
      </trkpt>
      <trkpt lat="45.36557" lon="6.55706">
        <ele>2406.48</ele>
        <time>2014-01-28T08:49:24Z</time>
      </trkpt>
      <trkpt lat="45.36574" lon="6.55692">
        <ele>2404.91</ele>
        <time>2014-01-28T08:49:30Z</time>
      </trkpt>
      <trkpt lat="45.36591" lon="6.55703">
        <ele>2401.03</ele>
        <time>2014-01-28T08:49:37Z</time>
      </trkpt>
      <trkpt lat="45.36601" lon="6.55678">
        <ele>2394.05</ele>
        <time>2014-01-28T08:50:47Z</time>
      </trkpt>
      <trkpt lat="45.36617" lon="6.55658">
        <ele>2384.55</ele>
        <time>2014-01-28T08:50:50Z</time>
      </trkpt>
      <trkpt lat="45.36636" lon="6.55637">
        <ele>2377.03</ele>
        <time>2014-01-28T08:50:53Z</time>
      </trkpt>
      <trkpt lat="45.36658" lon="6.55626">
        <ele>2367.49</ele>
        <time>2014-01-28T08:50:56Z</time>
      </trkpt>
      <trkpt lat="45.36672" lon="6.55606">
        <ele>2358.32</ele>
        <time>2014-01-28T08:50:59Z</time>
      </trkpt>
      <trkpt lat="45.36687" lon="6.55585">
        <ele>2353.63</ele>
        <time>2014-01-28T08:51:02Z</time>
      </trkpt>
      <trkpt lat="45.36702" lon="6.55561">
        <ele>2349.33</ele>
        <time>2014-01-28T08:51:05Z</time>
      </trkpt>
      <trkpt lat="45.36714" lon="6.5554">
        <ele>2345.28</ele>
        <time>2014-01-28T08:51:07Z</time>
      </trkpt>
      <trkpt lat="45.36725" lon="6.55518">
        <ele>2341.87</ele>
        <time>2014-01-28T08:51:09Z</time>
      </trkpt>
      <trkpt lat="45.36736" lon="6.55495">
        <ele>2339.75</ele>
        <time>2014-01-28T08:51:11Z</time>
      </trkpt>
      <trkpt lat="45.36743" lon="6.55467">
        <ele>2338.53</ele>
        <time>2014-01-28T08:51:13Z</time>
      </trkpt>
      <trkpt lat="45.36752" lon="6.55442">
        <ele>2339.5</ele>
        <time>2014-01-28T08:51:15Z</time>
      </trkpt>
      <trkpt lat="45.36763" lon="6.55411">
        <ele>2335.84</ele>
        <time>2014-01-28T08:51:18Z</time>
      </trkpt>
      <trkpt lat="45.36771" lon="6.55381">
        <ele>2331.88</ele>
        <time>2014-01-28T08:51:21Z</time>
      </trkpt>
      <trkpt lat="45.36786" lon="6.55365">
        <ele>2329.85</ele>
        <time>2014-01-28T08:51:23Z</time>
      </trkpt>
      <trkpt lat="45.36806" lon="6.55345">
        <ele>2323.13</ele>
        <time>2014-01-28T08:51:25Z</time>
      </trkpt>
      <trkpt lat="45.36826" lon="6.55327">
        <ele>2313.2</ele>
        <time>2014-01-28T08:51:27Z</time>
      </trkpt>
      <trkpt lat="45.36837" lon="6.55305">
        <ele>2308.06</ele>
        <time>2014-01-28T08:51:29Z</time>
      </trkpt>
      <trkpt lat="45.36847" lon="6.55283">
        <ele>2307.45</ele>
        <time>2014-01-28T08:51:31Z</time>
      </trkpt>
      <trkpt lat="45.36851" lon="6.5525">
        <ele>2305.26</ele>
        <time>2014-01-28T08:51:34Z</time>
      </trkpt>
      <trkpt lat="45.36855" lon="6.55221">
        <ele>2304.32</ele>
        <time>2014-01-28T08:51:37Z</time>
      </trkpt>
      <trkpt lat="45.36871" lon="6.55197">
        <ele>2305.43</ele>
        <time>2014-01-28T08:51:40Z</time>
      </trkpt>
      <trkpt lat="45.36893" lon="6.55181">
        <ele>2306.06</ele>
        <time>2014-01-28T08:51:43Z</time>
      </trkpt>
      <trkpt lat="45.36913" lon="6.55163">
        <ele>2301.29</ele>
        <time>2014-01-28T08:51:46Z</time>
      </trkpt>
      <trkpt lat="45.36932" lon="6.55143">
        <ele>2299.07</ele>
        <time>2014-01-28T08:51:49Z</time>
      </trkpt>
      <trkpt lat="45.3695" lon="6.55122">
        <ele>2297.39</ele>
        <time>2014-01-28T08:51:52Z</time>
      </trkpt>
      <trkpt lat="45.36967" lon="6.551">
        <ele>2295.26</ele>
        <time>2014-01-28T08:51:55Z</time>
      </trkpt>
      <trkpt lat="45.36981" lon="6.55077">
        <ele>2293.5</ele>
        <time>2014-01-28T08:51:58Z</time>
      </trkpt>
      <trkpt lat="45.36996" lon="6.55057">
        <ele>2293.08</ele>
        <time>2014-01-28T08:52:01Z</time>
      </trkpt>
      <trkpt lat="45.37009" lon="6.55038">
        <ele>2292.01</ele>
        <time>2014-01-28T08:52:04Z</time>
      </trkpt>
      <trkpt lat="45.3702" lon="6.55017">
        <ele>2289.45</ele>
        <time>2014-01-28T08:52:09Z</time>
      </trkpt>
      <trkpt lat="45.37027" lon="6.54992">
        <ele>2285.13</ele>
        <time>2014-01-28T08:52:16Z</time>
      </trkpt>
      <trkpt lat="45.37018" lon="6.54966">
        <ele>2277.7</ele>
        <time>2014-01-28T08:52:22Z</time>
      </trkpt>
      <trkpt lat="45.37026" lon="6.54938">
        <ele>2270.54</ele>
        <time>2014-01-28T08:54:13Z</time>
      </trkpt>
      <trkpt lat="45.37035" lon="6.54911">
        <ele>2262.47</ele>
        <time>2014-01-28T08:54:17Z</time>
      </trkpt>
      <trkpt lat="45.37032" lon="6.54884">
        <ele>2255.61</ele>
        <time>2014-01-28T08:54:23Z</time>
      </trkpt>
      <trkpt lat="45.37047" lon="6.54863">
        <ele>2251.93</ele>
        <time>2014-01-28T08:54:29Z</time>
      </trkpt>
      <trkpt lat="45.37058" lon="6.54842">
        <ele>2246.12</ele>
        <time>2014-01-28T08:54:36Z</time>
      </trkpt>
      <trkpt lat="45.37052" lon="6.54815">
        <ele>2236.9</ele>
        <time>2014-01-28T08:54:42Z</time>
      </trkpt>
      <trkpt lat="45.3706" lon="6.54792">
        <ele>2229.65</ele>
        <time>2014-01-28T08:54:47Z</time>
      </trkpt>
      <trkpt lat="45.37074" lon="6.54771">
        <ele>2221.83</ele>
        <time>2014-01-28T08:54:53Z</time>
      </trkpt>
      <trkpt lat="45.37085" lon="6.54744">
        <ele>2211.15</ele>
        <time>2014-01-28T08:54:58Z</time>
      </trkpt>
      <trkpt lat="45.371" lon="6.54724">
        <ele>2207.46</ele>
        <time>2014-01-28T08:55:02Z</time>
      </trkpt>
      <trkpt lat="45.37096" lon="6.54693">
        <ele>2196.25</ele>
        <time>2014-01-28T08:55:08Z</time>
      </trkpt>
      <trkpt lat="45.37112" lon="6.5467">
        <ele>2189.73</ele>
        <time>2014-01-28T08:55:13Z</time>
      </trkpt>
      <trkpt lat="45.37128" lon="6.54654">
        <ele>2187.2</ele>
        <time>2014-01-28T08:55:17Z</time>
      </trkpt>
      <trkpt lat="45.37143" lon="6.54638">
        <ele>2184.39</ele>
        <time>2014-01-28T08:55:21Z</time>
      </trkpt>
      <trkpt lat="45.37129" lon="6.54619">
        <ele>2175.15</ele>
        <time>2014-01-28T08:55:31Z</time>
      </trkpt>
      <trkpt lat="45.37109" lon="6.54615">
        <ele>2166.58</ele>
        <time>2014-01-28T08:55:36Z</time>
      </trkpt>
      <trkpt lat="45.3712" lon="6.54591">
        <ele>2161.61</ele>
        <time>2014-01-28T08:55:42Z</time>
      </trkpt>
      <trkpt lat="45.37129" lon="6.54564">
        <ele>2153.31</ele>
        <time>2014-01-28T08:55:50Z</time>
      </trkpt>
      <trkpt lat="45.37135" lon="6.54539">
        <ele>2143.57</ele>
        <time>2014-01-28T08:55:54Z</time>
      </trkpt>
      <trkpt lat="45.37136" lon="6.54509">
        <ele>2136.49</ele>
        <time>2014-01-28T08:55:59Z</time>
      </trkpt>
      <trkpt lat="45.37149" lon="6.54486">
        <ele>2134.34</ele>
        <time>2014-01-28T08:56:04Z</time>
      </trkpt>
      <trkpt lat="45.37139" lon="6.54459">
        <ele>2128.8</ele>
        <time>2014-01-28T08:56:13Z</time>
      </trkpt>
      <trkpt lat="45.37155" lon="6.54441">
        <ele>2124.18</ele>
        <time>2014-01-28T08:56:17Z</time>
      </trkpt>
      <trkpt lat="45.37165" lon="6.54416">
        <ele>2118.84</ele>
        <time>2014-01-28T08:56:22Z</time>
      </trkpt>
      <trkpt lat="45.37173" lon="6.54389">
        <ele>2109.03</ele>
        <time>2014-01-28T08:56:28Z</time>
      </trkpt>
      <trkpt lat="45.37187" lon="6.54368">
        <ele>2100.23</ele>
        <time>2014-01-28T08:56:34Z</time>
      </trkpt>
      <trkpt lat="45.37192" lon="6.54342">
        <ele>2091.18</ele>
        <time>2014-01-28T08:56:41Z</time>
      </trkpt>
      <trkpt lat="45.37205" lon="6.54319">
        <ele>2084.11</ele>
        <time>2014-01-28T08:56:46Z</time>
      </trkpt>
      <trkpt lat="45.3722" lon="6.543">
        <ele>2080.58</ele>
        <time>2014-01-28T08:57:02Z</time>
      </trkpt>
      <trkpt lat="45.37221" lon="6.54274">
        <ele>2070.92</ele>
        <time>2014-01-28T08:57:13Z</time>
      </trkpt>
      <trkpt lat="45.37234" lon="6.54257">
        <ele>2062.89</ele>
        <time>2014-01-28T08:57:16Z</time>
      </trkpt>
      <trkpt lat="45.37238" lon="6.54225">
        <ele>2051.31</ele>
        <time>2014-01-28T08:57:20Z</time>
      </trkpt>
      <trkpt lat="45.37248" lon="6.54199">
        <ele>2047.47</ele>
        <time>2014-01-28T08:57:25Z</time>
      </trkpt>
      <trkpt lat="45.37262" lon="6.54174">
        <ele>2043.45</ele>
        <time>2014-01-28T08:57:30Z</time>
      </trkpt>
      <trkpt lat="45.37272" lon="6.54149">
        <ele>2038.32</ele>
        <time>2014-01-28T08:57:35Z</time>
      </trkpt>
      <trkpt lat="45.37272" lon="6.5412">
        <ele>2031.8</ele>
        <time>2014-01-28T08:57:42Z</time>
      </trkpt>
      <trkpt lat="45.37279" lon="6.54096">
        <ele>2026.66</ele>
        <time>2014-01-28T08:57:46Z</time>
      </trkpt>
      <trkpt lat="45.37289" lon="6.54067">
        <ele>2020.55</ele>
        <time>2014-01-28T08:57:53Z</time>
      </trkpt>
      <trkpt lat="45.37293" lon="6.54037">
        <ele>2015.03</ele>
        <time>2014-01-28T08:57:57Z</time>
      </trkpt>
      <trkpt lat="45.37308" lon="6.54012">
        <ele>2009.41</ele>
        <time>2014-01-28T08:58:01Z</time>
      </trkpt>
      <trkpt lat="45.37321" lon="6.5399">
        <ele>2002.3</ele>
        <time>2014-01-28T08:58:06Z</time>
      </trkpt>
      <trkpt lat="45.37335" lon="6.53962">
        <ele>1992.1</ele>
        <time>2014-01-28T08:58:12Z</time>
      </trkpt>
      <trkpt lat="45.37338" lon="6.53937">
        <ele>1985.88</ele>
        <time>2014-01-28T08:58:18Z</time>
      </trkpt>
      <trkpt lat="45.37345" lon="6.53908">
        <ele>1979.49</ele>
        <time>2014-01-28T08:58:31Z</time>
      </trkpt>
      <trkpt lat="45.37342" lon="6.5388">
        <ele>1974.28</ele>
        <time>2014-01-28T08:58:37Z</time>
      </trkpt>
      <trkpt lat="45.37334" lon="6.53855">
        <ele>1969.59</ele>
        <time>2014-01-28T08:58:42Z</time>
      </trkpt>
      <trkpt lat="45.37346" lon="6.53832">
        <ele>1964.8</ele>
        <time>2014-01-28T08:58:46Z</time>
      </trkpt>
      <trkpt lat="45.37358" lon="6.53809">
        <ele>1959.12</ele>
        <time>2014-01-28T08:58:51Z</time>
      </trkpt>
      <trkpt lat="45.37356" lon="6.53783">
        <ele>1954.14</ele>
        <time>2014-01-28T08:58:54Z</time>
      </trkpt>
      <trkpt lat="45.3735" lon="6.53754">
        <ele>1948.95</ele>
        <time>2014-01-28T08:58:58Z</time>
      </trkpt>
      <trkpt lat="45.37334" lon="6.5374">
        <ele>1947.7</ele>
        <time>2014-01-28T08:59:03Z</time>
      </trkpt>
      <trkpt lat="45.37339" lon="6.53713">
        <ele>1941.02</ele>
        <time>2014-01-28T08:59:10Z</time>
      </trkpt>
      <trkpt lat="45.37332" lon="6.53686">
        <ele>1933.73</ele>
        <time>2014-01-28T08:59:18Z</time>
      </trkpt>
      <trkpt lat="45.37336" lon="6.53658">
        <ele>1926.76</ele>
        <time>2014-01-28T08:59:21Z</time>
      </trkpt>
      <trkpt lat="45.37343" lon="6.53632">
        <ele>1923.4</ele>
        <time>2014-01-28T08:59:25Z</time>
      </trkpt>
      <trkpt lat="45.37337" lon="6.53605">
        <ele>1919.08</ele>
        <time>2014-01-28T08:59:28Z</time>
      </trkpt>
      <trkpt lat="45.37323" lon="6.53585">
        <ele>1916.46</ele>
        <time>2014-01-28T08:59:31Z</time>
      </trkpt>
      <trkpt lat="45.37305" lon="6.53567">
        <ele>1912.76</ele>
        <time>2014-01-28T08:59:35Z</time>
      </trkpt>
      <trkpt lat="45.37291" lon="6.53545">
        <ele>1910.76</ele>
        <time>2014-01-28T08:59:39Z</time>
      </trkpt>
      <trkpt lat="45.37281" lon="6.53523">
        <ele>1908.98</ele>
        <time>2014-01-28T08:59:43Z</time>
      </trkpt>
      <trkpt lat="45.3727" lon="6.53498">
        <ele>1908.17</ele>
        <time>2014-01-28T08:59:47Z</time>
      </trkpt>
      <trkpt lat="45.37253" lon="6.53481">
        <ele>1907.02</ele>
        <time>2014-01-28T08:59:51Z</time>
      </trkpt>
      <trkpt lat="45.37243" lon="6.53458">
        <ele>1904.46</ele>
        <time>2014-01-28T09:00:17Z</time>
      </trkpt>
      <trkpt lat="45.37231" lon="6.53437">
        <ele>1900.94</ele>
        <time>2014-01-28T09:00:36Z</time>
      </trkpt>
      <trkpt lat="45.37222" lon="6.53415">
        <ele>1894.6</ele>
        <time>2014-01-28T09:00:56Z</time>
      </trkpt>
      <trkpt lat="45.37209" lon="6.53396">
        <ele>1889.37</ele>
        <time>2014-01-28T09:01:26Z</time>
      </trkpt>
      <trkpt lat="45.37212" lon="6.5337">
        <ele>1883.09</ele>
        <time>2014-01-28T09:01:40Z</time>
      </trkpt>
      <trkpt lat="45.3722" lon="6.53342">
        <ele>1873.59</ele>
        <time>2014-01-28T09:01:48Z</time>
      </trkpt>
      <trkpt lat="45.37229" lon="6.53318">
        <ele>1866.98</ele>
        <time>2014-01-28T09:01:52Z</time>
      </trkpt>
      <trkpt lat="45.37237" lon="6.53295">
        <ele>1862.19</ele>
        <time>2014-01-28T09:01:56Z</time>
      </trkpt>
      <trkpt lat="45.37247" lon="6.5327">
        <ele>1857.31</ele>
        <time>2014-01-28T09:02:01Z</time>
      </trkpt>
      <trkpt lat="45.37254" lon="6.53246">
        <ele>1853.04</ele>
        <time>2014-01-28T09:02:05Z</time>
      </trkpt>
      <trkpt lat="45.37249" lon="6.53222">
        <ele>1846.93</ele>
        <time>2014-01-28T09:02:14Z</time>
      </trkpt>
      <trkpt lat="45.37233" lon="6.53202">
        <ele>1842.03</ele>
        <time>2014-01-28T09:02:19Z</time>
      </trkpt>
      <trkpt lat="45.37243" lon="6.53177">
        <ele>1837.66</ele>
        <time>2014-01-28T09:02:25Z</time>
      </trkpt>
      <trkpt lat="45.37228" lon="6.53156">
        <ele>1832.42</ele>
        <time>2014-01-28T09:02:30Z</time>
      </trkpt>
      <trkpt lat="45.37242" lon="6.5313">
        <ele>1827.61</ele>
        <time>2014-01-28T09:02:36Z</time>
      </trkpt>
      <trkpt lat="45.37251" lon="6.531">
        <ele>1821.09</ele>
        <time>2014-01-28T09:02:40Z</time>
      </trkpt>
      <trkpt lat="45.37258" lon="6.53075">
        <ele>1816.99</ele>
        <time>2014-01-28T09:02:44Z</time>
      </trkpt>
      <trkpt lat="45.37267" lon="6.53045">
        <ele>1813.07</ele>
        <time>2014-01-28T09:02:49Z</time>
      </trkpt>
      <trkpt lat="45.37282" lon="6.53016">
        <ele>1808.77</ele>
        <time>2014-01-28T09:02:52Z</time>
      </trkpt>
      <trkpt lat="45.37295" lon="6.52987">
        <ele>1806.23</ele>
        <time>2014-01-28T09:02:55Z</time>
      </trkpt>
      <trkpt lat="45.37304" lon="6.52961">
        <ele>1804.06</ele>
        <time>2014-01-28T09:02:58Z</time>
      </trkpt>
      <trkpt lat="45.37299" lon="6.52928">
        <ele>1801.02</ele>
        <time>2014-01-28T09:03:02Z</time>
      </trkpt>
      <trkpt lat="45.37296" lon="6.52899">
        <ele>1797.69</ele>
        <time>2014-01-28T09:03:05Z</time>
      </trkpt>
      <trkpt lat="45.37296" lon="6.52867">
        <ele>1794.57</ele>
        <time>2014-01-28T09:03:08Z</time>
      </trkpt>
      <trkpt lat="45.37296" lon="6.52841">
        <ele>1792.52</ele>
        <time>2014-01-28T09:03:10Z</time>
      </trkpt>
      <trkpt lat="45.37296" lon="6.52814">
        <ele>1791.5</ele>
        <time>2014-01-28T09:03:12Z</time>
      </trkpt>
      <trkpt lat="45.37296" lon="6.52775">
        <ele>1789.39</ele>
        <time>2014-01-28T09:03:15Z</time>
      </trkpt>
      <trkpt lat="45.37295" lon="6.5275">
        <ele>1787.3</ele>
        <time>2014-01-28T09:03:17Z</time>
      </trkpt>
      <trkpt lat="45.37295" lon="6.52723">
        <ele>1782.18</ele>
        <time>2014-01-28T09:03:19Z</time>
      </trkpt>
      <trkpt lat="45.37293" lon="6.52693">
        <ele>1778.54</ele>
        <time>2014-01-28T09:03:21Z</time>
      </trkpt>
      <trkpt lat="45.3729" lon="6.52658">
        <ele>1775.62</ele>
        <time>2014-01-28T09:03:23Z</time>
      </trkpt>
      <trkpt lat="45.37283" lon="6.52622">
        <ele>1772.38</ele>
        <time>2014-01-28T09:03:25Z</time>
      </trkpt>
      <trkpt lat="45.37277" lon="6.5259">
        <ele>1769.47</ele>
        <time>2014-01-28T09:03:27Z</time>
      </trkpt>
      <trkpt lat="45.37273" lon="6.52562">
        <ele>1767.97</ele>
        <time>2014-01-28T09:03:29Z</time>
      </trkpt>
      <trkpt lat="45.37273" lon="6.52526">
        <ele>1765.08</ele>
        <time>2014-01-28T09:03:32Z</time>
      </trkpt>
      <trkpt lat="45.37286" lon="6.52499">
        <ele>1764.02</ele>
        <time>2014-01-28T09:03:35Z</time>
      </trkpt>
      <trkpt lat="45.37301" lon="6.52475">
        <ele>1760.86</ele>
        <time>2014-01-28T09:03:38Z</time>
      </trkpt>
      <trkpt lat="45.37315" lon="6.52454">
        <ele>1758.59</ele>
        <time>2014-01-28T09:03:41Z</time>
      </trkpt>
      <trkpt lat="45.37328" lon="6.52434">
        <ele>1758.98</ele>
        <time>2014-01-28T09:03:44Z</time>
      </trkpt>
      <trkpt lat="45.37345" lon="6.52408">
        <ele>1757.78</ele>
        <time>2014-01-28T09:03:47Z</time>
      </trkpt>
      <trkpt lat="45.37357" lon="6.52387">
        <ele>1755.89</ele>
        <time>2014-01-28T09:03:49Z</time>
      </trkpt>
      <trkpt lat="45.37378" lon="6.52373">
        <ele>1754.62</ele>
        <time>2014-01-28T09:03:52Z</time>
      </trkpt>
      <trkpt lat="45.37405" lon="6.52367">
        <ele>1756.4</ele>
        <time>2014-01-28T09:03:55Z</time>
      </trkpt>
      <trkpt lat="45.37426" lon="6.5236">
        <ele>1752.69</ele>
        <time>2014-01-28T09:03:57Z</time>
      </trkpt>
      <trkpt lat="45.37446" lon="6.52355">
        <ele>1746.29</ele>
        <time>2014-01-28T09:03:59Z</time>
      </trkpt>
      <trkpt lat="45.37463" lon="6.52339">
        <ele>1743.43</ele>
        <time>2014-01-28T09:04:01Z</time>
      </trkpt>
      <trkpt lat="45.3748" lon="6.52326">
        <ele>1738.6</ele>
        <time>2014-01-28T09:04:03Z</time>
      </trkpt>
      <trkpt lat="45.37499" lon="6.52314">
        <ele>1735.56</ele>
        <time>2014-01-28T09:04:05Z</time>
      </trkpt>
      <trkpt lat="45.37517" lon="6.52298">
        <ele>1731.57</ele>
        <time>2014-01-28T09:04:07Z</time>
      </trkpt>
      <trkpt lat="45.37532" lon="6.52273">
        <ele>1725.78</ele>
        <time>2014-01-28T09:04:09Z</time>
      </trkpt>
      <trkpt lat="45.37543" lon="6.52247">
        <ele>1722.8</ele>
        <time>2014-01-28T09:04:11Z</time>
      </trkpt>
      <trkpt lat="45.3755" lon="6.5222">
        <ele>1718.98</ele>
        <time>2014-01-28T09:04:13Z</time>
      </trkpt>
      <trkpt lat="45.3755" lon="6.5219">
        <ele>1714.5</ele>
        <time>2014-01-28T09:04:15Z</time>
      </trkpt>
      <trkpt lat="45.37553" lon="6.52153">
        <ele>1710.53</ele>
        <time>2014-01-28T09:04:18Z</time>
      </trkpt>
      <trkpt lat="45.37568" lon="6.52129">
        <ele>1712.79</ele>
        <time>2014-01-28T09:04:21Z</time>
      </trkpt>
      <trkpt lat="45.37588" lon="6.52124">
        <ele>1717.06</ele>
        <time>2014-01-28T09:04:24Z</time>
      </trkpt>
      <trkpt lat="45.37606" lon="6.52128">
        <ele>1717.65</ele>
        <time>2014-01-28T09:04:26Z</time>
      </trkpt>
      <trkpt lat="45.37629" lon="6.52143">
        <ele>1718.43</ele>
        <time>2014-01-28T09:04:29Z</time>
      </trkpt>
      <trkpt lat="45.37652" lon="6.52146">
        <ele>1713.84</ele>
        <time>2014-01-28T09:04:32Z</time>
      </trkpt>
      <trkpt lat="45.37666" lon="6.52125">
        <ele>1705.81</ele>
        <time>2014-01-28T09:04:35Z</time>
      </trkpt>
      <trkpt lat="45.37659" lon="6.52099">
        <ele>1702.28</ele>
        <time>2014-01-28T09:04:38Z</time>
      </trkpt>
      <trkpt lat="45.37642" lon="6.52077">
        <ele>1701.02</ele>
        <time>2014-01-28T09:04:41Z</time>
      </trkpt>
      <trkpt lat="45.37625" lon="6.52051">
        <ele>1697.42</ele>
        <time>2014-01-28T09:04:44Z</time>
      </trkpt>
      <trkpt lat="45.37611" lon="6.52022">
        <ele>1694.77</ele>
        <time>2014-01-28T09:04:47Z</time>
      </trkpt>
      <trkpt lat="45.37606" lon="6.51994">
        <ele>1689.2</ele>
        <time>2014-01-28T09:04:50Z</time>
      </trkpt>
      <trkpt lat="45.37605" lon="6.51965">
        <ele>1682.78</ele>
        <time>2014-01-28T09:04:53Z</time>
      </trkpt>
      <trkpt lat="45.37617" lon="6.51942">
        <ele>1679.51</ele>
        <time>2014-01-28T09:04:56Z</time>
      </trkpt>
      <trkpt lat="45.37636" lon="6.51927">
        <ele>1682.16</ele>
        <time>2014-01-28T09:04:59Z</time>
      </trkpt>
      <trkpt lat="45.37661" lon="6.51926">
        <ele>1681.88</ele>
        <time>2014-01-28T09:05:02Z</time>
      </trkpt>
      <trkpt lat="45.37679" lon="6.51922">
        <ele>1678.13</ele>
        <time>2014-01-28T09:05:04Z</time>
      </trkpt>
      <trkpt lat="45.37698" lon="6.51913">
        <ele>1672.84</ele>
        <time>2014-01-28T09:05:06Z</time>
      </trkpt>
      <trkpt lat="45.37715" lon="6.51901">
        <ele>1670.77</ele>
        <time>2014-01-28T09:05:08Z</time>
      </trkpt>
      <trkpt lat="45.37738" lon="6.51879">
        <ele>1664.34</ele>
        <time>2014-01-28T09:05:11Z</time>
      </trkpt>
      <trkpt lat="45.3775" lon="6.51848">
        <ele>1655.21</ele>
        <time>2014-01-28T09:05:14Z</time>
      </trkpt>
      <trkpt lat="45.37755" lon="6.51819">
        <ele>1651.03</ele>
        <time>2014-01-28T09:05:17Z</time>
      </trkpt>
      <trkpt lat="45.37757" lon="6.51788">
        <ele>1647.74</ele>
        <time>2014-01-28T09:05:19Z</time>
      </trkpt>
      <trkpt lat="45.37748" lon="6.51753">
        <ele>1644.72</ele>
        <time>2014-01-28T09:05:21Z</time>
      </trkpt>
      <trkpt lat="45.37731" lon="6.51724">
        <ele>1641</ele>
        <time>2014-01-28T09:05:23Z</time>
      </trkpt>
      <trkpt lat="45.37713" lon="6.51702">
        <ele>1639.75</ele>
        <time>2014-01-28T09:05:25Z</time>
      </trkpt>
      <trkpt lat="45.37699" lon="6.5168">
        <ele>1638.27</ele>
        <time>2014-01-28T09:05:27Z</time>
      </trkpt>
      <trkpt lat="45.37689" lon="6.51657">
        <ele>1636.84</ele>
        <time>2014-01-28T09:05:29Z</time>
      </trkpt>
      <trkpt lat="45.37678" lon="6.51633">
        <ele>1637.01</ele>
        <time>2014-01-28T09:05:31Z</time>
      </trkpt>
      <trkpt lat="45.37668" lon="6.51611">
        <ele>1636.89</ele>
        <time>2014-01-28T09:05:33Z</time>
      </trkpt>
      <trkpt lat="45.37654" lon="6.51579">
        <ele>1631.98</ele>
        <time>2014-01-28T09:05:36Z</time>
      </trkpt>
      <trkpt lat="45.37645" lon="6.51546">
        <ele>1630.07</ele>
        <time>2014-01-28T09:05:39Z</time>
      </trkpt>
      <trkpt lat="45.37639" lon="6.51522">
        <ele>1629.15</ele>
        <time>2014-01-28T09:05:41Z</time>
      </trkpt>
      <trkpt lat="45.3763" lon="6.51499">
        <ele>1623.98</ele>
        <time>2014-01-28T09:05:43Z</time>
      </trkpt>
      <trkpt lat="45.37613" lon="6.51479">
        <ele>1617.35</ele>
        <time>2014-01-28T09:05:46Z</time>
      </trkpt>
      <trkpt lat="45.37605" lon="6.51447">
        <ele>1612.37</ele>
        <time>2014-01-28T09:05:49Z</time>
      </trkpt>
      <trkpt lat="45.37589" lon="6.51417">
        <ele>1606.05</ele>
        <time>2014-01-28T09:05:52Z</time>
      </trkpt>
      <trkpt lat="45.37579" lon="6.5139">
        <ele>1601.42</ele>
        <time>2014-01-28T09:05:54Z</time>
      </trkpt>
      <trkpt lat="45.37568" lon="6.51359">
        <ele>1596.02</ele>
        <time>2014-01-28T09:05:56Z</time>
      </trkpt>
      <trkpt lat="45.37553" lon="6.51339">
        <ele>1592.52</ele>
        <time>2014-01-28T09:05:58Z</time>
      </trkpt>
      <trkpt lat="45.3754" lon="6.51316">
        <ele>1589.6</ele>
        <time>2014-01-28T09:06:00Z</time>
      </trkpt>
      <trkpt lat="45.37541" lon="6.51281">
        <ele>1585.4</ele>
        <time>2014-01-28T09:06:02Z</time>
      </trkpt>
      <trkpt lat="45.37538" lon="6.51254">
        <ele>1582.18</ele>
        <time>2014-01-28T09:06:04Z</time>
      </trkpt>
      <trkpt lat="45.37523" lon="6.5123">
        <ele>1578.21</ele>
        <time>2014-01-28T09:06:07Z</time>
      </trkpt>
      <trkpt lat="45.37521" lon="6.51194">
        <ele>1573.47</ele>
        <time>2014-01-28T09:06:10Z</time>
      </trkpt>
      <trkpt lat="45.37507" lon="6.51176">
        <ele>1570.47</ele>
        <time>2014-01-28T09:06:13Z</time>
      </trkpt>
      <trkpt lat="45.37496" lon="6.51149">
        <ele>1565.86</ele>
        <time>2014-01-28T09:06:17Z</time>
      </trkpt>
      <trkpt lat="45.37477" lon="6.51132">
        <ele>1561.09</ele>
        <time>2014-01-28T09:06:20Z</time>
      </trkpt>
      <trkpt lat="45.37463" lon="6.51116">
        <ele>1558.69</ele>
        <time>2014-01-28T09:06:23Z</time>
      </trkpt>
      <trkpt lat="45.37468" lon="6.51079">
        <ele>1555.57</ele>
        <time>2014-01-28T09:06:26Z</time>
      </trkpt>
      <trkpt lat="45.37466" lon="6.51052">
        <ele>1553.38</ele>
        <time>2014-01-28T09:06:29Z</time>
      </trkpt>
      <trkpt lat="45.37475" lon="6.51029">
        <ele>1551.21</ele>
        <time>2014-01-28T09:06:33Z</time>
      </trkpt>
      <trkpt lat="45.37492" lon="6.51006">
        <ele>1548.6</ele>
        <time>2014-01-28T09:06:36Z</time>
      </trkpt>
      <trkpt lat="45.37504" lon="6.50975">
        <ele>1539.31</ele>
        <time>2014-01-28T09:06:39Z</time>
      </trkpt>
      <trkpt lat="45.37517" lon="6.50947">
        <ele>1528.32</ele>
        <time>2014-01-28T09:06:42Z</time>
      </trkpt>
      <trkpt lat="45.37524" lon="6.50922">
        <ele>1519.12</ele>
        <time>2014-01-28T09:06:44Z</time>
      </trkpt>
      <trkpt lat="45.37532" lon="6.50893">
        <ele>1512.05</ele>
        <time>2014-01-28T09:06:46Z</time>
      </trkpt>
      <trkpt lat="45.3754" lon="6.50858">
        <ele>1508.93</ele>
        <time>2014-01-28T09:06:48Z</time>
      </trkpt>
      <trkpt lat="45.37547" lon="6.50824">
        <ele>1506.41</ele>
        <time>2014-01-28T09:06:50Z</time>
      </trkpt>
      <trkpt lat="45.3756" lon="6.50808">
        <ele>1502.72</ele>
        <time>2014-01-28T09:06:52Z</time>
      </trkpt>
      <trkpt lat="45.37584" lon="6.508">
        <ele>1499.31</ele>
        <time>2014-01-28T09:06:55Z</time>
      </trkpt>
      <trkpt lat="45.376" lon="6.50781">
        <ele>1494.31</ele>
        <time>2014-01-28T09:06:59Z</time>
      </trkpt>
      <trkpt lat="45.37616" lon="6.50766">
        <ele>1490.72</ele>
        <time>2014-01-28T09:07:03Z</time>
      </trkpt>
      <trkpt lat="45.37635" lon="6.50757">
        <ele>1487.58</ele>
        <time>2014-01-28T09:07:06Z</time>
      </trkpt>
      <trkpt lat="45.3765" lon="6.50741">
        <ele>1480.95</ele>
        <time>2014-01-28T09:07:08Z</time>
      </trkpt>
      <trkpt lat="45.37666" lon="6.50729">
        <ele>1472.61</ele>
        <time>2014-01-28T09:07:10Z</time>
      </trkpt>
      <trkpt lat="45.37684" lon="6.50709">
        <ele>1465.42</ele>
        <time>2014-01-28T09:07:13Z</time>
      </trkpt>
      <trkpt lat="45.37685" lon="6.50678">
        <ele>1459.82</ele>
        <time>2014-01-28T09:07:16Z</time>
      </trkpt>
      <trkpt lat="45.37676" lon="6.50652">
        <ele>1456.8</ele>
        <time>2014-01-28T09:07:19Z</time>
      </trkpt>
      <trkpt lat="45.37681" lon="6.50627">
        <ele>1452.02</ele>
        <time>2014-01-28T09:07:22Z</time>
      </trkpt>
      <trkpt lat="45.37692" lon="6.50601">
        <ele>1445.54</ele>
        <time>2014-01-28T09:07:25Z</time>
      </trkpt>
      <trkpt lat="45.37701" lon="6.50575">
        <ele>1440.81</ele>
        <time>2014-01-28T09:07:28Z</time>
      </trkpt>
      <trkpt lat="45.37698" lon="6.50543">
        <ele>1436.55</ele>
        <time>2014-01-28T09:07:32Z</time>
      </trkpt>
      <trkpt lat="45.37691" lon="6.50454">
        <ele>1426.9</ele>
        <time>2014-01-28T09:08:53Z</time>
      </trkpt>
      <trkpt lat="45.37675" lon="6.50441">
        <ele>1424.79</ele>
        <time>2014-01-28T09:18:30Z</time>
      </trkpt>
      <trkpt lat="45.37673" lon="6.5047">
        <ele>1428.75</ele>
        <time>2014-01-28T09:19:59Z</time>
      </trkpt>
      <trkpt lat="45.37669" lon="6.50497">
        <ele>1432.46</ele>
        <time>2014-01-28T09:20:03Z</time>
      </trkpt>
      <trkpt lat="45.37665" lon="6.50523">
        <ele>1436.1</ele>
        <time>2014-01-28T09:20:07Z</time>
      </trkpt>
      <trkpt lat="45.37658" lon="6.50547">
        <ele>1439.97</ele>
        <time>2014-01-28T09:20:12Z</time>
      </trkpt>
      <trkpt lat="45.37651" lon="6.50572">
        <ele>1446.07</ele>
        <time>2014-01-28T09:20:17Z</time>
      </trkpt>
      <trkpt lat="45.37645" lon="6.50599">
        <ele>1451.82</ele>
        <time>2014-01-28T09:20:22Z</time>
      </trkpt>
      <trkpt lat="45.37638" lon="6.50625">
        <ele>1456.6</ele>
        <time>2014-01-28T09:20:27Z</time>
      </trkpt>
      <trkpt lat="45.37631" lon="6.50653">
        <ele>1464.81</ele>
        <time>2014-01-28T09:20:32Z</time>
      </trkpt>
      <trkpt lat="45.3763" lon="6.50683">
        <ele>1473.36</ele>
        <time>2014-01-28T09:20:38Z</time>
      </trkpt>
      <trkpt lat="45.37631" lon="6.5071">
        <ele>1479.37</ele>
        <time>2014-01-28T09:20:43Z</time>
      </trkpt>
      <trkpt lat="45.37627" lon="6.5074">
        <ele>1486.5</ele>
        <time>2014-01-28T09:20:48Z</time>
      </trkpt>
      <trkpt lat="45.37621" lon="6.50768">
        <ele>1490.02</ele>
        <time>2014-01-28T09:20:53Z</time>
      </trkpt>
      <trkpt lat="45.37619" lon="6.50795">
        <ele>1492.02</ele>
        <time>2014-01-28T09:20:58Z</time>
      </trkpt>
      <trkpt lat="45.37617" lon="6.50823">
        <ele>1494.87</ele>
        <time>2014-01-28T09:21:03Z</time>
      </trkpt>
      <trkpt lat="45.37615" lon="6.50851">
        <ele>1499.38</ele>
        <time>2014-01-28T09:21:08Z</time>
      </trkpt>
      <trkpt lat="45.37611" lon="6.50881">
        <ele>1506.14</ele>
        <time>2014-01-28T09:21:13Z</time>
      </trkpt>
      <trkpt lat="45.37608" lon="6.50908">
        <ele>1511.05</ele>
        <time>2014-01-28T09:21:18Z</time>
      </trkpt>
      <trkpt lat="45.37604" lon="6.50937">
        <ele>1516.22</ele>
        <time>2014-01-28T09:21:23Z</time>
      </trkpt>
      <trkpt lat="45.376" lon="6.50963">
        <ele>1521.18</ele>
        <time>2014-01-28T09:21:28Z</time>
      </trkpt>
      <trkpt lat="45.37598" lon="6.50991">
        <ele>1527.71</ele>
        <time>2014-01-28T09:21:32Z</time>
      </trkpt>
      <trkpt lat="45.37595" lon="6.51018">
        <ele>1535.24</ele>
        <time>2014-01-28T09:21:37Z</time>
      </trkpt>
      <trkpt lat="45.37591" lon="6.51044">
        <ele>1541.12</ele>
        <time>2014-01-28T09:21:42Z</time>
      </trkpt>
      <trkpt lat="45.37586" lon="6.51075">
        <ele>1545.7</ele>
        <time>2014-01-28T09:21:49Z</time>
      </trkpt>
      <trkpt lat="45.37581" lon="6.51103">
        <ele>1550.06</ele>
        <time>2014-01-28T09:21:54Z</time>
      </trkpt>
      <trkpt lat="45.37575" lon="6.51133">
        <ele>1562.37</ele>
        <time>2014-01-28T09:21:59Z</time>
      </trkpt>
      <trkpt lat="45.3757" lon="6.5116">
        <ele>1570.9</ele>
        <time>2014-01-28T09:22:04Z</time>
      </trkpt>
      <trkpt lat="45.37562" lon="6.51186">
        <ele>1576.15</ele>
        <time>2014-01-28T09:22:09Z</time>
      </trkpt>
      <trkpt lat="45.37555" lon="6.5121">
        <ele>1579.16</ele>
        <time>2014-01-28T09:22:14Z</time>
      </trkpt>
      <trkpt lat="45.3755" lon="6.51238">
        <ele>1581.65</ele>
        <time>2014-01-28T09:22:19Z</time>
      </trkpt>
      <trkpt lat="45.37547" lon="6.5127">
        <ele>1584.55</ele>
        <time>2014-01-28T09:22:24Z</time>
      </trkpt>
      <trkpt lat="45.37545" lon="6.51298">
        <ele>1587.74</ele>
        <time>2014-01-28T09:22:29Z</time>
      </trkpt>
      <trkpt lat="45.37545" lon="6.51328">
        <ele>1591.07</ele>
        <time>2014-01-28T09:22:35Z</time>
      </trkpt>
      <trkpt lat="45.37544" lon="6.51356">
        <ele>1593.71</ele>
        <time>2014-01-28T09:22:40Z</time>
      </trkpt>
      <trkpt lat="45.37541" lon="6.51385">
        <ele>1596.07</ele>
        <time>2014-01-28T09:22:45Z</time>
      </trkpt>
      <trkpt lat="45.37538" lon="6.51413">
        <ele>1598.2</ele>
        <time>2014-01-28T09:22:50Z</time>
      </trkpt>
      <trkpt lat="45.37535" lon="6.51441">
        <ele>1600.19</ele>
        <time>2014-01-28T09:22:55Z</time>
      </trkpt>
      <trkpt lat="45.3753" lon="6.5147">
        <ele>1603.97</ele>
        <time>2014-01-28T09:23:00Z</time>
      </trkpt>
      <trkpt lat="45.37525" lon="6.51499">
        <ele>1609.53</ele>
        <time>2014-01-28T09:23:05Z</time>
      </trkpt>
      <trkpt lat="45.37521" lon="6.51525">
        <ele>1613.43</ele>
        <time>2014-01-28T09:23:10Z</time>
      </trkpt>
      <trkpt lat="45.37516" lon="6.51552">
        <ele>1617.28</ele>
        <time>2014-01-28T09:23:15Z</time>
      </trkpt>
      <trkpt lat="45.37512" lon="6.5158">
        <ele>1618.55</ele>
        <time>2014-01-28T09:23:20Z</time>
      </trkpt>
      <trkpt lat="45.37508" lon="6.51608">
        <ele>1619.02</ele>
        <time>2014-01-28T09:23:25Z</time>
      </trkpt>
      <trkpt lat="45.37502" lon="6.51635">
        <ele>1619.17</ele>
        <time>2014-01-28T09:23:30Z</time>
      </trkpt>
      <trkpt lat="45.37499" lon="6.51663">
        <ele>1619.57</ele>
        <time>2014-01-28T09:23:35Z</time>
      </trkpt>
      <trkpt lat="45.37496" lon="6.51692">
        <ele>1619.79</ele>
        <time>2014-01-28T09:23:40Z</time>
      </trkpt>
      <trkpt lat="45.37491" lon="6.51719">
        <ele>1620.21</ele>
        <time>2014-01-28T09:23:45Z</time>
      </trkpt>
      <trkpt lat="45.37487" lon="6.51748">
        <ele>1620.38</ele>
        <time>2014-01-28T09:23:50Z</time>
      </trkpt>
      <trkpt lat="45.37484" lon="6.51776">
        <ele>1620.03</ele>
        <time>2014-01-28T09:23:55Z</time>
      </trkpt>
      <trkpt lat="45.37479" lon="6.51805">
        <ele>1620.46</ele>
        <time>2014-01-28T09:24:00Z</time>
      </trkpt>
      <trkpt lat="45.37476" lon="6.51835">
        <ele>1620.65</ele>
        <time>2014-01-28T09:24:05Z</time>
      </trkpt>
      <trkpt lat="45.37472" lon="6.51865">
        <ele>1623.65</ele>
        <time>2014-01-28T09:24:10Z</time>
      </trkpt>
      <trkpt lat="45.37469" lon="6.51893">
        <ele>1627.71</ele>
        <time>2014-01-28T09:24:15Z</time>
      </trkpt>
      <trkpt lat="45.37466" lon="6.51921">
        <ele>1634.11</ele>
        <time>2014-01-28T09:24:20Z</time>
      </trkpt>
      <trkpt lat="45.3746" lon="6.51951">
        <ele>1643.57</ele>
        <time>2014-01-28T09:24:25Z</time>
      </trkpt>
      <trkpt lat="45.37454" lon="6.51978">
        <ele>1653.18</ele>
        <time>2014-01-28T09:24:30Z</time>
      </trkpt>
      <trkpt lat="45.37449" lon="6.52006">
        <ele>1658.86</ele>
        <time>2014-01-28T09:24:35Z</time>
      </trkpt>
      <trkpt lat="45.37448" lon="6.52035">
        <ele>1664.9</ele>
        <time>2014-01-28T09:24:40Z</time>
      </trkpt>
      <trkpt lat="45.37447" lon="6.52066">
        <ele>1673.83</ele>
        <time>2014-01-28T09:24:45Z</time>
      </trkpt>
      <trkpt lat="45.37443" lon="6.52096">
        <ele>1686.34</ele>
        <time>2014-01-28T09:24:50Z</time>
      </trkpt>
      <trkpt lat="45.37441" lon="6.52124">
        <ele>1696.11</ele>
        <time>2014-01-28T09:24:55Z</time>
      </trkpt>
      <trkpt lat="45.37438" lon="6.52153">
        <ele>1703.87</ele>
        <time>2014-01-28T09:25:00Z</time>
      </trkpt>
      <trkpt lat="45.37435" lon="6.52181">
        <ele>1710.1</ele>
        <time>2014-01-28T09:25:05Z</time>
      </trkpt>
      <trkpt lat="45.37431" lon="6.52208">
        <ele>1714.65</ele>
        <time>2014-01-28T09:25:10Z</time>
      </trkpt>
      <trkpt lat="45.37426" lon="6.52237">
        <ele>1720.09</ele>
        <time>2014-01-28T09:25:15Z</time>
      </trkpt>
      <trkpt lat="45.37421" lon="6.52262">
        <ele>1726.16</ele>
        <time>2014-01-28T09:25:20Z</time>
      </trkpt>
      <trkpt lat="45.37416" lon="6.5229">
        <ele>1734.03</ele>
        <time>2014-01-28T09:25:25Z</time>
      </trkpt>
      <trkpt lat="45.37411" lon="6.52319">
        <ele>1743.65</ele>
        <time>2014-01-28T09:25:30Z</time>
      </trkpt>
      <trkpt lat="45.37406" lon="6.52346">
        <ele>1751.61</ele>
        <time>2014-01-28T09:25:35Z</time>
      </trkpt>
      <trkpt lat="45.37404" lon="6.52375">
        <ele>1757.97</ele>
        <time>2014-01-28T09:25:40Z</time>
      </trkpt>
      <trkpt lat="45.374" lon="6.52405">
        <ele>1763.05</ele>
        <time>2014-01-28T09:25:45Z</time>
      </trkpt>
      <trkpt lat="45.37397" lon="6.52435">
        <ele>1768.54</ele>
        <time>2014-01-28T09:25:51Z</time>
      </trkpt>
      <trkpt lat="45.37394" lon="6.52464">
        <ele>1776.98</ele>
        <time>2014-01-28T09:25:56Z</time>
      </trkpt>
      <trkpt lat="45.37392" lon="6.52494">
        <ele>1787.33</ele>
        <time>2014-01-28T09:26:01Z</time>
      </trkpt>
      <trkpt lat="45.37388" lon="6.52522">
        <ele>1790.49</ele>
        <time>2014-01-28T09:26:06Z</time>
      </trkpt>
      <trkpt lat="45.37386" lon="6.52549">
        <ele>1788.53</ele>
        <time>2014-01-28T09:26:12Z</time>
      </trkpt>
      <trkpt lat="45.37381" lon="6.52578">
        <ele>1785.31</ele>
        <time>2014-01-28T09:26:18Z</time>
      </trkpt>
      <trkpt lat="45.37377" lon="6.52604">
        <ele>1783.95</ele>
        <time>2014-01-28T09:26:23Z</time>
      </trkpt>
      <trkpt lat="45.37373" lon="6.52632">
        <ele>1782.59</ele>
        <time>2014-01-28T09:26:28Z</time>
      </trkpt>
      <trkpt lat="45.37368" lon="6.52661">
        <ele>1782.05</ele>
        <time>2014-01-28T09:26:33Z</time>
      </trkpt>
      <trkpt lat="45.37362" lon="6.5269">
        <ele>1785.23</ele>
        <time>2014-01-28T09:26:38Z</time>
      </trkpt>
      <trkpt lat="45.37357" lon="6.52718">
        <ele>1788.17</ele>
        <time>2014-01-28T09:26:43Z</time>
      </trkpt>
      <trkpt lat="45.37352" lon="6.52746">
        <ele>1789.19</ele>
        <time>2014-01-28T09:26:48Z</time>
      </trkpt>
      <trkpt lat="45.37346" lon="6.52775">
        <ele>1789.06</ele>
        <time>2014-01-28T09:26:53Z</time>
      </trkpt>
      <trkpt lat="45.37342" lon="6.52803">
        <ele>1790.25</ele>
        <time>2014-01-28T09:26:58Z</time>
      </trkpt>
      <trkpt lat="45.37338" lon="6.5283">
        <ele>1793.57</ele>
        <time>2014-01-28T09:27:03Z</time>
      </trkpt>
      <trkpt lat="45.37334" lon="6.52858">
        <ele>1797.62</ele>
        <time>2014-01-28T09:27:08Z</time>
      </trkpt>
      <trkpt lat="45.3733" lon="6.52884">
        <ele>1800.2</ele>
        <time>2014-01-28T09:27:13Z</time>
      </trkpt>
      <trkpt lat="45.37313" lon="6.52875">
        <ele>1797.33</ele>
        <time>2014-01-28T09:28:55Z</time>
      </trkpt>
      <trkpt lat="45.37294" lon="6.52871">
        <ele>1794.59</ele>
        <time>2014-01-28T09:29:03Z</time>
      </trkpt>
      <trkpt lat="45.37275" lon="6.52861">
        <ele>1791.39</ele>
        <time>2014-01-28T09:29:13Z</time>
      </trkpt>
      <trkpt lat="45.3726" lon="6.52877">
        <ele>1789.08</ele>
        <time>2014-01-28T09:29:59Z</time>
      </trkpt>
      <trkpt lat="45.37253" lon="6.52904">
        <ele>1791.22</ele>
        <time>2014-01-28T09:30:18Z</time>
      </trkpt>
      <trkpt lat="45.37247" lon="6.52934">
        <ele>1796.84</ele>
        <time>2014-01-28T09:30:23Z</time>
      </trkpt>
      <trkpt lat="45.37242" lon="6.52965">
        <ele>1802.51</ele>
        <time>2014-01-28T09:30:28Z</time>
      </trkpt>
      <trkpt lat="45.37235" lon="6.52992">
        <ele>1806.63</ele>
        <time>2014-01-28T09:30:33Z</time>
      </trkpt>
      <trkpt lat="45.37227" lon="6.5302">
        <ele>1810.07</ele>
        <time>2014-01-28T09:30:38Z</time>
      </trkpt>
      <trkpt lat="45.3722" lon="6.53045">
        <ele>1813.4</ele>
        <time>2014-01-28T09:30:43Z</time>
      </trkpt>
      <trkpt lat="45.37213" lon="6.5307">
        <ele>1816.61</ele>
        <time>2014-01-28T09:30:48Z</time>
      </trkpt>
      <trkpt lat="45.37207" lon="6.53096">
        <ele>1820.77</ele>
        <time>2014-01-28T09:30:53Z</time>
      </trkpt>
      <trkpt lat="45.372" lon="6.53122">
        <ele>1826.11</ele>
        <time>2014-01-28T09:30:58Z</time>
      </trkpt>
      <trkpt lat="45.37192" lon="6.5315">
        <ele>1833.5</ele>
        <time>2014-01-28T09:31:03Z</time>
      </trkpt>
      <trkpt lat="45.37184" lon="6.53177">
        <ele>1845.05</ele>
        <time>2014-01-28T09:31:08Z</time>
      </trkpt>
      <trkpt lat="45.37178" lon="6.53203">
        <ele>1854.25</ele>
        <time>2014-01-28T09:31:13Z</time>
      </trkpt>
      <trkpt lat="45.37172" lon="6.53229">
        <ele>1862.65</ele>
        <time>2014-01-28T09:31:18Z</time>
      </trkpt>
      <trkpt lat="45.37166" lon="6.53256">
        <ele>1871</ele>
        <time>2014-01-28T09:31:23Z</time>
      </trkpt>
      <trkpt lat="45.37158" lon="6.5328">
        <ele>1874.92</ele>
        <time>2014-01-28T09:31:27Z</time>
      </trkpt>
      <trkpt lat="45.3715" lon="6.5331">
        <ele>1879.1</ele>
        <time>2014-01-28T09:31:32Z</time>
      </trkpt>
      <trkpt lat="45.37144" lon="6.53336">
        <ele>1882.02</ele>
        <time>2014-01-28T09:31:36Z</time>
      </trkpt>
      <trkpt lat="45.37137" lon="6.53361">
        <ele>1884.25</ele>
        <time>2014-01-28T09:31:41Z</time>
      </trkpt>
      <trkpt lat="45.3713" lon="6.53388">
        <ele>1887.87</ele>
        <time>2014-01-28T09:31:46Z</time>
      </trkpt>
      <trkpt lat="45.37123" lon="6.53412">
        <ele>1891.62</ele>
        <time>2014-01-28T09:31:50Z</time>
      </trkpt>
      <trkpt lat="45.37114" lon="6.5344">
        <ele>1897.82</ele>
        <time>2014-01-28T09:31:55Z</time>
      </trkpt>
      <trkpt lat="45.37106" lon="6.53469">
        <ele>1902.78</ele>
        <time>2014-01-28T09:32:00Z</time>
      </trkpt>
      <trkpt lat="45.37099" lon="6.53497">
        <ele>1906.67</ele>
        <time>2014-01-28T09:32:05Z</time>
      </trkpt>
      <trkpt lat="45.37091" lon="6.53525">
        <ele>1911.07</ele>
        <time>2014-01-28T09:32:10Z</time>
      </trkpt>
      <trkpt lat="45.37083" lon="6.5355">
        <ele>1915.84</ele>
        <time>2014-01-28T09:32:14Z</time>
      </trkpt>
      <trkpt lat="45.37076" lon="6.53576">
        <ele>1921.44</ele>
        <time>2014-01-28T09:32:19Z</time>
      </trkpt>
      <trkpt lat="45.3707" lon="6.53605">
        <ele>1928.39</ele>
        <time>2014-01-28T09:32:25Z</time>
      </trkpt>
      <trkpt lat="45.37066" lon="6.53632">
        <ele>1937.41</ele>
        <time>2014-01-28T09:32:31Z</time>
      </trkpt>
      <trkpt lat="45.3706" lon="6.53661">
        <ele>1944.57</ele>
        <time>2014-01-28T09:32:36Z</time>
      </trkpt>
      <trkpt lat="45.37056" lon="6.5369">
        <ele>1949.28</ele>
        <time>2014-01-28T09:32:41Z</time>
      </trkpt>
      <trkpt lat="45.37051" lon="6.53717">
        <ele>1956.84</ele>
        <time>2014-01-28T09:32:47Z</time>
      </trkpt>
      <trkpt lat="45.37044" lon="6.53744">
        <ele>1965.9</ele>
        <time>2014-01-28T09:32:53Z</time>
      </trkpt>
      <trkpt lat="45.37036" lon="6.53769">
        <ele>1970.69</ele>
        <time>2014-01-28T09:32:58Z</time>
      </trkpt>
      <trkpt lat="45.37026" lon="6.53793">
        <ele>1974.13</ele>
        <time>2014-01-28T09:33:02Z</time>
      </trkpt>
      <trkpt lat="45.37012" lon="6.53816">
        <ele>1977.14</ele>
        <time>2014-01-28T09:33:04Z</time>
      </trkpt>
      <trkpt lat="45.36997" lon="6.5384">
        <ele>1983.45</ele>
        <time>2014-01-28T09:33:07Z</time>
      </trkpt>
      <trkpt lat="45.36984" lon="6.53865">
        <ele>1990.05</ele>
        <time>2014-01-28T09:33:12Z</time>
      </trkpt>
      <trkpt lat="45.36974" lon="6.53893">
        <ele>1992.54</ele>
        <time>2014-01-28T09:33:18Z</time>
      </trkpt>
      <trkpt lat="45.36964" lon="6.53919">
        <ele>1996.27</ele>
        <time>2014-01-28T09:33:23Z</time>
      </trkpt>
      <trkpt lat="45.36954" lon="6.53945">
        <ele>1998.08</ele>
        <time>2014-01-28T09:33:28Z</time>
      </trkpt>
      <trkpt lat="45.36949" lon="6.53973">
        <ele>2002.72</ele>
        <time>2014-01-28T09:33:32Z</time>
      </trkpt>
      <trkpt lat="45.36944" lon="6.54">
        <ele>2006.96</ele>
        <time>2014-01-28T09:33:36Z</time>
      </trkpt>
      <trkpt lat="45.36941" lon="6.54025">
        <ele>2010.9</ele>
        <time>2014-01-28T09:33:40Z</time>
      </trkpt>
      <trkpt lat="45.36935" lon="6.54052">
        <ele>2013.78</ele>
        <time>2014-01-28T09:33:44Z</time>
      </trkpt>
      <trkpt lat="45.36929" lon="6.54076">
        <ele>2020.55</ele>
        <time>2014-01-28T09:33:48Z</time>
      </trkpt>
      <trkpt lat="45.36922" lon="6.54101">
        <ele>2030.85</ele>
        <time>2014-01-28T09:33:53Z</time>
      </trkpt>
      <trkpt lat="45.36916" lon="6.54129">
        <ele>2044.26</ele>
        <time>2014-01-28T09:33:59Z</time>
      </trkpt>
      <trkpt lat="45.36907" lon="6.54156">
        <ele>2055.76</ele>
        <time>2014-01-28T09:34:05Z</time>
      </trkpt>
      <trkpt lat="45.36899" lon="6.54183">
        <ele>2066.71</ele>
        <time>2014-01-28T09:34:10Z</time>
      </trkpt>
      <trkpt lat="45.36891" lon="6.54209">
        <ele>2075.45</ele>
        <time>2014-01-28T09:34:14Z</time>
      </trkpt>
      <trkpt lat="45.36883" lon="6.54236">
        <ele>2080.81</ele>
        <time>2014-01-28T09:34:19Z</time>
      </trkpt>
      <trkpt lat="45.36877" lon="6.5426">
        <ele>2086.52</ele>
        <time>2014-01-28T09:34:24Z</time>
      </trkpt>
      <trkpt lat="45.36871" lon="6.54287">
        <ele>2093.96</ele>
        <time>2014-01-28T09:34:29Z</time>
      </trkpt>
      <trkpt lat="45.36862" lon="6.54314">
        <ele>2098.11</ele>
        <time>2014-01-28T09:34:34Z</time>
      </trkpt>
      <trkpt lat="45.36853" lon="6.54339">
        <ele>2096.78</ele>
        <time>2014-01-28T09:34:38Z</time>
      </trkpt>
      <trkpt lat="45.36846" lon="6.54365">
        <ele>2094.18</ele>
        <time>2014-01-28T09:34:42Z</time>
      </trkpt>
      <trkpt lat="45.36839" lon="6.54388">
        <ele>2098.54</ele>
        <time>2014-01-28T09:34:46Z</time>
      </trkpt>
      <trkpt lat="45.36832" lon="6.54417">
        <ele>2102.49</ele>
        <time>2014-01-28T09:34:51Z</time>
      </trkpt>
      <trkpt lat="45.36825" lon="6.54447">
        <ele>2105.92</ele>
        <time>2014-01-28T09:34:56Z</time>
      </trkpt>
      <trkpt lat="45.36818" lon="6.54472">
        <ele>2113.74</ele>
        <time>2014-01-28T09:35:00Z</time>
      </trkpt>
      <trkpt lat="45.36813" lon="6.54497">
        <ele>2121.61</ele>
        <time>2014-01-28T09:35:04Z</time>
      </trkpt>
      <trkpt lat="45.36805" lon="6.54526">
        <ele>2126.41</ele>
        <time>2014-01-28T09:35:09Z</time>
      </trkpt>
      <trkpt lat="45.36794" lon="6.54552">
        <ele>2128.21</ele>
        <time>2014-01-28T09:35:14Z</time>
      </trkpt>
      <trkpt lat="45.36784" lon="6.54579">
        <ele>2128.25</ele>
        <time>2014-01-28T09:35:19Z</time>
      </trkpt>
      <trkpt lat="45.36776" lon="6.54608">
        <ele>2129.88</ele>
        <time>2014-01-28T09:35:24Z</time>
      </trkpt>
      <trkpt lat="45.3677" lon="6.54637">
        <ele>2134.53</ele>
        <time>2014-01-28T09:35:29Z</time>
      </trkpt>
      <trkpt lat="45.36763" lon="6.54666">
        <ele>2141.57</ele>
        <time>2014-01-28T09:35:34Z</time>
      </trkpt>
      <trkpt lat="45.36759" lon="6.54696">
        <ele>2150.04</ele>
        <time>2014-01-28T09:35:39Z</time>
      </trkpt>
      <trkpt lat="45.36756" lon="6.54722">
        <ele>2160.94</ele>
        <time>2014-01-28T09:35:43Z</time>
      </trkpt>
      <trkpt lat="45.36751" lon="6.54753">
        <ele>2188.32</ele>
        <time>2014-01-28T09:35:48Z</time>
      </trkpt>
      <trkpt lat="45.36747" lon="6.54779">
        <ele>2197.96</ele>
        <time>2014-01-28T09:35:53Z</time>
      </trkpt>
      <trkpt lat="45.36733" lon="6.54801">
        <ele>2192.51</ele>
        <time>2014-01-28T09:36:00Z</time>
      </trkpt>
      <trkpt lat="45.36721" lon="6.54825">
        <ele>2190.24</ele>
        <time>2014-01-28T09:36:04Z</time>
      </trkpt>
      <trkpt lat="45.36711" lon="6.54852">
        <ele>2193.86</ele>
        <time>2014-01-28T09:36:08Z</time>
      </trkpt>
      <trkpt lat="45.36702" lon="6.54878">
        <ele>2196.28</ele>
        <time>2014-01-28T09:36:12Z</time>
      </trkpt>
      <trkpt lat="45.36695" lon="6.54903">
        <ele>2199.12</ele>
        <time>2014-01-28T09:36:17Z</time>
      </trkpt>
      <trkpt lat="45.3669" lon="6.54929">
        <ele>2197.72</ele>
        <time>2014-01-28T09:36:21Z</time>
      </trkpt>
      <trkpt lat="45.36682" lon="6.54955">
        <ele>2194.71</ele>
        <time>2014-01-28T09:36:26Z</time>
      </trkpt>
      <trkpt lat="45.36673" lon="6.54985">
        <ele>2196.95</ele>
        <time>2014-01-28T09:36:31Z</time>
      </trkpt>
      <trkpt lat="45.36667" lon="6.55013">
        <ele>2202.76</ele>
        <time>2014-01-28T09:36:36Z</time>
      </trkpt>
      <trkpt lat="45.36661" lon="6.55042">
        <ele>2209.21</ele>
        <time>2014-01-28T09:36:41Z</time>
      </trkpt>
      <trkpt lat="45.36658" lon="6.55068">
        <ele>2217.08</ele>
        <time>2014-01-28T09:36:46Z</time>
      </trkpt>
      <trkpt lat="45.36657" lon="6.55099">
        <ele>2225.97</ele>
        <time>2014-01-28T09:36:52Z</time>
      </trkpt>
      <trkpt lat="45.36657" lon="6.55126">
        <ele>2234.83</ele>
        <time>2014-01-28T09:36:57Z</time>
      </trkpt>
      <trkpt lat="45.36654" lon="6.55151">
        <ele>2242.38</ele>
        <time>2014-01-28T09:37:02Z</time>
      </trkpt>
      <trkpt lat="45.36649" lon="6.55176">
        <ele>2247.69</ele>
        <time>2014-01-28T09:37:07Z</time>
      </trkpt>
      <trkpt lat="45.36643" lon="6.55204">
        <ele>2252.25</ele>
        <time>2014-01-28T09:37:12Z</time>
      </trkpt>
      <trkpt lat="45.36639" lon="6.55232">
        <ele>2256.72</ele>
        <time>2014-01-28T09:37:17Z</time>
      </trkpt>
      <trkpt lat="45.36628" lon="6.55257">
        <ele>2260.2</ele>
        <time>2014-01-28T09:37:21Z</time>
      </trkpt>
      <trkpt lat="45.36614" lon="6.55279">
        <ele>2261.9</ele>
        <time>2014-01-28T09:37:24Z</time>
      </trkpt>
      <trkpt lat="45.36603" lon="6.55301">
        <ele>2266.11</ele>
        <time>2014-01-28T09:37:27Z</time>
      </trkpt>
      <trkpt lat="45.36593" lon="6.55327">
        <ele>2269.7</ele>
        <time>2014-01-28T09:37:31Z</time>
      </trkpt>
      <trkpt lat="45.36579" lon="6.55352">
        <ele>2271.74</ele>
        <time>2014-01-28T09:37:36Z</time>
      </trkpt>
      <trkpt lat="45.36567" lon="6.55377">
        <ele>2277.48</ele>
        <time>2014-01-28T09:37:41Z</time>
      </trkpt>
      <trkpt lat="45.3656" lon="6.55405">
        <ele>2284.87</ele>
        <time>2014-01-28T09:37:46Z</time>
      </trkpt>
      <trkpt lat="45.36555" lon="6.55431">
        <ele>2290.48</ele>
        <time>2014-01-28T09:37:51Z</time>
      </trkpt>
      <trkpt lat="45.36548" lon="6.55458">
        <ele>2294.19</ele>
        <time>2014-01-28T09:37:55Z</time>
      </trkpt>
      <trkpt lat="45.36541" lon="6.55489">
        <ele>2298.67</ele>
        <time>2014-01-28T09:38:00Z</time>
      </trkpt>
      <trkpt lat="45.36535" lon="6.55515">
        <ele>2305.79</ele>
        <time>2014-01-28T09:38:05Z</time>
      </trkpt>
      <trkpt lat="45.36534" lon="6.55544">
        <ele>2315.15</ele>
        <time>2014-01-28T09:38:12Z</time>
      </trkpt>
      <trkpt lat="45.36536" lon="6.55569">
        <ele>2323.66</ele>
        <time>2014-01-28T09:38:18Z</time>
      </trkpt>
      <trkpt lat="45.36539" lon="6.55596">
        <ele>2335.33</ele>
        <time>2014-01-28T09:38:24Z</time>
      </trkpt>
      <trkpt lat="45.36539" lon="6.55624">
        <ele>2351.65</ele>
        <time>2014-01-28T09:38:30Z</time>
      </trkpt>
      <trkpt lat="45.36541" lon="6.55652">
        <ele>2370.3</ele>
        <time>2014-01-28T09:38:39Z</time>
      </trkpt>
      <trkpt lat="45.36524" lon="6.55676">
        <ele>2378.69</ele>
        <time>2014-01-28T09:38:43Z</time>
      </trkpt>
      <trkpt lat="45.36509" lon="6.55693">
        <ele>2388.58</ele>
        <time>2014-01-28T09:38:46Z</time>
      </trkpt>
      <trkpt lat="45.36491" lon="6.55706">
        <ele>2390.83</ele>
        <time>2014-01-28T09:38:50Z</time>
      </trkpt>
      <trkpt lat="45.36474" lon="6.55714">
        <ele>2388.37</ele>
        <time>2014-01-28T09:39:01Z</time>
      </trkpt>
      <trkpt lat="45.3646" lon="6.55732">
        <ele>2390.36</ele>
        <time>2014-01-28T09:39:06Z</time>
      </trkpt>
      <trkpt lat="45.36445" lon="6.55748">
        <ele>2394.74</ele>
        <time>2014-01-28T09:39:12Z</time>
      </trkpt>
      <trkpt lat="45.36427" lon="6.55754">
        <ele>2395.18</ele>
        <time>2014-01-28T09:39:32Z</time>
      </trkpt>
      <trkpt lat="45.36408" lon="6.55754">
        <ele>2393.53</ele>
        <time>2014-01-28T09:39:51Z</time>
      </trkpt>
      <trkpt lat="45.36387" lon="6.55745">
        <ele>2390.62</ele>
        <time>2014-01-28T09:39:56Z</time>
      </trkpt>
      <trkpt lat="45.36365" lon="6.55735">
        <ele>2387.69</ele>
        <time>2014-01-28T09:39:59Z</time>
      </trkpt>
      <trkpt lat="45.36344" lon="6.55724">
        <ele>2384.02</ele>
        <time>2014-01-28T09:40:02Z</time>
      </trkpt>
      <trkpt lat="45.3632" lon="6.55716">
        <ele>2379.58</ele>
        <time>2014-01-28T09:40:05Z</time>
      </trkpt>
      <trkpt lat="45.36295" lon="6.55706">
        <ele>2375.79</ele>
        <time>2014-01-28T09:40:08Z</time>
      </trkpt>
      <trkpt lat="45.36272" lon="6.55693">
        <ele>2371.24</ele>
        <time>2014-01-28T09:40:11Z</time>
      </trkpt>
      <trkpt lat="45.36247" lon="6.55688">
        <ele>2365.42</ele>
        <time>2014-01-28T09:40:14Z</time>
      </trkpt>
      <trkpt lat="45.36229" lon="6.55685">
        <ele>2362.33</ele>
        <time>2014-01-28T09:40:16Z</time>
      </trkpt>
      <trkpt lat="45.36211" lon="6.55683">
        <ele>2360.57</ele>
        <time>2014-01-28T09:40:18Z</time>
      </trkpt>
      <trkpt lat="45.36191" lon="6.55681">
        <ele>2360.15</ele>
        <time>2014-01-28T09:40:20Z</time>
      </trkpt>
      <trkpt lat="45.36171" lon="6.5567">
        <ele>2360.17</ele>
        <time>2014-01-28T09:40:22Z</time>
      </trkpt>
      <trkpt lat="45.36154" lon="6.5566">
        <ele>2355.76</ele>
        <time>2014-01-28T09:40:24Z</time>
      </trkpt>
      <trkpt lat="45.36136" lon="6.55653">
        <ele>2351.03</ele>
        <time>2014-01-28T09:40:26Z</time>
      </trkpt>
      <trkpt lat="45.36118" lon="6.55647">
        <ele>2346.73</ele>
        <time>2014-01-28T09:40:28Z</time>
      </trkpt>
      <trkpt lat="45.361" lon="6.55645">
        <ele>2342.91</ele>
        <time>2014-01-28T09:40:30Z</time>
      </trkpt>
      <trkpt lat="45.36073" lon="6.55642">
        <ele>2339.6</ele>
        <time>2014-01-28T09:40:33Z</time>
      </trkpt>
      <trkpt lat="45.36055" lon="6.55641">
        <ele>2340.61</ele>
        <time>2014-01-28T09:40:35Z</time>
      </trkpt>
      <trkpt lat="45.36039" lon="6.55629">
        <ele>2336.76</ele>
        <time>2014-01-28T09:40:37Z</time>
      </trkpt>
      <trkpt lat="45.36018" lon="6.5562">
        <ele>2332.02</ele>
        <time>2014-01-28T09:40:40Z</time>
      </trkpt>
      <trkpt lat="45.36004" lon="6.55602">
        <ele>2326.83</ele>
        <time>2014-01-28T09:41:06Z</time>
      </trkpt>
      <trkpt lat="45.35987" lon="6.5559">
        <ele>2322.68</ele>
        <time>2014-01-28T09:41:09Z</time>
      </trkpt>
      <trkpt lat="45.35964" lon="6.55576">
        <ele>2316.37</ele>
        <time>2014-01-28T09:41:12Z</time>
      </trkpt>
      <trkpt lat="45.35941" lon="6.55565">
        <ele>2311.99</ele>
        <time>2014-01-28T09:41:15Z</time>
      </trkpt>
      <trkpt lat="45.35915" lon="6.55557">
        <ele>2304.18</ele>
        <time>2014-01-28T09:41:18Z</time>
      </trkpt>
      <trkpt lat="45.35895" lon="6.55554">
        <ele>2302.18</ele>
        <time>2014-01-28T09:41:20Z</time>
      </trkpt>
      <trkpt lat="45.35874" lon="6.55549">
        <ele>2298.92</ele>
        <time>2014-01-28T09:41:22Z</time>
      </trkpt>
      <trkpt lat="45.35839" lon="6.55559">
        <ele>2294.52</ele>
        <time>2014-01-28T09:41:25Z</time>
      </trkpt>
      <trkpt lat="45.35818" lon="6.55564">
        <ele>2289.73</ele>
        <time>2014-01-28T09:41:27Z</time>
      </trkpt>
      <trkpt lat="45.35798" lon="6.5557">
        <ele>2287.11</ele>
        <time>2014-01-28T09:41:29Z</time>
      </trkpt>
      <trkpt lat="45.35779" lon="6.55579">
        <ele>2289.1</ele>
        <time>2014-01-28T09:41:31Z</time>
      </trkpt>
      <trkpt lat="45.3576" lon="6.55588">
        <ele>2286.69</ele>
        <time>2014-01-28T09:41:33Z</time>
      </trkpt>
      <trkpt lat="45.35727" lon="6.55596">
        <ele>2289.69</ele>
        <time>2014-01-28T09:41:37Z</time>
      </trkpt>
      <trkpt lat="45.35708" lon="6.55595">
        <ele>2289.72</ele>
        <time>2014-01-28T09:41:40Z</time>
      </trkpt>
      <trkpt lat="45.35689" lon="6.55582">
        <ele>2286.47</ele>
        <time>2014-01-28T09:41:44Z</time>
      </trkpt>
      <trkpt lat="45.35669" lon="6.55568">
        <ele>2281.02</ele>
        <time>2014-01-28T09:41:48Z</time>
      </trkpt>
      <trkpt lat="45.35648" lon="6.55554">
        <ele>2280.6</ele>
        <time>2014-01-28T09:41:51Z</time>
      </trkpt>
      <trkpt lat="45.35626" lon="6.55539">
        <ele>2280.05</ele>
        <time>2014-01-28T09:41:54Z</time>
      </trkpt>
      <trkpt lat="45.35607" lon="6.55525">
        <ele>2278.94</ele>
        <time>2014-01-28T09:41:57Z</time>
      </trkpt>
      <trkpt lat="45.35587" lon="6.55508">
        <ele>2274.5</ele>
        <time>2014-01-28T09:42:00Z</time>
      </trkpt>
      <trkpt lat="45.35565" lon="6.55489">
        <ele>2271.83</ele>
        <time>2014-01-28T09:42:03Z</time>
      </trkpt>
      <trkpt lat="45.3555" lon="6.55473">
        <ele>2268.18</ele>
        <time>2014-01-28T09:42:05Z</time>
      </trkpt>
      <trkpt lat="45.35534" lon="6.55457">
        <ele>2263.27</ele>
        <time>2014-01-28T09:42:07Z</time>
      </trkpt>
      <trkpt lat="45.35517" lon="6.55441">
        <ele>2259.38</ele>
        <time>2014-01-28T09:42:09Z</time>
      </trkpt>
      <trkpt lat="45.35499" lon="6.55427">
        <ele>2256.1</ele>
        <time>2014-01-28T09:42:11Z</time>
      </trkpt>
      <trkpt lat="45.35481" lon="6.55415">
        <ele>2254.7</ele>
        <time>2014-01-28T09:42:13Z</time>
      </trkpt>
      <trkpt lat="45.35467" lon="6.55397">
        <ele>2252.84</ele>
        <time>2014-01-28T09:42:15Z</time>
      </trkpt>
      <trkpt lat="45.35453" lon="6.5538">
        <ele>2250.74</ele>
        <time>2014-01-28T09:42:17Z</time>
      </trkpt>
      <trkpt lat="45.35434" lon="6.55357">
        <ele>2248.33</ele>
        <time>2014-01-28T09:42:20Z</time>
      </trkpt>
      <trkpt lat="45.35413" lon="6.55347">
        <ele>2246.96</ele>
        <time>2014-01-28T09:42:23Z</time>
      </trkpt>
      <trkpt lat="45.35394" lon="6.55347">
        <ele>2246.58</ele>
        <time>2014-01-28T09:42:26Z</time>
      </trkpt>
      <trkpt lat="45.35375" lon="6.55353">
        <ele>2247.5</ele>
        <time>2014-01-28T09:42:31Z</time>
      </trkpt>
      <trkpt lat="45.35354" lon="6.55356">
        <ele>2248.15</ele>
        <time>2014-01-28T09:42:36Z</time>
      </trkpt>
      <trkpt lat="45.35333" lon="6.55351">
        <ele>2247.46</ele>
        <time>2014-01-28T09:42:40Z</time>
      </trkpt>
      <trkpt lat="45.35313" lon="6.5534">
        <ele>2244.55</ele>
        <time>2014-01-28T09:42:45Z</time>
      </trkpt>
      <trkpt lat="45.35296" lon="6.55334">
        <ele>2244.44</ele>
        <time>2014-01-28T09:42:50Z</time>
      </trkpt>
      <trkpt lat="45.35278" lon="6.5532">
        <ele>2245.51</ele>
        <time>2014-01-28T09:42:54Z</time>
      </trkpt>
      <trkpt lat="45.35265" lon="6.55299">
        <ele>2248.13</ele>
        <time>2014-01-28T09:42:57Z</time>
      </trkpt>
      <trkpt lat="45.35262" lon="6.55272">
        <ele>2246.75</ele>
        <time>2014-01-28T09:43:00Z</time>
      </trkpt>
      <trkpt lat="45.35262" lon="6.55245">
        <ele>2245.02</ele>
        <time>2014-01-28T09:43:03Z</time>
      </trkpt>
      <trkpt lat="45.35259" lon="6.55216">
        <ele>2242.4</ele>
        <time>2014-01-28T09:43:06Z</time>
      </trkpt>
      <trkpt lat="45.35252" lon="6.55188">
        <ele>2236.61</ele>
        <time>2014-01-28T09:43:09Z</time>
      </trkpt>
      <trkpt lat="45.35237" lon="6.55163">
        <ele>2230.78</ele>
        <time>2014-01-28T09:43:12Z</time>
      </trkpt>
      <trkpt lat="45.35221" lon="6.55138">
        <ele>2227.9</ele>
        <time>2014-01-28T09:43:15Z</time>
      </trkpt>
      <trkpt lat="45.35204" lon="6.55113">
        <ele>2225.74</ele>
        <time>2014-01-28T09:43:18Z</time>
      </trkpt>
      <trkpt lat="45.35186" lon="6.55091">
        <ele>2224.83</ele>
        <time>2014-01-28T09:43:21Z</time>
      </trkpt>
      <trkpt lat="45.3517" lon="6.55073">
        <ele>2220.95</ele>
        <time>2014-01-28T09:43:24Z</time>
      </trkpt>
      <trkpt lat="45.35153" lon="6.55059">
        <ele>2215.4</ele>
        <time>2014-01-28T09:43:27Z</time>
      </trkpt>
      <trkpt lat="45.35132" lon="6.55051">
        <ele>2210.11</ele>
        <time>2014-01-28T09:43:30Z</time>
      </trkpt>
      <trkpt lat="45.3511" lon="6.55049">
        <ele>2207.42</ele>
        <time>2014-01-28T09:43:33Z</time>
      </trkpt>
      <trkpt lat="45.35088" lon="6.55049">
        <ele>2208.52</ele>
        <time>2014-01-28T09:43:36Z</time>
      </trkpt>
      <trkpt lat="45.35067" lon="6.55047">
        <ele>2210.05</ele>
        <time>2014-01-28T09:43:39Z</time>
      </trkpt>
      <trkpt lat="45.35046" lon="6.55041">
        <ele>2208.77</ele>
        <time>2014-01-28T09:43:42Z</time>
      </trkpt>
      <trkpt lat="45.35028" lon="6.55034">
        <ele>2205.35</ele>
        <time>2014-01-28T09:43:45Z</time>
      </trkpt>
      <trkpt lat="45.35008" lon="6.55027">
        <ele>2201.73</ele>
        <time>2014-01-28T09:43:48Z</time>
      </trkpt>
      <trkpt lat="45.34987" lon="6.55022">
        <ele>2199.26</ele>
        <time>2014-01-28T09:43:51Z</time>
      </trkpt>
      <trkpt lat="45.34964" lon="6.55018">
        <ele>2196.54</ele>
        <time>2014-01-28T09:43:54Z</time>
      </trkpt>
      <trkpt lat="45.34941" lon="6.55006">
        <ele>2191.6</ele>
        <time>2014-01-28T09:43:57Z</time>
      </trkpt>
      <trkpt lat="45.34925" lon="6.54985">
        <ele>2187.89</ele>
        <time>2014-01-28T09:43:59Z</time>
      </trkpt>
      <trkpt lat="45.34909" lon="6.54955">
        <ele>2184.46</ele>
        <time>2014-01-28T09:44:01Z</time>
      </trkpt>
      <trkpt lat="45.34895" lon="6.54924">
        <ele>2181.57</ele>
        <time>2014-01-28T09:44:03Z</time>
      </trkpt>
      <trkpt lat="45.34883" lon="6.54891">
        <ele>2180.03</ele>
        <time>2014-01-28T09:44:05Z</time>
      </trkpt>
      <trkpt lat="45.34871" lon="6.54861">
        <ele>2179.87</ele>
        <time>2014-01-28T09:44:07Z</time>
      </trkpt>
      <trkpt lat="45.34862" lon="6.54835">
        <ele>2179.04</ele>
        <time>2014-01-28T09:44:09Z</time>
      </trkpt>
      <trkpt lat="45.34853" lon="6.54811">
        <ele>2177.4</ele>
        <time>2014-01-28T09:44:11Z</time>
      </trkpt>
      <trkpt lat="45.34846" lon="6.54788">
        <ele>2176.02</ele>
        <time>2014-01-28T09:44:13Z</time>
      </trkpt>
      <trkpt lat="45.34837" lon="6.54765">
        <ele>2174.59</ele>
        <time>2014-01-28T09:44:15Z</time>
      </trkpt>
      <trkpt lat="45.34827" lon="6.54733">
        <ele>2173</ele>
        <time>2014-01-28T09:44:18Z</time>
      </trkpt>
      <trkpt lat="45.34818" lon="6.54708">
        <ele>2171.5</ele>
        <time>2014-01-28T09:44:21Z</time>
      </trkpt>
      <trkpt lat="45.34809" lon="6.54684">
        <ele>2169.78</ele>
        <time>2014-01-28T09:44:24Z</time>
      </trkpt>
      <trkpt lat="45.34799" lon="6.54656">
        <ele>2166.82</ele>
        <time>2014-01-28T09:44:28Z</time>
      </trkpt>
      <trkpt lat="45.34787" lon="6.54633">
        <ele>2163.96</ele>
        <time>2014-01-28T09:44:32Z</time>
      </trkpt>
      <trkpt lat="45.34774" lon="6.54615">
        <ele>2161.74</ele>
        <time>2014-01-28T09:44:37Z</time>
      </trkpt>
      <trkpt lat="45.34758" lon="6.54602">
        <ele>2159.53</ele>
        <time>2014-01-28T09:44:41Z</time>
      </trkpt>
      <trkpt lat="45.34737" lon="6.54588">
        <ele>2156.61</ele>
        <time>2014-01-28T09:44:45Z</time>
      </trkpt>
      <trkpt lat="45.34715" lon="6.54576">
        <ele>2152.1</ele>
        <time>2014-01-28T09:44:49Z</time>
      </trkpt>
      <trkpt lat="45.34695" lon="6.54574">
        <ele>2149.94</ele>
        <time>2014-01-28T09:46:15Z</time>
      </trkpt>
      <trkpt lat="45.34677" lon="6.54576">
        <ele>2148.37</ele>
        <time>2014-01-28T09:46:20Z</time>
      </trkpt>
      <trkpt lat="45.34654" lon="6.54577">
        <ele>2146.61</ele>
        <time>2014-01-28T09:46:25Z</time>
      </trkpt>
      <trkpt lat="45.3463" lon="6.54576">
        <ele>2146.89</ele>
        <time>2014-01-28T09:46:29Z</time>
      </trkpt>
      <trkpt lat="45.3461" lon="6.5457">
        <ele>2149.63</ele>
        <time>2014-01-28T09:46:32Z</time>
      </trkpt>
      <trkpt lat="45.34593" lon="6.54557">
        <ele>2149.24</ele>
        <time>2014-01-28T09:46:35Z</time>
      </trkpt>
      <trkpt lat="45.34576" lon="6.54537">
        <ele>2146.56</ele>
        <time>2014-01-28T09:46:38Z</time>
      </trkpt>
      <trkpt lat="45.34558" lon="6.54518">
        <ele>2143.15</ele>
        <time>2014-01-28T09:46:41Z</time>
      </trkpt>
      <trkpt lat="45.34539" lon="6.54504">
        <ele>2138.86</ele>
        <time>2014-01-28T09:46:44Z</time>
      </trkpt>
      <trkpt lat="45.34516" lon="6.54491">
        <ele>2134.12</ele>
        <time>2014-01-28T09:46:47Z</time>
      </trkpt>
      <trkpt lat="45.34493" lon="6.54481">
        <ele>2130.18</ele>
        <time>2014-01-28T09:46:50Z</time>
      </trkpt>
      <trkpt lat="45.34468" lon="6.54473">
        <ele>2126.15</ele>
        <time>2014-01-28T09:46:53Z</time>
      </trkpt>
      <trkpt lat="45.34449" lon="6.54468">
        <ele>2124.97</ele>
        <time>2014-01-28T09:46:55Z</time>
      </trkpt>
      <trkpt lat="45.34429" lon="6.54462">
        <ele>2122.73</ele>
        <time>2014-01-28T09:46:57Z</time>
      </trkpt>
      <trkpt lat="45.34409" lon="6.54457">
        <ele>2120.28</ele>
        <time>2014-01-28T09:46:59Z</time>
      </trkpt>
      <trkpt lat="45.34388" lon="6.54451">
        <ele>2118.15</ele>
        <time>2014-01-28T09:47:01Z</time>
      </trkpt>
      <trkpt lat="45.34368" lon="6.54446">
        <ele>2115.71</ele>
        <time>2014-01-28T09:47:03Z</time>
      </trkpt>
      <trkpt lat="45.3435" lon="6.5444">
        <ele>2112.58</ele>
        <time>2014-01-28T09:47:05Z</time>
      </trkpt>
      <trkpt lat="45.34332" lon="6.54434">
        <ele>2109.13</ele>
        <time>2014-01-28T09:47:07Z</time>
      </trkpt>
      <trkpt lat="45.34314" lon="6.54426">
        <ele>2106.76</ele>
        <time>2014-01-28T09:47:09Z</time>
      </trkpt>
      <trkpt lat="45.34293" lon="6.54415">
        <ele>2103.93</ele>
        <time>2014-01-28T09:47:11Z</time>
      </trkpt>
      <trkpt lat="45.34272" lon="6.54404">
        <ele>2102.07</ele>
        <time>2014-01-28T09:47:13Z</time>
      </trkpt>
      <trkpt lat="45.34254" lon="6.54394">
        <ele>2102.28</ele>
        <time>2014-01-28T09:47:15Z</time>
      </trkpt>
      <trkpt lat="45.34231" lon="6.54379">
        <ele>2101.32</ele>
        <time>2014-01-28T09:47:18Z</time>
      </trkpt>
      <trkpt lat="45.34214" lon="6.54368">
        <ele>2099.72</ele>
        <time>2014-01-28T09:47:21Z</time>
      </trkpt>
      <trkpt lat="45.34197" lon="6.54355">
        <ele>2097.05</ele>
        <time>2014-01-28T09:47:24Z</time>
      </trkpt>
      <trkpt lat="45.34176" lon="6.54346">
        <ele>2094.28</ele>
        <time>2014-01-28T09:47:27Z</time>
      </trkpt>
      <trkpt lat="45.34154" lon="6.54337">
        <ele>2092.39</ele>
        <time>2014-01-28T09:47:30Z</time>
      </trkpt>
      <trkpt lat="45.34135" lon="6.54331">
        <ele>2091.26</ele>
        <time>2014-01-28T09:47:32Z</time>
      </trkpt>
      <trkpt lat="45.34116" lon="6.54325">
        <ele>2089.86</ele>
        <time>2014-01-28T09:47:34Z</time>
      </trkpt>
      <trkpt lat="45.34095" lon="6.54322">
        <ele>2086.25</ele>
        <time>2014-01-28T09:47:36Z</time>
      </trkpt>
      <trkpt lat="45.3407" lon="6.54328">
        <ele>2080.75</ele>
        <time>2014-01-28T09:47:39Z</time>
      </trkpt>
      <trkpt lat="45.34052" lon="6.54344">
        <ele>2075.65</ele>
        <time>2014-01-28T09:47:42Z</time>
      </trkpt>
      <trkpt lat="45.34034" lon="6.54369">
        <ele>2065.02</ele>
        <time>2014-01-28T09:47:45Z</time>
      </trkpt>
      <trkpt lat="45.34015" lon="6.54395">
        <ele>2057.2</ele>
        <time>2014-01-28T09:47:48Z</time>
      </trkpt>
      <trkpt lat="45.34003" lon="6.54414">
        <ele>2055.52</ele>
        <time>2014-01-28T09:47:50Z</time>
      </trkpt>
      <trkpt lat="45.33983" lon="6.54436">
        <ele>2057.59</ele>
        <time>2014-01-28T09:47:53Z</time>
      </trkpt>
      <trkpt lat="45.33967" lon="6.54449">
        <ele>2057.89</ele>
        <time>2014-01-28T09:47:55Z</time>
      </trkpt>
      <trkpt lat="45.33948" lon="6.54461">
        <ele>2056.22</ele>
        <time>2014-01-28T09:47:57Z</time>
      </trkpt>
      <trkpt lat="45.33929" lon="6.5447">
        <ele>2055.17</ele>
        <time>2014-01-28T09:47:59Z</time>
      </trkpt>
      <trkpt lat="45.33912" lon="6.54475">
        <ele>2052.9</ele>
        <time>2014-01-28T09:48:01Z</time>
      </trkpt>
      <trkpt lat="45.33892" lon="6.54474">
        <ele>2050.72</ele>
        <time>2014-01-28T09:48:03Z</time>
      </trkpt>
      <trkpt lat="45.33871" lon="6.5447">
        <ele>2049.15</ele>
        <time>2014-01-28T09:48:05Z</time>
      </trkpt>
      <trkpt lat="45.3385" lon="6.54461">
        <ele>2048.47</ele>
        <time>2014-01-28T09:48:07Z</time>
      </trkpt>
      <trkpt lat="45.33829" lon="6.54446">
        <ele>2047.35</ele>
        <time>2014-01-28T09:48:09Z</time>
      </trkpt>
      <trkpt lat="45.33811" lon="6.54431">
        <ele>2045.62</ele>
        <time>2014-01-28T09:48:11Z</time>
      </trkpt>
      <trkpt lat="45.33794" lon="6.54419">
        <ele>2043.04</ele>
        <time>2014-01-28T09:48:13Z</time>
      </trkpt>
      <trkpt lat="45.33769" lon="6.54404">
        <ele>2038.43</ele>
        <time>2014-01-28T09:48:16Z</time>
      </trkpt>
      <trkpt lat="45.33751" lon="6.54397">
        <ele>2034.71</ele>
        <time>2014-01-28T09:48:18Z</time>
      </trkpt>
      <trkpt lat="45.33724" lon="6.54397">
        <ele>2028.51</ele>
        <time>2014-01-28T09:48:21Z</time>
      </trkpt>
      <trkpt lat="45.33703" lon="6.54399">
        <ele>2027.38</ele>
        <time>2014-01-28T09:48:23Z</time>
      </trkpt>
      <trkpt lat="45.33682" lon="6.544">
        <ele>2026.42</ele>
        <time>2014-01-28T09:48:25Z</time>
      </trkpt>
      <trkpt lat="45.33662" lon="6.54397">
        <ele>2024.96</ele>
        <time>2014-01-28T09:48:27Z</time>
      </trkpt>
      <trkpt lat="45.33642" lon="6.54392">
        <ele>2024.49</ele>
        <time>2014-01-28T09:48:29Z</time>
      </trkpt>
      <trkpt lat="45.33618" lon="6.54376">
        <ele>2026.49</ele>
        <time>2014-01-28T09:48:32Z</time>
      </trkpt>
      <trkpt lat="45.336" lon="6.54357">
        <ele>2025.29</ele>
        <time>2014-01-28T09:48:35Z</time>
      </trkpt>
      <trkpt lat="45.33582" lon="6.54336">
        <ele>2020.19</ele>
        <time>2014-01-28T09:48:38Z</time>
      </trkpt>
      <trkpt lat="45.3356" lon="6.54328">
        <ele>2011.32</ele>
        <time>2014-01-28T09:48:41Z</time>
      </trkpt>
      <trkpt lat="45.33539" lon="6.54327">
        <ele>2005.93</ele>
        <time>2014-01-28T09:48:44Z</time>
      </trkpt>
      <trkpt lat="45.33516" lon="6.54333">
        <ele>2004.63</ele>
        <time>2014-01-28T09:48:47Z</time>
      </trkpt>
      <trkpt lat="45.33492" lon="6.54337">
        <ele>2003.57</ele>
        <time>2014-01-28T09:48:50Z</time>
      </trkpt>
      <trkpt lat="45.33467" lon="6.54337">
        <ele>2002.53</ele>
        <time>2014-01-28T09:48:53Z</time>
      </trkpt>
      <trkpt lat="45.33449" lon="6.54334">
        <ele>2000.51</ele>
        <time>2014-01-28T09:48:55Z</time>
      </trkpt>
      <trkpt lat="45.3343" lon="6.54328">
        <ele>1998.33</ele>
        <time>2014-01-28T09:48:57Z</time>
      </trkpt>
      <trkpt lat="45.33411" lon="6.5432">
        <ele>1995.25</ele>
        <time>2014-01-28T09:48:59Z</time>
      </trkpt>
      <trkpt lat="45.33391" lon="6.54309">
        <ele>1991.89</ele>
        <time>2014-01-28T09:49:01Z</time>
      </trkpt>
      <trkpt lat="45.33369" lon="6.54301">
        <ele>1986.76</ele>
        <time>2014-01-28T09:49:03Z</time>
      </trkpt>
      <trkpt lat="45.33347" lon="6.54301">
        <ele>1981.92</ele>
        <time>2014-01-28T09:49:05Z</time>
      </trkpt>
      <trkpt lat="45.33326" lon="6.54307">
        <ele>1978.79</ele>
        <time>2014-01-28T09:49:07Z</time>
      </trkpt>
      <trkpt lat="45.33306" lon="6.54312">
        <ele>1977.37</ele>
        <time>2014-01-28T09:49:09Z</time>
      </trkpt>
      <trkpt lat="45.33285" lon="6.54314">
        <ele>1974.79</ele>
        <time>2014-01-28T09:49:11Z</time>
      </trkpt>
      <trkpt lat="45.33265" lon="6.54309">
        <ele>1972.76</ele>
        <time>2014-01-28T09:49:13Z</time>
      </trkpt>
      <trkpt lat="45.33245" lon="6.54302">
        <ele>1971.8</ele>
        <time>2014-01-28T09:49:15Z</time>
      </trkpt>
      <trkpt lat="45.33227" lon="6.54293">
        <ele>1972.47</ele>
        <time>2014-01-28T09:49:17Z</time>
      </trkpt>
      <trkpt lat="45.33205" lon="6.54277">
        <ele>1974.24</ele>
        <time>2014-01-28T09:49:20Z</time>
      </trkpt>
      <trkpt lat="45.33185" lon="6.5426">
        <ele>1974.23</ele>
        <time>2014-01-28T09:49:23Z</time>
      </trkpt>
      <trkpt lat="45.33166" lon="6.54242">
        <ele>1971.24</ele>
        <time>2014-01-28T09:49:26Z</time>
      </trkpt>
      <trkpt lat="45.33148" lon="6.54227">
        <ele>1965.24</ele>
        <time>2014-01-28T09:49:29Z</time>
      </trkpt>
      <trkpt lat="45.33129" lon="6.54216">
        <ele>1960.46</ele>
        <time>2014-01-28T09:49:32Z</time>
      </trkpt>
      <trkpt lat="45.33108" lon="6.54219">
        <ele>1960.85</ele>
        <time>2014-01-28T09:49:36Z</time>
      </trkpt>
      <trkpt lat="45.33086" lon="6.54223">
        <ele>1960.37</ele>
        <time>2014-01-28T09:49:40Z</time>
      </trkpt>
      <trkpt lat="45.33068" lon="6.54223">
        <ele>1960.27</ele>
        <time>2014-01-28T09:49:44Z</time>
      </trkpt>
      <trkpt lat="45.33049" lon="6.54221">
        <ele>1958.38</ele>
        <time>2014-01-28T09:49:48Z</time>
      </trkpt>
      <trkpt lat="45.3303" lon="6.54218">
        <ele>1954.53</ele>
        <time>2014-01-28T09:49:52Z</time>
      </trkpt>
      <trkpt lat="45.33009" lon="6.54216">
        <ele>1953.82</ele>
        <time>2014-01-28T09:49:56Z</time>
      </trkpt>
      <trkpt lat="45.3299" lon="6.54216">
        <ele>1951.49</ele>
        <time>2014-01-28T09:49:59Z</time>
      </trkpt>
      <trkpt lat="45.32967" lon="6.54217">
        <ele>1945.33</ele>
        <time>2014-01-28T09:50:02Z</time>
      </trkpt>
      <trkpt lat="45.32942" lon="6.5422">
        <ele>1937.07</ele>
        <time>2014-01-28T09:50:05Z</time>
      </trkpt>
      <trkpt lat="45.32916" lon="6.54223">
        <ele>1937.38</ele>
        <time>2014-01-28T09:50:08Z</time>
      </trkpt>
      <trkpt lat="45.32898" lon="6.54219">
        <ele>1941.29</ele>
        <time>2014-01-28T09:50:10Z</time>
      </trkpt>
      <trkpt lat="45.32873" lon="6.54206">
        <ele>1939.41</ele>
        <time>2014-01-28T09:50:13Z</time>
      </trkpt>
      <trkpt lat="45.32849" lon="6.54198">
        <ele>1936.06</ele>
        <time>2014-01-28T09:50:16Z</time>
      </trkpt>
      <trkpt lat="45.32826" lon="6.54189">
        <ele>1932.29</ele>
        <time>2014-01-28T09:50:19Z</time>
      </trkpt>
      <trkpt lat="45.32804" lon="6.54184">
        <ele>1926.66</ele>
        <time>2014-01-28T09:50:22Z</time>
      </trkpt>
      <trkpt lat="45.32781" lon="6.54183">
        <ele>1923.28</ele>
        <time>2014-01-28T09:50:25Z</time>
      </trkpt>
      <trkpt lat="45.32758" lon="6.54183">
        <ele>1917.22</ele>
        <time>2014-01-28T09:50:28Z</time>
      </trkpt>
      <trkpt lat="45.32734" lon="6.54191">
        <ele>1912.48</ele>
        <time>2014-01-28T09:50:31Z</time>
      </trkpt>
      <trkpt lat="45.32709" lon="6.54206">
        <ele>1913.05</ele>
        <time>2014-01-28T09:50:34Z</time>
      </trkpt>
      <trkpt lat="45.32689" lon="6.54213">
        <ele>1912.24</ele>
        <time>2014-01-28T09:50:37Z</time>
      </trkpt>
      <trkpt lat="45.32667" lon="6.54217">
        <ele>1903.95</ele>
        <time>2014-01-28T09:50:40Z</time>
      </trkpt>
      <trkpt lat="45.32644" lon="6.54221">
        <ele>1904.8</ele>
        <time>2014-01-28T09:50:43Z</time>
      </trkpt>
      <trkpt lat="45.32619" lon="6.54223">
        <ele>1904.63</ele>
        <time>2014-01-28T09:50:46Z</time>
      </trkpt>
      <trkpt lat="45.32598" lon="6.54224">
        <ele>1898.35</ele>
        <time>2014-01-28T09:50:48Z</time>
      </trkpt>
      <trkpt lat="45.3258" lon="6.54226">
        <ele>1892.51</ele>
        <time>2014-01-28T09:50:50Z</time>
      </trkpt>
      <trkpt lat="45.32554" lon="6.54235">
        <ele>1895.2</ele>
        <time>2014-01-28T09:50:53Z</time>
      </trkpt>
      <trkpt lat="45.3253" lon="6.54242">
        <ele>1897.63</ele>
        <time>2014-01-28T09:50:56Z</time>
      </trkpt>
      <trkpt lat="45.32506" lon="6.54234">
        <ele>1892.51</ele>
        <time>2014-01-28T09:50:59Z</time>
      </trkpt>
      <trkpt lat="45.32484" lon="6.54226">
        <ele>1882.31</ele>
        <time>2014-01-28T09:51:02Z</time>
      </trkpt>
      <trkpt lat="45.32473" lon="6.54206">
        <ele>1873.85</ele>
        <time>2014-01-28T09:51:46Z</time>
      </trkpt>
      <trkpt lat="45.32487" lon="6.54185">
        <ele>1875.48</ele>
        <time>2014-01-28T09:51:53Z</time>
      </trkpt>
      <trkpt lat="45.32499" lon="6.5416">
        <ele>1874.67</ele>
        <time>2014-01-28T09:51:57Z</time>
      </trkpt>
      <trkpt lat="45.32506" lon="6.54133">
        <ele>1870.85</ele>
        <time>2014-01-28T09:52:00Z</time>
      </trkpt>
      <trkpt lat="45.32511" lon="6.54107">
        <ele>1864.4</ele>
        <time>2014-01-28T09:52:03Z</time>
      </trkpt>
      <trkpt lat="45.3251" lon="6.54081">
        <ele>1857.3</ele>
        <time>2014-01-28T09:52:06Z</time>
      </trkpt>
      <trkpt lat="45.32492" lon="6.54063">
        <ele>1851.43</ele>
        <time>2014-01-28T09:52:09Z</time>
      </trkpt>
      <trkpt lat="45.32471" lon="6.54067">
        <ele>1847.74</ele>
        <time>2014-01-28T09:52:12Z</time>
      </trkpt>
      <trkpt lat="45.32451" lon="6.54085">
        <ele>1850.64</ele>
        <time>2014-01-28T09:52:15Z</time>
      </trkpt>
      <trkpt lat="45.32427" lon="6.54097">
        <ele>1847.04</ele>
        <time>2014-01-28T09:52:18Z</time>
      </trkpt>
      <trkpt lat="45.3241" lon="6.54106">
        <ele>1845.93</ele>
        <time>2014-01-28T09:52:20Z</time>
      </trkpt>
      <trkpt lat="45.32389" lon="6.54111">
        <ele>1841.89</ele>
        <time>2014-01-28T09:52:23Z</time>
      </trkpt>
      <trkpt lat="45.32366" lon="6.54107">
        <ele>1840.63</ele>
        <time>2014-01-28T09:52:26Z</time>
      </trkpt>
      <trkpt lat="45.32342" lon="6.54098">
        <ele>1842.28</ele>
        <time>2014-01-28T09:52:29Z</time>
      </trkpt>
      <trkpt lat="45.32325" lon="6.54077">
        <ele>1841.45</ele>
        <time>2014-01-28T09:52:32Z</time>
      </trkpt>
      <trkpt lat="45.32324" lon="6.54048">
        <ele>1837.09</ele>
        <time>2014-01-28T09:52:35Z</time>
      </trkpt>
      <trkpt lat="45.32337" lon="6.54022">
        <ele>1832.96</ele>
        <time>2014-01-28T09:52:38Z</time>
      </trkpt>
      <trkpt lat="45.32349" lon="6.5399">
        <ele>1827.92</ele>
        <time>2014-01-28T09:52:41Z</time>
      </trkpt>
      <trkpt lat="45.32357" lon="6.53966">
        <ele>1823.5</ele>
        <time>2014-01-28T09:52:43Z</time>
      </trkpt>
      <trkpt lat="45.3237" lon="6.53941">
        <ele>1819.48</ele>
        <time>2014-01-28T09:52:45Z</time>
      </trkpt>
      <trkpt lat="45.32384" lon="6.53917">
        <ele>1818.03</ele>
        <time>2014-01-28T09:52:47Z</time>
      </trkpt>
      <trkpt lat="45.32397" lon="6.53896">
        <ele>1816.45</ele>
        <time>2014-01-28T09:52:49Z</time>
      </trkpt>
      <trkpt lat="45.3241" lon="6.53874">
        <ele>1815.45</ele>
        <time>2014-01-28T09:52:51Z</time>
      </trkpt>
      <trkpt lat="45.32423" lon="6.53853">
        <ele>1814.42</ele>
        <time>2014-01-28T09:52:53Z</time>
      </trkpt>
      <trkpt lat="45.32437" lon="6.53826">
        <ele>1812.2</ele>
        <time>2014-01-28T09:52:56Z</time>
      </trkpt>
      <trkpt lat="45.32449" lon="6.53805">
        <ele>1810.76</ele>
        <time>2014-01-28T09:52:59Z</time>
      </trkpt>
      <trkpt lat="45.32463" lon="6.53784">
        <ele>1807.76</ele>
        <time>2014-01-28T09:53:02Z</time>
      </trkpt>
      <trkpt lat="45.32479" lon="6.53761">
        <ele>1803.24</ele>
        <time>2014-01-28T09:53:06Z</time>
      </trkpt>
      <trkpt lat="45.32483" lon="6.53736">
        <ele>1799.74</ele>
        <time>2014-01-28T09:53:09Z</time>
      </trkpt>
      <trkpt lat="45.32482" lon="6.53707">
        <ele>1796.11</ele>
        <time>2014-01-28T09:53:12Z</time>
      </trkpt>
      <trkpt lat="45.32475" lon="6.53678">
        <ele>1792.6</ele>
        <time>2014-01-28T09:53:15Z</time>
      </trkpt>
      <trkpt lat="45.32453" lon="6.53654">
        <ele>1791.29</ele>
        <time>2014-01-28T09:53:18Z</time>
      </trkpt>
      <trkpt lat="45.32434" lon="6.53641">
        <ele>1788.13</ele>
        <time>2014-01-28T09:53:20Z</time>
      </trkpt>
      <trkpt lat="45.32412" lon="6.53628">
        <ele>1784.32</ele>
        <time>2014-01-28T09:53:22Z</time>
      </trkpt>
      <trkpt lat="45.32389" lon="6.53619">
        <ele>1781.86</ele>
        <time>2014-01-28T09:53:24Z</time>
      </trkpt>
      <trkpt lat="45.3237" lon="6.5361">
        <ele>1778.3</ele>
        <time>2014-01-28T09:53:26Z</time>
      </trkpt>
      <trkpt lat="45.32344" lon="6.53604">
        <ele>1774.11</ele>
        <time>2014-01-28T09:53:29Z</time>
      </trkpt>
      <trkpt lat="45.32325" lon="6.53603">
        <ele>1771.94</ele>
        <time>2014-01-28T09:53:31Z</time>
      </trkpt>
      <trkpt lat="45.32306" lon="6.536">
        <ele>1769.72</ele>
        <time>2014-01-28T09:53:33Z</time>
      </trkpt>
      <trkpt lat="45.32288" lon="6.53598">
        <ele>1768.17</ele>
        <time>2014-01-28T09:53:35Z</time>
      </trkpt>
      <trkpt lat="45.3227" lon="6.53596">
        <ele>1766.29</ele>
        <time>2014-01-28T09:53:37Z</time>
      </trkpt>
      <trkpt lat="45.3225" lon="6.53592">
        <ele>1763.32</ele>
        <time>2014-01-28T09:53:39Z</time>
      </trkpt>
      <trkpt lat="45.32229" lon="6.5359">
        <ele>1761.92</ele>
        <time>2014-01-28T09:53:41Z</time>
      </trkpt>
      <trkpt lat="45.32208" lon="6.53588">
        <ele>1758.91</ele>
        <time>2014-01-28T09:53:43Z</time>
      </trkpt>
      <trkpt lat="45.32186" lon="6.53587">
        <ele>1754.77</ele>
        <time>2014-01-28T09:53:45Z</time>
      </trkpt>
      <trkpt lat="45.32164" lon="6.53595">
        <ele>1751.8</ele>
        <time>2014-01-28T09:53:47Z</time>
      </trkpt>
      <trkpt lat="45.32144" lon="6.53603">
        <ele>1751.53</ele>
        <time>2014-01-28T09:53:49Z</time>
      </trkpt>
      <trkpt lat="45.32124" lon="6.5361">
        <ele>1751.49</ele>
        <time>2014-01-28T09:53:51Z</time>
      </trkpt>
      <trkpt lat="45.32106" lon="6.53622">
        <ele>1752.16</ele>
        <time>2014-01-28T09:53:53Z</time>
      </trkpt>
      <trkpt lat="45.32087" lon="6.53626">
        <ele>1749.88</ele>
        <time>2014-01-28T09:53:55Z</time>
      </trkpt>
      <trkpt lat="45.32069" lon="6.5363">
        <ele>1746.83</ele>
        <time>2014-01-28T09:53:57Z</time>
      </trkpt>
      <trkpt lat="45.32051" lon="6.5361">
        <ele>1740.21</ele>
        <time>2014-01-28T09:54:00Z</time>
      </trkpt>
      <trkpt lat="45.32029" lon="6.53605">
        <ele>1731.99</ele>
        <time>2014-01-28T09:54:03Z</time>
      </trkpt>
      <trkpt lat="45.32006" lon="6.53617">
        <ele>1725.78</ele>
        <time>2014-01-28T09:54:07Z</time>
      </trkpt>
      <trkpt lat="45.31989" lon="6.53627">
        <ele>1725.44</ele>
        <time>2014-01-28T09:54:10Z</time>
      </trkpt>
      <trkpt lat="45.3197" lon="6.53638">
        <ele>1727.78</ele>
        <time>2014-01-28T09:54:14Z</time>
      </trkpt>
      <trkpt lat="45.31949" lon="6.53646">
        <ele>1729.6</ele>
        <time>2014-01-28T09:54:19Z</time>
      </trkpt>
      <trkpt lat="45.3193" lon="6.53647">
        <ele>1729.59</ele>
        <time>2014-01-28T09:54:23Z</time>
      </trkpt>
      <trkpt lat="45.31912" lon="6.53649">
        <ele>1730</ele>
        <time>2014-01-28T09:54:27Z</time>
      </trkpt>
      <trkpt lat="45.31892" lon="6.53645">
        <ele>1729.17</ele>
        <time>2014-01-28T09:54:32Z</time>
      </trkpt>
      <trkpt lat="45.31875" lon="6.53627">
        <ele>1728.02</ele>
        <time>2014-01-28T09:54:36Z</time>
      </trkpt>
      <trkpt lat="45.31869" lon="6.53601">
        <ele>1728.01</ele>
        <time>2014-01-28T09:54:39Z</time>
      </trkpt>
      <trkpt lat="45.31867" lon="6.5357">
        <ele>1728.46</ele>
        <time>2014-01-28T09:54:42Z</time>
      </trkpt>
      <trkpt lat="45.31882" lon="6.5355">
        <ele>1727.53</ele>
        <time>2014-01-28T09:54:47Z</time>
      </trkpt>
      <trkpt lat="45.31901" lon="6.5355">
        <ele>1725.54</ele>
        <time>2014-01-28T09:54:55Z</time>
      </trkpt>
      <trkpt lat="45.31918" lon="6.5357">
        <ele>1722.36</ele>
        <time>2014-01-28T09:58:50Z</time>
      </trkpt>
      <trkpt lat="45.31905" lon="6.53546">
        <ele>1725.58</ele>
        <time>2014-01-28T10:00:30Z</time>
      </trkpt>
      <trkpt lat="45.31891" lon="6.53522">
        <ele>1728.47</ele>
        <time>2014-01-28T10:00:34Z</time>
      </trkpt>
      <trkpt lat="45.31882" lon="6.53498">
        <ele>1733.15</ele>
        <time>2014-01-28T10:00:38Z</time>
      </trkpt>
      <trkpt lat="45.31872" lon="6.53476">
        <ele>1741.67</ele>
        <time>2014-01-28T10:00:42Z</time>
      </trkpt>
      <trkpt lat="45.31861" lon="6.53449">
        <ele>1749.93</ele>
        <time>2014-01-28T10:00:48Z</time>
      </trkpt>
      <trkpt lat="45.31852" lon="6.53425">
        <ele>1756.86</ele>
        <time>2014-01-28T10:00:53Z</time>
      </trkpt>
      <trkpt lat="45.31839" lon="6.53402">
        <ele>1764.67</ele>
        <time>2014-01-28T10:00:59Z</time>
      </trkpt>
      <trkpt lat="45.31827" lon="6.53377">
        <ele>1772.63</ele>
        <time>2014-01-28T10:01:04Z</time>
      </trkpt>
      <trkpt lat="45.31815" lon="6.53354">
        <ele>1780.04</ele>
        <time>2014-01-28T10:01:08Z</time>
      </trkpt>
      <trkpt lat="45.31801" lon="6.53331">
        <ele>1789.11</ele>
        <time>2014-01-28T10:01:13Z</time>
      </trkpt>
      <trkpt lat="45.31789" lon="6.53308">
        <ele>1799.52</ele>
        <time>2014-01-28T10:01:17Z</time>
      </trkpt>
      <trkpt lat="45.31775" lon="6.53285">
        <ele>1809.21</ele>
        <time>2014-01-28T10:01:22Z</time>
      </trkpt>
      <trkpt lat="45.31763" lon="6.53264">
        <ele>1819.05</ele>
        <time>2014-01-28T10:01:27Z</time>
      </trkpt>
      <trkpt lat="45.31753" lon="6.53236">
        <ele>1835</ele>
        <time>2014-01-28T10:01:32Z</time>
      </trkpt>
      <trkpt lat="45.31743" lon="6.53213">
        <ele>1851.18</ele>
        <time>2014-01-28T10:01:37Z</time>
      </trkpt>
      <trkpt lat="45.31732" lon="6.53188">
        <ele>1869.59</ele>
        <time>2014-01-28T10:01:42Z</time>
      </trkpt>
      <trkpt lat="45.31717" lon="6.53165">
        <ele>1887.01</ele>
        <time>2014-01-28T10:01:47Z</time>
      </trkpt>
      <trkpt lat="45.31708" lon="6.53141">
        <ele>1899.69</ele>
        <time>2014-01-28T10:01:52Z</time>
      </trkpt>
      <trkpt lat="45.31698" lon="6.53117">
        <ele>1906.13</ele>
        <time>2014-01-28T10:01:57Z</time>
      </trkpt>
      <trkpt lat="45.31687" lon="6.53092">
        <ele>1911.34</ele>
        <time>2014-01-28T10:02:03Z</time>
      </trkpt>
      <trkpt lat="45.31677" lon="6.53068">
        <ele>1916.26</ele>
        <time>2014-01-28T10:02:08Z</time>
      </trkpt>
      <trkpt lat="45.31664" lon="6.53047">
        <ele>1921.62</ele>
        <time>2014-01-28T10:02:13Z</time>
      </trkpt>
      <trkpt lat="45.31647" lon="6.53026">
        <ele>1926.96</ele>
        <time>2014-01-28T10:02:18Z</time>
      </trkpt>
      <trkpt lat="45.31634" lon="6.53007">
        <ele>1931.14</ele>
        <time>2014-01-28T10:02:22Z</time>
      </trkpt>
      <trkpt lat="45.3162" lon="6.52983">
        <ele>1937.23</ele>
        <time>2014-01-28T10:02:27Z</time>
      </trkpt>
      <trkpt lat="45.31607" lon="6.52962">
        <ele>1941.73</ele>
        <time>2014-01-28T10:02:31Z</time>
      </trkpt>
      <trkpt lat="45.31595" lon="6.52939">
        <ele>1944.72</ele>
        <time>2014-01-28T10:02:36Z</time>
      </trkpt>
      <trkpt lat="45.31584" lon="6.52914">
        <ele>1948.03</ele>
        <time>2014-01-28T10:02:42Z</time>
      </trkpt>
      <trkpt lat="45.31572" lon="6.52887">
        <ele>1955.96</ele>
        <time>2014-01-28T10:02:47Z</time>
      </trkpt>
      <trkpt lat="45.3156" lon="6.52864">
        <ele>1966.67</ele>
        <time>2014-01-28T10:02:52Z</time>
      </trkpt>
      <trkpt lat="45.31548" lon="6.52839">
        <ele>1979.46</ele>
        <time>2014-01-28T10:02:57Z</time>
      </trkpt>
      <trkpt lat="45.31536" lon="6.52817">
        <ele>1990.28</ele>
        <time>2014-01-28T10:03:01Z</time>
      </trkpt>
      <trkpt lat="45.31523" lon="6.52796">
        <ele>1996.34</ele>
        <time>2014-01-28T10:03:06Z</time>
      </trkpt>
      <trkpt lat="45.3151" lon="6.5277">
        <ele>2003.22</ele>
        <time>2014-01-28T10:03:12Z</time>
      </trkpt>
      <trkpt lat="45.31498" lon="6.52747">
        <ele>2010.65</ele>
        <time>2014-01-28T10:03:18Z</time>
      </trkpt>
      <trkpt lat="45.31487" lon="6.52724">
        <ele>2019.55</ele>
        <time>2014-01-28T10:03:22Z</time>
      </trkpt>
      <trkpt lat="45.31475" lon="6.52697">
        <ele>2032.12</ele>
        <time>2014-01-28T10:03:27Z</time>
      </trkpt>
      <trkpt lat="45.31463" lon="6.52674">
        <ele>2043.2</ele>
        <time>2014-01-28T10:03:31Z</time>
      </trkpt>
      <trkpt lat="45.31452" lon="6.52653">
        <ele>2052.16</ele>
        <time>2014-01-28T10:03:35Z</time>
      </trkpt>
      <trkpt lat="45.31442" lon="6.5263">
        <ele>2061.66</ele>
        <time>2014-01-28T10:03:40Z</time>
      </trkpt>
      <trkpt lat="45.31431" lon="6.52604">
        <ele>2069.38</ele>
        <time>2014-01-28T10:03:46Z</time>
      </trkpt>
      <trkpt lat="45.31419" lon="6.52581">
        <ele>2076.54</ele>
        <time>2014-01-28T10:03:51Z</time>
      </trkpt>
      <trkpt lat="45.31405" lon="6.52559">
        <ele>2084.54</ele>
        <time>2014-01-28T10:03:56Z</time>
      </trkpt>
      <trkpt lat="45.31393" lon="6.52533">
        <ele>2093.16</ele>
        <time>2014-01-28T10:04:00Z</time>
      </trkpt>
      <trkpt lat="45.31385" lon="6.5251">
        <ele>2099.46</ele>
        <time>2014-01-28T10:04:04Z</time>
      </trkpt>
      <trkpt lat="45.31374" lon="6.52488">
        <ele>2105.07</ele>
        <time>2014-01-28T10:04:09Z</time>
      </trkpt>
      <trkpt lat="45.31361" lon="6.52466">
        <ele>2111.93</ele>
        <time>2014-01-28T10:04:14Z</time>
      </trkpt>
      <trkpt lat="45.31349" lon="6.52447">
        <ele>2118.05</ele>
        <time>2014-01-28T10:04:19Z</time>
      </trkpt>
      <trkpt lat="45.31339" lon="6.5242">
        <ele>2128.66</ele>
        <time>2014-01-28T10:04:24Z</time>
      </trkpt>
      <trkpt lat="45.31328" lon="6.52393">
        <ele>2141.41</ele>
        <time>2014-01-28T10:04:29Z</time>
      </trkpt>
      <trkpt lat="45.31315" lon="6.5237">
        <ele>2151.49</ele>
        <time>2014-01-28T10:04:34Z</time>
      </trkpt>
      <trkpt lat="45.31304" lon="6.52344">
        <ele>2165.53</ele>
        <time>2014-01-28T10:04:39Z</time>
      </trkpt>
      <trkpt lat="45.3129" lon="6.52324">
        <ele>2174.49</ele>
        <time>2014-01-28T10:04:44Z</time>
      </trkpt>
      <trkpt lat="45.31279" lon="6.52302">
        <ele>2183.16</ele>
        <time>2014-01-28T10:04:49Z</time>
      </trkpt>
      <trkpt lat="45.31265" lon="6.52278">
        <ele>2189.95</ele>
        <time>2014-01-28T10:04:54Z</time>
      </trkpt>
      <trkpt lat="45.31253" lon="6.52258">
        <ele>2200.28</ele>
        <time>2014-01-28T10:04:58Z</time>
      </trkpt>
      <trkpt lat="45.3124" lon="6.52238">
        <ele>2211.08</ele>
        <time>2014-01-28T10:05:03Z</time>
      </trkpt>
      <trkpt lat="45.31228" lon="6.52217">
        <ele>2221.33</ele>
        <time>2014-01-28T10:05:08Z</time>
      </trkpt>
      <trkpt lat="45.31212" lon="6.52199">
        <ele>2230.05</ele>
        <time>2014-01-28T10:05:13Z</time>
      </trkpt>
      <trkpt lat="45.31196" lon="6.52178">
        <ele>2245.65</ele>
        <time>2014-01-28T10:05:18Z</time>
      </trkpt>
      <trkpt lat="45.31186" lon="6.52151">
        <ele>2265.2</ele>
        <time>2014-01-28T10:05:23Z</time>
      </trkpt>
      <trkpt lat="45.31177" lon="6.52126">
        <ele>2276.37</ele>
        <time>2014-01-28T10:05:28Z</time>
      </trkpt>
      <trkpt lat="45.31169" lon="6.52098">
        <ele>2280.85</ele>
        <time>2014-01-28T10:05:33Z</time>
      </trkpt>
      <trkpt lat="45.31156" lon="6.52075">
        <ele>2282.56</ele>
        <time>2014-01-28T10:05:38Z</time>
      </trkpt>
      <trkpt lat="45.31142" lon="6.52052">
        <ele>2282.18</ele>
        <time>2014-01-28T10:05:43Z</time>
      </trkpt>
      <trkpt lat="45.31129" lon="6.52032">
        <ele>2282.44</ele>
        <time>2014-01-28T10:05:47Z</time>
      </trkpt>
      <trkpt lat="45.31116" lon="6.52013">
        <ele>2284.71</ele>
        <time>2014-01-28T10:05:51Z</time>
      </trkpt>
      <trkpt lat="45.31103" lon="6.51994">
        <ele>2287.4</ele>
        <time>2014-01-28T10:05:57Z</time>
      </trkpt>
      <trkpt lat="45.31104" lon="6.51962">
        <ele>2283.92</ele>
        <time>2014-01-28T10:06:42Z</time>
      </trkpt>
      <trkpt lat="45.31096" lon="6.51934">
        <ele>2280.35</ele>
        <time>2014-01-28T10:08:38Z</time>
      </trkpt>
      <trkpt lat="45.31086" lon="6.51906">
        <ele>2275.29</ele>
        <time>2014-01-28T10:08:41Z</time>
      </trkpt>
      <trkpt lat="45.31076" lon="6.51881">
        <ele>2274.43</ele>
        <time>2014-01-28T10:08:43Z</time>
      </trkpt>
      <trkpt lat="45.31069" lon="6.51848">
        <ele>2275.56</ele>
        <time>2014-01-28T10:08:46Z</time>
      </trkpt>
      <trkpt lat="45.31092" lon="6.5184">
        <ele>2271.21</ele>
        <time>2014-01-28T10:08:49Z</time>
      </trkpt>
      <trkpt lat="45.3111" lon="6.51846">
        <ele>2267.75</ele>
        <time>2014-01-28T10:08:51Z</time>
      </trkpt>
      <trkpt lat="45.31135" lon="6.51844">
        <ele>2261.45</ele>
        <time>2014-01-28T10:08:54Z</time>
      </trkpt>
      <trkpt lat="45.31153" lon="6.5185">
        <ele>2257.29</ele>
        <time>2014-01-28T10:08:58Z</time>
      </trkpt>
      <trkpt lat="45.31165" lon="6.5187">
        <ele>2255.5</ele>
        <time>2014-01-28T10:09:02Z</time>
      </trkpt>
      <trkpt lat="45.31188" lon="6.5187">
        <ele>2247.9</ele>
        <time>2014-01-28T10:09:05Z</time>
      </trkpt>
      <trkpt lat="45.31215" lon="6.5187">
        <ele>2235.27</ele>
        <time>2014-01-28T10:09:08Z</time>
      </trkpt>
      <trkpt lat="45.31234" lon="6.51849">
        <ele>2226.79</ele>
        <time>2014-01-28T10:09:10Z</time>
      </trkpt>
      <trkpt lat="45.31249" lon="6.51822">
        <ele>2220.46</ele>
        <time>2014-01-28T10:09:12Z</time>
      </trkpt>
      <trkpt lat="45.31271" lon="6.51823">
        <ele>2211.19</ele>
        <time>2014-01-28T10:09:15Z</time>
      </trkpt>
      <trkpt lat="45.3129" lon="6.51816">
        <ele>2200.74</ele>
        <time>2014-01-28T10:09:18Z</time>
      </trkpt>
      <trkpt lat="45.31298" lon="6.51786">
        <ele>2191.33</ele>
        <time>2014-01-28T10:09:21Z</time>
      </trkpt>
      <trkpt lat="45.31313" lon="6.51757">
        <ele>2181.18</ele>
        <time>2014-01-28T10:09:24Z</time>
      </trkpt>
      <trkpt lat="45.31322" lon="6.51732">
        <ele>2177.8</ele>
        <time>2014-01-28T10:09:27Z</time>
      </trkpt>
      <trkpt lat="45.31328" lon="6.51699">
        <ele>2173.59</ele>
        <time>2014-01-28T10:09:30Z</time>
      </trkpt>
      <trkpt lat="45.31346" lon="6.51685">
        <ele>2163.72</ele>
        <time>2014-01-28T10:09:32Z</time>
      </trkpt>
      <trkpt lat="45.31372" lon="6.51673">
        <ele>2155.03</ele>
        <time>2014-01-28T10:09:34Z</time>
      </trkpt>
      <trkpt lat="45.31393" lon="6.51664">
        <ele>2148.01</ele>
        <time>2014-01-28T10:09:36Z</time>
      </trkpt>
      <trkpt lat="45.31419" lon="6.51672">
        <ele>2140.54</ele>
        <time>2014-01-28T10:09:39Z</time>
      </trkpt>
      <trkpt lat="45.31439" lon="6.51676">
        <ele>2139.78</ele>
        <time>2014-01-28T10:09:42Z</time>
      </trkpt>
      <trkpt lat="45.31461" lon="6.51685">
        <ele>2136.74</ele>
        <time>2014-01-28T10:09:45Z</time>
      </trkpt>
      <trkpt lat="45.31481" lon="6.51691">
        <ele>2133.74</ele>
        <time>2014-01-28T10:09:48Z</time>
      </trkpt>
      <trkpt lat="45.31499" lon="6.51695">
        <ele>2130.28</ele>
        <time>2014-01-28T10:09:51Z</time>
      </trkpt>
      <trkpt lat="45.31519" lon="6.51701">
        <ele>2130.38</ele>
        <time>2014-01-28T10:09:56Z</time>
      </trkpt>
      <trkpt lat="45.31538" lon="6.51705">
        <ele>2129.3</ele>
        <time>2014-01-28T10:10:00Z</time>
      </trkpt>
      <trkpt lat="45.31556" lon="6.51714">
        <ele>2127.62</ele>
        <time>2014-01-28T10:10:04Z</time>
      </trkpt>
      <trkpt lat="45.31574" lon="6.51736">
        <ele>2126.09</ele>
        <time>2014-01-28T10:10:08Z</time>
      </trkpt>
      <trkpt lat="45.31583" lon="6.5176">
        <ele>2124.71</ele>
        <time>2014-01-28T10:10:12Z</time>
      </trkpt>
      <trkpt lat="45.31588" lon="6.51786">
        <ele>2122.58</ele>
        <time>2014-01-28T10:10:16Z</time>
      </trkpt>
      <trkpt lat="45.31592" lon="6.51817">
        <ele>2119.66</ele>
        <time>2014-01-28T10:10:20Z</time>
      </trkpt>
      <trkpt lat="45.31601" lon="6.51839">
        <ele>2117.23</ele>
        <time>2014-01-28T10:10:25Z</time>
      </trkpt>
      <trkpt lat="45.31613" lon="6.51858">
        <ele>2117.15</ele>
        <time>2014-01-28T10:10:32Z</time>
      </trkpt>
      <trkpt lat="45.31628" lon="6.51875">
        <ele>2120.58</ele>
        <time>2014-01-28T10:10:39Z</time>
      </trkpt>
      <trkpt lat="45.31628" lon="6.51849">
        <ele>2112.92</ele>
        <time>2014-01-28T10:11:28Z</time>
      </trkpt>
      <trkpt lat="45.31615" lon="6.51828">
        <ele>2112.01</ele>
        <time>2014-01-28T10:11:37Z</time>
      </trkpt>
      <trkpt lat="45.31605" lon="6.51805">
        <ele>2116.5</ele>
        <time>2014-01-28T10:11:46Z</time>
      </trkpt>
      <trkpt lat="45.31594" lon="6.51782">
        <ele>2121.06</ele>
        <time>2014-01-28T10:11:55Z</time>
      </trkpt>
      <trkpt lat="45.31585" lon="6.51758">
        <ele>2123.7</ele>
        <time>2014-01-28T10:12:05Z</time>
      </trkpt>
      <trkpt lat="45.31575" lon="6.51736">
        <ele>2125.73</ele>
        <time>2014-01-28T10:12:15Z</time>
      </trkpt>
      <trkpt lat="45.31565" lon="6.51715">
        <ele>2125.68</ele>
        <time>2014-01-28T10:12:25Z</time>
      </trkpt>
      <trkpt lat="45.31555" lon="6.51693">
        <ele>2124.83</ele>
        <time>2014-01-28T10:12:33Z</time>
      </trkpt>
      <trkpt lat="45.31545" lon="6.5167">
        <ele>2122.4</ele>
        <time>2014-01-28T10:12:44Z</time>
      </trkpt>
      <trkpt lat="45.31534" lon="6.51648">
        <ele>2121.08</ele>
        <time>2014-01-28T10:12:53Z</time>
      </trkpt>
      <trkpt lat="45.31522" lon="6.51628">
        <ele>2120.7</ele>
        <time>2014-01-28T10:13:02Z</time>
      </trkpt>
      <trkpt lat="45.31511" lon="6.51605">
        <ele>2118.96</ele>
        <time>2014-01-28T10:13:12Z</time>
      </trkpt>
      <trkpt lat="45.315" lon="6.51581">
        <ele>2118.16</ele>
        <time>2014-01-28T10:13:22Z</time>
      </trkpt>
      <trkpt lat="45.31489" lon="6.5156">
        <ele>2122.65</ele>
        <time>2014-01-28T10:13:32Z</time>
      </trkpt>
      <trkpt lat="45.31479" lon="6.51537">
        <ele>2130.34</ele>
        <time>2014-01-28T10:13:43Z</time>
      </trkpt>
      <trkpt lat="45.31467" lon="6.51514">
        <ele>2140.67</ele>
        <time>2014-01-28T10:13:53Z</time>
      </trkpt>
      <trkpt lat="45.31458" lon="6.51491">
        <ele>2152.6</ele>
        <time>2014-01-28T10:14:04Z</time>
      </trkpt>
      <trkpt lat="45.31447" lon="6.5147">
        <ele>2165.57</ele>
        <time>2014-01-28T10:14:17Z</time>
      </trkpt>
      <trkpt lat="45.31437" lon="6.51447">
        <ele>2172.45</ele>
        <time>2014-01-28T10:14:26Z</time>
      </trkpt>
      <trkpt lat="45.31427" lon="6.51424">
        <ele>2180.12</ele>
        <time>2014-01-28T10:14:36Z</time>
      </trkpt>
      <trkpt lat="45.31415" lon="6.51402">
        <ele>2188.96</ele>
        <time>2014-01-28T10:14:46Z</time>
      </trkpt>
      <trkpt lat="45.31405" lon="6.5138">
        <ele>2196.88</ele>
        <time>2014-01-28T10:14:56Z</time>
      </trkpt>
      <trkpt lat="45.31393" lon="6.5136">
        <ele>2202.07</ele>
        <time>2014-01-28T10:15:06Z</time>
      </trkpt>
      <trkpt lat="45.31381" lon="6.51338">
        <ele>2206.67</ele>
        <time>2014-01-28T10:15:16Z</time>
      </trkpt>
      <trkpt lat="45.31372" lon="6.51316">
        <ele>2209.91</ele>
        <time>2014-01-28T10:15:25Z</time>
      </trkpt>
      <trkpt lat="45.3136" lon="6.51294">
        <ele>2215.61</ele>
        <time>2014-01-28T10:15:35Z</time>
      </trkpt>
      <trkpt lat="45.31349" lon="6.51273">
        <ele>2225.08</ele>
        <time>2014-01-28T10:15:45Z</time>
      </trkpt>
      <trkpt lat="45.3134" lon="6.51249">
        <ele>2238.46</ele>
        <time>2014-01-28T10:15:56Z</time>
      </trkpt>
      <trkpt lat="45.31329" lon="6.51227">
        <ele>2245.74</ele>
        <time>2014-01-28T10:16:07Z</time>
      </trkpt>
      <trkpt lat="45.31317" lon="6.51206">
        <ele>2251.28</ele>
        <time>2014-01-28T10:16:18Z</time>
      </trkpt>
      <trkpt lat="45.31305" lon="6.51185">
        <ele>2256.06</ele>
        <time>2014-01-28T10:16:30Z</time>
      </trkpt>
      <trkpt lat="45.31295" lon="6.51162">
        <ele>2264.31</ele>
        <time>2014-01-28T10:16:41Z</time>
      </trkpt>
      <trkpt lat="45.31286" lon="6.51139">
        <ele>2271.68</ele>
        <time>2014-01-28T10:16:51Z</time>
      </trkpt>
      <trkpt lat="45.31279" lon="6.51116">
        <ele>2284.27</ele>
        <time>2014-01-28T10:17:03Z</time>
      </trkpt>
      <trkpt lat="45.31269" lon="6.51093">
        <ele>2292.79</ele>
        <time>2014-01-28T10:17:13Z</time>
      </trkpt>
      <trkpt lat="45.31256" lon="6.51073">
        <ele>2297.22</ele>
        <time>2014-01-28T10:17:23Z</time>
      </trkpt>
      <trkpt lat="45.31244" lon="6.51053">
        <ele>2301.17</ele>
        <time>2014-01-28T10:17:31Z</time>
      </trkpt>
      <trkpt lat="45.31237" lon="6.51029">
        <ele>2310.53</ele>
        <time>2014-01-28T10:17:43Z</time>
      </trkpt>
      <trkpt lat="45.31227" lon="6.51007">
        <ele>2318.03</ele>
        <time>2014-01-28T10:17:53Z</time>
      </trkpt>
      <trkpt lat="45.31217" lon="6.50984">
        <ele>2327.28</ele>
        <time>2014-01-28T10:18:04Z</time>
      </trkpt>
      <trkpt lat="45.31204" lon="6.50963">
        <ele>2340.53</ele>
        <time>2014-01-28T10:18:14Z</time>
      </trkpt>
      <trkpt lat="45.31194" lon="6.50939">
        <ele>2356.11</ele>
        <time>2014-01-28T10:18:25Z</time>
      </trkpt>
      <trkpt lat="45.31183" lon="6.50918">
        <ele>2367.2</ele>
        <time>2014-01-28T10:18:35Z</time>
      </trkpt>
      <trkpt lat="45.31172" lon="6.50897">
        <ele>2380.46</ele>
        <time>2014-01-28T10:18:45Z</time>
      </trkpt>
      <trkpt lat="45.31158" lon="6.50878">
        <ele>2393.26</ele>
        <time>2014-01-28T10:18:56Z</time>
      </trkpt>
      <trkpt lat="45.31148" lon="6.50857">
        <ele>2403.94</ele>
        <time>2014-01-28T10:19:07Z</time>
      </trkpt>
      <trkpt lat="45.31138" lon="6.50836">
        <ele>2412.18</ele>
        <time>2014-01-28T10:19:18Z</time>
      </trkpt>
      <trkpt lat="45.31127" lon="6.50814">
        <ele>2426.75</ele>
        <time>2014-01-28T10:19:28Z</time>
      </trkpt>
      <trkpt lat="45.31117" lon="6.50792">
        <ele>2443.89</ele>
        <time>2014-01-28T10:19:38Z</time>
      </trkpt>
      <trkpt lat="45.31106" lon="6.50771">
        <ele>2457.05</ele>
        <time>2014-01-28T10:19:50Z</time>
      </trkpt>
      <trkpt lat="45.31095" lon="6.50747">
        <ele>2463.05</ele>
        <time>2014-01-28T10:20:01Z</time>
      </trkpt>
      <trkpt lat="45.31084" lon="6.50724">
        <ele>2463.1</ele>
        <time>2014-01-28T10:20:11Z</time>
      </trkpt>
      <trkpt lat="45.31073" lon="6.50704">
        <ele>2460.52</ele>
        <time>2014-01-28T10:20:20Z</time>
      </trkpt>
      <trkpt lat="45.31062" lon="6.5068">
        <ele>2462.32</ele>
        <time>2014-01-28T10:20:31Z</time>
      </trkpt>
      <trkpt lat="45.31052" lon="6.50657">
        <ele>2468.43</ele>
        <time>2014-01-28T10:20:41Z</time>
      </trkpt>
      <trkpt lat="45.31042" lon="6.50636">
        <ele>2473.64</ele>
        <time>2014-01-28T10:20:51Z</time>
      </trkpt>
      <trkpt lat="45.31031" lon="6.50614">
        <ele>2479.78</ele>
        <time>2014-01-28T10:21:01Z</time>
      </trkpt>
      <trkpt lat="45.31021" lon="6.50593">
        <ele>2497.6</ele>
        <time>2014-01-28T10:21:10Z</time>
      </trkpt>
      <trkpt lat="45.3101" lon="6.50571">
        <ele>2509.1</ele>
        <time>2014-01-28T10:21:22Z</time>
      </trkpt>
      <trkpt lat="45.30998" lon="6.50548">
        <ele>2511.35</ele>
        <time>2014-01-28T10:21:33Z</time>
      </trkpt>
      <trkpt lat="45.30988" lon="6.50526">
        <ele>2515.5</ele>
        <time>2014-01-28T10:21:43Z</time>
      </trkpt>
      <trkpt lat="45.30975" lon="6.505">
        <ele>2522.24</ele>
        <time>2014-01-28T10:21:55Z</time>
      </trkpt>
      <trkpt lat="45.30965" lon="6.50477">
        <ele>2528.74</ele>
        <time>2014-01-28T10:22:05Z</time>
      </trkpt>
      <trkpt lat="45.30953" lon="6.50454">
        <ele>2537.57</ele>
        <time>2014-01-28T10:22:15Z</time>
      </trkpt>
      <trkpt lat="45.30944" lon="6.50432">
        <ele>2545.9</ele>
        <time>2014-01-28T10:22:25Z</time>
      </trkpt>
      <trkpt lat="45.30934" lon="6.5041">
        <ele>2553.92</ele>
        <time>2014-01-28T10:22:35Z</time>
      </trkpt>
      <trkpt lat="45.30924" lon="6.50388">
        <ele>2565.13</ele>
        <time>2014-01-28T10:22:46Z</time>
      </trkpt>
      <trkpt lat="45.30913" lon="6.50367">
        <ele>2575.08</ele>
        <time>2014-01-28T10:22:57Z</time>
      </trkpt>
      <trkpt lat="45.30903" lon="6.50345">
        <ele>2586.52</ele>
        <time>2014-01-28T10:23:09Z</time>
      </trkpt>
      <trkpt lat="45.309" lon="6.503">
        <ele>2582.05</ele>
        <time>2014-01-28T10:23:56Z</time>
      </trkpt>
      <trkpt lat="45.30903" lon="6.50325">
        <ele>2590.85</ele>
        <time>2014-01-28T10:25:43Z</time>
      </trkpt>
      <trkpt lat="45.30897" lon="6.503">
        <ele>2581.3</ele>
        <time>2014-01-28T10:29:40Z</time>
      </trkpt>
      <trkpt lat="45.30914" lon="6.50289">
        <ele>2582.25</ele>
        <time>2014-01-28T10:35:31Z</time>
      </trkpt>
      <trkpt lat="45.30926" lon="6.50269">
        <ele>2579</ele>
        <time>2014-01-28T10:36:04Z</time>
      </trkpt>
      <trkpt lat="45.30932" lon="6.50245">
        <ele>2573.25</ele>
        <time>2014-01-28T10:37:12Z</time>
      </trkpt>
      <trkpt lat="45.30945" lon="6.50226">
        <ele>2572.44</ele>
        <time>2014-01-28T10:37:23Z</time>
      </trkpt>
      <trkpt lat="45.3096" lon="6.5021">
        <ele>2577.07</ele>
        <time>2014-01-28T10:37:30Z</time>
      </trkpt>
      <trkpt lat="45.30979" lon="6.50197">
        <ele>2582.8</ele>
        <time>2014-01-28T10:37:35Z</time>
      </trkpt>
      <trkpt lat="45.30999" lon="6.5019">
        <ele>2589.01</ele>
        <time>2014-01-28T10:37:41Z</time>
      </trkpt>
      <trkpt lat="45.31021" lon="6.50183">
        <ele>2589.26</ele>
        <time>2014-01-28T10:37:46Z</time>
      </trkpt>
      <trkpt lat="45.31039" lon="6.50177">
        <ele>2586.91</ele>
        <time>2014-01-28T10:37:52Z</time>
      </trkpt>
      <trkpt lat="45.31052" lon="6.5015">
        <ele>2580.65</ele>
        <time>2014-01-28T10:39:46Z</time>
      </trkpt>
      <trkpt lat="45.31073" lon="6.50155">
        <ele>2579.05</ele>
        <time>2014-01-28T10:39:49Z</time>
      </trkpt>
      <trkpt lat="45.31093" lon="6.50161">
        <ele>2577.76</ele>
        <time>2014-01-28T10:39:52Z</time>
      </trkpt>
      <trkpt lat="45.31111" lon="6.50163">
        <ele>2575.09</ele>
        <time>2014-01-28T10:39:55Z</time>
      </trkpt>
      <trkpt lat="45.31131" lon="6.50153">
        <ele>2569.75</ele>
        <time>2014-01-28T10:39:59Z</time>
      </trkpt>
      <trkpt lat="45.31147" lon="6.50135">
        <ele>2565.25</ele>
        <time>2014-01-28T10:40:03Z</time>
      </trkpt>
      <trkpt lat="45.31166" lon="6.50132">
        <ele>2562.34</ele>
        <time>2014-01-28T10:40:07Z</time>
      </trkpt>
      <trkpt lat="45.31182" lon="6.50117">
        <ele>2557.06</ele>
        <time>2014-01-28T10:40:12Z</time>
      </trkpt>
      <trkpt lat="45.31207" lon="6.50117">
        <ele>2548.69</ele>
        <time>2014-01-28T10:40:16Z</time>
      </trkpt>
      <trkpt lat="45.31229" lon="6.50126">
        <ele>2540.18</ele>
        <time>2014-01-28T10:40:18Z</time>
      </trkpt>
      <trkpt lat="45.31249" lon="6.50147">
        <ele>2533.33</ele>
        <time>2014-01-28T10:40:20Z</time>
      </trkpt>
      <trkpt lat="45.31264" lon="6.50164">
        <ele>2530.65</ele>
        <time>2014-01-28T10:40:22Z</time>
      </trkpt>
      <trkpt lat="45.31278" lon="6.50183">
        <ele>2530</ele>
        <time>2014-01-28T10:40:25Z</time>
      </trkpt>
      <trkpt lat="45.31291" lon="6.50202">
        <ele>2530</ele>
        <time>2014-01-28T10:40:32Z</time>
      </trkpt>
      <trkpt lat="45.31305" lon="6.5022">
        <ele>2530</ele>
        <time>2014-01-28T10:40:50Z</time>
      </trkpt>
      <trkpt lat="45.31319" lon="6.50236">
        <ele>2530.77</ele>
        <time>2014-01-28T10:41:09Z</time>
      </trkpt>
      <trkpt lat="45.31334" lon="6.50253">
        <ele>2530.54</ele>
        <time>2014-01-28T10:41:32Z</time>
      </trkpt>
      <trkpt lat="45.31351" lon="6.5027">
        <ele>2531.78</ele>
        <time>2014-01-28T10:44:18Z</time>
      </trkpt>
      <trkpt lat="45.31369" lon="6.50281">
        <ele>2530.65</ele>
        <time>2014-01-28T10:44:22Z</time>
      </trkpt>
      <trkpt lat="45.31387" lon="6.5029">
        <ele>2528.82</ele>
        <time>2014-01-28T10:44:25Z</time>
      </trkpt>
      <trkpt lat="45.31404" lon="6.50298">
        <ele>2523.91</ele>
        <time>2014-01-28T10:44:27Z</time>
      </trkpt>
      <trkpt lat="45.31424" lon="6.50306">
        <ele>2517.92</ele>
        <time>2014-01-28T10:44:29Z</time>
      </trkpt>
      <trkpt lat="45.31446" lon="6.50316">
        <ele>2514.49</ele>
        <time>2014-01-28T10:44:32Z</time>
      </trkpt>
      <trkpt lat="45.31467" lon="6.50327">
        <ele>2511.83</ele>
        <time>2014-01-28T10:44:36Z</time>
      </trkpt>
      <trkpt lat="45.31488" lon="6.50331">
        <ele>2509.21</ele>
        <time>2014-01-28T10:44:40Z</time>
      </trkpt>
      <trkpt lat="45.31507" lon="6.50332">
        <ele>2507.03</ele>
        <time>2014-01-28T10:44:44Z</time>
      </trkpt>
      <trkpt lat="45.31529" lon="6.50332">
        <ele>2506.09</ele>
        <time>2014-01-28T10:44:48Z</time>
      </trkpt>
      <trkpt lat="45.31546" lon="6.50323">
        <ele>2504.99</ele>
        <time>2014-01-28T10:44:53Z</time>
      </trkpt>
      <trkpt lat="45.3157" lon="6.50315">
        <ele>2499.26</ele>
        <time>2014-01-28T10:44:58Z</time>
      </trkpt>
      <trkpt lat="45.31589" lon="6.50308">
        <ele>2494.95</ele>
        <time>2014-01-28T10:45:01Z</time>
      </trkpt>
      <trkpt lat="45.31607" lon="6.5029">
        <ele>2495.93</ele>
        <time>2014-01-28T10:45:05Z</time>
      </trkpt>
      <trkpt lat="45.3162" lon="6.50272">
        <ele>2496</ele>
        <time>2014-01-28T10:45:09Z</time>
      </trkpt>
      <trkpt lat="45.31639" lon="6.50255">
        <ele>2495.27</ele>
        <time>2014-01-28T10:45:13Z</time>
      </trkpt>
      <trkpt lat="45.31656" lon="6.50238">
        <ele>2492.51</ele>
        <time>2014-01-28T10:45:16Z</time>
      </trkpt>
      <trkpt lat="45.31678" lon="6.50225">
        <ele>2486.46</ele>
        <time>2014-01-28T10:45:19Z</time>
      </trkpt>
      <trkpt lat="45.317" lon="6.50221">
        <ele>2479.67</ele>
        <time>2014-01-28T10:45:22Z</time>
      </trkpt>
      <trkpt lat="45.31718" lon="6.50224">
        <ele>2473.6</ele>
        <time>2014-01-28T10:45:25Z</time>
      </trkpt>
      <trkpt lat="45.31744" lon="6.50225">
        <ele>2470.46</ele>
        <time>2014-01-28T10:45:29Z</time>
      </trkpt>
      <trkpt lat="45.31761" lon="6.50239">
        <ele>2462.4</ele>
        <time>2014-01-28T10:45:32Z</time>
      </trkpt>
      <trkpt lat="45.31775" lon="6.50259">
        <ele>2454.73</ele>
        <time>2014-01-28T10:45:35Z</time>
      </trkpt>
      <trkpt lat="45.31789" lon="6.50279">
        <ele>2450.79</ele>
        <time>2014-01-28T10:45:39Z</time>
      </trkpt>
      <trkpt lat="45.31808" lon="6.50295">
        <ele>2449.87</ele>
        <time>2014-01-28T10:45:43Z</time>
      </trkpt>
      <trkpt lat="45.31827" lon="6.50306">
        <ele>2447.68</ele>
        <time>2014-01-28T10:45:51Z</time>
      </trkpt>
      <trkpt lat="45.31849" lon="6.50312">
        <ele>2446.35</ele>
        <time>2014-01-28T10:45:55Z</time>
      </trkpt>
      <trkpt lat="45.31873" lon="6.50316">
        <ele>2443.66</ele>
        <time>2014-01-28T10:45:58Z</time>
      </trkpt>
      <trkpt lat="45.31899" lon="6.50323">
        <ele>2438.04</ele>
        <time>2014-01-28T10:46:01Z</time>
      </trkpt>
      <trkpt lat="45.31919" lon="6.50335">
        <ele>2433.74</ele>
        <time>2014-01-28T10:46:04Z</time>
      </trkpt>
      <trkpt lat="45.31938" lon="6.50354">
        <ele>2431.06</ele>
        <time>2014-01-28T10:46:07Z</time>
      </trkpt>
      <trkpt lat="45.31948" lon="6.50379">
        <ele>2428.94</ele>
        <time>2014-01-28T10:46:11Z</time>
      </trkpt>
      <trkpt lat="45.31959" lon="6.50407">
        <ele>2427.22</ele>
        <time>2014-01-28T10:46:15Z</time>
      </trkpt>
      <trkpt lat="45.31975" lon="6.50426">
        <ele>2426.16</ele>
        <time>2014-01-28T10:46:35Z</time>
      </trkpt>
      <trkpt lat="45.31993" lon="6.50433">
        <ele>2426.33</ele>
        <time>2014-01-28T10:46:39Z</time>
      </trkpt>
      <trkpt lat="45.32011" lon="6.50439">
        <ele>2421.99</ele>
        <time>2014-01-28T10:46:43Z</time>
      </trkpt>
      <trkpt lat="45.32027" lon="6.50452">
        <ele>2412.17</ele>
        <time>2014-01-28T10:46:47Z</time>
      </trkpt>
      <trkpt lat="45.32045" lon="6.50469">
        <ele>2405.98</ele>
        <time>2014-01-28T10:46:51Z</time>
      </trkpt>
      <trkpt lat="45.32062" lon="6.50483">
        <ele>2400.39</ele>
        <time>2014-01-28T10:46:54Z</time>
      </trkpt>
      <trkpt lat="45.32079" lon="6.50499">
        <ele>2394.69</ele>
        <time>2014-01-28T10:46:57Z</time>
      </trkpt>
      <trkpt lat="45.32098" lon="6.50519">
        <ele>2389.19</ele>
        <time>2014-01-28T10:47:00Z</time>
      </trkpt>
      <trkpt lat="45.32114" lon="6.50537">
        <ele>2384.97</ele>
        <time>2014-01-28T10:47:02Z</time>
      </trkpt>
      <trkpt lat="45.32132" lon="6.50553">
        <ele>2382.27</ele>
        <time>2014-01-28T10:47:04Z</time>
      </trkpt>
      <trkpt lat="45.32153" lon="6.50562">
        <ele>2381.94</ele>
        <time>2014-01-28T10:47:07Z</time>
      </trkpt>
      <trkpt lat="45.32173" lon="6.50564">
        <ele>2381.91</ele>
        <time>2014-01-28T10:47:11Z</time>
      </trkpt>
      <trkpt lat="45.32193" lon="6.50561">
        <ele>2381.65</ele>
        <time>2014-01-28T10:47:15Z</time>
      </trkpt>
      <trkpt lat="45.32214" lon="6.50562">
        <ele>2380.46</ele>
        <time>2014-01-28T10:47:19Z</time>
      </trkpt>
      <trkpt lat="45.32235" lon="6.50571">
        <ele>2380</ele>
        <time>2014-01-28T10:47:24Z</time>
      </trkpt>
      <trkpt lat="45.32254" lon="6.50577">
        <ele>2379.67</ele>
        <time>2014-01-28T10:47:31Z</time>
      </trkpt>
      <trkpt lat="45.32273" lon="6.50584">
        <ele>2377.51</ele>
        <time>2014-01-28T10:47:43Z</time>
      </trkpt>
      <trkpt lat="45.32295" lon="6.50586">
        <ele>2373.46</ele>
        <time>2014-01-28T10:47:49Z</time>
      </trkpt>
      <trkpt lat="45.32314" lon="6.50585">
        <ele>2371.39</ele>
        <time>2014-01-28T10:47:54Z</time>
      </trkpt>
      <trkpt lat="45.32334" lon="6.50577">
        <ele>2372.91</ele>
        <time>2014-01-28T10:47:58Z</time>
      </trkpt>
      <trkpt lat="45.32355" lon="6.50566">
        <ele>2372.7</ele>
        <time>2014-01-28T10:48:01Z</time>
      </trkpt>
      <trkpt lat="45.32378" lon="6.50557">
        <ele>2369.54</ele>
        <time>2014-01-28T10:48:04Z</time>
      </trkpt>
      <trkpt lat="45.32397" lon="6.50547">
        <ele>2369.28</ele>
        <time>2014-01-28T10:48:08Z</time>
      </trkpt>
      <trkpt lat="45.32414" lon="6.50536">
        <ele>2370.68</ele>
        <time>2014-01-28T10:48:12Z</time>
      </trkpt>
      <trkpt lat="45.32432" lon="6.50527">
        <ele>2369.01</ele>
        <time>2014-01-28T10:48:16Z</time>
      </trkpt>
      <trkpt lat="45.32451" lon="6.50521">
        <ele>2364.53</ele>
        <time>2014-01-28T10:48:21Z</time>
      </trkpt>
      <trkpt lat="45.3247" lon="6.50532">
        <ele>2352.82</ele>
        <time>2014-01-28T10:48:35Z</time>
      </trkpt>
      <trkpt lat="45.32486" lon="6.5055">
        <ele>2339.79</ele>
        <time>2014-01-28T10:48:39Z</time>
      </trkpt>
      <trkpt lat="45.32507" lon="6.50559">
        <ele>2330.18</ele>
        <time>2014-01-28T10:48:42Z</time>
      </trkpt>
      <trkpt lat="45.32528" lon="6.50567">
        <ele>2322.55</ele>
        <time>2014-01-28T10:48:45Z</time>
      </trkpt>
      <trkpt lat="45.32541" lon="6.50584">
        <ele>2315.74</ele>
        <time>2014-01-28T10:48:47Z</time>
      </trkpt>
      <trkpt lat="45.32559" lon="6.50603">
        <ele>2314.32</ele>
        <time>2014-01-28T10:48:50Z</time>
      </trkpt>
      <trkpt lat="45.32575" lon="6.5062">
        <ele>2314.59</ele>
        <time>2014-01-28T10:50:53Z</time>
      </trkpt>
      <trkpt lat="45.32593" lon="6.5063">
        <ele>2312.03</ele>
        <time>2014-01-28T10:50:59Z</time>
      </trkpt>
      <trkpt lat="45.32611" lon="6.5064">
        <ele>2308.11</ele>
        <time>2014-01-28T10:51:03Z</time>
      </trkpt>
      <trkpt lat="45.3263" lon="6.50642">
        <ele>2306.49</ele>
        <time>2014-01-28T10:51:08Z</time>
      </trkpt>
      <trkpt lat="45.32652" lon="6.50642">
        <ele>2303.16</ele>
        <time>2014-01-28T10:51:13Z</time>
      </trkpt>
      <trkpt lat="45.32671" lon="6.50652">
        <ele>2301.06</ele>
        <time>2014-01-28T10:51:19Z</time>
      </trkpt>
      <trkpt lat="45.32687" lon="6.50668">
        <ele>2300.4</ele>
        <time>2014-01-28T10:52:50Z</time>
      </trkpt>
      <trkpt lat="45.32712" lon="6.50677">
        <ele>2294</ele>
        <time>2014-01-28T10:52:54Z</time>
      </trkpt>
      <trkpt lat="45.32735" lon="6.50675">
        <ele>2287.98</ele>
        <time>2014-01-28T10:52:57Z</time>
      </trkpt>
      <trkpt lat="45.32757" lon="6.5067">
        <ele>2283.17</ele>
        <time>2014-01-28T10:53:01Z</time>
      </trkpt>
      <trkpt lat="45.32776" lon="6.5067">
        <ele>2279.28</ele>
        <time>2014-01-28T10:53:04Z</time>
      </trkpt>
      <trkpt lat="45.32793" lon="6.50685">
        <ele>2276</ele>
        <time>2014-01-28T10:53:08Z</time>
      </trkpt>
      <trkpt lat="45.32811" lon="6.50709">
        <ele>2273.38</ele>
        <time>2014-01-28T10:53:12Z</time>
      </trkpt>
      <trkpt lat="45.32827" lon="6.5073">
        <ele>2271.26</ele>
        <time>2014-01-28T10:53:15Z</time>
      </trkpt>
      <trkpt lat="45.32843" lon="6.50755">
        <ele>2267.91</ele>
        <time>2014-01-28T10:53:19Z</time>
      </trkpt>
      <trkpt lat="45.32861" lon="6.50767">
        <ele>2263.22</ele>
        <time>2014-01-28T10:53:23Z</time>
      </trkpt>
      <trkpt lat="45.32867" lon="6.50791">
        <ele>2260.15</ele>
        <time>2014-01-28T10:53:28Z</time>
      </trkpt>
      <trkpt lat="45.32872" lon="6.50817">
        <ele>2255.93</ele>
        <time>2014-01-28T10:53:32Z</time>
      </trkpt>
      <trkpt lat="45.32883" lon="6.50839">
        <ele>2250.98</ele>
        <time>2014-01-28T10:53:36Z</time>
      </trkpt>
      <trkpt lat="45.32898" lon="6.50859">
        <ele>2246.74</ele>
        <time>2014-01-28T10:53:40Z</time>
      </trkpt>
      <trkpt lat="45.32914" lon="6.50879">
        <ele>2241.31</ele>
        <time>2014-01-28T10:53:44Z</time>
      </trkpt>
      <trkpt lat="45.32995" lon="6.50914">
        <ele>2221.78</ele>
        <time>2014-01-28T10:54:02Z</time>
      </trkpt>
      <trkpt lat="45.33017" lon="6.50922">
        <ele>2214.78</ele>
        <time>2014-01-28T10:54:06Z</time>
      </trkpt>
      <trkpt lat="45.33035" lon="6.50929">
        <ele>2208.04</ele>
        <time>2014-01-28T10:54:09Z</time>
      </trkpt>
      <trkpt lat="45.33059" lon="6.50934">
        <ele>2198.77</ele>
        <time>2014-01-28T10:54:13Z</time>
      </trkpt>
      <trkpt lat="45.33078" lon="6.50944">
        <ele>2192.03</ele>
        <time>2014-01-28T10:54:40Z</time>
      </trkpt>
      <trkpt lat="45.33096" lon="6.50963">
        <ele>2182.67</ele>
        <time>2014-01-28T10:54:46Z</time>
      </trkpt>
      <trkpt lat="45.33112" lon="6.50984">
        <ele>2172.7</ele>
        <time>2014-01-28T10:54:51Z</time>
      </trkpt>
      <trkpt lat="45.33125" lon="6.51005">
        <ele>2162.51</ele>
        <time>2014-01-28T10:54:55Z</time>
      </trkpt>
      <trkpt lat="45.33144" lon="6.5102">
        <ele>2153.01</ele>
        <time>2014-01-28T10:54:59Z</time>
      </trkpt>
      <trkpt lat="45.33166" lon="6.51017">
        <ele>2148.09</ele>
        <time>2014-01-28T10:55:03Z</time>
      </trkpt>
      <trkpt lat="45.33182" lon="6.51002">
        <ele>2142.78</ele>
        <time>2014-01-28T11:00:26Z</time>
      </trkpt>
      <trkpt lat="45.332" lon="6.50993">
        <ele>2135.52</ele>
        <time>2014-01-28T11:00:38Z</time>
      </trkpt>
      <trkpt lat="45.33219" lon="6.50999">
        <ele>2128.1</ele>
        <time>2014-01-28T11:00:42Z</time>
      </trkpt>
      <trkpt lat="45.33237" lon="6.51017">
        <ele>2117.84</ele>
        <time>2014-01-28T11:00:50Z</time>
      </trkpt>
      <trkpt lat="45.33239" lon="6.51045">
        <ele>2111.62</ele>
        <time>2014-01-28T11:00:59Z</time>
      </trkpt>
      <trkpt lat="45.3326" lon="6.51054">
        <ele>2099.29</ele>
        <time>2014-01-28T11:01:04Z</time>
      </trkpt>
      <trkpt lat="45.33273" lon="6.51074">
        <ele>2087.47</ele>
        <time>2014-01-28T11:01:11Z</time>
      </trkpt>
      <trkpt lat="45.33258" lon="6.5109">
        <ele>2090.27</ele>
        <time>2014-01-28T11:01:15Z</time>
      </trkpt>
      <trkpt lat="45.33245" lon="6.51111">
        <ele>2088.71</ele>
        <time>2014-01-28T11:01:22Z</time>
      </trkpt>
      <trkpt lat="45.33238" lon="6.51136">
        <ele>2084.09</ele>
        <time>2014-01-28T11:01:26Z</time>
      </trkpt>
      <trkpt lat="45.33231" lon="6.51166">
        <ele>2077.94</ele>
        <time>2014-01-28T11:01:30Z</time>
      </trkpt>
      <trkpt lat="45.33241" lon="6.51195">
        <ele>2066.84</ele>
        <time>2014-01-28T11:01:34Z</time>
      </trkpt>
      <trkpt lat="45.3325" lon="6.5122">
        <ele>2059.63</ele>
        <time>2014-01-28T11:01:37Z</time>
      </trkpt>
      <trkpt lat="45.33259" lon="6.51242">
        <ele>2054.54</ele>
        <time>2014-01-28T11:01:40Z</time>
      </trkpt>
      <trkpt lat="45.33274" lon="6.51267">
        <ele>2047.67</ele>
        <time>2014-01-28T11:01:44Z</time>
      </trkpt>
      <trkpt lat="45.33284" lon="6.51294">
        <ele>2041.13</ele>
        <time>2014-01-28T11:01:48Z</time>
      </trkpt>
      <trkpt lat="45.33294" lon="6.51321">
        <ele>2034.44</ele>
        <time>2014-01-28T11:01:52Z</time>
      </trkpt>
      <trkpt lat="45.33304" lon="6.51347">
        <ele>2027.87</ele>
        <time>2014-01-28T11:01:55Z</time>
      </trkpt>
      <trkpt lat="45.33314" lon="6.51368">
        <ele>2023.88</ele>
        <time>2014-01-28T11:01:58Z</time>
      </trkpt>
      <trkpt lat="45.3332" lon="6.51393">
        <ele>2019.99</ele>
        <time>2014-01-28T11:02:01Z</time>
      </trkpt>
      <trkpt lat="45.33328" lon="6.51417">
        <ele>2016.29</ele>
        <time>2014-01-28T11:02:04Z</time>
      </trkpt>
      <trkpt lat="45.33343" lon="6.51439">
        <ele>2014.29</ele>
        <time>2014-01-28T11:02:08Z</time>
      </trkpt>
      <trkpt lat="45.33331" lon="6.51458">
        <ele>2011.44</ele>
        <time>2014-01-28T11:06:46Z</time>
      </trkpt>
      <trkpt lat="45.33313" lon="6.51477">
        <ele>2012.32</ele>
        <time>2014-01-28T11:06:51Z</time>
      </trkpt>
      <trkpt lat="45.33305" lon="6.51503">
        <ele>2011.15</ele>
        <time>2014-01-28T11:06:59Z</time>
      </trkpt>
      <trkpt lat="45.33296" lon="6.51527">
        <ele>2005.78</ele>
        <time>2014-01-28T11:07:04Z</time>
      </trkpt>
      <trkpt lat="45.33291" lon="6.51555">
        <ele>1998.23</ele>
        <time>2014-01-28T11:07:12Z</time>
      </trkpt>
      <trkpt lat="45.33292" lon="6.51583">
        <ele>1991.15</ele>
        <time>2014-01-28T11:07:23Z</time>
      </trkpt>
      <trkpt lat="45.33304" lon="6.51608">
        <ele>1974.06</ele>
        <time>2014-01-28T11:07:29Z</time>
      </trkpt>
      <trkpt lat="45.3331" lon="6.51639">
        <ele>1968.28</ele>
        <time>2014-01-28T11:07:33Z</time>
      </trkpt>
      <trkpt lat="45.33321" lon="6.51668">
        <ele>1965.28</ele>
        <time>2014-01-28T11:07:37Z</time>
      </trkpt>
      <trkpt lat="45.33341" lon="6.51674">
        <ele>1956.73</ele>
        <time>2014-01-28T11:07:44Z</time>
      </trkpt>
      <trkpt lat="45.33352" lon="6.51699">
        <ele>1949.59</ele>
        <time>2014-01-28T11:07:52Z</time>
      </trkpt>
      <trkpt lat="45.33364" lon="6.51719">
        <ele>1942.83</ele>
        <time>2014-01-28T11:07:58Z</time>
      </trkpt>
      <trkpt lat="45.33372" lon="6.51743">
        <ele>1937.29</ele>
        <time>2014-01-28T11:08:02Z</time>
      </trkpt>
      <trkpt lat="45.33385" lon="6.51763">
        <ele>1930.86</ele>
        <time>2014-01-28T11:08:06Z</time>
      </trkpt>
      <trkpt lat="45.33404" lon="6.51756">
        <ele>1923.51</ele>
        <time>2014-01-28T11:09:07Z</time>
      </trkpt>
      <trkpt lat="45.33424" lon="6.51761">
        <ele>1913.1</ele>
        <time>2014-01-28T11:09:13Z</time>
      </trkpt>
      <trkpt lat="45.33442" lon="6.51767">
        <ele>1903.05</ele>
        <time>2014-01-28T11:09:19Z</time>
      </trkpt>
      <trkpt lat="45.33447" lon="6.51795">
        <ele>1896.1</ele>
        <time>2014-01-28T11:12:30Z</time>
      </trkpt>
      <trkpt lat="45.33458" lon="6.51818">
        <ele>1888.56</ele>
        <time>2014-01-28T11:12:36Z</time>
      </trkpt>
      <trkpt lat="45.33477" lon="6.5181">
        <ele>1884.92</ele>
        <time>2014-01-28T11:12:42Z</time>
      </trkpt>
      <trkpt lat="45.33498" lon="6.51813">
        <ele>1880.05</ele>
        <time>2014-01-28T11:12:54Z</time>
      </trkpt>
      <trkpt lat="45.33522" lon="6.51816">
        <ele>1870.78</ele>
        <time>2014-01-28T11:12:58Z</time>
      </trkpt>
      <trkpt lat="45.3354" lon="6.51823">
        <ele>1863.13</ele>
        <time>2014-01-28T11:13:01Z</time>
      </trkpt>
      <trkpt lat="45.33557" lon="6.51837">
        <ele>1853.63</ele>
        <time>2014-01-28T11:13:06Z</time>
      </trkpt>
      <trkpt lat="45.33563" lon="6.51865">
        <ele>1844.29</ele>
        <time>2014-01-28T11:13:11Z</time>
      </trkpt>
      <trkpt lat="45.33574" lon="6.51888">
        <ele>1834.7</ele>
        <time>2014-01-28T11:13:17Z</time>
      </trkpt>
      <trkpt lat="45.33591" lon="6.51897">
        <ele>1830.75</ele>
        <time>2014-01-28T11:13:34Z</time>
      </trkpt>
      <trkpt lat="45.33607" lon="6.51909">
        <ele>1829.43</ele>
        <time>2014-01-28T11:13:54Z</time>
      </trkpt>
      <trkpt lat="45.33624" lon="6.51929">
        <ele>1819.67</ele>
        <time>2014-01-28T11:14:00Z</time>
      </trkpt>
      <trkpt lat="45.33636" lon="6.51952">
        <ele>1808.73</ele>
        <time>2014-01-28T11:14:05Z</time>
      </trkpt>
      <trkpt lat="45.33652" lon="6.51964">
        <ele>1803.74</ele>
        <time>2014-01-28T11:14:09Z</time>
      </trkpt>
      <trkpt lat="45.33666" lon="6.51983">
        <ele>1797.12</ele>
        <time>2014-01-28T11:14:14Z</time>
      </trkpt>
      <trkpt lat="45.33655" lon="6.52007">
        <ele>1790.22</ele>
        <time>2014-01-28T11:14:18Z</time>
      </trkpt>
      <trkpt lat="45.33663" lon="6.52033">
        <ele>1781.41</ele>
        <time>2014-01-28T11:14:22Z</time>
      </trkpt>
      <trkpt lat="45.3365" lon="6.52051">
        <ele>1780.29</ele>
        <time>2014-01-28T11:14:27Z</time>
      </trkpt>
      <trkpt lat="45.3366" lon="6.52071">
        <ele>1772.19</ele>
        <time>2014-01-28T11:15:12Z</time>
      </trkpt>
      <trkpt lat="45.3365" lon="6.52094">
        <ele>1768.86</ele>
        <time>2014-01-28T11:15:20Z</time>
      </trkpt>
      <trkpt lat="45.33668" lon="6.52104">
        <ele>1761.23</ele>
        <time>2014-01-28T11:15:26Z</time>
      </trkpt>
      <trkpt lat="45.33677" lon="6.5213">
        <ele>1755.24</ele>
        <time>2014-01-28T11:15:33Z</time>
      </trkpt>
      <trkpt lat="45.33698" lon="6.5214">
        <ele>1753.3</ele>
        <time>2014-01-28T11:15:37Z</time>
      </trkpt>
      <trkpt lat="45.33716" lon="6.52147">
        <ele>1748.1</ele>
        <time>2014-01-28T11:15:41Z</time>
      </trkpt>
      <trkpt lat="45.33711" lon="6.52176">
        <ele>1735.5</ele>
        <time>2014-01-28T11:15:47Z</time>
      </trkpt>
      <trkpt lat="45.33724" lon="6.52196">
        <ele>1728.4</ele>
        <time>2014-01-28T11:15:51Z</time>
      </trkpt>
      <trkpt lat="45.33711" lon="6.52215">
        <ele>1722.89</ele>
        <time>2014-01-28T11:15:55Z</time>
      </trkpt>
      <trkpt lat="45.33695" lon="6.5223">
        <ele>1717.04</ele>
        <time>2014-01-28T11:16:01Z</time>
      </trkpt>
      <trkpt lat="45.33707" lon="6.52251">
        <ele>1711.42</ele>
        <time>2014-01-28T11:18:34Z</time>
      </trkpt>
      <trkpt lat="45.33711" lon="6.52279">
        <ele>1705.74</ele>
        <time>2014-01-28T11:18:40Z</time>
      </trkpt>
      <trkpt lat="45.33723" lon="6.523">
        <ele>1703.18</ele>
        <time>2014-01-28T11:18:49Z</time>
      </trkpt>
      <trkpt lat="45.33729" lon="6.52324">
        <ele>1693.34</ele>
        <time>2014-01-28T11:20:14Z</time>
      </trkpt>
      <trkpt lat="45.33746" lon="6.52338">
        <ele>1684.45</ele>
        <time>2014-01-28T11:20:31Z</time>
      </trkpt>
      <trkpt lat="45.33742" lon="6.52366">
        <ele>1673.43</ele>
        <time>2014-01-28T11:20:49Z</time>
      </trkpt>
      <trkpt lat="45.33731" lon="6.52388">
        <ele>1668.02</ele>
        <time>2014-01-28T11:20:57Z</time>
      </trkpt>
      <trkpt lat="45.33746" lon="6.52409">
        <ele>1659.9</ele>
        <time>2014-01-28T11:21:19Z</time>
      </trkpt>
      <trkpt lat="45.33764" lon="6.52413">
        <ele>1655.92</ele>
        <time>2014-01-28T11:21:32Z</time>
      </trkpt>
      <trkpt lat="45.33762" lon="6.5244">
        <ele>1648.75</ele>
        <time>2014-01-28T11:21:46Z</time>
      </trkpt>
      <trkpt lat="45.33778" lon="6.5245">
        <ele>1642.12</ele>
        <time>2014-01-28T11:22:01Z</time>
      </trkpt>
      <trkpt lat="45.33798" lon="6.52443">
        <ele>1634.13</ele>
        <time>2014-01-28T11:22:14Z</time>
      </trkpt>
      <trkpt lat="45.33811" lon="6.52423">
        <ele>1634.4</ele>
        <time>2014-01-28T11:22:21Z</time>
      </trkpt>
      <trkpt lat="45.33824" lon="6.52402">
        <ele>1633.97</ele>
        <time>2014-01-28T11:22:27Z</time>
      </trkpt>
      <trkpt lat="45.33839" lon="6.52417">
        <ele>1621.74</ele>
        <time>2014-01-28T11:22:42Z</time>
      </trkpt>
      <trkpt lat="45.33859" lon="6.52415">
        <ele>1611.72</ele>
        <time>2014-01-28T11:22:49Z</time>
      </trkpt>
      <trkpt lat="45.33856" lon="6.52443">
        <ele>1609.57</ele>
        <time>2014-01-28T11:22:56Z</time>
      </trkpt>
      <trkpt lat="45.33863" lon="6.5247">
        <ele>1602.36</ele>
        <time>2014-01-28T11:23:02Z</time>
      </trkpt>
      <trkpt lat="45.33871" lon="6.52499">
        <ele>1596.39</ele>
        <time>2014-01-28T11:23:07Z</time>
      </trkpt>
      <trkpt lat="45.33885" lon="6.52515">
        <ele>1588.93</ele>
        <time>2014-01-28T11:23:13Z</time>
      </trkpt>
      <trkpt lat="45.33893" lon="6.52543">
        <ele>1582.43</ele>
        <time>2014-01-28T11:23:20Z</time>
      </trkpt>
      <trkpt lat="45.33897" lon="6.52568">
        <ele>1578.14</ele>
        <time>2014-01-28T11:23:26Z</time>
      </trkpt>
      <trkpt lat="45.33911" lon="6.52586">
        <ele>1572.26</ele>
        <time>2014-01-28T11:23:30Z</time>
      </trkpt>
      <trkpt lat="45.33928" lon="6.526">
        <ele>1568.35</ele>
        <time>2014-01-28T11:23:37Z</time>
      </trkpt>
      <trkpt lat="45.33934" lon="6.52626">
        <ele>1567.46</ele>
        <time>2014-01-28T11:23:43Z</time>
      </trkpt>
      <trkpt lat="45.33936" lon="6.52652">
        <ele>1568.28</ele>
        <time>2014-01-28T11:23:59Z</time>
      </trkpt>
      <trkpt lat="45.33936" lon="6.52654">
        <ele>1568.36</ele>
        <time>2014-01-28T11:24:08Z</time>
      </trkpt>
      <trkpt lat="45.33925" lon="6.52676">
        <ele>1570.28</ele>
        <time>2014-01-28T11:28:43Z</time>
      </trkpt>
      <trkpt lat="45.3391" lon="6.52695">
        <ele>1572.52</ele>
        <time>2014-01-28T11:28:56Z</time>
      </trkpt>
      <trkpt lat="45.33897" lon="6.52714">
        <ele>1577.8</ele>
        <time>2014-01-28T11:29:06Z</time>
      </trkpt>
      <trkpt lat="45.33886" lon="6.52735">
        <ele>1583.29</ele>
        <time>2014-01-28T11:29:17Z</time>
      </trkpt>
      <trkpt lat="45.33872" lon="6.52755">
        <ele>1588.08</ele>
        <time>2014-01-28T11:29:29Z</time>
      </trkpt>
      <trkpt lat="45.33859" lon="6.52773">
        <ele>1592.56</ele>
        <time>2014-01-28T11:29:40Z</time>
      </trkpt>
      <trkpt lat="45.33844" lon="6.5279">
        <ele>1598.14</ele>
        <time>2014-01-28T11:29:52Z</time>
      </trkpt>
      <trkpt lat="45.33831" lon="6.5281">
        <ele>1603.78</ele>
        <time>2014-01-28T11:30:04Z</time>
      </trkpt>
      <trkpt lat="45.33817" lon="6.5283">
        <ele>1606.31</ele>
        <time>2014-01-28T11:30:16Z</time>
      </trkpt>
      <trkpt lat="45.33803" lon="6.52848">
        <ele>1608.37</ele>
        <time>2014-01-28T11:30:29Z</time>
      </trkpt>
      <trkpt lat="45.33788" lon="6.52865">
        <ele>1610.86</ele>
        <time>2014-01-28T11:30:41Z</time>
      </trkpt>
      <trkpt lat="45.33775" lon="6.52884">
        <ele>1613.8</ele>
        <time>2014-01-28T11:30:52Z</time>
      </trkpt>
      <trkpt lat="45.33762" lon="6.52902">
        <ele>1616.72</ele>
        <time>2014-01-28T11:31:03Z</time>
      </trkpt>
      <trkpt lat="45.3375" lon="6.52921">
        <ele>1619.97</ele>
        <time>2014-01-28T11:31:14Z</time>
      </trkpt>
      <trkpt lat="45.33738" lon="6.5294">
        <ele>1623.19</ele>
        <time>2014-01-28T11:31:25Z</time>
      </trkpt>
      <trkpt lat="45.33723" lon="6.52957">
        <ele>1625.35</ele>
        <time>2014-01-28T11:31:36Z</time>
      </trkpt>
      <trkpt lat="45.3371" lon="6.52974">
        <ele>1628.4</ele>
        <time>2014-01-28T11:31:47Z</time>
      </trkpt>
      <trkpt lat="45.33696" lon="6.52991">
        <ele>1632.74</ele>
        <time>2014-01-28T11:31:57Z</time>
      </trkpt>
      <trkpt lat="45.33683" lon="6.53011">
        <ele>1637.61</ele>
        <time>2014-01-28T11:32:10Z</time>
      </trkpt>
      <trkpt lat="45.3367" lon="6.53032">
        <ele>1642.55</ele>
        <time>2014-01-28T11:32:22Z</time>
      </trkpt>
      <trkpt lat="45.33656" lon="6.53048">
        <ele>1645.47</ele>
        <time>2014-01-28T11:33:40Z</time>
      </trkpt>
      <trkpt lat="45.33642" lon="6.53065">
        <ele>1648.94</ele>
        <time>2014-01-28T11:33:51Z</time>
      </trkpt>
      <trkpt lat="45.33628" lon="6.53083">
        <ele>1653.02</ele>
        <time>2014-01-28T11:34:03Z</time>
      </trkpt>
      <trkpt lat="45.33614" lon="6.53101">
        <ele>1657.5</ele>
        <time>2014-01-28T11:34:14Z</time>
      </trkpt>
      <trkpt lat="45.336" lon="6.53118">
        <ele>1661.28</ele>
        <time>2014-01-28T11:34:25Z</time>
      </trkpt>
      <trkpt lat="45.33587" lon="6.5314">
        <ele>1666.19</ele>
        <time>2014-01-28T11:34:37Z</time>
      </trkpt>
      <trkpt lat="45.33576" lon="6.5316">
        <ele>1669.13</ele>
        <time>2014-01-28T11:34:48Z</time>
      </trkpt>
      <trkpt lat="45.33561" lon="6.53178">
        <ele>1671.04</ele>
        <time>2014-01-28T11:35:00Z</time>
      </trkpt>
      <trkpt lat="45.33546" lon="6.53195">
        <ele>1673.38</ele>
        <time>2014-01-28T11:35:12Z</time>
      </trkpt>
      <trkpt lat="45.33532" lon="6.53212">
        <ele>1675.7</ele>
        <time>2014-01-28T11:35:22Z</time>
      </trkpt>
      <trkpt lat="45.33519" lon="6.53229">
        <ele>1677.72</ele>
        <time>2014-01-28T11:35:33Z</time>
      </trkpt>
      <trkpt lat="45.33507" lon="6.5325">
        <ele>1679.99</ele>
        <time>2014-01-28T11:35:44Z</time>
      </trkpt>
      <trkpt lat="45.33493" lon="6.53268">
        <ele>1683.46</ele>
        <time>2014-01-28T11:35:56Z</time>
      </trkpt>
      <trkpt lat="45.3348" lon="6.53286">
        <ele>1686.03</ele>
        <time>2014-01-28T11:36:08Z</time>
      </trkpt>
      <trkpt lat="45.33466" lon="6.53306">
        <ele>1689.12</ele>
        <time>2014-01-28T11:36:18Z</time>
      </trkpt>
      <trkpt lat="45.33453" lon="6.53323">
        <ele>1693.83</ele>
        <time>2014-01-28T11:36:30Z</time>
      </trkpt>
      <trkpt lat="45.33438" lon="6.53344">
        <ele>1696.99</ele>
        <time>2014-01-28T11:36:43Z</time>
      </trkpt>
      <trkpt lat="45.33424" lon="6.53364">
        <ele>1699.22</ele>
        <time>2014-01-28T11:36:53Z</time>
      </trkpt>
      <trkpt lat="45.3341" lon="6.53382">
        <ele>1704.29</ele>
        <time>2014-01-28T11:37:05Z</time>
      </trkpt>
      <trkpt lat="45.33397" lon="6.53401">
        <ele>1712.05</ele>
        <time>2014-01-28T11:37:18Z</time>
      </trkpt>
      <trkpt lat="45.33383" lon="6.53422">
        <ele>1719.72</ele>
        <time>2014-01-28T11:37:29Z</time>
      </trkpt>
      <trkpt lat="45.33369" lon="6.5344">
        <ele>1725.8</ele>
        <time>2014-01-28T11:37:40Z</time>
      </trkpt>
      <trkpt lat="45.33356" lon="6.53458">
        <ele>1730.68</ele>
        <time>2014-01-28T11:37:52Z</time>
      </trkpt>
      <trkpt lat="45.33342" lon="6.53476">
        <ele>1734.26</ele>
        <time>2014-01-28T11:38:04Z</time>
      </trkpt>
      <trkpt lat="45.3333" lon="6.53495">
        <ele>1737.31</ele>
        <time>2014-01-28T11:38:16Z</time>
      </trkpt>
      <trkpt lat="45.33317" lon="6.53513">
        <ele>1739.82</ele>
        <time>2014-01-28T11:38:27Z</time>
      </trkpt>
      <trkpt lat="45.33302" lon="6.53529">
        <ele>1742.03</ele>
        <time>2014-01-28T11:38:37Z</time>
      </trkpt>
      <trkpt lat="45.33288" lon="6.53547">
        <ele>1744.81</ele>
        <time>2014-01-28T11:38:48Z</time>
      </trkpt>
      <trkpt lat="45.33272" lon="6.53566">
        <ele>1747.69</ele>
        <time>2014-01-28T11:38:57Z</time>
      </trkpt>
      <trkpt lat="45.33252" lon="6.53569">
        <ele>1748.92</ele>
        <time>2014-01-28T11:39:02Z</time>
      </trkpt>
      <trkpt lat="45.33234" lon="6.53572">
        <ele>1748.93</ele>
        <time>2014-01-28T11:39:14Z</time>
      </trkpt>
      <trkpt lat="45.33215" lon="6.53567">
        <ele>1747.15</ele>
        <time>2014-01-28T11:39:36Z</time>
      </trkpt>
      <trkpt lat="45.33201" lon="6.53551">
        <ele>1744.67</ele>
        <time>2014-01-28T11:40:09Z</time>
      </trkpt>
      <trkpt lat="45.33185" lon="6.53537">
        <ele>1743.09</ele>
        <time>2014-01-28T11:40:28Z</time>
      </trkpt>
      <trkpt lat="45.33169" lon="6.53526">
        <ele>1741.72</ele>
        <time>2014-01-28T11:40:46Z</time>
      </trkpt>
      <trkpt lat="45.33155" lon="6.53509">
        <ele>1740.33</ele>
        <time>2014-01-28T11:41:01Z</time>
      </trkpt>
      <trkpt lat="45.33146" lon="6.53485">
        <ele>1738.2</ele>
        <time>2014-01-28T11:41:09Z</time>
      </trkpt>
      <trkpt lat="45.33132" lon="6.53467">
        <ele>1736.95</ele>
        <time>2014-01-28T11:41:13Z</time>
      </trkpt>
      <trkpt lat="45.33115" lon="6.53456">
        <ele>1737.29</ele>
        <time>2014-01-28T11:41:16Z</time>
      </trkpt>
      <trkpt lat="45.33095" lon="6.53443">
        <ele>1735.01</ele>
        <time>2014-01-28T11:41:20Z</time>
      </trkpt>
      <trkpt lat="45.33076" lon="6.53433">
        <ele>1732.91</ele>
        <time>2014-01-28T11:41:25Z</time>
      </trkpt>
      <trkpt lat="45.33057" lon="6.53425">
        <ele>1732.76</ele>
        <time>2014-01-28T11:41:31Z</time>
      </trkpt>
      <trkpt lat="45.33037" lon="6.53412">
        <ele>1734.54</ele>
        <time>2014-01-28T11:41:36Z</time>
      </trkpt>
      <trkpt lat="45.33021" lon="6.53391">
        <ele>1733.3</ele>
        <time>2014-01-28T11:41:40Z</time>
      </trkpt>
      <trkpt lat="45.33007" lon="6.5337">
        <ele>1731.74</ele>
        <time>2014-01-28T11:41:45Z</time>
      </trkpt>
      <trkpt lat="45.32989" lon="6.53353">
        <ele>1729.14</ele>
        <time>2014-01-28T11:41:49Z</time>
      </trkpt>
      <trkpt lat="45.32971" lon="6.53344">
        <ele>1727.25</ele>
        <time>2014-01-28T11:41:54Z</time>
      </trkpt>
      <trkpt lat="45.32952" lon="6.53334">
        <ele>1725.13</ele>
        <time>2014-01-28T11:41:59Z</time>
      </trkpt>
      <trkpt lat="45.32932" lon="6.53325">
        <ele>1722.36</ele>
        <time>2014-01-28T11:42:04Z</time>
      </trkpt>
      <trkpt lat="45.32913" lon="6.53326">
        <ele>1721.23</ele>
        <time>2014-01-28T11:42:10Z</time>
      </trkpt>
      <trkpt lat="45.32895" lon="6.53324">
        <ele>1719.17</ele>
        <time>2014-01-28T11:42:17Z</time>
      </trkpt>
      <trkpt lat="45.32877" lon="6.53316">
        <ele>1718.23</ele>
        <time>2014-01-28T11:42:28Z</time>
      </trkpt>
      <trkpt lat="45.32858" lon="6.53315">
        <ele>1719.29</ele>
        <time>2014-01-28T11:42:36Z</time>
      </trkpt>
      <trkpt lat="45.32837" lon="6.53314">
        <ele>1720.55</ele>
        <time>2014-01-28T11:42:41Z</time>
      </trkpt>
      <trkpt lat="45.32824" lon="6.53293">
        <ele>1717.36</ele>
        <time>2014-01-28T11:42:45Z</time>
      </trkpt>
      <trkpt lat="45.32811" lon="6.53264">
        <ele>1709.7</ele>
        <time>2014-01-28T11:42:49Z</time>
      </trkpt>
      <trkpt lat="45.32791" lon="6.53257">
        <ele>1705.75</ele>
        <time>2014-01-28T11:42:52Z</time>
      </trkpt>
      <trkpt lat="45.32773" lon="6.53234">
        <ele>1698.79</ele>
        <time>2014-01-28T11:42:55Z</time>
      </trkpt>
      <trkpt lat="45.32754" lon="6.53226">
        <ele>1697.86</ele>
        <time>2014-01-28T11:42:59Z</time>
      </trkpt>
      <trkpt lat="45.32734" lon="6.53217">
        <ele>1697.03</ele>
        <time>2014-01-28T11:43:03Z</time>
      </trkpt>
      <trkpt lat="45.32723" lon="6.53197">
        <ele>1693.41</ele>
        <time>2014-01-28T11:44:33Z</time>
      </trkpt>
      <trkpt lat="45.3273" lon="6.53167">
        <ele>1685.45</ele>
        <time>2014-01-28T11:44:40Z</time>
      </trkpt>
      <trkpt lat="45.32733" lon="6.53134">
        <ele>1676.57</ele>
        <time>2014-01-28T11:44:43Z</time>
      </trkpt>
      <trkpt lat="45.32727" lon="6.53109">
        <ele>1669.84</ele>
        <time>2014-01-28T11:44:45Z</time>
      </trkpt>
      <trkpt lat="45.32709" lon="6.53098">
        <ele>1662.85</ele>
        <time>2014-01-28T11:44:48Z</time>
      </trkpt>
      <trkpt lat="45.32686" lon="6.53101">
        <ele>1660.07</ele>
        <time>2014-01-28T11:44:51Z</time>
      </trkpt>
      <trkpt lat="45.32661" lon="6.53108">
        <ele>1659.9</ele>
        <time>2014-01-28T11:44:54Z</time>
      </trkpt>
      <trkpt lat="45.32643" lon="6.53113">
        <ele>1660.13</ele>
        <time>2014-01-28T11:44:56Z</time>
      </trkpt>
      <trkpt lat="45.32619" lon="6.5311">
        <ele>1659.94</ele>
        <time>2014-01-28T11:44:59Z</time>
      </trkpt>
      <trkpt lat="45.326" lon="6.53094">
        <ele>1659.38</ele>
        <time>2014-01-28T11:45:03Z</time>
      </trkpt>
      <trkpt lat="45.32597" lon="6.53068">
        <ele>1659</ele>
        <time>2014-01-28T11:45:52Z</time>
      </trkpt>
      <trkpt lat="45.32609" lon="6.53044">
        <ele>1658.82</ele>
        <time>2014-01-28T11:46:01Z</time>
      </trkpt>
      <trkpt lat="45.32626" lon="6.53032">
        <ele>1658.16</ele>
        <time>2014-01-28T11:46:08Z</time>
      </trkpt>
      <trkpt lat="45.32615" lon="6.5301">
        <ele>1659.31</ele>
        <time>2014-01-28T11:46:55Z</time>
      </trkpt>
      <trkpt lat="45.32597" lon="6.52997">
        <ele>1665.48</ele>
        <time>2014-01-28T11:47:06Z</time>
      </trkpt>
      <trkpt lat="45.3258" lon="6.52986">
        <ele>1673.15</ele>
        <time>2014-01-28T11:47:15Z</time>
      </trkpt>
      <trkpt lat="45.32562" lon="6.52977">
        <ele>1675.98</ele>
        <time>2014-01-28T11:47:25Z</time>
      </trkpt>
      <trkpt lat="45.32545" lon="6.5297">
        <ele>1683.63</ele>
        <time>2014-01-28T11:47:34Z</time>
      </trkpt>
      <trkpt lat="45.32527" lon="6.52957">
        <ele>1696.03</ele>
        <time>2014-01-28T11:47:42Z</time>
      </trkpt>
      <trkpt lat="45.3251" lon="6.52943">
        <ele>1707.41</ele>
        <time>2014-01-28T11:47:49Z</time>
      </trkpt>
      <trkpt lat="45.32496" lon="6.52927">
        <ele>1716.04</ele>
        <time>2014-01-28T11:47:57Z</time>
      </trkpt>
      <trkpt lat="45.32479" lon="6.52913">
        <ele>1725.35</ele>
        <time>2014-01-28T11:48:07Z</time>
      </trkpt>
      <trkpt lat="45.32462" lon="6.52901">
        <ele>1735.49</ele>
        <time>2014-01-28T11:48:16Z</time>
      </trkpt>
      <trkpt lat="45.32445" lon="6.52889">
        <ele>1744.85</ele>
        <time>2014-01-28T11:48:27Z</time>
      </trkpt>
      <trkpt lat="45.32427" lon="6.5288">
        <ele>1751.26</ele>
        <time>2014-01-28T11:48:38Z</time>
      </trkpt>
      <trkpt lat="45.3241" lon="6.52872">
        <ele>1757.35</ele>
        <time>2014-01-28T11:48:49Z</time>
      </trkpt>
      <trkpt lat="45.32392" lon="6.5286">
        <ele>1763.46</ele>
        <time>2014-01-28T11:48:58Z</time>
      </trkpt>
      <trkpt lat="45.32375" lon="6.52849">
        <ele>1768.79</ele>
        <time>2014-01-28T11:49:08Z</time>
      </trkpt>
      <trkpt lat="45.32359" lon="6.52839">
        <ele>1773.04</ele>
        <time>2014-01-28T11:49:17Z</time>
      </trkpt>
      <trkpt lat="45.32341" lon="6.52828">
        <ele>1777.11</ele>
        <time>2014-01-28T11:49:27Z</time>
      </trkpt>
      <trkpt lat="45.32325" lon="6.52812">
        <ele>1781.18</ele>
        <time>2014-01-28T11:49:35Z</time>
      </trkpt>
      <trkpt lat="45.32311" lon="6.52796">
        <ele>1784.49</ele>
        <time>2014-01-28T11:49:43Z</time>
      </trkpt>
      <trkpt lat="45.32293" lon="6.52788">
        <ele>1787.33</ele>
        <time>2014-01-28T11:49:53Z</time>
      </trkpt>
      <trkpt lat="45.32277" lon="6.52777">
        <ele>1792.39</ele>
        <time>2014-01-28T11:50:02Z</time>
      </trkpt>
      <trkpt lat="45.32259" lon="6.52768">
        <ele>1799.94</ele>
        <time>2014-01-28T11:50:13Z</time>
      </trkpt>
      <trkpt lat="45.3224" lon="6.52758">
        <ele>1808.25</ele>
        <time>2014-01-28T11:50:24Z</time>
      </trkpt>
      <trkpt lat="45.32222" lon="6.5275">
        <ele>1817.35</ele>
        <time>2014-01-28T11:50:35Z</time>
      </trkpt>
      <trkpt lat="45.32204" lon="6.52737">
        <ele>1827.63</ele>
        <time>2014-01-28T11:50:46Z</time>
      </trkpt>
      <trkpt lat="45.32193" lon="6.52715">
        <ele>1838.48</ele>
        <time>2014-01-28T11:50:51Z</time>
      </trkpt>
      <trkpt lat="45.32178" lon="6.52699">
        <ele>1849.15</ele>
        <time>2014-01-28T11:50:59Z</time>
      </trkpt>
      <trkpt lat="45.32163" lon="6.52686">
        <ele>1859.75</ele>
        <time>2014-01-28T11:51:08Z</time>
      </trkpt>
      <trkpt lat="45.32145" lon="6.5268">
        <ele>1870.1</ele>
        <time>2014-01-28T11:51:18Z</time>
      </trkpt>
      <trkpt lat="45.32126" lon="6.52679">
        <ele>1877.28</ele>
        <time>2014-01-28T11:51:30Z</time>
      </trkpt>
      <trkpt lat="45.32108" lon="6.5268">
        <ele>1882.79</ele>
        <time>2014-01-28T11:51:43Z</time>
      </trkpt>
      <trkpt lat="45.32092" lon="6.52665">
        <ele>1889.09</ele>
        <time>2014-01-28T11:51:53Z</time>
      </trkpt>
      <trkpt lat="45.32083" lon="6.52638">
        <ele>1895.28</ele>
        <time>2014-01-28T11:51:57Z</time>
      </trkpt>
      <trkpt lat="45.32068" lon="6.52617">
        <ele>1901.51</ele>
        <time>2014-01-28T11:52:06Z</time>
      </trkpt>
      <trkpt lat="45.32053" lon="6.52603">
        <ele>1906.73</ele>
        <time>2014-01-28T11:52:14Z</time>
      </trkpt>
      <trkpt lat="45.32036" lon="6.52589">
        <ele>1914.35</ele>
        <time>2014-01-28T11:52:23Z</time>
      </trkpt>
      <trkpt lat="45.3202" lon="6.52576">
        <ele>1922.24</ele>
        <time>2014-01-28T11:52:32Z</time>
      </trkpt>
      <trkpt lat="45.32002" lon="6.52565">
        <ele>1934.22</ele>
        <time>2014-01-28T11:52:42Z</time>
      </trkpt>
      <trkpt lat="45.31984" lon="6.52554">
        <ele>1950.1</ele>
        <time>2014-01-28T11:52:52Z</time>
      </trkpt>
      <trkpt lat="45.31967" lon="6.52542">
        <ele>1963.63</ele>
        <time>2014-01-28T11:53:01Z</time>
      </trkpt>
      <trkpt lat="45.3195" lon="6.52531">
        <ele>1973.82</ele>
        <time>2014-01-28T11:53:12Z</time>
      </trkpt>
      <trkpt lat="45.31932" lon="6.52519">
        <ele>1982.71</ele>
        <time>2014-01-28T11:53:23Z</time>
      </trkpt>
      <trkpt lat="45.31916" lon="6.52506">
        <ele>1990.65</ele>
        <time>2014-01-28T11:53:33Z</time>
      </trkpt>
      <trkpt lat="45.31899" lon="6.52495">
        <ele>1993.42</ele>
        <time>2014-01-28T11:53:44Z</time>
      </trkpt>
      <trkpt lat="45.31882" lon="6.52482">
        <ele>1998.86</ele>
        <time>2014-01-28T11:53:53Z</time>
      </trkpt>
      <trkpt lat="45.31866" lon="6.52469">
        <ele>2007.83</ele>
        <time>2014-01-28T11:54:04Z</time>
      </trkpt>
      <trkpt lat="45.31849" lon="6.52455">
        <ele>2016.99</ele>
        <time>2014-01-28T11:54:16Z</time>
      </trkpt>
      <trkpt lat="45.3183" lon="6.5244">
        <ele>2029.94</ele>
        <time>2014-01-28T11:54:27Z</time>
      </trkpt>
      <trkpt lat="45.31814" lon="6.52426">
        <ele>2035.94</ele>
        <time>2014-01-28T11:54:35Z</time>
      </trkpt>
      <trkpt lat="45.31795" lon="6.52417">
        <ele>2044.57</ele>
        <time>2014-01-28T11:54:46Z</time>
      </trkpt>
      <trkpt lat="45.31776" lon="6.52407">
        <ele>2057.96</ele>
        <time>2014-01-28T11:54:57Z</time>
      </trkpt>
      <trkpt lat="45.31759" lon="6.52393">
        <ele>2075.23</ele>
        <time>2014-01-28T11:55:06Z</time>
      </trkpt>
      <trkpt lat="45.31743" lon="6.52381">
        <ele>2089.5</ele>
        <time>2014-01-28T11:55:15Z</time>
      </trkpt>
      <trkpt lat="45.31727" lon="6.52369">
        <ele>2101.05</ele>
        <time>2014-01-28T11:55:24Z</time>
      </trkpt>
      <trkpt lat="45.3171" lon="6.52356">
        <ele>2114.19</ele>
        <time>2014-01-28T11:55:34Z</time>
      </trkpt>
      <trkpt lat="45.31694" lon="6.52342">
        <ele>2127.42</ele>
        <time>2014-01-28T11:55:44Z</time>
      </trkpt>
      <trkpt lat="45.31676" lon="6.5233">
        <ele>2140.17</ele>
        <time>2014-01-28T11:55:56Z</time>
      </trkpt>
      <trkpt lat="45.31659" lon="6.52321">
        <ele>2153.72</ele>
        <time>2014-01-28T11:56:07Z</time>
      </trkpt>
      <trkpt lat="45.31641" lon="6.5231">
        <ele>2168.21</ele>
        <time>2014-01-28T11:56:19Z</time>
      </trkpt>
      <trkpt lat="45.31626" lon="6.52296">
        <ele>2174.32</ele>
        <time>2014-01-28T11:56:28Z</time>
      </trkpt>
      <trkpt lat="45.31611" lon="6.52281">
        <ele>2176.2</ele>
        <time>2014-01-28T11:56:36Z</time>
      </trkpt>
      <trkpt lat="45.31594" lon="6.5227">
        <ele>2180.29</ele>
        <time>2014-01-28T11:56:44Z</time>
      </trkpt>
      <trkpt lat="45.31577" lon="6.52261">
        <ele>2187.39</ele>
        <time>2014-01-28T11:56:53Z</time>
      </trkpt>
      <trkpt lat="45.3156" lon="6.52248">
        <ele>2199.24</ele>
        <time>2014-01-28T11:57:03Z</time>
      </trkpt>
      <trkpt lat="45.31543" lon="6.52236">
        <ele>2205.54</ele>
        <time>2014-01-28T11:57:12Z</time>
      </trkpt>
      <trkpt lat="45.31527" lon="6.52222">
        <ele>2211.14</ele>
        <time>2014-01-28T11:57:21Z</time>
      </trkpt>
      <trkpt lat="45.31509" lon="6.52209">
        <ele>2214.7</ele>
        <time>2014-01-28T11:57:30Z</time>
      </trkpt>
      <trkpt lat="45.31491" lon="6.52195">
        <ele>2219.97</ele>
        <time>2014-01-28T11:57:40Z</time>
      </trkpt>
      <trkpt lat="45.31475" lon="6.52181">
        <ele>2227.34</ele>
        <time>2014-01-28T11:57:49Z</time>
      </trkpt>
      <trkpt lat="45.31487" lon="6.52156">
        <ele>2231.28</ele>
        <time>2014-01-28T11:58:15Z</time>
      </trkpt>
      <trkpt lat="45.31503" lon="6.52131">
        <ele>2229.68</ele>
        <time>2014-01-28T11:58:19Z</time>
      </trkpt>
      <trkpt lat="45.3151" lon="6.52102">
        <ele>2225.06</ele>
        <time>2014-01-28T11:58:22Z</time>
      </trkpt>
      <trkpt lat="45.31502" lon="6.52075">
        <ele>2223.76</ele>
        <time>2014-01-28T11:58:25Z</time>
      </trkpt>
      <trkpt lat="45.31497" lon="6.52049">
        <ele>2219.96</ele>
        <time>2014-01-28T11:58:30Z</time>
      </trkpt>
      <trkpt lat="45.31494" lon="6.52022">
        <ele>2217.25</ele>
        <time>2014-01-28T11:59:01Z</time>
      </trkpt>
      <trkpt lat="45.31505" lon="6.51999">
        <ele>2209.02</ele>
        <time>2014-01-28T11:59:09Z</time>
      </trkpt>
      <trkpt lat="45.31508" lon="6.51972">
        <ele>2206.59</ele>
        <time>2014-01-28T11:59:14Z</time>
      </trkpt>
      <trkpt lat="45.31523" lon="6.51986">
        <ele>2197.21</ele>
        <time>2014-01-28T11:59:20Z</time>
      </trkpt>
      <trkpt lat="45.3154" lon="6.52005">
        <ele>2191.55</ele>
        <time>2014-01-28T11:59:26Z</time>
      </trkpt>
      <trkpt lat="45.31546" lon="6.51979">
        <ele>2185.41</ele>
        <time>2014-01-28T11:59:35Z</time>
      </trkpt>
      <trkpt lat="45.3156" lon="6.5196">
        <ele>2173.24</ele>
        <time>2014-01-28T11:59:45Z</time>
      </trkpt>
      <trkpt lat="45.31557" lon="6.51927">
        <ele>2165.93</ele>
        <time>2014-01-28T11:59:51Z</time>
      </trkpt>
      <trkpt lat="45.31544" lon="6.51899">
        <ele>2171.93</ele>
        <time>2014-01-28T11:59:54Z</time>
      </trkpt>
      <trkpt lat="45.3153" lon="6.51869">
        <ele>2179.4</ele>
        <time>2014-01-28T11:59:57Z</time>
      </trkpt>
      <trkpt lat="45.31522" lon="6.51834">
        <ele>2172.41</ele>
        <time>2014-01-28T12:00:00Z</time>
      </trkpt>
      <trkpt lat="45.31524" lon="6.51809">
        <ele>2164.36</ele>
        <time>2014-01-28T12:00:02Z</time>
      </trkpt>
      <trkpt lat="45.31527" lon="6.51783">
        <ele>2152.5</ele>
        <time>2014-01-28T12:00:04Z</time>
      </trkpt>
      <trkpt lat="45.31525" lon="6.5175">
        <ele>2143.4</ele>
        <time>2014-01-28T12:00:07Z</time>
      </trkpt>
      <trkpt lat="45.31513" lon="6.5172">
        <ele>2135.87</ele>
        <time>2014-01-28T12:00:10Z</time>
      </trkpt>
      <trkpt lat="45.31499" lon="6.51693">
        <ele>2130.26</ele>
        <time>2014-01-28T12:00:13Z</time>
      </trkpt>
      <trkpt lat="45.31486" lon="6.51674">
        <ele>2131.53</ele>
        <time>2014-01-28T12:00:18Z</time>
      </trkpt>
      <trkpt lat="45.31509" lon="6.51667">
        <ele>2127.73</ele>
        <time>2014-01-28T12:01:21Z</time>
      </trkpt>
      <trkpt lat="45.31484" lon="6.51655">
        <ele>2130.65</ele>
        <time>2014-01-28T12:02:23Z</time>
      </trkpt>
      <trkpt lat="45.31465" lon="6.51646">
        <ele>2133.82</ele>
        <time>2014-01-28T12:02:26Z</time>
      </trkpt>
      <trkpt lat="45.31445" lon="6.51635">
        <ele>2139.73</ele>
        <time>2014-01-28T12:02:30Z</time>
      </trkpt>
      <trkpt lat="45.31425" lon="6.51626">
        <ele>2145.15</ele>
        <time>2014-01-28T12:02:34Z</time>
      </trkpt>
      <trkpt lat="45.31407" lon="6.51619">
        <ele>2150.15</ele>
        <time>2014-01-28T12:02:38Z</time>
      </trkpt>
      <trkpt lat="45.31386" lon="6.51608">
        <ele>2155.68</ele>
        <time>2014-01-28T12:02:43Z</time>
      </trkpt>
      <trkpt lat="45.31367" lon="6.51599">
        <ele>2160.73</ele>
        <time>2014-01-28T12:02:49Z</time>
      </trkpt>
      <trkpt lat="45.31351" lon="6.51587">
        <ele>2167.38</ele>
        <time>2014-01-28T12:02:56Z</time>
      </trkpt>
      <trkpt lat="45.31332" lon="6.51578">
        <ele>2174.09</ele>
        <time>2014-01-28T12:03:02Z</time>
      </trkpt>
      <trkpt lat="45.31311" lon="6.51567">
        <ele>2184.96</ele>
        <time>2014-01-28T12:03:07Z</time>
      </trkpt>
      <trkpt lat="45.31294" lon="6.51557">
        <ele>2197.14</ele>
        <time>2014-01-28T12:03:11Z</time>
      </trkpt>
      <trkpt lat="45.31276" lon="6.51547">
        <ele>2210.29</ele>
        <time>2014-01-28T12:03:15Z</time>
      </trkpt>
      <trkpt lat="45.31258" lon="6.51536">
        <ele>2221.15</ele>
        <time>2014-01-28T12:03:19Z</time>
      </trkpt>
      <trkpt lat="45.31241" lon="6.51526">
        <ele>2230.34</ele>
        <time>2014-01-28T12:03:23Z</time>
      </trkpt>
      <trkpt lat="45.31223" lon="6.51514">
        <ele>2238.46</ele>
        <time>2014-01-28T12:03:29Z</time>
      </trkpt>
      <trkpt lat="45.31205" lon="6.51501">
        <ele>2242.96</ele>
        <time>2014-01-28T12:03:34Z</time>
      </trkpt>
      <trkpt lat="45.31188" lon="6.5151">
        <ele>2249.96</ele>
        <time>2014-01-28T12:03:39Z</time>
      </trkpt>
      <trkpt lat="45.31168" lon="6.5151">
        <ele>2259.59</ele>
        <time>2014-01-28T12:03:45Z</time>
      </trkpt>
      <trkpt lat="45.3115" lon="6.51503">
        <ele>2266.11</ele>
        <time>2014-01-28T12:03:50Z</time>
      </trkpt>
      <trkpt lat="45.3113" lon="6.51496">
        <ele>2270.62</ele>
        <time>2014-01-28T12:03:56Z</time>
      </trkpt>
      <trkpt lat="45.3111" lon="6.51487">
        <ele>2273.85</ele>
        <time>2014-01-28T12:04:03Z</time>
      </trkpt>
      <trkpt lat="45.3109" lon="6.51477">
        <ele>2277.67</ele>
        <time>2014-01-28T12:04:09Z</time>
      </trkpt>
      <trkpt lat="45.3107" lon="6.51468">
        <ele>2280.46</ele>
        <time>2014-01-28T12:04:15Z</time>
      </trkpt>
      <trkpt lat="45.31053" lon="6.5146">
        <ele>2281.99</ele>
        <time>2014-01-28T12:04:21Z</time>
      </trkpt>
      <trkpt lat="45.31033" lon="6.51451">
        <ele>2283.1</ele>
        <time>2014-01-28T12:04:27Z</time>
      </trkpt>
      <trkpt lat="45.31014" lon="6.51442">
        <ele>2284.68</ele>
        <time>2014-01-28T12:04:33Z</time>
      </trkpt>
      <trkpt lat="45.30993" lon="6.51433">
        <ele>2286.11</ele>
        <time>2014-01-28T12:04:39Z</time>
      </trkpt>
      <trkpt lat="45.30975" lon="6.51424">
        <ele>2287.78</ele>
        <time>2014-01-28T12:04:44Z</time>
      </trkpt>
      <trkpt lat="45.30956" lon="6.51414">
        <ele>2292.54</ele>
        <time>2014-01-28T12:04:49Z</time>
      </trkpt>
      <trkpt lat="45.30936" lon="6.51404">
        <ele>2299.59</ele>
        <time>2014-01-28T12:04:55Z</time>
      </trkpt>
      <trkpt lat="45.30916" lon="6.51394">
        <ele>2307.26</ele>
        <time>2014-01-28T12:05:02Z</time>
      </trkpt>
      <trkpt lat="45.30898" lon="6.51385">
        <ele>2313.82</ele>
        <time>2014-01-28T12:05:07Z</time>
      </trkpt>
      <trkpt lat="45.3088" lon="6.51376">
        <ele>2319.65</ele>
        <time>2014-01-28T12:05:12Z</time>
      </trkpt>
      <trkpt lat="45.30862" lon="6.51366">
        <ele>2325.18</ele>
        <time>2014-01-28T12:05:17Z</time>
      </trkpt>
      <trkpt lat="45.30844" lon="6.51357">
        <ele>2329.89</ele>
        <time>2014-01-28T12:05:22Z</time>
      </trkpt>
      <trkpt lat="45.30823" lon="6.51346">
        <ele>2336.25</ele>
        <time>2014-01-28T12:05:28Z</time>
      </trkpt>
      <trkpt lat="45.30805" lon="6.51336">
        <ele>2341.97</ele>
        <time>2014-01-28T12:05:35Z</time>
      </trkpt>
      <trkpt lat="45.30788" lon="6.51326">
        <ele>2348.88</ele>
        <time>2014-01-28T12:05:40Z</time>
      </trkpt>
      <trkpt lat="45.3077" lon="6.51316">
        <ele>2356.1</ele>
        <time>2014-01-28T12:05:45Z</time>
      </trkpt>
      <trkpt lat="45.30752" lon="6.51308">
        <ele>2362.75</ele>
        <time>2014-01-28T12:05:50Z</time>
      </trkpt>
      <trkpt lat="45.30733" lon="6.51299">
        <ele>2372.22</ele>
        <time>2014-01-28T12:05:55Z</time>
      </trkpt>
      <trkpt lat="45.30715" lon="6.51289">
        <ele>2383.25</ele>
        <time>2014-01-28T12:06:00Z</time>
      </trkpt>
      <trkpt lat="45.30693" lon="6.51283">
        <ele>2392.69</ele>
        <time>2014-01-28T12:06:05Z</time>
      </trkpt>
      <trkpt lat="45.30672" lon="6.51276">
        <ele>2402.84</ele>
        <time>2014-01-28T12:06:10Z</time>
      </trkpt>
      <trkpt lat="45.30655" lon="6.51268">
        <ele>2410.12</ele>
        <time>2014-01-28T12:06:14Z</time>
      </trkpt>
      <trkpt lat="45.30634" lon="6.5126">
        <ele>2417.43</ele>
        <time>2014-01-28T12:06:20Z</time>
      </trkpt>
      <trkpt lat="45.30616" lon="6.51254">
        <ele>2425.91</ele>
        <time>2014-01-28T12:06:26Z</time>
      </trkpt>
      <trkpt lat="45.30598" lon="6.51247">
        <ele>2436.76</ele>
        <time>2014-01-28T12:06:33Z</time>
      </trkpt>
      <trkpt lat="45.30577" lon="6.51238">
        <ele>2450.01</ele>
        <time>2014-01-28T12:06:40Z</time>
      </trkpt>
      <trkpt lat="45.30559" lon="6.5123">
        <ele>2465.39</ele>
        <time>2014-01-28T12:06:45Z</time>
      </trkpt>
      <trkpt lat="45.30541" lon="6.51223">
        <ele>2481.07</ele>
        <time>2014-01-28T12:06:50Z</time>
      </trkpt>
      <trkpt lat="45.3052" lon="6.51215">
        <ele>2493.12</ele>
        <time>2014-01-28T12:06:56Z</time>
      </trkpt>
      <trkpt lat="45.30502" lon="6.51206">
        <ele>2496.64</ele>
        <time>2014-01-28T12:07:01Z</time>
      </trkpt>
      <trkpt lat="45.30483" lon="6.51196">
        <ele>2504.04</ele>
        <time>2014-01-28T12:07:06Z</time>
      </trkpt>
      <trkpt lat="45.30464" lon="6.51186">
        <ele>2510.94</ele>
        <time>2014-01-28T12:07:11Z</time>
      </trkpt>
      <trkpt lat="45.30446" lon="6.51176">
        <ele>2518.18</ele>
        <time>2014-01-28T12:07:16Z</time>
      </trkpt>
      <trkpt lat="45.30428" lon="6.51171">
        <ele>2519.59</ele>
        <time>2014-01-28T12:07:22Z</time>
      </trkpt>
      <trkpt lat="45.30409" lon="6.51164">
        <ele>2520.5</ele>
        <time>2014-01-28T12:07:28Z</time>
      </trkpt>
      <trkpt lat="45.30392" lon="6.51157">
        <ele>2521.18</ele>
        <time>2014-01-28T12:07:38Z</time>
      </trkpt>
      <trkpt lat="45.30371" lon="6.5115">
        <ele>2525.84</ele>
        <time>2014-01-28T12:07:45Z</time>
      </trkpt>
      <trkpt lat="45.30354" lon="6.51142">
        <ele>2529.53</ele>
        <time>2014-01-28T12:07:50Z</time>
      </trkpt>
      <trkpt lat="45.30336" lon="6.51134">
        <ele>2530.33</ele>
        <time>2014-01-28T12:07:55Z</time>
      </trkpt>
      <trkpt lat="45.30318" lon="6.51126">
        <ele>2530.68</ele>
        <time>2014-01-28T12:08:00Z</time>
      </trkpt>
      <trkpt lat="45.30299" lon="6.51117">
        <ele>2530.95</ele>
        <time>2014-01-28T12:08:05Z</time>
      </trkpt>
      <trkpt lat="45.3028" lon="6.51109">
        <ele>2531.99</ele>
        <time>2014-01-28T12:08:10Z</time>
      </trkpt>
      <trkpt lat="45.30261" lon="6.51101">
        <ele>2537.98</ele>
        <time>2014-01-28T12:08:15Z</time>
      </trkpt>
      <trkpt lat="45.30243" lon="6.51093">
        <ele>2546.2</ele>
        <time>2014-01-28T12:08:20Z</time>
      </trkpt>
      <trkpt lat="45.30225" lon="6.51085">
        <ele>2557.71</ele>
        <time>2014-01-28T12:08:25Z</time>
      </trkpt>
      <trkpt lat="45.30207" lon="6.51076">
        <ele>2566.08</ele>
        <time>2014-01-28T12:08:30Z</time>
      </trkpt>
      <trkpt lat="45.30188" lon="6.51068">
        <ele>2572.14</ele>
        <time>2014-01-28T12:08:35Z</time>
      </trkpt>
      <trkpt lat="45.3017" lon="6.51059">
        <ele>2578.33</ele>
        <time>2014-01-28T12:08:40Z</time>
      </trkpt>
      <trkpt lat="45.30151" lon="6.51049">
        <ele>2587.3</ele>
        <time>2014-01-28T12:08:45Z</time>
      </trkpt>
      <trkpt lat="45.30131" lon="6.51038">
        <ele>2598.76</ele>
        <time>2014-01-28T12:08:50Z</time>
      </trkpt>
      <trkpt lat="45.3011" lon="6.51026">
        <ele>2611.47</ele>
        <time>2014-01-28T12:08:55Z</time>
      </trkpt>
      <trkpt lat="45.30092" lon="6.51016">
        <ele>2618.92</ele>
        <time>2014-01-28T12:08:59Z</time>
      </trkpt>
      <trkpt lat="45.30074" lon="6.51007">
        <ele>2628.94</ele>
        <time>2014-01-28T12:09:03Z</time>
      </trkpt>
      <trkpt lat="45.30057" lon="6.50999">
        <ele>2640.31</ele>
        <time>2014-01-28T12:09:07Z</time>
      </trkpt>
      <trkpt lat="45.30036" lon="6.50988">
        <ele>2647.08</ele>
        <time>2014-01-28T12:09:12Z</time>
      </trkpt>
      <trkpt lat="45.30017" lon="6.50974">
        <ele>2652</ele>
        <time>2014-01-28T12:09:16Z</time>
      </trkpt>
      <trkpt lat="45.29997" lon="6.50963">
        <ele>2655.62</ele>
        <time>2014-01-28T12:09:21Z</time>
      </trkpt>
      <trkpt lat="45.29978" lon="6.50953">
        <ele>2658.7</ele>
        <time>2014-01-28T12:09:27Z</time>
      </trkpt>
      <trkpt lat="45.29957" lon="6.50946">
        <ele>2666.74</ele>
        <time>2014-01-28T12:09:33Z</time>
      </trkpt>
      <trkpt lat="45.29939" lon="6.5094">
        <ele>2676.72</ele>
        <time>2014-01-28T12:09:39Z</time>
      </trkpt>
      <trkpt lat="45.29921" lon="6.50933">
        <ele>2688.06</ele>
        <time>2014-01-28T12:09:45Z</time>
      </trkpt>
      <trkpt lat="45.29901" lon="6.50927">
        <ele>2700.59</ele>
        <time>2014-01-28T12:09:53Z</time>
      </trkpt>
      <trkpt lat="45.29884" lon="6.50918">
        <ele>2711.34</ele>
        <time>2014-01-28T12:09:59Z</time>
      </trkpt>
      <trkpt lat="45.29865" lon="6.50913">
        <ele>2724.81</ele>
        <time>2014-01-28T12:10:06Z</time>
      </trkpt>
      <trkpt lat="45.29844" lon="6.50911">
        <ele>2736.92</ele>
        <time>2014-01-28T12:10:12Z</time>
      </trkpt>
      <trkpt lat="45.29824" lon="6.50905">
        <ele>2748.37</ele>
        <time>2014-01-28T12:10:19Z</time>
      </trkpt>
      <trkpt lat="45.29804" lon="6.50898">
        <ele>2760.06</ele>
        <time>2014-01-28T12:10:26Z</time>
      </trkpt>
      <trkpt lat="45.29784" lon="6.50893">
        <ele>2770.93</ele>
        <time>2014-01-28T12:10:32Z</time>
      </trkpt>
      <trkpt lat="45.29767" lon="6.50884">
        <ele>2778.22</ele>
        <time>2014-01-28T12:10:37Z</time>
      </trkpt>
      <trkpt lat="45.29749" lon="6.50876">
        <ele>2782.64</ele>
        <time>2014-01-28T12:10:42Z</time>
      </trkpt>
      <trkpt lat="45.29731" lon="6.50863">
        <ele>2776.68</ele>
        <time>2014-01-28T12:10:48Z</time>
      </trkpt>
      <trkpt lat="45.29714" lon="6.5085">
        <ele>2766.2</ele>
        <time>2014-01-28T12:10:54Z</time>
      </trkpt>
      <trkpt lat="45.29698" lon="6.50839">
        <ele>2752.46</ele>
        <time>2014-01-28T12:11:00Z</time>
      </trkpt>
      <trkpt lat="45.29678" lon="6.5083">
        <ele>2736.16</ele>
        <time>2014-01-28T12:11:06Z</time>
      </trkpt>
      <trkpt lat="45.29698" lon="6.50829">
        <ele>2749.46</ele>
        <time>2014-01-28T12:11:28Z</time>
      </trkpt>
      <trkpt lat="45.2971" lon="6.50806">
        <ele>2754.24</ele>
        <time>2014-01-28T12:15:18Z</time>
      </trkpt>
      <trkpt lat="45.29712" lon="6.50778">
        <ele>2753.22</ele>
        <time>2014-01-28T12:15:24Z</time>
      </trkpt>
      <trkpt lat="45.2971" lon="6.5075">
        <ele>2750.21</ele>
        <time>2014-01-28T12:15:29Z</time>
      </trkpt>
      <trkpt lat="45.29706" lon="6.50721">
        <ele>2748.35</ele>
        <time>2014-01-28T12:15:34Z</time>
      </trkpt>
      <trkpt lat="45.29703" lon="6.5069">
        <ele>2749.25</ele>
        <time>2014-01-28T12:15:38Z</time>
      </trkpt>
      <trkpt lat="45.29701" lon="6.50663">
        <ele>2752.33</ele>
        <time>2014-01-28T12:15:42Z</time>
      </trkpt>
      <trkpt lat="45.297" lon="6.50633">
        <ele>2757.93</ele>
        <time>2014-01-28T12:15:47Z</time>
      </trkpt>
      <trkpt lat="45.29687" lon="6.50614">
        <ele>2757.04</ele>
        <time>2014-01-28T12:16:09Z</time>
      </trkpt>
      <trkpt lat="45.29669" lon="6.50624">
        <ele>2748.85</ele>
        <time>2014-01-28T12:16:20Z</time>
      </trkpt>
      <trkpt lat="45.29656" lon="6.50643">
        <ele>2738.93</ele>
        <time>2014-01-28T12:16:27Z</time>
      </trkpt>
      <trkpt lat="45.29641" lon="6.50657">
        <ele>2727.56</ele>
        <time>2014-01-28T12:16:39Z</time>
      </trkpt>
      <trkpt lat="45.29633" lon="6.50683">
        <ele>2717.24</ele>
        <time>2014-01-28T12:16:50Z</time>
      </trkpt>
      <trkpt lat="45.29617" lon="6.50671">
        <ele>2713.26</ele>
        <time>2014-01-28T12:16:56Z</time>
      </trkpt>
      <trkpt lat="45.2961" lon="6.50695">
        <ele>2702.57</ele>
        <time>2014-01-28T12:17:04Z</time>
      </trkpt>
      <trkpt lat="45.29592" lon="6.50699">
        <ele>2695.65</ele>
        <time>2014-01-28T12:17:15Z</time>
      </trkpt>
      <trkpt lat="45.29571" lon="6.50693">
        <ele>2693.58</ele>
        <time>2014-01-28T12:17:23Z</time>
      </trkpt>
      <trkpt lat="45.29561" lon="6.50718">
        <ele>2683.01</ele>
        <time>2014-01-28T12:17:32Z</time>
      </trkpt>
      <trkpt lat="45.2954" lon="6.5071">
        <ele>2683.5</ele>
        <time>2014-01-28T12:17:38Z</time>
      </trkpt>
      <trkpt lat="45.29518" lon="6.50713">
        <ele>2679.8</ele>
        <time>2014-01-28T12:17:43Z</time>
      </trkpt>
      <trkpt lat="45.29498" lon="6.50715">
        <ele>2676.81</ele>
        <time>2014-01-28T12:17:48Z</time>
      </trkpt>
      <trkpt lat="45.29478" lon="6.50721">
        <ele>2668.07</ele>
        <time>2014-01-28T12:17:53Z</time>
      </trkpt>
      <trkpt lat="45.29457" lon="6.50728">
        <ele>2662.25</ele>
        <time>2014-01-28T12:17:57Z</time>
      </trkpt>
      <trkpt lat="45.29438" lon="6.50734">
        <ele>2659.97</ele>
        <time>2014-01-28T12:18:01Z</time>
      </trkpt>
      <trkpt lat="45.29416" lon="6.50748">
        <ele>2659.44</ele>
        <time>2014-01-28T12:18:04Z</time>
      </trkpt>
      <trkpt lat="45.29402" lon="6.50767">
        <ele>2647.89</ele>
        <time>2014-01-28T12:18:25Z</time>
      </trkpt>
      <trkpt lat="45.29384" lon="6.50759">
        <ele>2641.33</ele>
        <time>2014-01-28T12:18:43Z</time>
      </trkpt>
      <trkpt lat="45.29364" lon="6.50751">
        <ele>2629.58</ele>
        <time>2014-01-28T12:20:05Z</time>
      </trkpt>
      <trkpt lat="45.29345" lon="6.50748">
        <ele>2624.89</ele>
        <time>2014-01-28T12:20:12Z</time>
      </trkpt>
      <trkpt lat="45.29332" lon="6.5073">
        <ele>2624</ele>
        <time>2014-01-28T12:20:16Z</time>
      </trkpt>
      <trkpt lat="45.2931" lon="6.50723">
        <ele>2622.44</ele>
        <time>2014-01-28T12:20:19Z</time>
      </trkpt>
      <trkpt lat="45.29286" lon="6.50724">
        <ele>2616.51</ele>
        <time>2014-01-28T12:20:22Z</time>
      </trkpt>
      <trkpt lat="45.29266" lon="6.50718">
        <ele>2614.56</ele>
        <time>2014-01-28T12:20:26Z</time>
      </trkpt>
      <trkpt lat="45.29248" lon="6.50709">
        <ele>2615.55</ele>
        <time>2014-01-28T12:20:30Z</time>
      </trkpt>
      <trkpt lat="45.29228" lon="6.50706">
        <ele>2615.02</ele>
        <time>2014-01-28T12:20:33Z</time>
      </trkpt>
      <trkpt lat="45.29209" lon="6.50707">
        <ele>2613.46</ele>
        <time>2014-01-28T12:20:36Z</time>
      </trkpt>
      <trkpt lat="45.29188" lon="6.50712">
        <ele>2610.48</ele>
        <time>2014-01-28T12:20:39Z</time>
      </trkpt>
      <trkpt lat="45.29167" lon="6.50719">
        <ele>2606.95</ele>
        <time>2014-01-28T12:20:42Z</time>
      </trkpt>
      <trkpt lat="45.29147" lon="6.50725">
        <ele>2604.65</ele>
        <time>2014-01-28T12:20:45Z</time>
      </trkpt>
      <trkpt lat="45.29125" lon="6.50732">
        <ele>2601.07</ele>
        <time>2014-01-28T12:20:49Z</time>
      </trkpt>
      <trkpt lat="45.29103" lon="6.50739">
        <ele>2596.25</ele>
        <time>2014-01-28T12:20:53Z</time>
      </trkpt>
      <trkpt lat="45.29085" lon="6.50747">
        <ele>2591.01</ele>
        <time>2014-01-28T12:20:56Z</time>
      </trkpt>
      <trkpt lat="45.29065" lon="6.50752">
        <ele>2586.16</ele>
        <time>2014-01-28T12:20:59Z</time>
      </trkpt>
      <trkpt lat="45.29043" lon="6.50754">
        <ele>2580.22</ele>
        <time>2014-01-28T12:21:03Z</time>
      </trkpt>
      <trkpt lat="45.29023" lon="6.50753">
        <ele>2574.42</ele>
        <time>2014-01-28T12:21:08Z</time>
      </trkpt>
      <trkpt lat="45.29002" lon="6.50747">
        <ele>2572.58</ele>
        <time>2014-01-28T12:21:15Z</time>
      </trkpt>
      <trkpt lat="45.28983" lon="6.50743">
        <ele>2571.92</ele>
        <time>2014-01-28T12:21:19Z</time>
      </trkpt>
      <trkpt lat="45.28962" lon="6.50742">
        <ele>2568.47</ele>
        <time>2014-01-28T12:21:23Z</time>
      </trkpt>
      <trkpt lat="45.28943" lon="6.50742">
        <ele>2564.57</ele>
        <time>2014-01-28T12:21:29Z</time>
      </trkpt>
      <trkpt lat="45.28931" lon="6.50762">
        <ele>2555.03</ele>
        <time>2014-01-28T12:21:37Z</time>
      </trkpt>
      <trkpt lat="45.2893" lon="6.5079">
        <ele>2543.72</ele>
        <time>2014-01-28T12:21:41Z</time>
      </trkpt>
      <trkpt lat="45.28931" lon="6.5082">
        <ele>2535.07</ele>
        <time>2014-01-28T12:21:45Z</time>
      </trkpt>
      <trkpt lat="45.28939" lon="6.50849">
        <ele>2529.25</ele>
        <time>2014-01-28T12:21:48Z</time>
      </trkpt>
      <trkpt lat="45.2894" lon="6.50881">
        <ele>2524.59</ele>
        <time>2014-01-28T12:21:52Z</time>
      </trkpt>
      <trkpt lat="45.2893" lon="6.50914">
        <ele>2523.65</ele>
        <time>2014-01-28T12:22:03Z</time>
      </trkpt>
      <trkpt lat="45.28927" lon="6.50946">
        <ele>2518.42</ele>
        <time>2014-01-28T12:22:08Z</time>
      </trkpt>
      <trkpt lat="45.28927" lon="6.50975">
        <ele>2513.56</ele>
        <time>2014-01-28T12:22:12Z</time>
      </trkpt>
      <trkpt lat="45.28913" lon="6.50995">
        <ele>2511.31</ele>
        <time>2014-01-28T12:22:24Z</time>
      </trkpt>
      <trkpt lat="45.28905" lon="6.5102">
        <ele>2499.46</ele>
        <time>2014-01-28T12:22:32Z</time>
      </trkpt>
      <trkpt lat="45.28899" lon="6.51044">
        <ele>2487.23</ele>
        <time>2014-01-28T12:22:40Z</time>
      </trkpt>
      <trkpt lat="45.28904" lon="6.51069">
        <ele>2480.03</ele>
        <time>2014-01-28T12:22:42Z</time>
      </trkpt>
      <trkpt lat="45.28911" lon="6.51096">
        <ele>2475.41</ele>
        <time>2014-01-28T12:22:44Z</time>
      </trkpt>
      <trkpt lat="45.28916" lon="6.51129">
        <ele>2471.42</ele>
        <time>2014-01-28T12:22:47Z</time>
      </trkpt>
      <trkpt lat="45.28914" lon="6.51155">
        <ele>2468.71</ele>
        <time>2014-01-28T12:22:51Z</time>
      </trkpt>
      <trkpt lat="45.28907" lon="6.5118">
        <ele>2467.17</ele>
        <time>2014-01-28T12:22:56Z</time>
      </trkpt>
      <trkpt lat="45.28898" lon="6.51209">
        <ele>2465.65</ele>
        <time>2014-01-28T12:23:01Z</time>
      </trkpt>
      <trkpt lat="45.28887" lon="6.51231">
        <ele>2464.35</ele>
        <time>2014-01-28T12:23:07Z</time>
      </trkpt>
      <trkpt lat="45.28876" lon="6.51254">
        <ele>2462.85</ele>
        <time>2014-01-28T12:23:15Z</time>
      </trkpt>
      <trkpt lat="45.28869" lon="6.51279">
        <ele>2461.95</ele>
        <time>2014-01-28T12:23:21Z</time>
      </trkpt>
      <trkpt lat="45.28862" lon="6.51306">
        <ele>2460.98</ele>
        <time>2014-01-28T12:23:27Z</time>
      </trkpt>
      <trkpt lat="45.28858" lon="6.51334">
        <ele>2460.1</ele>
        <time>2014-01-28T12:23:33Z</time>
      </trkpt>
      <trkpt lat="45.28843" lon="6.51351">
        <ele>2459.58</ele>
        <time>2014-01-28T12:23:54Z</time>
      </trkpt>
      <trkpt lat="45.28843" lon="6.51404">
        <ele>2459.24</ele>
        <time>2014-01-28T12:24:46Z</time>
      </trkpt>
      <trkpt lat="45.2885" lon="6.51431">
        <ele>2453.49</ele>
        <time>2014-01-28T12:24:56Z</time>
      </trkpt>
      <trkpt lat="45.28836" lon="6.5145">
        <ele>2453.86</ele>
        <time>2014-01-28T12:25:07Z</time>
      </trkpt>
      <trkpt lat="45.28822" lon="6.51475">
        <ele>2444.4</ele>
        <time>2014-01-28T12:25:13Z</time>
      </trkpt>
      <trkpt lat="45.28817" lon="6.515">
        <ele>2433.59</ele>
        <time>2014-01-28T12:25:19Z</time>
      </trkpt>
      <trkpt lat="45.28838" lon="6.51505">
        <ele>2425.09</ele>
        <time>2014-01-28T12:25:35Z</time>
      </trkpt>
      <trkpt lat="45.28834" lon="6.51532">
        <ele>2415.73</ele>
        <time>2014-01-28T12:25:53Z</time>
      </trkpt>
      <trkpt lat="45.2882" lon="6.51549">
        <ele>2410.78</ele>
        <time>2014-01-28T12:25:59Z</time>
      </trkpt>
      <trkpt lat="45.28822" lon="6.51578">
        <ele>2395.4</ele>
        <time>2014-01-28T12:26:06Z</time>
      </trkpt>
      <trkpt lat="45.28823" lon="6.5161">
        <ele>2379.7</ele>
        <time>2014-01-28T12:26:11Z</time>
      </trkpt>
      <trkpt lat="45.28835" lon="6.51633">
        <ele>2365.85</ele>
        <time>2014-01-28T12:26:16Z</time>
      </trkpt>
      <trkpt lat="45.28842" lon="6.51661">
        <ele>2355.1</ele>
        <time>2014-01-28T12:27:06Z</time>
      </trkpt>
      <trkpt lat="45.28841" lon="6.5169">
        <ele>2349.69</ele>
        <time>2014-01-28T12:27:09Z</time>
      </trkpt>
      <trkpt lat="45.28838" lon="6.51717">
        <ele>2347.4</ele>
        <time>2014-01-28T12:27:12Z</time>
      </trkpt>
      <trkpt lat="45.28833" lon="6.51748">
        <ele>2346.09</ele>
        <time>2014-01-28T12:27:16Z</time>
      </trkpt>
      <trkpt lat="45.28827" lon="6.51773">
        <ele>2344.15</ele>
        <time>2014-01-28T12:27:21Z</time>
      </trkpt>
      <trkpt lat="45.28819" lon="6.51802">
        <ele>2341.74</ele>
        <time>2014-01-28T12:27:25Z</time>
      </trkpt>
      <trkpt lat="45.28807" lon="6.51825">
        <ele>2337.77</ele>
        <time>2014-01-28T12:27:29Z</time>
      </trkpt>
      <trkpt lat="45.28792" lon="6.51843">
        <ele>2335.14</ele>
        <time>2014-01-28T12:27:34Z</time>
      </trkpt>
      <trkpt lat="45.28772" lon="6.51851">
        <ele>2339.02</ele>
        <time>2014-01-28T12:27:40Z</time>
      </trkpt>
      <trkpt lat="45.28765" lon="6.51876">
        <ele>2337.37</ele>
        <time>2014-01-28T12:27:51Z</time>
      </trkpt>
      <trkpt lat="45.28778" lon="6.51895">
        <ele>2325.19</ele>
        <time>2014-01-28T12:27:55Z</time>
      </trkpt>
      <trkpt lat="45.2879" lon="6.51915">
        <ele>2317.66</ele>
        <time>2014-01-28T12:27:58Z</time>
      </trkpt>
      <trkpt lat="45.28803" lon="6.51936">
        <ele>2313.16</ele>
        <time>2014-01-28T12:28:01Z</time>
      </trkpt>
      <trkpt lat="45.28814" lon="6.51966">
        <ele>2308.68</ele>
        <time>2014-01-28T12:28:05Z</time>
      </trkpt>
      <trkpt lat="45.28821" lon="6.51989">
        <ele>2304.81</ele>
        <time>2014-01-28T12:28:11Z</time>
      </trkpt>
      <trkpt lat="45.28839" lon="6.52008">
        <ele>2301.5</ele>
        <time>2014-01-28T12:28:24Z</time>
      </trkpt>
      <trkpt lat="45.28856" lon="6.5202">
        <ele>2299.56</ele>
        <time>2014-01-28T12:28:30Z</time>
      </trkpt>
      <trkpt lat="45.28871" lon="6.52036">
        <ele>2293.39</ele>
        <time>2014-01-28T12:28:53Z</time>
      </trkpt>
      <trkpt lat="45.28889" lon="6.52042">
        <ele>2286.88</ele>
        <time>2014-01-28T12:28:57Z</time>
      </trkpt>
      <trkpt lat="45.28907" lon="6.52047">
        <ele>2283.62</ele>
        <time>2014-01-28T12:29:01Z</time>
      </trkpt>
      <trkpt lat="45.28928" lon="6.52053">
        <ele>2278.37</ele>
        <time>2014-01-28T12:29:06Z</time>
      </trkpt>
      <trkpt lat="45.28947" lon="6.52057">
        <ele>2274.95</ele>
        <time>2014-01-28T12:29:11Z</time>
      </trkpt>
      <trkpt lat="45.28956" lon="6.52083">
        <ele>2261.05</ele>
        <time>2014-01-28T12:29:56Z</time>
      </trkpt>
      <trkpt lat="45.28954" lon="6.52109">
        <ele>2244.77</ele>
        <time>2014-01-28T12:30:13Z</time>
      </trkpt>
      <trkpt lat="45.28946" lon="6.52134">
        <ele>2230.55</ele>
        <time>2014-01-28T12:31:12Z</time>
      </trkpt>
      <trkpt lat="45.28946" lon="6.52165">
        <ele>2213.42</ele>
        <time>2014-01-28T12:31:17Z</time>
      </trkpt>
      <trkpt lat="45.28939" lon="6.52194">
        <ele>2198.41</ele>
        <time>2014-01-28T12:31:22Z</time>
      </trkpt>
      <trkpt lat="45.2893" lon="6.52216">
        <ele>2187.88</ele>
        <time>2014-01-28T12:31:26Z</time>
      </trkpt>
      <trkpt lat="45.28926" lon="6.52246">
        <ele>2176.84</ele>
        <time>2014-01-28T12:31:32Z</time>
      </trkpt>
      <trkpt lat="45.28914" lon="6.52265">
        <ele>2167.89</ele>
        <time>2014-01-28T12:31:37Z</time>
      </trkpt>
      <trkpt lat="45.28915" lon="6.52292">
        <ele>2156.88</ele>
        <time>2014-01-28T12:31:55Z</time>
      </trkpt>
      <trkpt lat="45.28897" lon="6.52287">
        <ele>2159</ele>
        <time>2014-01-28T12:32:03Z</time>
      </trkpt>
      <trkpt lat="45.28882" lon="6.5231">
        <ele>2149.08</ele>
        <time>2014-01-28T12:32:21Z</time>
      </trkpt>
      <trkpt lat="45.28872" lon="6.52334">
        <ele>2141.19</ele>
        <time>2014-01-28T12:32:29Z</time>
      </trkpt>
      <trkpt lat="45.28868" lon="6.5236">
        <ele>2131.53</ele>
        <time>2014-01-28T12:32:48Z</time>
      </trkpt>
      <trkpt lat="45.28885" lon="6.52377">
        <ele>2126.3</ele>
        <time>2014-01-28T12:32:54Z</time>
      </trkpt>
      <trkpt lat="45.28904" lon="6.52395">
        <ele>2118.83</ele>
        <time>2014-01-28T12:32:58Z</time>
      </trkpt>
      <trkpt lat="45.28923" lon="6.5241">
        <ele>2111.13</ele>
        <time>2014-01-28T12:33:02Z</time>
      </trkpt>
      <trkpt lat="45.28925" lon="6.52439">
        <ele>2100.65</ele>
        <time>2014-01-28T12:33:09Z</time>
      </trkpt>
      <trkpt lat="45.28923" lon="6.52467">
        <ele>2091.14</ele>
        <time>2014-01-28T12:33:13Z</time>
      </trkpt>
      <trkpt lat="45.28937" lon="6.52493">
        <ele>2083.21</ele>
        <time>2014-01-28T12:33:18Z</time>
      </trkpt>
      <trkpt lat="45.2895" lon="6.5252">
        <ele>2078.41</ele>
        <time>2014-01-28T12:33:21Z</time>
      </trkpt>
      <trkpt lat="45.28964" lon="6.52547">
        <ele>2075.1</ele>
        <time>2014-01-28T12:33:24Z</time>
      </trkpt>
      <trkpt lat="45.28977" lon="6.52567">
        <ele>2074.93</ele>
        <time>2014-01-28T12:33:27Z</time>
      </trkpt>
      <trkpt lat="45.28988" lon="6.52591">
        <ele>2073.31</ele>
        <time>2014-01-28T12:33:32Z</time>
      </trkpt>
      <trkpt lat="45.28993" lon="6.52619">
        <ele>2062.72</ele>
        <time>2014-01-28T12:33:46Z</time>
      </trkpt>
      <trkpt lat="45.28987" lon="6.52646">
        <ele>2052.34</ele>
        <time>2014-01-28T12:33:50Z</time>
      </trkpt>
      <trkpt lat="45.28988" lon="6.52676">
        <ele>2047.43</ele>
        <time>2014-01-28T12:33:55Z</time>
      </trkpt>
      <trkpt lat="45.28993" lon="6.52703">
        <ele>2044.29</ele>
        <time>2014-01-28T12:34:58Z</time>
      </trkpt>
      <trkpt lat="45.29009" lon="6.52719">
        <ele>2044.56</ele>
        <time>2014-01-28T12:35:04Z</time>
      </trkpt>
      <trkpt lat="45.29026" lon="6.52732">
        <ele>2049.06</ele>
        <time>2014-01-28T12:35:08Z</time>
      </trkpt>
      <trkpt lat="45.29042" lon="6.52748">
        <ele>2047.88</ele>
        <time>2014-01-28T12:35:12Z</time>
      </trkpt>
      <trkpt lat="45.29059" lon="6.52767">
        <ele>2048.63</ele>
        <time>2014-01-28T12:35:18Z</time>
      </trkpt>
      <trkpt lat="45.29076" lon="6.52779">
        <ele>2048.68</ele>
        <time>2014-01-28T12:35:22Z</time>
      </trkpt>
      <trkpt lat="45.29093" lon="6.52791">
        <ele>2048.88</ele>
        <time>2014-01-28T12:35:26Z</time>
      </trkpt>
      <trkpt lat="45.29103" lon="6.52814">
        <ele>2048.4</ele>
        <time>2014-01-28T12:35:32Z</time>
      </trkpt>
      <trkpt lat="45.29116" lon="6.52832">
        <ele>2048.04</ele>
        <time>2014-01-28T12:35:35Z</time>
      </trkpt>
      <trkpt lat="45.29133" lon="6.52854">
        <ele>2047.26</ele>
        <time>2014-01-28T12:35:39Z</time>
      </trkpt>
      <trkpt lat="45.29147" lon="6.52875">
        <ele>2046.65</ele>
        <time>2014-01-28T12:35:43Z</time>
      </trkpt>
      <trkpt lat="45.29157" lon="6.52898">
        <ele>2046.35</ele>
        <time>2014-01-28T12:36:01Z</time>
      </trkpt>
      <trkpt lat="45.29164" lon="6.52923">
        <ele>2045.71</ele>
        <time>2014-01-28T12:36:21Z</time>
      </trkpt>
      <trkpt lat="45.29175" lon="6.52943">
        <ele>2045.35</ele>
        <time>2014-01-28T12:36:38Z</time>
      </trkpt>
      <trkpt lat="45.29183" lon="6.52968">
        <ele>2044.75</ele>
        <time>2014-01-28T12:36:53Z</time>
      </trkpt>
      <trkpt lat="45.29186" lon="6.52993">
        <ele>2043.94</ele>
        <time>2014-01-28T12:37:17Z</time>
      </trkpt>
      <trkpt lat="45.29198" lon="6.53013">
        <ele>2043.67</ele>
        <time>2014-01-28T12:38:16Z</time>
      </trkpt>
      <trkpt lat="45.29217" lon="6.53018">
        <ele>2044.14</ele>
        <time>2014-01-28T12:38:30Z</time>
      </trkpt>
      <trkpt lat="45.2923" lon="6.53037">
        <ele>2043.93</ele>
        <time>2014-01-28T12:38:40Z</time>
      </trkpt>
      <trkpt lat="45.29242" lon="6.53056">
        <ele>2043.68</ele>
        <time>2014-01-28T12:39:05Z</time>
      </trkpt>
      <trkpt lat="45.29258" lon="6.5307">
        <ele>2043.41</ele>
        <time>2014-01-28T12:39:25Z</time>
      </trkpt>
      <trkpt lat="45.29273" lon="6.53085">
        <ele>2043.51</ele>
        <time>2014-01-28T12:39:39Z</time>
      </trkpt>
      <trkpt lat="45.29288" lon="6.53099">
        <ele>2043.42</ele>
        <time>2014-01-28T12:39:58Z</time>
      </trkpt>
      <trkpt lat="45.29303" lon="6.53113">
        <ele>2043.67</ele>
        <time>2014-01-28T12:40:15Z</time>
      </trkpt>
      <trkpt lat="45.29317" lon="6.5313">
        <ele>2042.65</ele>
        <time>2014-01-28T12:40:35Z</time>
      </trkpt>
      <trkpt lat="45.29332" lon="6.53144">
        <ele>2041.66</ele>
        <time>2014-01-28T12:41:00Z</time>
      </trkpt>
      <trkpt lat="45.29348" lon="6.53157">
        <ele>2040.32</ele>
        <time>2014-01-28T12:42:50Z</time>
      </trkpt>
      <trkpt lat="45.29362" lon="6.53175">
        <ele>2040.59</ele>
        <time>2014-01-28T12:43:15Z</time>
      </trkpt>
      <trkpt lat="45.29379" lon="6.53188">
        <ele>2040.71</ele>
        <time>2014-01-28T12:43:27Z</time>
      </trkpt>
      <trkpt lat="45.29395" lon="6.53201">
        <ele>2039.68</ele>
        <time>2014-01-28T12:43:38Z</time>
      </trkpt>
      <trkpt lat="45.29415" lon="6.53211">
        <ele>2034.67</ele>
        <time>2014-01-28T12:43:49Z</time>
      </trkpt>
      <trkpt lat="45.29431" lon="6.53226">
        <ele>2031.13</ele>
        <time>2014-01-28T12:43:53Z</time>
      </trkpt>
      <trkpt lat="45.29449" lon="6.53234">
        <ele>2030.47</ele>
        <time>2014-01-28T12:44:09Z</time>
      </trkpt>
      <trkpt lat="45.29472" lon="6.53249">
        <ele>2026.39</ele>
        <time>2014-01-28T12:44:13Z</time>
      </trkpt>
      <trkpt lat="45.29489" lon="6.53274">
        <ele>2018.13</ele>
        <time>2014-01-28T12:44:16Z</time>
      </trkpt>
      <trkpt lat="45.29505" lon="6.53287">
        <ele>2015.12</ele>
        <time>2014-01-28T12:44:19Z</time>
      </trkpt>
      <trkpt lat="45.29523" lon="6.53298">
        <ele>2015.27</ele>
        <time>2014-01-28T12:44:22Z</time>
      </trkpt>
      <trkpt lat="45.29544" lon="6.53313">
        <ele>2011.61</ele>
        <time>2014-01-28T12:44:26Z</time>
      </trkpt>
      <trkpt lat="45.2956" lon="6.53328">
        <ele>2004.31</ele>
        <time>2014-01-28T12:44:29Z</time>
      </trkpt>
      <trkpt lat="45.29577" lon="6.53345">
        <ele>2000.99</ele>
        <time>2014-01-28T12:44:34Z</time>
      </trkpt>
      <trkpt lat="45.29574" lon="6.53374">
        <ele>1995.85</ele>
        <time>2014-01-28T12:44:37Z</time>
      </trkpt>
      <trkpt lat="45.29571" lon="6.53401">
        <ele>1999.56</ele>
        <time>2014-01-28T12:44:39Z</time>
      </trkpt>
      <trkpt lat="45.29586" lon="6.53425">
        <ele>1994.88</ele>
        <time>2014-01-28T12:44:42Z</time>
      </trkpt>
      <trkpt lat="45.296" lon="6.53444">
        <ele>1995.38</ele>
        <time>2014-01-28T12:44:45Z</time>
      </trkpt>
      <trkpt lat="45.29617" lon="6.53468">
        <ele>1995.64</ele>
        <time>2014-01-28T12:44:49Z</time>
      </trkpt>
      <trkpt lat="45.2963" lon="6.53486">
        <ele>1989.83</ele>
        <time>2014-01-28T12:44:52Z</time>
      </trkpt>
      <trkpt lat="45.29646" lon="6.53499">
        <ele>1985.06</ele>
        <time>2014-01-28T12:44:55Z</time>
      </trkpt>
      <trkpt lat="45.29665" lon="6.53516">
        <ele>1985.42</ele>
        <time>2014-01-28T12:44:58Z</time>
      </trkpt>
      <trkpt lat="45.29684" lon="6.53537">
        <ele>1985.41</ele>
        <time>2014-01-28T12:45:01Z</time>
      </trkpt>
      <trkpt lat="45.29703" lon="6.53557">
        <ele>1982.58</ele>
        <time>2014-01-28T12:45:04Z</time>
      </trkpt>
      <trkpt lat="45.29723" lon="6.5358">
        <ele>1978.69</ele>
        <time>2014-01-28T12:45:07Z</time>
      </trkpt>
      <trkpt lat="45.29737" lon="6.536">
        <ele>1976.34</ele>
        <time>2014-01-28T12:45:09Z</time>
      </trkpt>
      <trkpt lat="45.29753" lon="6.5362">
        <ele>1971.83</ele>
        <time>2014-01-28T12:45:11Z</time>
      </trkpt>
      <trkpt lat="45.29773" lon="6.53629">
        <ele>1965.64</ele>
        <time>2014-01-28T12:45:13Z</time>
      </trkpt>
      <trkpt lat="45.29792" lon="6.53639">
        <ele>1963.09</ele>
        <time>2014-01-28T12:45:15Z</time>
      </trkpt>
      <trkpt lat="45.29813" lon="6.53652">
        <ele>1961.32</ele>
        <time>2014-01-28T12:45:17Z</time>
      </trkpt>
      <trkpt lat="45.2983" lon="6.53667">
        <ele>1958.94</ele>
        <time>2014-01-28T12:45:19Z</time>
      </trkpt>
      <trkpt lat="45.29845" lon="6.53684">
        <ele>1958.01</ele>
        <time>2014-01-28T12:45:21Z</time>
      </trkpt>
      <trkpt lat="45.29861" lon="6.53708">
        <ele>1956.5</ele>
        <time>2014-01-28T12:45:24Z</time>
      </trkpt>
      <trkpt lat="45.29874" lon="6.53734">
        <ele>1957.22</ele>
        <time>2014-01-28T12:45:27Z</time>
      </trkpt>
      <trkpt lat="45.29887" lon="6.53764">
        <ele>1957.87</ele>
        <time>2014-01-28T12:45:30Z</time>
      </trkpt>
      <trkpt lat="45.29899" lon="6.53791">
        <ele>1953.29</ele>
        <time>2014-01-28T12:45:33Z</time>
      </trkpt>
      <trkpt lat="45.29906" lon="6.53821">
        <ele>1951.86</ele>
        <time>2014-01-28T12:45:36Z</time>
      </trkpt>
      <trkpt lat="45.29906" lon="6.53857">
        <ele>1950.68</ele>
        <time>2014-01-28T12:45:39Z</time>
      </trkpt>
      <trkpt lat="45.2991" lon="6.53894">
        <ele>1949.7</ele>
        <time>2014-01-28T12:45:42Z</time>
      </trkpt>
      <trkpt lat="45.29911" lon="6.53925">
        <ele>1947.07</ele>
        <time>2014-01-28T12:45:45Z</time>
      </trkpt>
      <trkpt lat="45.29905" lon="6.53952">
        <ele>1946.94</ele>
        <time>2014-01-28T12:45:48Z</time>
      </trkpt>
      <trkpt lat="45.29899" lon="6.53977">
        <ele>1947.07</ele>
        <time>2014-01-28T12:45:51Z</time>
      </trkpt>
      <trkpt lat="45.29902" lon="6.54005">
        <ele>1945.53</ele>
        <time>2014-01-28T12:45:55Z</time>
      </trkpt>
      <trkpt lat="45.29913" lon="6.54034">
        <ele>1942.11</ele>
        <time>2014-01-28T12:45:59Z</time>
      </trkpt>
      <trkpt lat="45.29921" lon="6.54058">
        <ele>1940.74</ele>
        <time>2014-01-28T12:46:02Z</time>
      </trkpt>
      <trkpt lat="45.29932" lon="6.54087">
        <ele>1936.85</ele>
        <time>2014-01-28T12:46:06Z</time>
      </trkpt>
      <trkpt lat="45.29943" lon="6.54117">
        <ele>1937.9</ele>
        <time>2014-01-28T12:46:10Z</time>
      </trkpt>
      <trkpt lat="45.29948" lon="6.54148">
        <ele>1938.2</ele>
        <time>2014-01-28T12:46:14Z</time>
      </trkpt>
      <trkpt lat="45.29946" lon="6.54174">
        <ele>1939.24</ele>
        <time>2014-01-28T12:46:18Z</time>
      </trkpt>
      <trkpt lat="45.29944" lon="6.54203">
        <ele>1938.67</ele>
        <time>2014-01-28T12:46:22Z</time>
      </trkpt>
      <trkpt lat="45.29953" lon="6.5423">
        <ele>1936.36</ele>
        <time>2014-01-28T12:46:27Z</time>
      </trkpt>
      <trkpt lat="45.29961" lon="6.54255">
        <ele>1935.15</ele>
        <time>2014-01-28T12:46:31Z</time>
      </trkpt>
      <trkpt lat="45.29967" lon="6.54279">
        <ele>1933.4</ele>
        <time>2014-01-28T12:46:36Z</time>
      </trkpt>
      <trkpt lat="45.29981" lon="6.54297">
        <ele>1928.98</ele>
        <time>2014-01-28T12:46:44Z</time>
      </trkpt>
      <trkpt lat="45.29994" lon="6.54317">
        <ele>1926.25</ele>
        <time>2014-01-28T12:46:56Z</time>
      </trkpt>
      <trkpt lat="45.30007" lon="6.54335">
        <ele>1925.12</ele>
        <time>2014-01-28T12:47:05Z</time>
      </trkpt>
      <trkpt lat="45.30025" lon="6.54354">
        <ele>1925.49</ele>
        <time>2014-01-28T12:47:12Z</time>
      </trkpt>
      <trkpt lat="45.30041" lon="6.54373">
        <ele>1924.47</ele>
        <time>2014-01-28T12:47:16Z</time>
      </trkpt>
      <trkpt lat="45.30055" lon="6.54393">
        <ele>1923.66</ele>
        <time>2014-01-28T12:47:20Z</time>
      </trkpt>
      <trkpt lat="45.3006" lon="6.54423">
        <ele>1923.78</ele>
        <time>2014-01-28T12:47:23Z</time>
      </trkpt>
      <trkpt lat="45.30059" lon="6.5446">
        <ele>1920.41</ele>
        <time>2014-01-28T12:47:26Z</time>
      </trkpt>
      <trkpt lat="45.30055" lon="6.54489">
        <ele>1915.61</ele>
        <time>2014-01-28T12:47:28Z</time>
      </trkpt>
      <trkpt lat="45.30049" lon="6.54517">
        <ele>1913.52</ele>
        <time>2014-01-28T12:47:30Z</time>
      </trkpt>
      <trkpt lat="45.30044" lon="6.54543">
        <ele>1916.44</ele>
        <time>2014-01-28T12:47:32Z</time>
      </trkpt>
      <trkpt lat="45.30053" lon="6.54572">
        <ele>1914.24</ele>
        <time>2014-01-28T12:47:35Z</time>
      </trkpt>
      <trkpt lat="45.30071" lon="6.54589">
        <ele>1907.66</ele>
        <time>2014-01-28T12:47:38Z</time>
      </trkpt>
      <trkpt lat="45.30089" lon="6.54606">
        <ele>1904.42</ele>
        <time>2014-01-28T12:47:41Z</time>
      </trkpt>
      <trkpt lat="45.30106" lon="6.54625">
        <ele>1904.95</ele>
        <time>2014-01-28T12:47:44Z</time>
      </trkpt>
      <trkpt lat="45.30119" lon="6.54658">
        <ele>1906.68</ele>
        <time>2014-01-28T12:47:47Z</time>
      </trkpt>
      <trkpt lat="45.3013" lon="6.54683">
        <ele>1902.12</ele>
        <time>2014-01-28T12:47:49Z</time>
      </trkpt>
      <trkpt lat="45.30146" lon="6.54708">
        <ele>1897.51</ele>
        <time>2014-01-28T12:47:52Z</time>
      </trkpt>
      <trkpt lat="45.30163" lon="6.54723">
        <ele>1893.56</ele>
        <time>2014-01-28T12:47:55Z</time>
      </trkpt>
      <trkpt lat="45.3018" lon="6.54735">
        <ele>1887.28</ele>
        <time>2014-01-28T12:47:58Z</time>
      </trkpt>
      <trkpt lat="45.30194" lon="6.54756">
        <ele>1885.72</ele>
        <time>2014-01-28T12:48:01Z</time>
      </trkpt>
      <trkpt lat="45.30205" lon="6.54785">
        <ele>1888.38</ele>
        <time>2014-01-28T12:48:05Z</time>
      </trkpt>
      <trkpt lat="45.30211" lon="6.54811">
        <ele>1891.72</ele>
        <time>2014-01-28T12:48:08Z</time>
      </trkpt>
      <trkpt lat="45.30218" lon="6.54843">
        <ele>1892.48</ele>
        <time>2014-01-28T12:48:12Z</time>
      </trkpt>
      <trkpt lat="45.30228" lon="6.54866">
        <ele>1887.81</ele>
        <time>2014-01-28T12:48:15Z</time>
      </trkpt>
      <trkpt lat="45.30253" lon="6.54857">
        <ele>1868.52</ele>
        <time>2014-01-28T12:48:19Z</time>
      </trkpt>
      <trkpt lat="45.30264" lon="6.54828">
        <ele>1861.38</ele>
        <time>2014-01-28T12:48:22Z</time>
      </trkpt>
      <trkpt lat="45.30273" lon="6.54804">
        <ele>1854.33</ele>
        <time>2014-01-28T12:48:25Z</time>
      </trkpt>
      <trkpt lat="45.30282" lon="6.5478">
        <ele>1850.24</ele>
        <time>2014-01-28T12:48:29Z</time>
      </trkpt>
      <trkpt lat="45.30292" lon="6.54757">
        <ele>1848.75</ele>
        <time>2014-01-28T12:48:33Z</time>
      </trkpt>
      <trkpt lat="45.30302" lon="6.54734">
        <ele>1847.38</ele>
        <time>2014-01-28T12:48:37Z</time>
      </trkpt>
      <trkpt lat="45.30314" lon="6.54713">
        <ele>1847.61</ele>
        <time>2014-01-28T12:48:41Z</time>
      </trkpt>
      <trkpt lat="45.30329" lon="6.54696">
        <ele>1850.44</ele>
        <time>2014-01-28T12:48:45Z</time>
      </trkpt>
      <trkpt lat="45.3035" lon="6.54678">
        <ele>1851.58</ele>
        <time>2014-01-28T12:48:49Z</time>
      </trkpt>
      <trkpt lat="45.30368" lon="6.54665">
        <ele>1852.26</ele>
        <time>2014-01-28T12:48:52Z</time>
      </trkpt>
      <trkpt lat="45.30388" lon="6.54652">
        <ele>1852.23</ele>
        <time>2014-01-28T12:48:55Z</time>
      </trkpt>
      <trkpt lat="45.30403" lon="6.54639">
        <ele>1847.29</ele>
        <time>2014-01-28T12:48:58Z</time>
      </trkpt>
      <trkpt lat="45.3042" lon="6.54619">
        <ele>1841.45</ele>
        <time>2014-01-28T12:49:03Z</time>
      </trkpt>
      <trkpt lat="45.30437" lon="6.546">
        <ele>1838.24</ele>
        <time>2014-01-28T12:49:08Z</time>
      </trkpt>
      <trkpt lat="45.30452" lon="6.54586">
        <ele>1836.82</ele>
        <time>2014-01-28T12:49:12Z</time>
      </trkpt>
      <trkpt lat="45.30471" lon="6.54569">
        <ele>1835.87</ele>
        <time>2014-01-28T12:49:17Z</time>
      </trkpt>
      <trkpt lat="45.30491" lon="6.54556">
        <ele>1834.61</ele>
        <time>2014-01-28T12:49:21Z</time>
      </trkpt>
      <trkpt lat="45.30508" lon="6.54546">
        <ele>1830.74</ele>
        <time>2014-01-28T12:49:24Z</time>
      </trkpt>
      <trkpt lat="45.3053" lon="6.54533">
        <ele>1826.41</ele>
        <time>2014-01-28T12:49:27Z</time>
      </trkpt>
      <trkpt lat="45.30548" lon="6.54521">
        <ele>1823.48</ele>
        <time>2014-01-28T12:49:29Z</time>
      </trkpt>
      <trkpt lat="45.30569" lon="6.54505">
        <ele>1819.33</ele>
        <time>2014-01-28T12:49:31Z</time>
      </trkpt>
      <trkpt lat="45.30593" lon="6.54489">
        <ele>1811.32</ele>
        <time>2014-01-28T12:49:33Z</time>
      </trkpt>
      <trkpt lat="45.30615" lon="6.54472">
        <ele>1805.32</ele>
        <time>2014-01-28T12:49:35Z</time>
      </trkpt>
      <trkpt lat="45.30638" lon="6.54455">
        <ele>1807.04</ele>
        <time>2014-01-28T12:49:37Z</time>
      </trkpt>
      <trkpt lat="45.30659" lon="6.54439">
        <ele>1804.39</ele>
        <time>2014-01-28T12:49:39Z</time>
      </trkpt>
      <trkpt lat="45.30678" lon="6.54427">
        <ele>1802.85</ele>
        <time>2014-01-28T12:49:41Z</time>
      </trkpt>
      <trkpt lat="45.30702" lon="6.54413">
        <ele>1802.21</ele>
        <time>2014-01-28T12:49:44Z</time>
      </trkpt>
      <trkpt lat="45.30725" lon="6.54401">
        <ele>1799.42</ele>
        <time>2014-01-28T12:49:47Z</time>
      </trkpt>
      <trkpt lat="45.30747" lon="6.54388">
        <ele>1795.58</ele>
        <time>2014-01-28T12:49:50Z</time>
      </trkpt>
      <trkpt lat="45.30767" lon="6.54373">
        <ele>1794.6</ele>
        <time>2014-01-28T12:49:54Z</time>
      </trkpt>
      <trkpt lat="45.30786" lon="6.54359">
        <ele>1794.75</ele>
        <time>2014-01-28T12:49:58Z</time>
      </trkpt>
      <trkpt lat="45.30805" lon="6.54347">
        <ele>1797.31</ele>
        <time>2014-01-28T12:50:02Z</time>
      </trkpt>
      <trkpt lat="45.30825" lon="6.54338">
        <ele>1796.68</ele>
        <time>2014-01-28T12:50:06Z</time>
      </trkpt>
      <trkpt lat="45.30844" lon="6.54331">
        <ele>1796.61</ele>
        <time>2014-01-28T12:50:11Z</time>
      </trkpt>
      <trkpt lat="45.30866" lon="6.54323">
        <ele>1796.42</ele>
        <time>2014-01-28T12:50:17Z</time>
      </trkpt>
      <trkpt lat="45.30884" lon="6.54312">
        <ele>1795.46</ele>
        <time>2014-01-28T12:50:22Z</time>
      </trkpt>
      <trkpt lat="45.30902" lon="6.543">
        <ele>1795.17</ele>
        <time>2014-01-28T12:50:28Z</time>
      </trkpt>
      <trkpt lat="45.3092" lon="6.54289">
        <ele>1794.02</ele>
        <time>2014-01-28T12:50:34Z</time>
      </trkpt>
      <trkpt lat="45.3094" lon="6.54278">
        <ele>1792.34</ele>
        <time>2014-01-28T12:50:40Z</time>
      </trkpt>
      <trkpt lat="45.30957" lon="6.54269">
        <ele>1792.72</ele>
        <time>2014-01-28T12:50:45Z</time>
      </trkpt>
      <trkpt lat="45.30978" lon="6.54259">
        <ele>1792.38</ele>
        <time>2014-01-28T12:50:50Z</time>
      </trkpt>
      <trkpt lat="45.31" lon="6.54245">
        <ele>1791.95</ele>
        <time>2014-01-28T12:50:54Z</time>
      </trkpt>
      <trkpt lat="45.31021" lon="6.54235">
        <ele>1791.57</ele>
        <time>2014-01-28T12:50:57Z</time>
      </trkpt>
      <trkpt lat="45.31041" lon="6.54225">
        <ele>1789.36</ele>
        <time>2014-01-28T12:51:00Z</time>
      </trkpt>
      <trkpt lat="45.3106" lon="6.54216">
        <ele>1785.78</ele>
        <time>2014-01-28T12:51:03Z</time>
      </trkpt>
      <trkpt lat="45.31077" lon="6.54208">
        <ele>1782.96</ele>
        <time>2014-01-28T12:51:06Z</time>
      </trkpt>
      <trkpt lat="45.31099" lon="6.54195">
        <ele>1781.28</ele>
        <time>2014-01-28T12:51:10Z</time>
      </trkpt>
      <trkpt lat="45.31117" lon="6.54176">
        <ele>1778.04</ele>
        <time>2014-01-28T12:51:14Z</time>
      </trkpt>
      <trkpt lat="45.31132" lon="6.54156">
        <ele>1774.74</ele>
        <time>2014-01-28T12:51:19Z</time>
      </trkpt>
      <trkpt lat="45.31147" lon="6.5414">
        <ele>1774.47</ele>
        <time>2014-01-28T12:51:23Z</time>
      </trkpt>
      <trkpt lat="45.31164" lon="6.54122">
        <ele>1774.08</ele>
        <time>2014-01-28T12:51:27Z</time>
      </trkpt>
      <trkpt lat="45.31182" lon="6.54105">
        <ele>1772.3</ele>
        <time>2014-01-28T12:51:31Z</time>
      </trkpt>
      <trkpt lat="45.31202" lon="6.54088">
        <ele>1771.23</ele>
        <time>2014-01-28T12:51:35Z</time>
      </trkpt>
      <trkpt lat="45.31219" lon="6.54074">
        <ele>1770.17</ele>
        <time>2014-01-28T12:51:38Z</time>
      </trkpt>
      <trkpt lat="45.31234" lon="6.54059">
        <ele>1768.55</ele>
        <time>2014-01-28T12:51:41Z</time>
      </trkpt>
      <trkpt lat="45.3125" lon="6.54042">
        <ele>1767.5</ele>
        <time>2014-01-28T12:51:45Z</time>
      </trkpt>
      <trkpt lat="45.31267" lon="6.54022">
        <ele>1767.04</ele>
        <time>2014-01-28T12:51:50Z</time>
      </trkpt>
      <trkpt lat="45.31284" lon="6.54007">
        <ele>1767.46</ele>
        <time>2014-01-28T12:51:56Z</time>
      </trkpt>
      <trkpt lat="45.31302" lon="6.53995">
        <ele>1768.64</ele>
        <time>2014-01-28T12:52:05Z</time>
      </trkpt>
      <trkpt lat="45.31317" lon="6.53979">
        <ele>1768.42</ele>
        <time>2014-01-28T12:52:10Z</time>
      </trkpt>
      <trkpt lat="45.31334" lon="6.53957">
        <ele>1767.47</ele>
        <time>2014-01-28T12:52:14Z</time>
      </trkpt>
      <trkpt lat="45.31351" lon="6.53933">
        <ele>1767.49</ele>
        <time>2014-01-28T12:52:17Z</time>
      </trkpt>
      <trkpt lat="45.31366" lon="6.5391">
        <ele>1766.89</ele>
        <time>2014-01-28T12:52:20Z</time>
      </trkpt>
      <trkpt lat="45.31379" lon="6.53892">
        <ele>1765.73</ele>
        <time>2014-01-28T12:52:23Z</time>
      </trkpt>
      <trkpt lat="45.31394" lon="6.53874">
        <ele>1764.14</ele>
        <time>2014-01-28T12:52:26Z</time>
      </trkpt>
      <trkpt lat="45.31414" lon="6.53855">
        <ele>1762.32</ele>
        <time>2014-01-28T12:52:30Z</time>
      </trkpt>
      <trkpt lat="45.3143" lon="6.53842">
        <ele>1761.21</ele>
        <time>2014-01-28T12:52:33Z</time>
      </trkpt>
      <trkpt lat="45.31445" lon="6.53827">
        <ele>1759.79</ele>
        <time>2014-01-28T12:52:36Z</time>
      </trkpt>
      <trkpt lat="45.3146" lon="6.53813">
        <ele>1759.55</ele>
        <time>2014-01-28T12:52:39Z</time>
      </trkpt>
      <trkpt lat="45.31479" lon="6.53796">
        <ele>1757.95</ele>
        <time>2014-01-28T12:52:43Z</time>
      </trkpt>
      <trkpt lat="45.31496" lon="6.53783">
        <ele>1752.83</ele>
        <time>2014-01-28T12:52:47Z</time>
      </trkpt>
      <trkpt lat="45.31512" lon="6.53771">
        <ele>1752.81</ele>
        <time>2014-01-28T12:52:51Z</time>
      </trkpt>
      <trkpt lat="45.3153" lon="6.53759">
        <ele>1752.43</ele>
        <time>2014-01-28T12:52:55Z</time>
      </trkpt>
      <trkpt lat="45.31547" lon="6.53745">
        <ele>1753.47</ele>
        <time>2014-01-28T12:52:58Z</time>
      </trkpt>
      <trkpt lat="45.31568" lon="6.53727">
        <ele>1749.26</ele>
        <time>2014-01-28T12:53:01Z</time>
      </trkpt>
      <trkpt lat="45.31592" lon="6.53724">
        <ele>1747.79</ele>
        <time>2014-01-28T12:53:04Z</time>
      </trkpt>
      <trkpt lat="45.31614" lon="6.53719">
        <ele>1746.64</ele>
        <time>2014-01-28T12:53:07Z</time>
      </trkpt>
      <trkpt lat="45.31638" lon="6.53704">
        <ele>1740.8</ele>
        <time>2014-01-28T12:53:10Z</time>
      </trkpt>
      <trkpt lat="45.31657" lon="6.53686">
        <ele>1740</ele>
        <time>2014-01-28T12:53:13Z</time>
      </trkpt>
      <trkpt lat="45.31673" lon="6.53668">
        <ele>1740</ele>
        <time>2014-01-28T12:53:16Z</time>
      </trkpt>
      <trkpt lat="45.31688" lon="6.5365">
        <ele>1739.41</ele>
        <time>2014-01-28T12:53:19Z</time>
      </trkpt>
      <trkpt lat="45.31703" lon="6.53633">
        <ele>1739</ele>
        <time>2014-01-28T12:53:23Z</time>
      </trkpt>
      <trkpt lat="45.3172" lon="6.53618">
        <ele>1739</ele>
        <time>2014-01-28T12:53:27Z</time>
      </trkpt>
      <trkpt lat="45.31742" lon="6.53611">
        <ele>1736.93</ele>
        <time>2014-01-28T12:53:31Z</time>
      </trkpt>
      <trkpt lat="45.31763" lon="6.53613">
        <ele>1733.66</ele>
        <time>2014-01-28T12:53:34Z</time>
      </trkpt>
      <trkpt lat="45.31788" lon="6.53619">
        <ele>1731.46</ele>
        <time>2014-01-28T12:53:37Z</time>
      </trkpt>
      <trkpt lat="45.31814" lon="6.53625">
        <ele>1729</ele>
        <time>2014-01-28T12:53:40Z</time>
      </trkpt>
      <trkpt lat="45.31835" lon="6.53615">
        <ele>1729</ele>
        <time>2014-01-28T12:53:43Z</time>
      </trkpt>
      <trkpt lat="45.31851" lon="6.53589">
        <ele>1729</ele>
        <time>2014-01-28T12:53:46Z</time>
      </trkpt>
      <trkpt lat="45.31863" lon="6.53561">
        <ele>1729.47</ele>
        <time>2014-01-28T12:53:49Z</time>
      </trkpt>
      <trkpt lat="45.31842" lon="6.53565">
        <ele>1731.96</ele>
        <time>2014-01-28T12:54:44Z</time>
      </trkpt>
      <trkpt lat="45.3178" lon="6.53679">
        <ele>1748.45</ele>
        <time>2014-01-28T12:55:08Z</time>
      </trkpt>
      <trkpt lat="45.31768" lon="6.537">
        <ele>1750.93</ele>
        <time>2014-01-28T12:55:12Z</time>
      </trkpt>
      <trkpt lat="45.31755" lon="6.53722">
        <ele>1753.19</ele>
        <time>2014-01-28T12:55:16Z</time>
      </trkpt>
      <trkpt lat="45.31743" lon="6.53743">
        <ele>1755.72</ele>
        <time>2014-01-28T12:55:20Z</time>
      </trkpt>
      <trkpt lat="45.3173" lon="6.53767">
        <ele>1759.11</ele>
        <time>2014-01-28T12:55:25Z</time>
      </trkpt>
      <trkpt lat="45.31718" lon="6.53787">
        <ele>1761.84</ele>
        <time>2014-01-28T12:55:29Z</time>
      </trkpt>
      <trkpt lat="45.31706" lon="6.53808">
        <ele>1763.55</ele>
        <time>2014-01-28T12:55:33Z</time>
      </trkpt>
      <trkpt lat="45.31693" lon="6.53831">
        <ele>1764.72</ele>
        <time>2014-01-28T12:55:38Z</time>
      </trkpt>
      <trkpt lat="45.31678" lon="6.53856">
        <ele>1766.83</ele>
        <time>2014-01-28T12:55:43Z</time>
      </trkpt>
      <trkpt lat="45.31665" lon="6.53878">
        <ele>1770.46</ele>
        <time>2014-01-28T12:55:48Z</time>
      </trkpt>
      <trkpt lat="45.31653" lon="6.53899">
        <ele>1776.04</ele>
        <time>2014-01-28T12:55:52Z</time>
      </trkpt>
      <trkpt lat="45.31641" lon="6.53921">
        <ele>1779.57</ele>
        <time>2014-01-28T12:55:56Z</time>
      </trkpt>
      <trkpt lat="45.31629" lon="6.53941">
        <ele>1780.74</ele>
        <time>2014-01-28T12:56:00Z</time>
      </trkpt>
      <trkpt lat="45.31615" lon="6.53966">
        <ele>1784.76</ele>
        <time>2014-01-28T12:56:05Z</time>
      </trkpt>
      <trkpt lat="45.31601" lon="6.5399">
        <ele>1790.23</ele>
        <time>2014-01-28T12:56:10Z</time>
      </trkpt>
      <trkpt lat="45.31589" lon="6.54011">
        <ele>1796.22</ele>
        <time>2014-01-28T12:56:16Z</time>
      </trkpt>
      <trkpt lat="45.31575" lon="6.54033">
        <ele>1801.84</ele>
        <time>2014-01-28T12:56:21Z</time>
      </trkpt>
      <trkpt lat="45.31562" lon="6.54054">
        <ele>1809.18</ele>
        <time>2014-01-28T12:56:26Z</time>
      </trkpt>
      <trkpt lat="45.31548" lon="6.54077">
        <ele>1817.66</ele>
        <time>2014-01-28T12:56:31Z</time>
      </trkpt>
      <trkpt lat="45.31535" lon="6.54099">
        <ele>1825.26</ele>
        <time>2014-01-28T12:56:36Z</time>
      </trkpt>
      <trkpt lat="45.31522" lon="6.5412">
        <ele>1828.83</ele>
        <time>2014-01-28T12:56:41Z</time>
      </trkpt>
      <trkpt lat="45.3151" lon="6.54139">
        <ele>1831.97</ele>
        <time>2014-01-28T12:56:46Z</time>
      </trkpt>
      <trkpt lat="45.31497" lon="6.54159">
        <ele>1835.64</ele>
        <time>2014-01-28T12:56:51Z</time>
      </trkpt>
      <trkpt lat="45.31485" lon="6.54182">
        <ele>1838.35</ele>
        <time>2014-01-28T12:56:56Z</time>
      </trkpt>
      <trkpt lat="45.31471" lon="6.54204">
        <ele>1841.59</ele>
        <time>2014-01-28T12:57:01Z</time>
      </trkpt>
      <trkpt lat="45.31458" lon="6.54228">
        <ele>1843.53</ele>
        <time>2014-01-28T12:57:07Z</time>
      </trkpt>
      <trkpt lat="45.31448" lon="6.54249">
        <ele>1846.25</ele>
        <time>2014-01-28T12:57:11Z</time>
      </trkpt>
      <trkpt lat="45.31434" lon="6.54272">
        <ele>1849.17</ele>
        <time>2014-01-28T12:57:15Z</time>
      </trkpt>
      <trkpt lat="45.3142" lon="6.54295">
        <ele>1852.16</ele>
        <time>2014-01-28T12:57:20Z</time>
      </trkpt>
      <trkpt lat="45.31408" lon="6.54316">
        <ele>1854.33</ele>
        <time>2014-01-28T12:57:24Z</time>
      </trkpt>
      <trkpt lat="45.31396" lon="6.54338">
        <ele>1857.4</ele>
        <time>2014-01-28T12:57:28Z</time>
      </trkpt>
      <trkpt lat="45.31385" lon="6.5436">
        <ele>1861.43</ele>
        <time>2014-01-28T12:57:33Z</time>
      </trkpt>
      <trkpt lat="45.31372" lon="6.5438">
        <ele>1865.26</ele>
        <time>2014-01-28T12:57:39Z</time>
      </trkpt>
      <trkpt lat="45.31353" lon="6.54383">
        <ele>1864.08</ele>
        <time>2014-01-28T12:57:45Z</time>
      </trkpt>
      <trkpt lat="45.31368" lon="6.54365">
        <ele>1861.39</ele>
        <time>2014-01-28T12:57:53Z</time>
      </trkpt>
      <trkpt lat="45.31389" lon="6.54348">
        <ele>1858.8</ele>
        <time>2014-01-28T12:57:57Z</time>
      </trkpt>
      <trkpt lat="45.31386" lon="6.54318">
        <ele>1850.93</ele>
        <time>2014-01-28T12:58:00Z</time>
      </trkpt>
      <trkpt lat="45.31367" lon="6.54304">
        <ele>1845.15</ele>
        <time>2014-01-28T12:58:03Z</time>
      </trkpt>
      <trkpt lat="45.31354" lon="6.5428">
        <ele>1837.96</ele>
        <time>2014-01-28T12:58:06Z</time>
      </trkpt>
      <trkpt lat="45.31331" lon="6.54269">
        <ele>1833.25</ele>
        <time>2014-01-28T12:58:10Z</time>
      </trkpt>
      <trkpt lat="45.31308" lon="6.54255">
        <ele>1826.83</ele>
        <time>2014-01-28T12:58:13Z</time>
      </trkpt>
      <trkpt lat="45.31289" lon="6.54248">
        <ele>1824.61</ele>
        <time>2014-01-28T12:58:16Z</time>
      </trkpt>
      <trkpt lat="45.31273" lon="6.54231">
        <ele>1820.94</ele>
        <time>2014-01-28T12:58:19Z</time>
      </trkpt>
      <trkpt lat="45.31255" lon="6.54225">
        <ele>1816.54</ele>
        <time>2014-01-28T12:58:22Z</time>
      </trkpt>
      <trkpt lat="45.31245" lon="6.5425">
        <ele>1819.57</ele>
        <time>2014-01-28T12:58:52Z</time>
      </trkpt>
      <trkpt lat="45.31236" lon="6.54274">
        <ele>1821.46</ele>
        <time>2014-01-28T13:03:30Z</time>
      </trkpt>
      <trkpt lat="45.31236" lon="6.54306">
        <ele>1826.53</ele>
        <time>2014-01-28T13:03:34Z</time>
      </trkpt>
      <trkpt lat="45.31234" lon="6.54334">
        <ele>1832.06</ele>
        <time>2014-01-28T13:03:38Z</time>
      </trkpt>
      <trkpt lat="45.31235" lon="6.54363">
        <ele>1841.84</ele>
        <time>2014-01-28T13:03:43Z</time>
      </trkpt>
      <trkpt lat="45.31236" lon="6.54392">
        <ele>1853.91</ele>
        <time>2014-01-28T13:03:49Z</time>
      </trkpt>
      <trkpt lat="45.31239" lon="6.54419">
        <ele>1861.61</ele>
        <time>2014-01-28T13:03:54Z</time>
      </trkpt>
      <trkpt lat="45.31238" lon="6.54447">
        <ele>1869.2</ele>
        <time>2014-01-28T13:03:59Z</time>
      </trkpt>
      <trkpt lat="45.31238" lon="6.54476">
        <ele>1876.45</ele>
        <time>2014-01-28T13:04:04Z</time>
      </trkpt>
      <trkpt lat="45.3124" lon="6.54502">
        <ele>1882.86</ele>
        <time>2014-01-28T13:04:08Z</time>
      </trkpt>
      <trkpt lat="45.31245" lon="6.54531">
        <ele>1891.06</ele>
        <time>2014-01-28T13:04:13Z</time>
      </trkpt>
      <trkpt lat="45.3125" lon="6.54561">
        <ele>1900.64</ele>
        <time>2014-01-28T13:04:19Z</time>
      </trkpt>
      <trkpt lat="45.31252" lon="6.5459">
        <ele>1910.17</ele>
        <time>2014-01-28T13:04:24Z</time>
      </trkpt>
      <trkpt lat="45.31252" lon="6.54618">
        <ele>1918.77</ele>
        <time>2014-01-28T13:04:29Z</time>
      </trkpt>
      <trkpt lat="45.31255" lon="6.54643">
        <ele>1929.04</ele>
        <time>2014-01-28T13:04:34Z</time>
      </trkpt>
      <trkpt lat="45.3126" lon="6.54674">
        <ele>1941.72</ele>
        <time>2014-01-28T13:04:39Z</time>
      </trkpt>
      <trkpt lat="45.31264" lon="6.54703">
        <ele>1951.74</ele>
        <time>2014-01-28T13:04:44Z</time>
      </trkpt>
      <trkpt lat="45.31266" lon="6.54731">
        <ele>1960.46</ele>
        <time>2014-01-28T13:04:49Z</time>
      </trkpt>
      <trkpt lat="45.31267" lon="6.54757">
        <ele>1968.05</ele>
        <time>2014-01-28T13:04:53Z</time>
      </trkpt>
      <trkpt lat="45.31264" lon="6.54787">
        <ele>1976.41</ele>
        <time>2014-01-28T13:04:58Z</time>
      </trkpt>
      <trkpt lat="45.31263" lon="6.54815">
        <ele>1982.68</ele>
        <time>2014-01-28T13:05:03Z</time>
      </trkpt>
      <trkpt lat="45.31256" lon="6.54843">
        <ele>1987.67</ele>
        <time>2014-01-28T13:05:08Z</time>
      </trkpt>
      <trkpt lat="45.3125" lon="6.54871">
        <ele>1994.24</ele>
        <time>2014-01-28T13:05:12Z</time>
      </trkpt>
      <trkpt lat="45.31249" lon="6.54899">
        <ele>2003.05</ele>
        <time>2014-01-28T13:05:16Z</time>
      </trkpt>
      <trkpt lat="45.3125" lon="6.54926">
        <ele>2012.32</ele>
        <time>2014-01-28T13:05:20Z</time>
      </trkpt>
      <trkpt lat="45.31251" lon="6.54952">
        <ele>2022.37</ele>
        <time>2014-01-28T13:05:24Z</time>
      </trkpt>
      <trkpt lat="45.31251" lon="6.54981">
        <ele>2034.28</ele>
        <time>2014-01-28T13:05:29Z</time>
      </trkpt>
      <trkpt lat="45.31255" lon="6.55011">
        <ele>2044.62</ele>
        <time>2014-01-28T13:05:35Z</time>
      </trkpt>
      <trkpt lat="45.31257" lon="6.55042">
        <ele>2051.78</ele>
        <time>2014-01-28T13:05:39Z</time>
      </trkpt>
      <trkpt lat="45.31257" lon="6.55069">
        <ele>2056.52</ele>
        <time>2014-01-28T13:05:43Z</time>
      </trkpt>
      <trkpt lat="45.31258" lon="6.551">
        <ele>2062.37</ele>
        <time>2014-01-28T13:05:48Z</time>
      </trkpt>
      <trkpt lat="45.31259" lon="6.55129">
        <ele>2068.55</ele>
        <time>2014-01-28T13:05:53Z</time>
      </trkpt>
      <trkpt lat="45.3126" lon="6.55158">
        <ele>2073.79</ele>
        <time>2014-01-28T13:05:58Z</time>
      </trkpt>
      <trkpt lat="45.31264" lon="6.55185">
        <ele>2078.36</ele>
        <time>2014-01-28T13:06:02Z</time>
      </trkpt>
      <trkpt lat="45.31267" lon="6.55215">
        <ele>2082.78</ele>
        <time>2014-01-28T13:06:07Z</time>
      </trkpt>
      <trkpt lat="45.31268" lon="6.55245">
        <ele>2086.49</ele>
        <time>2014-01-28T13:06:12Z</time>
      </trkpt>
      <trkpt lat="45.31271" lon="6.55277">
        <ele>2091.18</ele>
        <time>2014-01-28T13:06:17Z</time>
      </trkpt>
      <trkpt lat="45.31272" lon="6.55303">
        <ele>2099.5</ele>
        <time>2014-01-28T13:06:21Z</time>
      </trkpt>
      <trkpt lat="45.31272" lon="6.55329">
        <ele>2106.49</ele>
        <time>2014-01-28T13:06:26Z</time>
      </trkpt>
      <trkpt lat="45.31273" lon="6.55356">
        <ele>2113.89</ele>
        <time>2014-01-28T13:06:31Z</time>
      </trkpt>
      <trkpt lat="45.31272" lon="6.55384">
        <ele>2123.86</ele>
        <time>2014-01-28T13:06:35Z</time>
      </trkpt>
      <trkpt lat="45.31272" lon="6.55409">
        <ele>2133.4</ele>
        <time>2014-01-28T13:06:39Z</time>
      </trkpt>
      <trkpt lat="45.31266" lon="6.55438">
        <ele>2142.03</ele>
        <time>2014-01-28T13:06:44Z</time>
      </trkpt>
      <trkpt lat="45.31258" lon="6.55464">
        <ele>2147.83</ele>
        <time>2014-01-28T13:06:49Z</time>
      </trkpt>
      <trkpt lat="45.31248" lon="6.55486">
        <ele>2151.63</ele>
        <time>2014-01-28T13:06:53Z</time>
      </trkpt>
      <trkpt lat="45.31239" lon="6.5551">
        <ele>2158.4</ele>
        <time>2014-01-28T13:06:57Z</time>
      </trkpt>
      <trkpt lat="45.31231" lon="6.55534">
        <ele>2166.24</ele>
        <time>2014-01-28T13:07:01Z</time>
      </trkpt>
      <trkpt lat="45.31222" lon="6.55558">
        <ele>2173.85</ele>
        <time>2014-01-28T13:07:05Z</time>
      </trkpt>
      <trkpt lat="45.31213" lon="6.55585">
        <ele>2181.38</ele>
        <time>2014-01-28T13:07:09Z</time>
      </trkpt>
      <trkpt lat="45.31202" lon="6.55608">
        <ele>2185.09</ele>
        <time>2014-01-28T13:07:13Z</time>
      </trkpt>
      <trkpt lat="45.31191" lon="6.55631">
        <ele>2187.88</ele>
        <time>2014-01-28T13:07:17Z</time>
      </trkpt>
      <trkpt lat="45.31183" lon="6.55655">
        <ele>2191.85</ele>
        <time>2014-01-28T13:07:21Z</time>
      </trkpt>
      <trkpt lat="45.31175" lon="6.55684">
        <ele>2198.86</ele>
        <time>2014-01-28T13:07:26Z</time>
      </trkpt>
      <trkpt lat="45.31192" lon="6.55703">
        <ele>2201.76</ele>
        <time>2014-01-28T13:07:33Z</time>
      </trkpt>
      <trkpt lat="45.3121" lon="6.55726">
        <ele>2205.79</ele>
        <time>2014-01-28T13:07:36Z</time>
      </trkpt>
      <trkpt lat="45.3122" lon="6.55749">
        <ele>2207.98</ele>
        <time>2014-01-28T13:07:39Z</time>
      </trkpt>
      <trkpt lat="45.31233" lon="6.55771">
        <ele>2210.9</ele>
        <time>2014-01-28T13:07:42Z</time>
      </trkpt>
      <trkpt lat="45.31249" lon="6.55797">
        <ele>2213.36</ele>
        <time>2014-01-28T13:07:45Z</time>
      </trkpt>
      <trkpt lat="45.31259" lon="6.5582">
        <ele>2216.1</ele>
        <time>2014-01-28T13:07:48Z</time>
      </trkpt>
      <trkpt lat="45.31272" lon="6.55839">
        <ele>2219.01</ele>
        <time>2014-01-28T13:08:15Z</time>
      </trkpt>
      <trkpt lat="45.31278" lon="6.55865">
        <ele>2220.02</ele>
        <time>2014-01-28T13:09:27Z</time>
      </trkpt>
      <trkpt lat="45.31285" lon="6.55895">
        <ele>2221.43</ele>
        <time>2014-01-28T13:09:30Z</time>
      </trkpt>
      <trkpt lat="45.31296" lon="6.55917">
        <ele>2224.67</ele>
        <time>2014-01-28T13:09:33Z</time>
      </trkpt>
      <trkpt lat="45.31304" lon="6.55945">
        <ele>2230.04</ele>
        <time>2014-01-28T13:09:37Z</time>
      </trkpt>
      <trkpt lat="45.31307" lon="6.55975">
        <ele>2239</ele>
        <time>2014-01-28T13:09:42Z</time>
      </trkpt>
      <trkpt lat="45.31308" lon="6.56002">
        <ele>2246.8</ele>
        <time>2014-01-28T13:09:47Z</time>
      </trkpt>
      <trkpt lat="45.3131" lon="6.56031">
        <ele>2255.4</ele>
        <time>2014-01-28T13:09:52Z</time>
      </trkpt>
      <trkpt lat="45.3131" lon="6.5606">
        <ele>2264.51</ele>
        <time>2014-01-28T13:09:57Z</time>
      </trkpt>
      <trkpt lat="45.31313" lon="6.56089">
        <ele>2274.17</ele>
        <time>2014-01-28T13:10:02Z</time>
      </trkpt>
      <trkpt lat="45.31311" lon="6.56119">
        <ele>2282.69</ele>
        <time>2014-01-28T13:10:07Z</time>
      </trkpt>
      <trkpt lat="45.31312" lon="6.56148">
        <ele>2289.69</ele>
        <time>2014-01-28T13:10:12Z</time>
      </trkpt>
      <trkpt lat="45.31311" lon="6.56174">
        <ele>2295.56</ele>
        <time>2014-01-28T13:10:17Z</time>
      </trkpt>
      <trkpt lat="45.31301" lon="6.56197">
        <ele>2301.12</ele>
        <time>2014-01-28T13:10:22Z</time>
      </trkpt>
      <trkpt lat="45.3129" lon="6.56223">
        <ele>2306.29</ele>
        <time>2014-01-28T13:10:27Z</time>
      </trkpt>
      <trkpt lat="45.31287" lon="6.56249">
        <ele>2313.63</ele>
        <time>2014-01-28T13:10:31Z</time>
      </trkpt>
      <trkpt lat="45.31281" lon="6.56274">
        <ele>2322.68</ele>
        <time>2014-01-28T13:10:35Z</time>
      </trkpt>
      <trkpt lat="45.31263" lon="6.56289">
        <ele>2329.01</ele>
        <time>2014-01-28T13:10:40Z</time>
      </trkpt>
      <trkpt lat="45.31248" lon="6.5631">
        <ele>2337.21</ele>
        <time>2014-01-28T13:10:44Z</time>
      </trkpt>
      <trkpt lat="45.31231" lon="6.56327">
        <ele>2342.02</ele>
        <time>2014-01-28T13:10:47Z</time>
      </trkpt>
      <trkpt lat="45.31229" lon="6.56355">
        <ele>2349.89</ele>
        <time>2014-01-28T13:10:53Z</time>
      </trkpt>
      <trkpt lat="45.31242" lon="6.56376">
        <ele>2356.83</ele>
        <time>2014-01-28T13:10:57Z</time>
      </trkpt>
      <trkpt lat="45.3126" lon="6.5639">
        <ele>2363.6</ele>
        <time>2014-01-28T13:11:00Z</time>
      </trkpt>
      <trkpt lat="45.31279" lon="6.56404">
        <ele>2371.04</ele>
        <time>2014-01-28T13:11:03Z</time>
      </trkpt>
      <trkpt lat="45.31293" lon="6.56422">
        <ele>2378.33</ele>
        <time>2014-01-28T13:11:06Z</time>
      </trkpt>
      <trkpt lat="45.31308" lon="6.56441">
        <ele>2384.52</ele>
        <time>2014-01-28T13:11:09Z</time>
      </trkpt>
      <trkpt lat="45.31323" lon="6.56461">
        <ele>2389.32</ele>
        <time>2014-01-28T13:11:12Z</time>
      </trkpt>
      <trkpt lat="45.31336" lon="6.5648">
        <ele>2391.65</ele>
        <time>2014-01-28T13:11:15Z</time>
      </trkpt>
      <trkpt lat="45.31349" lon="6.56498">
        <ele>2394.4</ele>
        <time>2014-01-28T13:11:19Z</time>
      </trkpt>
      <trkpt lat="45.31363" lon="6.56514">
        <ele>2397.04</ele>
        <time>2014-01-28T13:11:24Z</time>
      </trkpt>
      <trkpt lat="45.31375" lon="6.56539">
        <ele>2400.13</ele>
        <time>2014-01-28T13:11:29Z</time>
      </trkpt>
      <trkpt lat="45.31395" lon="6.56559">
        <ele>2406.81</ele>
        <time>2014-01-28T13:11:33Z</time>
      </trkpt>
      <trkpt lat="45.31418" lon="6.5657">
        <ele>2419.67</ele>
        <time>2014-01-28T13:11:35Z</time>
      </trkpt>
      <trkpt lat="45.31438" lon="6.56584">
        <ele>2432.48</ele>
        <time>2014-01-28T13:11:37Z</time>
      </trkpt>
      <trkpt lat="45.3146" lon="6.56604">
        <ele>2445.24</ele>
        <time>2014-01-28T13:11:40Z</time>
      </trkpt>
      <trkpt lat="45.31476" lon="6.56626">
        <ele>2454.99</ele>
        <time>2014-01-28T13:11:43Z</time>
      </trkpt>
      <trkpt lat="45.31491" lon="6.56648">
        <ele>2465.81</ele>
        <time>2014-01-28T13:11:47Z</time>
      </trkpt>
      <trkpt lat="45.31504" lon="6.56672">
        <ele>2478.43</ele>
        <time>2014-01-28T13:11:50Z</time>
      </trkpt>
      <trkpt lat="45.31514" lon="6.56697">
        <ele>2487.09</ele>
        <time>2014-01-28T13:11:54Z</time>
      </trkpt>
      <trkpt lat="45.31526" lon="6.56723">
        <ele>2492.94</ele>
        <time>2014-01-28T13:11:58Z</time>
      </trkpt>
      <trkpt lat="45.31532" lon="6.56748">
        <ele>2499.53</ele>
        <time>2014-01-28T13:12:02Z</time>
      </trkpt>
      <trkpt lat="45.31539" lon="6.56776">
        <ele>2508.82</ele>
        <time>2014-01-28T13:12:07Z</time>
      </trkpt>
      <trkpt lat="45.31549" lon="6.56801">
        <ele>2513.16</ele>
        <time>2014-01-28T13:12:12Z</time>
      </trkpt>
      <trkpt lat="45.31563" lon="6.56819">
        <ele>2518.68</ele>
        <time>2014-01-28T13:12:17Z</time>
      </trkpt>
      <trkpt lat="45.31573" lon="6.56846">
        <ele>2526.71</ele>
        <time>2014-01-28T13:12:22Z</time>
      </trkpt>
      <trkpt lat="45.31576" lon="6.56878">
        <ele>2534.28</ele>
        <time>2014-01-28T13:12:26Z</time>
      </trkpt>
      <trkpt lat="45.31583" lon="6.56907">
        <ele>2543</ele>
        <time>2014-01-28T13:12:30Z</time>
      </trkpt>
      <trkpt lat="45.31587" lon="6.56936">
        <ele>2549.21</ele>
        <time>2014-01-28T13:12:35Z</time>
      </trkpt>
      <trkpt lat="45.31594" lon="6.56963">
        <ele>2557.01</ele>
        <time>2014-01-28T13:12:40Z</time>
      </trkpt>
      <trkpt lat="45.31603" lon="6.5699">
        <ele>2561.59</ele>
        <time>2014-01-28T13:12:45Z</time>
      </trkpt>
      <trkpt lat="45.3161" lon="6.57019">
        <ele>2564.26</ele>
        <time>2014-01-28T13:12:50Z</time>
      </trkpt>
      <trkpt lat="45.31613" lon="6.57045">
        <ele>2564.77</ele>
        <time>2014-01-28T13:12:54Z</time>
      </trkpt>
      <trkpt lat="45.31615" lon="6.57074">
        <ele>2564.23</ele>
        <time>2014-01-28T13:12:58Z</time>
      </trkpt>
      <trkpt lat="45.31617" lon="6.57104">
        <ele>2564.44</ele>
        <time>2014-01-28T13:13:02Z</time>
      </trkpt>
      <trkpt lat="45.31616" lon="6.57131">
        <ele>2567.25</ele>
        <time>2014-01-28T13:13:07Z</time>
      </trkpt>
      <trkpt lat="45.31626" lon="6.57154">
        <ele>2573.25</ele>
        <time>2014-01-28T13:13:12Z</time>
      </trkpt>
      <trkpt lat="45.31638" lon="6.57178">
        <ele>2581.57</ele>
        <time>2014-01-28T13:13:17Z</time>
      </trkpt>
      <trkpt lat="45.31644" lon="6.57203">
        <ele>2585.28</ele>
        <time>2014-01-28T13:13:21Z</time>
      </trkpt>
      <trkpt lat="45.3165" lon="6.57233">
        <ele>2589.33</ele>
        <time>2014-01-28T13:13:25Z</time>
      </trkpt>
      <trkpt lat="45.31654" lon="6.57262">
        <ele>2594.35</ele>
        <time>2014-01-28T13:13:29Z</time>
      </trkpt>
      <trkpt lat="45.31653" lon="6.57292">
        <ele>2603.85</ele>
        <time>2014-01-28T13:13:33Z</time>
      </trkpt>
      <trkpt lat="45.31648" lon="6.57322">
        <ele>2613.56</ele>
        <time>2014-01-28T13:13:38Z</time>
      </trkpt>
      <trkpt lat="45.31642" lon="6.57348">
        <ele>2623.67</ele>
        <time>2014-01-28T13:13:43Z</time>
      </trkpt>
      <trkpt lat="45.3164" lon="6.57375">
        <ele>2635.05</ele>
        <time>2014-01-28T13:13:48Z</time>
      </trkpt>
      <trkpt lat="45.3165" lon="6.57403">
        <ele>2645.77</ele>
        <time>2014-01-28T13:13:57Z</time>
      </trkpt>
      <trkpt lat="45.31668" lon="6.57413">
        <ele>2651.43</ele>
        <time>2014-01-28T13:14:01Z</time>
      </trkpt>
      <trkpt lat="45.31688" lon="6.57434">
        <ele>2662.91</ele>
        <time>2014-01-28T13:14:05Z</time>
      </trkpt>
      <trkpt lat="45.31704" lon="6.5745">
        <ele>2672.57</ele>
        <time>2014-01-28T13:14:08Z</time>
      </trkpt>
      <trkpt lat="45.31718" lon="6.57467">
        <ele>2681.68</ele>
        <time>2014-01-28T13:14:11Z</time>
      </trkpt>
      <trkpt lat="45.31732" lon="6.57489">
        <ele>2693.47</ele>
        <time>2014-01-28T13:14:15Z</time>
      </trkpt>
      <trkpt lat="45.31742" lon="6.57515">
        <ele>2706.15</ele>
        <time>2014-01-28T13:14:20Z</time>
      </trkpt>
      <trkpt lat="45.31749" lon="6.57544">
        <ele>2718.23</ele>
        <time>2014-01-28T13:14:25Z</time>
      </trkpt>
      <trkpt lat="45.31747" lon="6.57571">
        <ele>2730.09</ele>
        <time>2014-01-28T13:14:30Z</time>
      </trkpt>
      <trkpt lat="45.31739" lon="6.57595">
        <ele>2740.22</ele>
        <time>2014-01-28T13:14:35Z</time>
      </trkpt>
      <trkpt lat="45.31738" lon="6.57626">
        <ele>2753.48</ele>
        <time>2014-01-28T13:14:42Z</time>
      </trkpt>
      <trkpt lat="45.31739" lon="6.57656">
        <ele>2760.62</ele>
        <time>2014-01-28T13:14:46Z</time>
      </trkpt>
      <trkpt lat="45.31735" lon="6.57685">
        <ele>2765.09</ele>
        <time>2014-01-28T13:14:51Z</time>
      </trkpt>
      <trkpt lat="45.31727" lon="6.5771">
        <ele>2769.37</ele>
        <time>2014-01-28T13:14:56Z</time>
      </trkpt>
      <trkpt lat="45.31736" lon="6.57735">
        <ele>2776.25</ele>
        <time>2014-01-28T13:15:04Z</time>
      </trkpt>
      <trkpt lat="45.31746" lon="6.57758">
        <ele>2783</ele>
        <time>2014-01-28T13:15:08Z</time>
      </trkpt>
      <trkpt lat="45.31755" lon="6.57785">
        <ele>2792.81</ele>
        <time>2014-01-28T13:15:11Z</time>
      </trkpt>
      <trkpt lat="45.31767" lon="6.57812">
        <ele>2804.44</ele>
        <time>2014-01-28T13:15:15Z</time>
      </trkpt>
      <trkpt lat="45.31785" lon="6.57831">
        <ele>2815.5</ele>
        <time>2014-01-28T13:15:18Z</time>
      </trkpt>
      <trkpt lat="45.31811" lon="6.57857">
        <ele>2826.8</ele>
        <time>2014-01-28T13:15:26Z</time>
      </trkpt>
      <trkpt lat="45.31832" lon="6.57861">
        <ele>2834.43</ele>
        <time>2014-01-28T13:15:37Z</time>
      </trkpt>
      <trkpt lat="45.31851" lon="6.5786">
        <ele>2838.12</ele>
        <time>2014-01-28T13:15:41Z</time>
      </trkpt>
      <trkpt lat="45.31857" lon="6.57836">
        <ele>2839.62</ele>
        <time>2014-01-28T13:15:55Z</time>
      </trkpt>
      <trkpt lat="45.31841" lon="6.57849">
        <ele>2837.29</ele>
        <time>2014-01-28T13:17:45Z</time>
      </trkpt>
      <trkpt lat="45.31854" lon="6.57871">
        <ele>2838.02</ele>
        <time>2014-01-28T13:18:15Z</time>
      </trkpt>
      <trkpt lat="45.31864" lon="6.57902">
        <ele>2835.76</ele>
        <time>2014-01-28T13:18:20Z</time>
      </trkpt>
      <trkpt lat="45.31883" lon="6.57901">
        <ele>2837.82</ele>
        <time>2014-01-28T13:18:45Z</time>
      </trkpt>
      <trkpt lat="45.31902" lon="6.579">
        <ele>2835.74</ele>
        <time>2014-01-28T13:19:06Z</time>
      </trkpt>
      <trkpt lat="45.31919" lon="6.57909">
        <ele>2831.99</ele>
        <time>2014-01-28T13:19:11Z</time>
      </trkpt>
      <trkpt lat="45.31941" lon="6.57903">
        <ele>2828.95</ele>
        <time>2014-01-28T13:19:15Z</time>
      </trkpt>
      <trkpt lat="45.31958" lon="6.57892">
        <ele>2825.79</ele>
        <time>2014-01-28T13:19:36Z</time>
      </trkpt>
      <trkpt lat="45.31975" lon="6.579">
        <ele>2823.6</ele>
        <time>2014-01-28T13:19:52Z</time>
      </trkpt>
      <trkpt lat="45.31992" lon="6.5791">
        <ele>2821.09</ele>
        <time>2014-01-28T13:20:01Z</time>
      </trkpt>
      <trkpt lat="45.31999" lon="6.57934">
        <ele>2820.4</ele>
        <time>2014-01-28T13:20:10Z</time>
      </trkpt>
      <trkpt lat="45.32016" lon="6.57951">
        <ele>2805.12</ele>
        <time>2014-01-28T13:20:17Z</time>
      </trkpt>
      <trkpt lat="45.32034" lon="6.5795">
        <ele>2790.7</ele>
        <time>2014-01-28T13:20:21Z</time>
      </trkpt>
      <trkpt lat="45.32048" lon="6.57972">
        <ele>2784.7</ele>
        <time>2014-01-28T13:20:26Z</time>
      </trkpt>
      <trkpt lat="45.32064" lon="6.57959">
        <ele>2771.86</ele>
        <time>2014-01-28T13:20:40Z</time>
      </trkpt>
      <trkpt lat="45.32068" lon="6.57933">
        <ele>2767.5</ele>
        <time>2014-01-28T13:20:47Z</time>
      </trkpt>
      <trkpt lat="45.32085" lon="6.57923">
        <ele>2751.75</ele>
        <time>2014-01-28T13:20:56Z</time>
      </trkpt>
      <trkpt lat="45.32102" lon="6.57916">
        <ele>2740.73</ele>
        <time>2014-01-28T13:21:02Z</time>
      </trkpt>
      <trkpt lat="45.32118" lon="6.57899">
        <ele>2731.62</ele>
        <time>2014-01-28T13:21:09Z</time>
      </trkpt>
      <trkpt lat="45.32135" lon="6.57911">
        <ele>2721.86</ele>
        <time>2014-01-28T13:21:17Z</time>
      </trkpt>
      <trkpt lat="45.3215" lon="6.57893">
        <ele>2714.32</ele>
        <time>2014-01-28T13:21:23Z</time>
      </trkpt>
      <trkpt lat="45.32168" lon="6.57888">
        <ele>2706.93</ele>
        <time>2014-01-28T13:21:30Z</time>
      </trkpt>
      <trkpt lat="45.32187" lon="6.57881">
        <ele>2695.16</ele>
        <time>2014-01-28T13:21:39Z</time>
      </trkpt>
      <trkpt lat="45.32203" lon="6.57894">
        <ele>2689.17</ele>
        <time>2014-01-28T13:21:47Z</time>
      </trkpt>
      <trkpt lat="45.32221" lon="6.57895">
        <ele>2681.7</ele>
        <time>2014-01-28T13:22:00Z</time>
      </trkpt>
      <trkpt lat="45.32239" lon="6.57889">
        <ele>2673.36</ele>
        <time>2014-01-28T13:22:13Z</time>
      </trkpt>
      <trkpt lat="45.32255" lon="6.57911">
        <ele>2664.11</ele>
        <time>2014-01-28T13:22:17Z</time>
      </trkpt>
      <trkpt lat="45.3227" lon="6.57934">
        <ele>2655.21</ele>
        <time>2014-01-28T13:22:21Z</time>
      </trkpt>
      <trkpt lat="45.32289" lon="6.57929">
        <ele>2645.79</ele>
        <time>2014-01-28T13:22:26Z</time>
      </trkpt>
      <trkpt lat="45.32307" lon="6.57938">
        <ele>2637.5</ele>
        <time>2014-01-28T13:22:31Z</time>
      </trkpt>
      <trkpt lat="45.32325" lon="6.57953">
        <ele>2631.37</ele>
        <time>2014-01-28T13:22:36Z</time>
      </trkpt>
      <trkpt lat="45.32345" lon="6.57957">
        <ele>2625.42</ele>
        <time>2014-01-28T13:22:45Z</time>
      </trkpt>
      <trkpt lat="45.32359" lon="6.57975">
        <ele>2622.73</ele>
        <time>2014-01-28T13:22:49Z</time>
      </trkpt>
      <trkpt lat="45.32375" lon="6.57989">
        <ele>2617.49</ele>
        <time>2014-01-28T13:22:55Z</time>
      </trkpt>
      <trkpt lat="45.32389" lon="6.58007">
        <ele>2613.29</ele>
        <time>2014-01-28T13:23:11Z</time>
      </trkpt>
      <trkpt lat="45.32406" lon="6.57997">
        <ele>2603.83</ele>
        <time>2014-01-28T13:23:17Z</time>
      </trkpt>
      <trkpt lat="45.32424" lon="6.57996">
        <ele>2591.94</ele>
        <time>2014-01-28T13:23:28Z</time>
      </trkpt>
      <trkpt lat="45.32441" lon="6.5798">
        <ele>2576.45</ele>
        <time>2014-01-28T13:23:36Z</time>
      </trkpt>
      <trkpt lat="45.32459" lon="6.57976">
        <ele>2566.05</ele>
        <time>2014-01-28T13:23:47Z</time>
      </trkpt>
      <trkpt lat="45.32468" lon="6.57952">
        <ele>2558.39</ele>
        <time>2014-01-28T13:23:54Z</time>
      </trkpt>
      <trkpt lat="45.32488" lon="6.57942">
        <ele>2548.81</ele>
        <time>2014-01-28T13:24:01Z</time>
      </trkpt>
      <trkpt lat="45.32506" lon="6.57947">
        <ele>2542.32</ele>
        <time>2014-01-28T13:24:08Z</time>
      </trkpt>
      <trkpt lat="45.32517" lon="6.57967">
        <ele>2538</ele>
        <time>2014-01-28T13:24:13Z</time>
      </trkpt>
      <trkpt lat="45.32534" lon="6.57983">
        <ele>2532.49</ele>
        <time>2014-01-28T13:24:16Z</time>
      </trkpt>
      <trkpt lat="45.32552" lon="6.57982">
        <ele>2525.09</ele>
        <time>2014-01-28T13:24:19Z</time>
      </trkpt>
      <trkpt lat="45.3257" lon="6.57974">
        <ele>2519.55</ele>
        <time>2014-01-28T13:24:50Z</time>
      </trkpt>
      <trkpt lat="45.32581" lon="6.57995">
        <ele>2519.71</ele>
        <time>2014-01-28T13:25:01Z</time>
      </trkpt>
      <trkpt lat="45.32587" lon="6.58021">
        <ele>2519.01</ele>
        <time>2014-01-28T13:25:07Z</time>
      </trkpt>
      <trkpt lat="45.32673" lon="6.58003">
        <ele>2478.15</ele>
        <time>2014-01-28T13:25:23Z</time>
      </trkpt>
      <trkpt lat="45.32695" lon="6.58004">
        <ele>2472.72</ele>
        <time>2014-01-28T13:25:28Z</time>
      </trkpt>
      <trkpt lat="45.32714" lon="6.58008">
        <ele>2471.69</ele>
        <time>2014-01-28T13:25:32Z</time>
      </trkpt>
      <trkpt lat="45.32735" lon="6.58017">
        <ele>2468.06</ele>
        <time>2014-01-28T13:25:36Z</time>
      </trkpt>
      <trkpt lat="45.32755" lon="6.58029">
        <ele>2464.71</ele>
        <time>2014-01-28T13:25:41Z</time>
      </trkpt>
      <trkpt lat="45.32771" lon="6.58042">
        <ele>2461.56</ele>
        <time>2014-01-28T13:25:45Z</time>
      </trkpt>
      <trkpt lat="45.32789" lon="6.58056">
        <ele>2459.65</ele>
        <time>2014-01-28T13:25:49Z</time>
      </trkpt>
      <trkpt lat="45.32809" lon="6.58069">
        <ele>2456.78</ele>
        <time>2014-01-28T13:25:53Z</time>
      </trkpt>
      <trkpt lat="45.32827" lon="6.58076">
        <ele>2451.09</ele>
        <time>2014-01-28T13:25:57Z</time>
      </trkpt>
      <trkpt lat="45.32845" lon="6.58084">
        <ele>2445.36</ele>
        <time>2014-01-28T13:26:01Z</time>
      </trkpt>
      <trkpt lat="45.32865" lon="6.58097">
        <ele>2439.57</ele>
        <time>2014-01-28T13:26:06Z</time>
      </trkpt>
      <trkpt lat="45.32873" lon="6.58126">
        <ele>2437.97</ele>
        <time>2014-01-28T13:26:13Z</time>
      </trkpt>
      <trkpt lat="45.32883" lon="6.58156">
        <ele>2429.59</ele>
        <time>2014-01-28T13:26:17Z</time>
      </trkpt>
      <trkpt lat="45.32897" lon="6.58175">
        <ele>2422.52</ele>
        <time>2014-01-28T13:26:20Z</time>
      </trkpt>
      <trkpt lat="45.32918" lon="6.58174">
        <ele>2414.44</ele>
        <time>2014-01-28T13:26:23Z</time>
      </trkpt>
      <trkpt lat="45.32942" lon="6.58162">
        <ele>2406.46</ele>
        <time>2014-01-28T13:26:26Z</time>
      </trkpt>
      <trkpt lat="45.32963" lon="6.58155">
        <ele>2402.48</ele>
        <time>2014-01-28T13:26:29Z</time>
      </trkpt>
      <trkpt lat="45.32983" lon="6.58149">
        <ele>2398.74</ele>
        <time>2014-01-28T13:26:32Z</time>
      </trkpt>
      <trkpt lat="45.33001" lon="6.58143">
        <ele>2394.93</ele>
        <time>2014-01-28T13:26:35Z</time>
      </trkpt>
      <trkpt lat="45.33019" lon="6.58133">
        <ele>2391.44</ele>
        <time>2014-01-28T13:26:38Z</time>
      </trkpt>
      <trkpt lat="45.33038" lon="6.5813">
        <ele>2388.27</ele>
        <time>2014-01-28T13:26:42Z</time>
      </trkpt>
      <trkpt lat="45.33055" lon="6.58145">
        <ele>2386.6</ele>
        <time>2014-01-28T13:26:48Z</time>
      </trkpt>
      <trkpt lat="45.33071" lon="6.58159">
        <ele>2384.16</ele>
        <time>2014-01-28T13:27:22Z</time>
      </trkpt>
      <trkpt lat="45.33094" lon="6.58173">
        <ele>2381.48</ele>
        <time>2014-01-28T13:27:26Z</time>
      </trkpt>
      <trkpt lat="45.33116" lon="6.58181">
        <ele>2378.62</ele>
        <time>2014-01-28T13:27:29Z</time>
      </trkpt>
      <trkpt lat="45.33141" lon="6.58189">
        <ele>2372.38</ele>
        <time>2014-01-28T13:27:32Z</time>
      </trkpt>
      <trkpt lat="45.33159" lon="6.58194">
        <ele>2370</ele>
        <time>2014-01-28T13:27:34Z</time>
      </trkpt>
      <trkpt lat="45.33179" lon="6.58197">
        <ele>2367.47</ele>
        <time>2014-01-28T13:27:36Z</time>
      </trkpt>
      <trkpt lat="45.33198" lon="6.58198">
        <ele>2365.26</ele>
        <time>2014-01-28T13:27:38Z</time>
      </trkpt>
      <trkpt lat="45.33224" lon="6.58198">
        <ele>2363.03</ele>
        <time>2014-01-28T13:27:41Z</time>
      </trkpt>
      <trkpt lat="45.33246" lon="6.58197">
        <ele>2362.64</ele>
        <time>2014-01-28T13:27:44Z</time>
      </trkpt>
      <trkpt lat="45.33268" lon="6.58193">
        <ele>2361.89</ele>
        <time>2014-01-28T13:27:48Z</time>
      </trkpt>
      <trkpt lat="45.33288" lon="6.58189">
        <ele>2360.74</ele>
        <time>2014-01-28T13:27:52Z</time>
      </trkpt>
      <trkpt lat="45.33307" lon="6.58183">
        <ele>2359.11</ele>
        <time>2014-01-28T13:27:56Z</time>
      </trkpt>
      <trkpt lat="45.33326" lon="6.58176">
        <ele>2357.9</ele>
        <time>2014-01-28T13:28:00Z</time>
      </trkpt>
      <trkpt lat="45.33345" lon="6.58168">
        <ele>2356.66</ele>
        <time>2014-01-28T13:28:04Z</time>
      </trkpt>
      <trkpt lat="45.33368" lon="6.58158">
        <ele>2354.97</ele>
        <time>2014-01-28T13:28:08Z</time>
      </trkpt>
      <trkpt lat="45.33388" lon="6.58148">
        <ele>2353.35</ele>
        <time>2014-01-28T13:28:11Z</time>
      </trkpt>
      <trkpt lat="45.33409" lon="6.58136">
        <ele>2351.15</ele>
        <time>2014-01-28T13:28:14Z</time>
      </trkpt>
      <trkpt lat="45.33433" lon="6.58136">
        <ele>2348.49</ele>
        <time>2014-01-28T13:28:17Z</time>
      </trkpt>
      <trkpt lat="45.33455" lon="6.58138">
        <ele>2343.54</ele>
        <time>2014-01-28T13:28:20Z</time>
      </trkpt>
      <trkpt lat="45.33479" lon="6.58146">
        <ele>2336.29</ele>
        <time>2014-01-28T13:28:24Z</time>
      </trkpt>
      <trkpt lat="45.33499" lon="6.58154">
        <ele>2330.05</ele>
        <time>2014-01-28T13:28:28Z</time>
      </trkpt>
      <trkpt lat="45.33517" lon="6.58165">
        <ele>2320.51</ele>
        <time>2014-01-28T13:28:32Z</time>
      </trkpt>
      <trkpt lat="45.33534" lon="6.58182">
        <ele>2312.28</ele>
        <time>2014-01-28T13:28:35Z</time>
      </trkpt>
      <trkpt lat="45.33553" lon="6.58195">
        <ele>2309.92</ele>
        <time>2014-01-28T13:28:37Z</time>
      </trkpt>
      <trkpt lat="45.33576" lon="6.58208">
        <ele>2303.45</ele>
        <time>2014-01-28T13:28:39Z</time>
      </trkpt>
      <trkpt lat="45.336" lon="6.58215">
        <ele>2298.47</ele>
        <time>2014-01-28T13:28:41Z</time>
      </trkpt>
      <trkpt lat="45.3362" lon="6.58219">
        <ele>2297.31</ele>
        <time>2014-01-28T13:28:43Z</time>
      </trkpt>
      <trkpt lat="45.3364" lon="6.58212">
        <ele>2299.15</ele>
        <time>2014-01-28T13:28:46Z</time>
      </trkpt>
      <trkpt lat="45.33657" lon="6.58202">
        <ele>2297.9</ele>
        <time>2014-01-28T13:28:49Z</time>
      </trkpt>
      <trkpt lat="45.33675" lon="6.58187">
        <ele>2294.74</ele>
        <time>2014-01-28T13:28:52Z</time>
      </trkpt>
      <trkpt lat="45.33696" lon="6.58183">
        <ele>2289.82</ele>
        <time>2014-01-28T13:28:55Z</time>
      </trkpt>
      <trkpt lat="45.33716" lon="6.58188">
        <ele>2286.17</ele>
        <time>2014-01-28T13:28:58Z</time>
      </trkpt>
      <trkpt lat="45.33735" lon="6.58195">
        <ele>2281.46</ele>
        <time>2014-01-28T13:29:01Z</time>
      </trkpt>
      <trkpt lat="45.33743" lon="6.58227">
        <ele>2272.96</ele>
        <time>2014-01-28T13:29:05Z</time>
      </trkpt>
      <trkpt lat="45.33757" lon="6.58244">
        <ele>2265.99</ele>
        <time>2014-01-28T13:29:08Z</time>
      </trkpt>
      <trkpt lat="45.33751" lon="6.58274">
        <ele>2253.2</ele>
        <time>2014-01-28T13:29:13Z</time>
      </trkpt>
      <trkpt lat="45.33761" lon="6.58298">
        <ele>2245.51</ele>
        <time>2014-01-28T13:29:16Z</time>
      </trkpt>
      <trkpt lat="45.3376" lon="6.58328">
        <ele>2236.62</ele>
        <time>2014-01-28T13:29:20Z</time>
      </trkpt>
      <trkpt lat="45.33769" lon="6.58351">
        <ele>2231.07</ele>
        <time>2014-01-28T13:29:23Z</time>
      </trkpt>
      <trkpt lat="45.33759" lon="6.58377">
        <ele>2223.23</ele>
        <time>2014-01-28T13:29:26Z</time>
      </trkpt>
      <trkpt lat="45.33759" lon="6.58413">
        <ele>2214.53</ele>
        <time>2014-01-28T13:29:29Z</time>
      </trkpt>
      <trkpt lat="45.33758" lon="6.58449">
        <ele>2204.5</ele>
        <time>2014-01-28T13:29:31Z</time>
      </trkpt>
      <trkpt lat="45.3377" lon="6.58482">
        <ele>2198.4</ele>
        <time>2014-01-28T13:29:33Z</time>
      </trkpt>
      <trkpt lat="45.3378" lon="6.58514">
        <ele>2194.29</ele>
        <time>2014-01-28T13:29:35Z</time>
      </trkpt>
      <trkpt lat="45.33787" lon="6.58539">
        <ele>2191</ele>
        <time>2014-01-28T13:29:37Z</time>
      </trkpt>
      <trkpt lat="45.338" lon="6.58556">
        <ele>2189.36</ele>
        <time>2014-01-28T13:29:39Z</time>
      </trkpt>
      <trkpt lat="45.33818" lon="6.5857">
        <ele>2184.37</ele>
        <time>2014-01-28T13:29:41Z</time>
      </trkpt>
      <trkpt lat="45.3383" lon="6.58603">
        <ele>2176.69</ele>
        <time>2014-01-28T13:29:44Z</time>
      </trkpt>
      <trkpt lat="45.33852" lon="6.58621">
        <ele>2171.73</ele>
        <time>2014-01-28T13:29:47Z</time>
      </trkpt>
      <trkpt lat="45.33869" lon="6.5863">
        <ele>2168.54</ele>
        <time>2014-01-28T13:29:49Z</time>
      </trkpt>
      <trkpt lat="45.3388" lon="6.58652">
        <ele>2162.34</ele>
        <time>2014-01-28T13:29:51Z</time>
      </trkpt>
      <trkpt lat="45.33903" lon="6.58666">
        <ele>2155.13</ele>
        <time>2014-01-28T13:29:54Z</time>
      </trkpt>
      <trkpt lat="45.33926" lon="6.58687">
        <ele>2148.44</ele>
        <time>2014-01-28T13:29:57Z</time>
      </trkpt>
      <trkpt lat="45.33944" lon="6.58705">
        <ele>2141.2</ele>
        <time>2014-01-28T13:29:59Z</time>
      </trkpt>
      <trkpt lat="45.33963" lon="6.58724">
        <ele>2137.62</ele>
        <time>2014-01-28T13:30:01Z</time>
      </trkpt>
      <trkpt lat="45.33983" lon="6.5875">
        <ele>2132.59</ele>
        <time>2014-01-28T13:30:03Z</time>
      </trkpt>
      <trkpt lat="45.34003" lon="6.58771">
        <ele>2128.07</ele>
        <time>2014-01-28T13:30:05Z</time>
      </trkpt>
      <trkpt lat="45.34021" lon="6.58793">
        <ele>2122.87</ele>
        <time>2014-01-28T13:30:07Z</time>
      </trkpt>
      <trkpt lat="45.34039" lon="6.58819">
        <ele>2118.64</ele>
        <time>2014-01-28T13:30:09Z</time>
      </trkpt>
      <trkpt lat="45.34056" lon="6.58843">
        <ele>2116.29</ele>
        <time>2014-01-28T13:30:11Z</time>
      </trkpt>
      <trkpt lat="45.34072" lon="6.58866">
        <ele>2114.7</ele>
        <time>2014-01-28T13:30:13Z</time>
      </trkpt>
      <trkpt lat="45.34086" lon="6.58894">
        <ele>2113.72</ele>
        <time>2014-01-28T13:30:16Z</time>
      </trkpt>
      <trkpt lat="45.34098" lon="6.58921">
        <ele>2112.3</ele>
        <time>2014-01-28T13:30:19Z</time>
      </trkpt>
      <trkpt lat="45.3411" lon="6.58939">
        <ele>2112.09</ele>
        <time>2014-01-28T13:30:25Z</time>
      </trkpt>
      <trkpt lat="45.3411" lon="6.58909">
        <ele>2113.53</ele>
        <time>2014-01-28T13:31:25Z</time>
      </trkpt>
      <trkpt lat="45.34116" lon="6.5888">
        <ele>2117</ele>
        <time>2014-01-28T13:31:37Z</time>
      </trkpt>
      <trkpt lat="45.34115" lon="6.58854">
        <ele>2118.73</ele>
        <time>2014-01-28T13:31:42Z</time>
      </trkpt>
      <trkpt lat="45.34117" lon="6.58823">
        <ele>2121.31</ele>
        <time>2014-01-28T13:31:48Z</time>
      </trkpt>
      <trkpt lat="45.34119" lon="6.58795">
        <ele>2125.27</ele>
        <time>2014-01-28T13:31:53Z</time>
      </trkpt>
      <trkpt lat="45.34122" lon="6.58769">
        <ele>2129.71</ele>
        <time>2014-01-28T13:31:58Z</time>
      </trkpt>
      <trkpt lat="45.34125" lon="6.58741">
        <ele>2135.55</ele>
        <time>2014-01-28T13:32:04Z</time>
      </trkpt>
      <trkpt lat="45.34128" lon="6.58716">
        <ele>2141.12</ele>
        <time>2014-01-28T13:32:08Z</time>
      </trkpt>
      <trkpt lat="45.3413" lon="6.58691">
        <ele>2146.44</ele>
        <time>2014-01-28T13:32:13Z</time>
      </trkpt>
      <trkpt lat="45.34133" lon="6.58663">
        <ele>2152.43</ele>
        <time>2014-01-28T13:32:18Z</time>
      </trkpt>
      <trkpt lat="45.34136" lon="6.58634">
        <ele>2155.68</ele>
        <time>2014-01-28T13:32:23Z</time>
      </trkpt>
      <trkpt lat="45.34139" lon="6.58605">
        <ele>2159.39</ele>
        <time>2014-01-28T13:32:29Z</time>
      </trkpt>
      <trkpt lat="45.34141" lon="6.58579">
        <ele>2165.44</ele>
        <time>2014-01-28T13:32:34Z</time>
      </trkpt>
      <trkpt lat="45.34144" lon="6.58551">
        <ele>2173.26</ele>
        <time>2014-01-28T13:32:39Z</time>
      </trkpt>
      <trkpt lat="45.34146" lon="6.58524">
        <ele>2177.93</ele>
        <time>2014-01-28T13:32:44Z</time>
      </trkpt>
      <trkpt lat="45.34149" lon="6.58496">
        <ele>2184.54</ele>
        <time>2014-01-28T13:32:50Z</time>
      </trkpt>
      <trkpt lat="45.34151" lon="6.58467">
        <ele>2194.71</ele>
        <time>2014-01-28T13:32:56Z</time>
      </trkpt>
      <trkpt lat="45.34153" lon="6.58441">
        <ele>2203.73</ele>
        <time>2014-01-28T13:33:02Z</time>
      </trkpt>
      <trkpt lat="45.34158" lon="6.58412">
        <ele>2216.53</ele>
        <time>2014-01-28T13:33:08Z</time>
      </trkpt>
      <trkpt lat="45.34164" lon="6.58388">
        <ele>2228.51</ele>
        <time>2014-01-28T13:33:14Z</time>
      </trkpt>
      <trkpt lat="45.3417" lon="6.58364">
        <ele>2241.44</ele>
        <time>2014-01-28T13:33:22Z</time>
      </trkpt>
      <trkpt lat="45.34175" lon="6.58339">
        <ele>2257.83</ele>
        <time>2014-01-28T13:33:29Z</time>
      </trkpt>
      <trkpt lat="45.34178" lon="6.58312">
        <ele>2271.4</ele>
        <time>2014-01-28T13:33:34Z</time>
      </trkpt>
      <trkpt lat="45.34181" lon="6.58286">
        <ele>2284.65</ele>
        <time>2014-01-28T13:33:39Z</time>
      </trkpt>
      <trkpt lat="45.34182" lon="6.58258">
        <ele>2299.09</ele>
        <time>2014-01-28T13:33:46Z</time>
      </trkpt>
      <trkpt lat="45.34185" lon="6.58229">
        <ele>2312.58</ele>
        <time>2014-01-28T13:33:54Z</time>
      </trkpt>
      <trkpt lat="45.34188" lon="6.58202">
        <ele>2321.55</ele>
        <time>2014-01-28T13:33:59Z</time>
      </trkpt>
      <trkpt lat="45.3419" lon="6.58174">
        <ele>2328.87</ele>
        <time>2014-01-28T13:34:03Z</time>
      </trkpt>
      <trkpt lat="45.34192" lon="6.58147">
        <ele>2339.13</ele>
        <time>2014-01-28T13:34:08Z</time>
      </trkpt>
      <trkpt lat="45.34195" lon="6.5812">
        <ele>2347.17</ele>
        <time>2014-01-28T13:34:15Z</time>
      </trkpt>
      <trkpt lat="45.34198" lon="6.58092">
        <ele>2356.89</ele>
        <time>2014-01-28T13:34:21Z</time>
      </trkpt>
      <trkpt lat="45.34201" lon="6.58065">
        <ele>2366.31</ele>
        <time>2014-01-28T13:34:27Z</time>
      </trkpt>
      <trkpt lat="45.34204" lon="6.58032">
        <ele>2379.76</ele>
        <time>2014-01-28T13:34:35Z</time>
      </trkpt>
      <trkpt lat="45.34207" lon="6.58005">
        <ele>2393.64</ele>
        <time>2014-01-28T13:34:39Z</time>
      </trkpt>
      <trkpt lat="45.34209" lon="6.57977">
        <ele>2403.77</ele>
        <time>2014-01-28T13:34:44Z</time>
      </trkpt>
      <trkpt lat="45.34213" lon="6.57943">
        <ele>2415.82</ele>
        <time>2014-01-28T13:34:53Z</time>
      </trkpt>
      <trkpt lat="45.34232" lon="6.57931">
        <ele>2414.14</ele>
        <time>2014-01-28T13:35:00Z</time>
      </trkpt>
      <trkpt lat="45.34251" lon="6.57937">
        <ele>2408.4</ele>
        <time>2014-01-28T13:35:07Z</time>
      </trkpt>
      <trkpt lat="45.34269" lon="6.57946">
        <ele>2403.65</ele>
        <time>2014-01-28T13:35:14Z</time>
      </trkpt>
      <trkpt lat="45.3429" lon="6.57945">
        <ele>2399.82</ele>
        <time>2014-01-28T13:35:21Z</time>
      </trkpt>
      <trkpt lat="45.34311" lon="6.57942">
        <ele>2396.86</ele>
        <time>2014-01-28T13:35:26Z</time>
      </trkpt>
      <trkpt lat="45.34333" lon="6.57935">
        <ele>2395.06</ele>
        <time>2014-01-28T13:35:29Z</time>
      </trkpt>
      <trkpt lat="45.34359" lon="6.57927">
        <ele>2391.29</ele>
        <time>2014-01-28T13:35:32Z</time>
      </trkpt>
      <trkpt lat="45.34382" lon="6.57915">
        <ele>2388.51</ele>
        <time>2014-01-28T13:35:35Z</time>
      </trkpt>
      <trkpt lat="45.34401" lon="6.57906">
        <ele>2385.57</ele>
        <time>2014-01-28T13:35:38Z</time>
      </trkpt>
      <trkpt lat="45.3442" lon="6.57894">
        <ele>2382.22</ele>
        <time>2014-01-28T13:35:41Z</time>
      </trkpt>
      <trkpt lat="45.34438" lon="6.5788">
        <ele>2375.49</ele>
        <time>2014-01-28T13:35:44Z</time>
      </trkpt>
      <trkpt lat="45.3446" lon="6.57872">
        <ele>2367.2</ele>
        <time>2014-01-28T13:35:47Z</time>
      </trkpt>
      <trkpt lat="45.34479" lon="6.5786">
        <ele>2361.59</ele>
        <time>2014-01-28T13:35:50Z</time>
      </trkpt>
      <trkpt lat="45.34499" lon="6.57862">
        <ele>2357.15</ele>
        <time>2014-01-28T13:35:53Z</time>
      </trkpt>
      <trkpt lat="45.34521" lon="6.57847">
        <ele>2354.21</ele>
        <time>2014-01-28T13:35:56Z</time>
      </trkpt>
      <trkpt lat="45.34537" lon="6.57835">
        <ele>2349.83</ele>
        <time>2014-01-28T13:35:59Z</time>
      </trkpt>
      <trkpt lat="45.34556" lon="6.57848">
        <ele>2340.79</ele>
        <time>2014-01-28T13:36:03Z</time>
      </trkpt>
      <trkpt lat="45.34574" lon="6.57839">
        <ele>2330.49</ele>
        <time>2014-01-28T13:36:07Z</time>
      </trkpt>
      <trkpt lat="45.34596" lon="6.57832">
        <ele>2321.64</ele>
        <time>2014-01-28T13:36:11Z</time>
      </trkpt>
      <trkpt lat="45.34614" lon="6.57833">
        <ele>2316.26</ele>
        <time>2014-01-28T13:36:15Z</time>
      </trkpt>
      <trkpt lat="45.34633" lon="6.57829">
        <ele>2311.73</ele>
        <time>2014-01-28T13:36:20Z</time>
      </trkpt>
      <trkpt lat="45.34649" lon="6.57812">
        <ele>2307.23</ele>
        <time>2014-01-28T13:36:25Z</time>
      </trkpt>
      <trkpt lat="45.34664" lon="6.57797">
        <ele>2302.09</ele>
        <time>2014-01-28T13:36:29Z</time>
      </trkpt>
      <trkpt lat="45.34677" lon="6.57817">
        <ele>2292.48</ele>
        <time>2014-01-28T13:36:33Z</time>
      </trkpt>
      <trkpt lat="45.34694" lon="6.57827">
        <ele>2282.2</ele>
        <time>2014-01-28T13:36:36Z</time>
      </trkpt>
      <trkpt lat="45.34719" lon="6.57836">
        <ele>2271.21</ele>
        <time>2014-01-28T13:36:39Z</time>
      </trkpt>
      <trkpt lat="45.34743" lon="6.57821">
        <ele>2267.27</ele>
        <time>2014-01-28T13:36:42Z</time>
      </trkpt>
      <trkpt lat="45.3476" lon="6.57809">
        <ele>2264.37</ele>
        <time>2014-01-28T13:36:44Z</time>
      </trkpt>
      <trkpt lat="45.3478" lon="6.57815">
        <ele>2255.89</ele>
        <time>2014-01-28T13:36:47Z</time>
      </trkpt>
      <trkpt lat="45.348" lon="6.57796">
        <ele>2251.06</ele>
        <time>2014-01-28T13:36:50Z</time>
      </trkpt>
      <trkpt lat="45.34822" lon="6.57791">
        <ele>2244.54</ele>
        <time>2014-01-28T13:36:53Z</time>
      </trkpt>
      <trkpt lat="45.34844" lon="6.57787">
        <ele>2238.2</ele>
        <time>2014-01-28T13:36:56Z</time>
      </trkpt>
      <trkpt lat="45.34862" lon="6.57783">
        <ele>2233.86</ele>
        <time>2014-01-28T13:36:59Z</time>
      </trkpt>
      <trkpt lat="45.34882" lon="6.57757">
        <ele>2231.26</ele>
        <time>2014-01-28T13:37:02Z</time>
      </trkpt>
      <trkpt lat="45.34902" lon="6.57753">
        <ele>2227.34</ele>
        <time>2014-01-28T13:37:05Z</time>
      </trkpt>
      <trkpt lat="45.34921" lon="6.57749">
        <ele>2224.35</ele>
        <time>2014-01-28T13:37:08Z</time>
      </trkpt>
      <trkpt lat="45.34938" lon="6.57739">
        <ele>2221.79</ele>
        <time>2014-01-28T13:37:11Z</time>
      </trkpt>
      <trkpt lat="45.34956" lon="6.57749">
        <ele>2217.19</ele>
        <time>2014-01-28T13:37:14Z</time>
      </trkpt>
      <trkpt lat="45.34977" lon="6.57732">
        <ele>2210.47</ele>
        <time>2014-01-28T13:37:17Z</time>
      </trkpt>
      <trkpt lat="45.34996" lon="6.57718">
        <ele>2204.2</ele>
        <time>2014-01-28T13:37:20Z</time>
      </trkpt>
      <trkpt lat="45.3501" lon="6.57739">
        <ele>2198.05</ele>
        <time>2014-01-28T13:37:24Z</time>
      </trkpt>
      <trkpt lat="45.35032" lon="6.57751">
        <ele>2190.01</ele>
        <time>2014-01-28T13:37:28Z</time>
      </trkpt>
      <trkpt lat="45.35054" lon="6.57753">
        <ele>2185.08</ele>
        <time>2014-01-28T13:37:31Z</time>
      </trkpt>
      <trkpt lat="45.35074" lon="6.57766">
        <ele>2177.25</ele>
        <time>2014-01-28T13:37:34Z</time>
      </trkpt>
      <trkpt lat="45.35094" lon="6.57782">
        <ele>2171.74</ele>
        <time>2014-01-28T13:37:37Z</time>
      </trkpt>
      <trkpt lat="45.35114" lon="6.57797">
        <ele>2165.56</ele>
        <time>2014-01-28T13:37:40Z</time>
      </trkpt>
      <trkpt lat="45.35137" lon="6.57812">
        <ele>2159.68</ele>
        <time>2014-01-28T13:37:43Z</time>
      </trkpt>
      <trkpt lat="45.35159" lon="6.57812">
        <ele>2154.25</ele>
        <time>2014-01-28T13:37:46Z</time>
      </trkpt>
      <trkpt lat="45.3518" lon="6.57826">
        <ele>2147.22</ele>
        <time>2014-01-28T13:37:49Z</time>
      </trkpt>
      <trkpt lat="45.35199" lon="6.57844">
        <ele>2141.09</ele>
        <time>2014-01-28T13:37:52Z</time>
      </trkpt>
      <trkpt lat="45.35223" lon="6.57847">
        <ele>2135.38</ele>
        <time>2014-01-28T13:37:55Z</time>
      </trkpt>
      <trkpt lat="45.35243" lon="6.57862">
        <ele>2129.72</ele>
        <time>2014-01-28T13:37:58Z</time>
      </trkpt>
      <trkpt lat="45.35263" lon="6.57863">
        <ele>2124.64</ele>
        <time>2014-01-28T13:38:00Z</time>
      </trkpt>
      <trkpt lat="45.35284" lon="6.57873">
        <ele>2119.29</ele>
        <time>2014-01-28T13:38:02Z</time>
      </trkpt>
      <trkpt lat="45.35304" lon="6.57892">
        <ele>2115.15</ele>
        <time>2014-01-28T13:38:04Z</time>
      </trkpt>
      <trkpt lat="45.35323" lon="6.57912">
        <ele>2110.99</ele>
        <time>2014-01-28T13:38:06Z</time>
      </trkpt>
      <trkpt lat="45.35341" lon="6.5793">
        <ele>2108.36</ele>
        <time>2014-01-28T13:38:08Z</time>
      </trkpt>
      <trkpt lat="45.35356" lon="6.57949">
        <ele>2106.08</ele>
        <time>2014-01-28T13:38:10Z</time>
      </trkpt>
      <trkpt lat="45.35372" lon="6.57964">
        <ele>2102.94</ele>
        <time>2014-01-28T13:38:12Z</time>
      </trkpt>
      <trkpt lat="45.35388" lon="6.57977">
        <ele>2100.91</ele>
        <time>2014-01-28T13:38:14Z</time>
      </trkpt>
      <trkpt lat="45.35406" lon="6.57988">
        <ele>2099.89</ele>
        <time>2014-01-28T13:38:16Z</time>
      </trkpt>
      <trkpt lat="45.35424" lon="6.57996">
        <ele>2098.27</ele>
        <time>2014-01-28T13:38:18Z</time>
      </trkpt>
      <trkpt lat="45.35442" lon="6.58004">
        <ele>2093.64</ele>
        <time>2014-01-28T13:38:20Z</time>
      </trkpt>
      <trkpt lat="45.35468" lon="6.58012">
        <ele>2088.11</ele>
        <time>2014-01-28T13:38:23Z</time>
      </trkpt>
      <trkpt lat="45.35494" lon="6.58018">
        <ele>2084.67</ele>
        <time>2014-01-28T13:38:26Z</time>
      </trkpt>
      <trkpt lat="45.35512" lon="6.58018">
        <ele>2080.58</ele>
        <time>2014-01-28T13:38:28Z</time>
      </trkpt>
      <trkpt lat="45.35538" lon="6.58017">
        <ele>2073.27</ele>
        <time>2014-01-28T13:38:30Z</time>
      </trkpt>
      <trkpt lat="45.35564" lon="6.58022">
        <ele>2066.59</ele>
        <time>2014-01-28T13:38:32Z</time>
      </trkpt>
      <trkpt lat="45.35588" lon="6.58021">
        <ele>2061.93</ele>
        <time>2014-01-28T13:38:34Z</time>
      </trkpt>
      <trkpt lat="45.3561" lon="6.5802">
        <ele>2061.13</ele>
        <time>2014-01-28T13:38:36Z</time>
      </trkpt>
      <trkpt lat="45.35631" lon="6.58021">
        <ele>2057.93</ele>
        <time>2014-01-28T13:38:38Z</time>
      </trkpt>
      <trkpt lat="45.35653" lon="6.58022">
        <ele>2055.27</ele>
        <time>2014-01-28T13:38:40Z</time>
      </trkpt>
      <trkpt lat="45.35673" lon="6.58021">
        <ele>2054.31</ele>
        <time>2014-01-28T13:38:42Z</time>
      </trkpt>
      <trkpt lat="45.35696" lon="6.58021">
        <ele>2052.9</ele>
        <time>2014-01-28T13:38:44Z</time>
      </trkpt>
      <trkpt lat="45.35718" lon="6.58025">
        <ele>2047.26</ele>
        <time>2014-01-28T13:38:46Z</time>
      </trkpt>
      <trkpt lat="45.35741" lon="6.5803">
        <ele>2045.12</ele>
        <time>2014-01-28T13:38:48Z</time>
      </trkpt>
      <trkpt lat="45.35766" lon="6.58034">
        <ele>2039.81</ele>
        <time>2014-01-28T13:38:50Z</time>
      </trkpt>
      <trkpt lat="45.3579" lon="6.58036">
        <ele>2035.26</ele>
        <time>2014-01-28T13:38:52Z</time>
      </trkpt>
      <trkpt lat="45.35812" lon="6.58034">
        <ele>2034.06</ele>
        <time>2014-01-28T13:38:54Z</time>
      </trkpt>
      <trkpt lat="45.35832" lon="6.58032">
        <ele>2033.48</ele>
        <time>2014-01-28T13:38:56Z</time>
      </trkpt>
      <trkpt lat="45.35852" lon="6.5803">
        <ele>2031.57</ele>
        <time>2014-01-28T13:38:58Z</time>
      </trkpt>
      <trkpt lat="45.35873" lon="6.58027">
        <ele>2029.04</ele>
        <time>2014-01-28T13:39:00Z</time>
      </trkpt>
      <trkpt lat="45.35895" lon="6.58024">
        <ele>2025.55</ele>
        <time>2014-01-28T13:39:02Z</time>
      </trkpt>
      <trkpt lat="45.35915" lon="6.5802">
        <ele>2022.19</ele>
        <time>2014-01-28T13:39:04Z</time>
      </trkpt>
      <trkpt lat="45.35936" lon="6.58016">
        <ele>2019.63</ele>
        <time>2014-01-28T13:39:06Z</time>
      </trkpt>
      <trkpt lat="45.35956" lon="6.58012">
        <ele>2017.49</ele>
        <time>2014-01-28T13:39:08Z</time>
      </trkpt>
      <trkpt lat="45.35982" lon="6.58002">
        <ele>2016.78</ele>
        <time>2014-01-28T13:39:11Z</time>
      </trkpt>
      <trkpt lat="45.35999" lon="6.57991">
        <ele>2017.64</ele>
        <time>2014-01-28T13:39:13Z</time>
      </trkpt>
      <trkpt lat="45.36016" lon="6.57981">
        <ele>2017.06</ele>
        <time>2014-01-28T13:39:15Z</time>
      </trkpt>
      <trkpt lat="45.36033" lon="6.57973">
        <ele>2016.01</ele>
        <time>2014-01-28T13:39:17Z</time>
      </trkpt>
      <trkpt lat="45.36052" lon="6.57962">
        <ele>2014.87</ele>
        <time>2014-01-28T13:39:19Z</time>
      </trkpt>
      <trkpt lat="45.3607" lon="6.57953">
        <ele>2011.92</ele>
        <time>2014-01-28T13:39:21Z</time>
      </trkpt>
      <trkpt lat="45.36088" lon="6.57945">
        <ele>2010.52</ele>
        <time>2014-01-28T13:39:23Z</time>
      </trkpt>
      <trkpt lat="45.36107" lon="6.57941">
        <ele>2008</ele>
        <time>2014-01-28T13:39:25Z</time>
      </trkpt>
      <trkpt lat="45.36132" lon="6.57931">
        <ele>2006.5</ele>
        <time>2014-01-28T13:39:28Z</time>
      </trkpt>
      <trkpt lat="45.36157" lon="6.57923">
        <ele>1999.8</ele>
        <time>2014-01-28T13:39:31Z</time>
      </trkpt>
      <trkpt lat="45.36175" lon="6.57918">
        <ele>1995.25</ele>
        <time>2014-01-28T13:39:33Z</time>
      </trkpt>
      <trkpt lat="45.36197" lon="6.57905">
        <ele>1993.82</ele>
        <time>2014-01-28T13:39:36Z</time>
      </trkpt>
      <trkpt lat="45.3622" lon="6.57894">
        <ele>1989.41</ele>
        <time>2014-01-28T13:39:39Z</time>
      </trkpt>
      <trkpt lat="45.36242" lon="6.57878">
        <ele>1983.98</ele>
        <time>2014-01-28T13:39:42Z</time>
      </trkpt>
      <trkpt lat="45.36259" lon="6.57868">
        <ele>1978.6</ele>
        <time>2014-01-28T13:39:44Z</time>
      </trkpt>
      <trkpt lat="45.36277" lon="6.57849">
        <ele>1974.51</ele>
        <time>2014-01-28T13:39:47Z</time>
      </trkpt>
      <trkpt lat="45.363" lon="6.57828">
        <ele>1967.41</ele>
        <time>2014-01-28T13:39:50Z</time>
      </trkpt>
      <trkpt lat="45.36323" lon="6.57817">
        <ele>1957.75</ele>
        <time>2014-01-28T13:39:53Z</time>
      </trkpt>
      <trkpt lat="45.3634" lon="6.57806">
        <ele>1950.44</ele>
        <time>2014-01-28T13:39:55Z</time>
      </trkpt>
      <trkpt lat="45.36363" lon="6.57801">
        <ele>1942.95</ele>
        <time>2014-01-28T13:39:58Z</time>
      </trkpt>
      <trkpt lat="45.36381" lon="6.57801">
        <ele>1937.66</ele>
        <time>2014-01-28T13:40:00Z</time>
      </trkpt>
      <trkpt lat="45.36406" lon="6.57812">
        <ele>1927.37</ele>
        <time>2014-01-28T13:40:03Z</time>
      </trkpt>
      <trkpt lat="45.36432" lon="6.57812">
        <ele>1918.3</ele>
        <time>2014-01-28T13:40:06Z</time>
      </trkpt>
      <trkpt lat="45.36454" lon="6.57814">
        <ele>1914.11</ele>
        <time>2014-01-28T13:40:08Z</time>
      </trkpt>
      <trkpt lat="45.36476" lon="6.57816">
        <ele>1913.97</ele>
        <time>2014-01-28T13:40:10Z</time>
      </trkpt>
      <trkpt lat="45.365" lon="6.57821">
        <ele>1914.24</ele>
        <time>2014-01-28T13:40:12Z</time>
      </trkpt>
      <trkpt lat="45.36524" lon="6.57818">
        <ele>1908.81</ele>
        <time>2014-01-28T13:40:14Z</time>
      </trkpt>
      <trkpt lat="45.36547" lon="6.57816">
        <ele>1898.46</ele>
        <time>2014-01-28T13:40:16Z</time>
      </trkpt>
      <trkpt lat="45.36574" lon="6.57816">
        <ele>1887.06</ele>
        <time>2014-01-28T13:40:18Z</time>
      </trkpt>
      <trkpt lat="45.36601" lon="6.57811">
        <ele>1884.86</ele>
        <time>2014-01-28T13:40:20Z</time>
      </trkpt>
      <trkpt lat="45.36626" lon="6.57811">
        <ele>1883.09</ele>
        <time>2014-01-28T13:40:22Z</time>
      </trkpt>
      <trkpt lat="45.3665" lon="6.57813">
        <ele>1879.59</ele>
        <time>2014-01-28T13:40:24Z</time>
      </trkpt>
      <trkpt lat="45.36675" lon="6.57814">
        <ele>1876.94</ele>
        <time>2014-01-28T13:40:26Z</time>
      </trkpt>
      <trkpt lat="45.36696" lon="6.5782">
        <ele>1874.77</ele>
        <time>2014-01-28T13:40:28Z</time>
      </trkpt>
      <trkpt lat="45.36714" lon="6.57814">
        <ele>1874.21</ele>
        <time>2014-01-28T13:40:30Z</time>
      </trkpt>
      <trkpt lat="45.36733" lon="6.57802">
        <ele>1874.08</ele>
        <time>2014-01-28T13:40:33Z</time>
      </trkpt>
      <trkpt lat="45.3675" lon="6.57817">
        <ele>1867.41</ele>
        <time>2014-01-28T13:40:38Z</time>
      </trkpt>
      <trkpt lat="45.36772" lon="6.57819">
        <ele>1861.03</ele>
        <time>2014-01-28T13:40:42Z</time>
      </trkpt>
      <trkpt lat="45.36794" lon="6.57818">
        <ele>1855.92</ele>
        <time>2014-01-28T13:40:46Z</time>
      </trkpt>
      <trkpt lat="45.36816" lon="6.57819">
        <ele>1849.26</ele>
        <time>2014-01-28T13:40:50Z</time>
      </trkpt>
      <trkpt lat="45.36836" lon="6.57824">
        <ele>1841.46</ele>
        <time>2014-01-28T13:40:54Z</time>
      </trkpt>
      <trkpt lat="45.36856" lon="6.57844">
        <ele>1828.36</ele>
        <time>2014-01-28T13:40:58Z</time>
      </trkpt>
      <trkpt lat="45.3687" lon="6.57864">
        <ele>1817.85</ele>
        <time>2014-01-28T13:41:01Z</time>
      </trkpt>
      <trkpt lat="45.36881" lon="6.57886">
        <ele>1808.67</ele>
        <time>2014-01-28T13:41:04Z</time>
      </trkpt>
      <trkpt lat="45.36896" lon="6.57899">
        <ele>1803.61</ele>
        <time>2014-01-28T13:41:07Z</time>
      </trkpt>
      <trkpt lat="45.36917" lon="6.57888">
        <ele>1806.13</ele>
        <time>2014-01-28T13:41:10Z</time>
      </trkpt>
      <trkpt lat="45.36941" lon="6.57879">
        <ele>1804.45</ele>
        <time>2014-01-28T13:41:13Z</time>
      </trkpt>
      <trkpt lat="45.36958" lon="6.57855">
        <ele>1803.05</ele>
        <time>2014-01-28T13:41:16Z</time>
      </trkpt>
      <trkpt lat="45.3698" lon="6.57849">
        <ele>1795.75</ele>
        <time>2014-01-28T13:41:21Z</time>
      </trkpt>
      <trkpt lat="45.36995" lon="6.57825">
        <ele>1793.45</ele>
        <time>2014-01-28T13:41:24Z</time>
      </trkpt>
      <trkpt lat="45.37007" lon="6.57802">
        <ele>1790.99</ele>
        <time>2014-01-28T13:41:27Z</time>
      </trkpt>
      <trkpt lat="45.37031" lon="6.57808">
        <ele>1779.01</ele>
        <time>2014-01-28T13:41:30Z</time>
      </trkpt>
      <trkpt lat="45.37056" lon="6.57815">
        <ele>1772.1</ele>
        <time>2014-01-28T13:41:33Z</time>
      </trkpt>
      <trkpt lat="45.37079" lon="6.57806">
        <ele>1761.81</ele>
        <time>2014-01-28T13:41:36Z</time>
      </trkpt>
      <trkpt lat="45.37098" lon="6.57817">
        <ele>1753.33</ele>
        <time>2014-01-28T13:41:40Z</time>
      </trkpt>
      <trkpt lat="45.37117" lon="6.57826">
        <ele>1746.08</ele>
        <time>2014-01-28T13:42:03Z</time>
      </trkpt>
      <trkpt lat="45.37141" lon="6.57823">
        <ele>1744.09</ele>
        <time>2014-01-28T13:42:07Z</time>
      </trkpt>
      <trkpt lat="45.37163" lon="6.57836">
        <ele>1737.94</ele>
        <time>2014-01-28T13:42:11Z</time>
      </trkpt>
      <trkpt lat="45.37171" lon="6.5786">
        <ele>1726.92</ele>
        <time>2014-01-28T13:42:16Z</time>
      </trkpt>
      <trkpt lat="45.37158" lon="6.57881">
        <ele>1721.64</ele>
        <time>2014-01-28T13:42:20Z</time>
      </trkpt>
      <trkpt lat="45.37173" lon="6.57897">
        <ele>1714.06</ele>
        <time>2014-01-28T13:42:26Z</time>
      </trkpt>
      <trkpt lat="45.37169" lon="6.57926">
        <ele>1707.59</ele>
        <time>2014-01-28T13:42:34Z</time>
      </trkpt>
      <trkpt lat="45.37156" lon="6.57949">
        <ele>1708.61</ele>
        <time>2014-01-28T13:42:38Z</time>
      </trkpt>
      <trkpt lat="45.37163" lon="6.5798">
        <ele>1701.91</ele>
        <time>2014-01-28T13:42:44Z</time>
      </trkpt>
      <trkpt lat="45.37172" lon="6.58004">
        <ele>1695.74</ele>
        <time>2014-01-28T13:42:50Z</time>
      </trkpt>
      <trkpt lat="45.3719" lon="6.5802">
        <ele>1689.34</ele>
        <time>2014-01-28T13:43:00Z</time>
      </trkpt>
      <trkpt lat="45.37203" lon="6.5799">
        <ele>1691.9</ele>
        <time>2014-01-28T13:47:04Z</time>
      </trkpt>
      <trkpt lat="45.3721" lon="6.58016">
        <ele>1688.17</ele>
        <time>2014-01-28T13:48:01Z</time>
      </trkpt>
      <trkpt lat="45.37224" lon="6.58041">
        <ele>1685.04</ele>
        <time>2014-01-28T13:48:04Z</time>
      </trkpt>
      <trkpt lat="45.37237" lon="6.58067">
        <ele>1683</ele>
        <time>2014-01-28T13:48:08Z</time>
      </trkpt>
      <trkpt lat="45.3725" lon="6.58091">
        <ele>1681.28</ele>
        <time>2014-01-28T13:48:12Z</time>
      </trkpt>
      <trkpt lat="45.37262" lon="6.58114">
        <ele>1681.32</ele>
        <time>2014-01-28T13:48:16Z</time>
      </trkpt>
      <trkpt lat="45.37272" lon="6.58135">
        <ele>1683.88</ele>
        <time>2014-01-28T13:48:20Z</time>
      </trkpt>
      <trkpt lat="45.37283" lon="6.5816">
        <ele>1688.36</ele>
        <time>2014-01-28T13:48:24Z</time>
      </trkpt>
      <trkpt lat="45.37295" lon="6.58183">
        <ele>1696.08</ele>
        <time>2014-01-28T13:48:28Z</time>
      </trkpt>
      <trkpt lat="45.37306" lon="6.58204">
        <ele>1701.92</ele>
        <time>2014-01-28T13:48:32Z</time>
      </trkpt>
      <trkpt lat="45.37316" lon="6.58226">
        <ele>1711.49</ele>
        <time>2014-01-28T13:48:36Z</time>
      </trkpt>
      <trkpt lat="45.37325" lon="6.5825">
        <ele>1720.5</ele>
        <time>2014-01-28T13:48:40Z</time>
      </trkpt>
      <trkpt lat="45.37336" lon="6.58273">
        <ele>1728.5</ele>
        <time>2014-01-28T13:48:44Z</time>
      </trkpt>
      <trkpt lat="45.37346" lon="6.58296">
        <ele>1736.57</ele>
        <time>2014-01-28T13:48:48Z</time>
      </trkpt>
      <trkpt lat="45.37357" lon="6.58323">
        <ele>1745.78</ele>
        <time>2014-01-28T13:48:53Z</time>
      </trkpt>
      <trkpt lat="45.3737" lon="6.58348">
        <ele>1750.89</ele>
        <time>2014-01-28T13:48:58Z</time>
      </trkpt>
      <trkpt lat="45.37379" lon="6.5837">
        <ele>1756.3</ele>
        <time>2014-01-28T13:49:02Z</time>
      </trkpt>
      <trkpt lat="45.3739" lon="6.58391">
        <ele>1762.25</ele>
        <time>2014-01-28T13:49:06Z</time>
      </trkpt>
      <trkpt lat="45.374" lon="6.58414">
        <ele>1765.1</ele>
        <time>2014-01-28T13:49:10Z</time>
      </trkpt>
      <trkpt lat="45.37411" lon="6.58437">
        <ele>1769.14</ele>
        <time>2014-01-28T13:49:14Z</time>
      </trkpt>
      <trkpt lat="45.37422" lon="6.58461">
        <ele>1773.9</ele>
        <time>2014-01-28T13:49:18Z</time>
      </trkpt>
      <trkpt lat="45.37432" lon="6.58483">
        <ele>1778.64</ele>
        <time>2014-01-28T13:49:22Z</time>
      </trkpt>
      <trkpt lat="45.37442" lon="6.58506">
        <ele>1784.14</ele>
        <time>2014-01-28T13:49:26Z</time>
      </trkpt>
      <trkpt lat="45.37454" lon="6.58532">
        <ele>1789.95</ele>
        <time>2014-01-28T13:49:31Z</time>
      </trkpt>
      <trkpt lat="45.37466" lon="6.58561">
        <ele>1799.5</ele>
        <time>2014-01-28T13:49:36Z</time>
      </trkpt>
      <trkpt lat="45.37478" lon="6.58588">
        <ele>1811.83</ele>
        <time>2014-01-28T13:49:41Z</time>
      </trkpt>
      <trkpt lat="45.37488" lon="6.5861">
        <ele>1819.36</ele>
        <time>2014-01-28T13:49:45Z</time>
      </trkpt>
      <trkpt lat="45.37498" lon="6.58633">
        <ele>1826.96</ele>
        <time>2014-01-28T13:49:49Z</time>
      </trkpt>
      <trkpt lat="45.3751" lon="6.58658">
        <ele>1833.04</ele>
        <time>2014-01-28T13:49:53Z</time>
      </trkpt>
      <trkpt lat="45.37521" lon="6.58685">
        <ele>1839.56</ele>
        <time>2014-01-28T13:49:58Z</time>
      </trkpt>
      <trkpt lat="45.37533" lon="6.58709">
        <ele>1848.86</ele>
        <time>2014-01-28T13:50:03Z</time>
      </trkpt>
      <trkpt lat="45.37545" lon="6.58732">
        <ele>1860.72</ele>
        <time>2014-01-28T13:50:07Z</time>
      </trkpt>
      <trkpt lat="45.37556" lon="6.58754">
        <ele>1872.07</ele>
        <time>2014-01-28T13:50:12Z</time>
      </trkpt>
      <trkpt lat="45.37567" lon="6.5878">
        <ele>1885.78</ele>
        <time>2014-01-28T13:50:17Z</time>
      </trkpt>
      <trkpt lat="45.37577" lon="6.58803">
        <ele>1896.31</ele>
        <time>2014-01-28T13:50:21Z</time>
      </trkpt>
      <trkpt lat="45.37588" lon="6.58828">
        <ele>1906.48</ele>
        <time>2014-01-28T13:50:26Z</time>
      </trkpt>
      <trkpt lat="45.376" lon="6.58854">
        <ele>1915.23</ele>
        <time>2014-01-28T13:50:31Z</time>
      </trkpt>
      <trkpt lat="45.3761" lon="6.58881">
        <ele>1926.12</ele>
        <time>2014-01-28T13:50:36Z</time>
      </trkpt>
      <trkpt lat="45.3762" lon="6.5891">
        <ele>1939.36</ele>
        <time>2014-01-28T13:50:41Z</time>
      </trkpt>
      <trkpt lat="45.37632" lon="6.58932">
        <ele>1947.87</ele>
        <time>2014-01-28T13:50:45Z</time>
      </trkpt>
      <trkpt lat="45.37643" lon="6.58953">
        <ele>1955.63</ele>
        <time>2014-01-28T13:50:49Z</time>
      </trkpt>
      <trkpt lat="45.37655" lon="6.58976">
        <ele>1963.41</ele>
        <time>2014-01-28T13:50:54Z</time>
      </trkpt>
      <trkpt lat="45.37668" lon="6.59">
        <ele>1971.1</ele>
        <time>2014-01-28T13:50:59Z</time>
      </trkpt>
      <trkpt lat="45.37675" lon="6.59027">
        <ele>1976.42</ele>
        <time>2014-01-28T13:51:03Z</time>
      </trkpt>
      <trkpt lat="45.37684" lon="6.59049">
        <ele>1981.55</ele>
        <time>2014-01-28T13:51:07Z</time>
      </trkpt>
      <trkpt lat="45.37697" lon="6.5907">
        <ele>1987.41</ele>
        <time>2014-01-28T13:51:11Z</time>
      </trkpt>
      <trkpt lat="45.37708" lon="6.59091">
        <ele>1993.66</ele>
        <time>2014-01-28T13:51:15Z</time>
      </trkpt>
      <trkpt lat="45.37718" lon="6.59113">
        <ele>2001.93</ele>
        <time>2014-01-28T13:51:19Z</time>
      </trkpt>
      <trkpt lat="45.3773" lon="6.59137">
        <ele>2011.55</ele>
        <time>2014-01-28T13:51:23Z</time>
      </trkpt>
      <trkpt lat="45.37742" lon="6.59162">
        <ele>2024.27</ele>
        <time>2014-01-28T13:51:28Z</time>
      </trkpt>
      <trkpt lat="45.37754" lon="6.59184">
        <ele>2034.07</ele>
        <time>2014-01-28T13:51:32Z</time>
      </trkpt>
      <trkpt lat="45.37763" lon="6.59207">
        <ele>2042.13</ele>
        <time>2014-01-28T13:51:36Z</time>
      </trkpt>
      <trkpt lat="45.37774" lon="6.59229">
        <ele>2050.28</ele>
        <time>2014-01-28T13:51:40Z</time>
      </trkpt>
      <trkpt lat="45.37786" lon="6.59257">
        <ele>2060.79</ele>
        <time>2014-01-28T13:51:45Z</time>
      </trkpt>
      <trkpt lat="45.37795" lon="6.59279">
        <ele>2067.76</ele>
        <time>2014-01-28T13:51:49Z</time>
      </trkpt>
      <trkpt lat="45.37806" lon="6.59301">
        <ele>2075.27</ele>
        <time>2014-01-28T13:51:53Z</time>
      </trkpt>
      <trkpt lat="45.37817" lon="6.59325">
        <ele>2082.58</ele>
        <time>2014-01-28T13:51:58Z</time>
      </trkpt>
      <trkpt lat="45.3783" lon="6.5935">
        <ele>2089.86</ele>
        <time>2014-01-28T13:52:02Z</time>
      </trkpt>
      <trkpt lat="45.37838" lon="6.59373">
        <ele>2098.2</ele>
        <time>2014-01-28T13:52:07Z</time>
      </trkpt>
      <trkpt lat="45.37851" lon="6.59398">
        <ele>2109.98</ele>
        <time>2014-01-28T13:52:12Z</time>
      </trkpt>
      <trkpt lat="45.37862" lon="6.5942">
        <ele>2120.54</ele>
        <time>2014-01-28T13:52:16Z</time>
      </trkpt>
      <trkpt lat="45.37874" lon="6.59447">
        <ele>2136.31</ele>
        <time>2014-01-28T13:52:21Z</time>
      </trkpt>
      <trkpt lat="45.37884" lon="6.59471">
        <ele>2147.44</ele>
        <time>2014-01-28T13:52:26Z</time>
      </trkpt>
      <trkpt lat="45.37895" lon="6.59495">
        <ele>2153.85</ele>
        <time>2014-01-28T13:52:30Z</time>
      </trkpt>
      <trkpt lat="45.37906" lon="6.59521">
        <ele>2163.93</ele>
        <time>2014-01-28T13:52:35Z</time>
      </trkpt>
      <trkpt lat="45.37917" lon="6.59547">
        <ele>2177.34</ele>
        <time>2014-01-28T13:52:40Z</time>
      </trkpt>
      <trkpt lat="45.37927" lon="6.59572">
        <ele>2179.99</ele>
        <time>2014-01-28T13:52:44Z</time>
      </trkpt>
      <trkpt lat="45.37937" lon="6.596">
        <ele>2183.66</ele>
        <time>2014-01-28T13:52:49Z</time>
      </trkpt>
      <trkpt lat="45.37946" lon="6.59625">
        <ele>2190.09</ele>
        <time>2014-01-28T13:52:53Z</time>
      </trkpt>
      <trkpt lat="45.37958" lon="6.59645">
        <ele>2195.25</ele>
        <time>2014-01-28T13:52:57Z</time>
      </trkpt>
      <trkpt lat="45.37967" lon="6.59668">
        <ele>2200.66</ele>
        <time>2014-01-28T13:53:01Z</time>
      </trkpt>
      <trkpt lat="45.37979" lon="6.59689">
        <ele>2207.22</ele>
        <time>2014-01-28T13:53:05Z</time>
      </trkpt>
      <trkpt lat="45.37985" lon="6.59715">
        <ele>2211.51</ele>
        <time>2014-01-28T13:54:34Z</time>
      </trkpt>
      <trkpt lat="45.37993" lon="6.59743">
        <ele>2216.85</ele>
        <time>2014-01-28T13:54:39Z</time>
      </trkpt>
      <trkpt lat="45.37996" lon="6.59772">
        <ele>2221.43</ele>
        <time>2014-01-28T13:54:43Z</time>
      </trkpt>
      <trkpt lat="45.38" lon="6.59806">
        <ele>2227.04</ele>
        <time>2014-01-28T13:54:47Z</time>
      </trkpt>
      <trkpt lat="45.38004" lon="6.59835">
        <ele>2232.97</ele>
        <time>2014-01-28T13:54:51Z</time>
      </trkpt>
      <trkpt lat="45.38007" lon="6.59863">
        <ele>2239.63</ele>
        <time>2014-01-28T13:54:55Z</time>
      </trkpt>
      <trkpt lat="45.38011" lon="6.59888">
        <ele>2247.29</ele>
        <time>2014-01-28T13:54:58Z</time>
      </trkpt>
      <trkpt lat="45.38013" lon="6.59915">
        <ele>2255.1</ele>
        <time>2014-01-28T13:55:03Z</time>
      </trkpt>
      <trkpt lat="45.38017" lon="6.59943">
        <ele>2261.66</ele>
        <time>2014-01-28T13:55:07Z</time>
      </trkpt>
      <trkpt lat="45.3802" lon="6.59969">
        <ele>2266.33</ele>
        <time>2014-01-28T13:55:12Z</time>
      </trkpt>
      <trkpt lat="45.38023" lon="6.59996">
        <ele>2272.22</ele>
        <time>2014-01-28T13:55:16Z</time>
      </trkpt>
      <trkpt lat="45.38026" lon="6.60023">
        <ele>2282.78</ele>
        <time>2014-01-28T13:55:20Z</time>
      </trkpt>
      <trkpt lat="45.38029" lon="6.60049">
        <ele>2296.6</ele>
        <time>2014-01-28T13:55:24Z</time>
      </trkpt>
      <trkpt lat="45.38032" lon="6.60081">
        <ele>2310.1</ele>
        <time>2014-01-28T13:55:29Z</time>
      </trkpt>
      <trkpt lat="45.38035" lon="6.60109">
        <ele>2321.33</ele>
        <time>2014-01-28T13:55:34Z</time>
      </trkpt>
      <trkpt lat="45.38037" lon="6.60135">
        <ele>2332.29</ele>
        <time>2014-01-28T13:55:38Z</time>
      </trkpt>
      <trkpt lat="45.3804" lon="6.60162">
        <ele>2342.25</ele>
        <time>2014-01-28T13:55:42Z</time>
      </trkpt>
      <trkpt lat="45.38043" lon="6.60189">
        <ele>2351.15</ele>
        <time>2014-01-28T13:55:46Z</time>
      </trkpt>
      <trkpt lat="45.38047" lon="6.60215">
        <ele>2359.94</ele>
        <time>2014-01-28T13:55:50Z</time>
      </trkpt>
      <trkpt lat="45.3805" lon="6.60241">
        <ele>2365.95</ele>
        <time>2014-01-28T13:55:54Z</time>
      </trkpt>
      <trkpt lat="45.38051" lon="6.60267">
        <ele>2372.53</ele>
        <time>2014-01-28T13:55:58Z</time>
      </trkpt>
      <trkpt lat="45.38054" lon="6.60293">
        <ele>2381.59</ele>
        <time>2014-01-28T13:56:02Z</time>
      </trkpt>
      <trkpt lat="45.38057" lon="6.60326">
        <ele>2396.76</ele>
        <time>2014-01-28T13:56:06Z</time>
      </trkpt>
      <trkpt lat="45.38059" lon="6.60354">
        <ele>2408.79</ele>
        <time>2014-01-28T13:56:10Z</time>
      </trkpt>
      <trkpt lat="45.38063" lon="6.60381">
        <ele>2421.18</ele>
        <time>2014-01-28T13:56:14Z</time>
      </trkpt>
      <trkpt lat="45.38067" lon="6.60411">
        <ele>2433.56</ele>
        <time>2014-01-28T13:56:19Z</time>
      </trkpt>
      <trkpt lat="45.38069" lon="6.6044">
        <ele>2441.38</ele>
        <time>2014-01-28T13:56:24Z</time>
      </trkpt>
      <trkpt lat="45.38072" lon="6.60467">
        <ele>2446.67</ele>
        <time>2014-01-28T13:56:28Z</time>
      </trkpt>
      <trkpt lat="45.38075" lon="6.60499">
        <ele>2456.15</ele>
        <time>2014-01-28T13:56:33Z</time>
      </trkpt>
      <trkpt lat="45.38077" lon="6.60528">
        <ele>2464.93</ele>
        <time>2014-01-28T13:56:37Z</time>
      </trkpt>
      <trkpt lat="45.38079" lon="6.60556">
        <ele>2474.03</ele>
        <time>2014-01-28T13:56:41Z</time>
      </trkpt>
      <trkpt lat="45.38081" lon="6.60583">
        <ele>2484.68</ele>
        <time>2014-01-28T13:56:45Z</time>
      </trkpt>
      <trkpt lat="45.38084" lon="6.60609">
        <ele>2496.04</ele>
        <time>2014-01-28T13:56:49Z</time>
      </trkpt>
      <trkpt lat="45.38088" lon="6.60637">
        <ele>2513.13</ele>
        <time>2014-01-28T13:56:54Z</time>
      </trkpt>
      <trkpt lat="45.38095" lon="6.60666">
        <ele>2533.56</ele>
        <time>2014-01-28T13:56:58Z</time>
      </trkpt>
      <trkpt lat="45.38097" lon="6.60694">
        <ele>2547.81</ele>
        <time>2014-01-28T13:57:02Z</time>
      </trkpt>
      <trkpt lat="45.381" lon="6.6072">
        <ele>2561.08</ele>
        <time>2014-01-28T13:57:07Z</time>
      </trkpt>
      <trkpt lat="45.38103" lon="6.60751">
        <ele>2578.42</ele>
        <time>2014-01-28T13:57:13Z</time>
      </trkpt>
      <trkpt lat="45.38106" lon="6.60782">
        <ele>2596.63</ele>
        <time>2014-01-28T13:57:18Z</time>
      </trkpt>
      <trkpt lat="45.38109" lon="6.60812">
        <ele>2612.82</ele>
        <time>2014-01-28T13:57:23Z</time>
      </trkpt>
      <trkpt lat="45.38113" lon="6.60839">
        <ele>2624.44</ele>
        <time>2014-01-28T13:57:27Z</time>
      </trkpt>
      <trkpt lat="45.38117" lon="6.60869">
        <ele>2638.8</ele>
        <time>2014-01-28T13:57:31Z</time>
      </trkpt>
      <trkpt lat="45.38117" lon="6.60901">
        <ele>2653.31</ele>
        <time>2014-01-28T13:57:36Z</time>
      </trkpt>
      <trkpt lat="45.3812" lon="6.60929">
        <ele>2667.32</ele>
        <time>2014-01-28T13:57:40Z</time>
      </trkpt>
      <trkpt lat="45.38124" lon="6.60956">
        <ele>2676.42</ele>
        <time>2014-01-28T13:57:47Z</time>
      </trkpt>
      <trkpt lat="45.38124" lon="6.60983">
        <ele>2677.65</ele>
        <time>2014-01-28T13:57:53Z</time>
      </trkpt>
      <trkpt lat="45.38131" lon="6.6101">
        <ele>2676.11</ele>
        <time>2014-01-28T13:57:58Z</time>
      </trkpt>
      <trkpt lat="45.38133" lon="6.60984">
        <ele>2680.41</ele>
        <time>2014-01-28T13:58:15Z</time>
      </trkpt>
      <trkpt lat="45.38126" lon="6.61009">
        <ele>2674.7</ele>
        <time>2014-01-28T14:00:23Z</time>
      </trkpt>
      <trkpt lat="45.38135" lon="6.61032">
        <ele>2673.02</ele>
        <time>2014-01-28T14:00:30Z</time>
      </trkpt>
      <trkpt lat="45.38147" lon="6.61056">
        <ele>2668.49</ele>
        <time>2014-01-28T14:02:46Z</time>
      </trkpt>
      <trkpt lat="45.38162" lon="6.61081">
        <ele>2665.62</ele>
        <time>2014-01-28T14:02:50Z</time>
      </trkpt>
      <trkpt lat="45.38176" lon="6.61109">
        <ele>2664.56</ele>
        <time>2014-01-28T14:02:53Z</time>
      </trkpt>
      <trkpt lat="45.38187" lon="6.61131">
        <ele>2664.54</ele>
        <time>2014-01-28T14:02:55Z</time>
      </trkpt>
      <trkpt lat="45.382" lon="6.6115">
        <ele>2664.91</ele>
        <time>2014-01-28T14:02:57Z</time>
      </trkpt>
      <trkpt lat="45.38212" lon="6.61178">
        <ele>2662.74</ele>
        <time>2014-01-28T14:03:00Z</time>
      </trkpt>
      <trkpt lat="45.38218" lon="6.61207">
        <ele>2660.84</ele>
        <time>2014-01-28T14:03:19Z</time>
      </trkpt>
      <trkpt lat="45.38208" lon="6.61233">
        <ele>2659.74</ele>
        <time>2014-01-28T14:03:25Z</time>
      </trkpt>
      <trkpt lat="45.38205" lon="6.61262">
        <ele>2656.36</ele>
        <time>2014-01-28T14:03:29Z</time>
      </trkpt>
      <trkpt lat="45.38205" lon="6.61294">
        <ele>2650.64</ele>
        <time>2014-01-28T14:03:33Z</time>
      </trkpt>
      <trkpt lat="45.38198" lon="6.61323">
        <ele>2649.9</ele>
        <time>2014-01-28T14:03:37Z</time>
      </trkpt>
      <trkpt lat="45.38195" lon="6.6135">
        <ele>2648.56</ele>
        <time>2014-01-28T14:03:40Z</time>
      </trkpt>
      <trkpt lat="45.38199" lon="6.61377">
        <ele>2644.76</ele>
        <time>2014-01-28T14:03:44Z</time>
      </trkpt>
      <trkpt lat="45.38217" lon="6.61368">
        <ele>2632.24</ele>
        <time>2014-01-28T14:03:49Z</time>
      </trkpt>
      <trkpt lat="45.38236" lon="6.61366">
        <ele>2620.45</ele>
        <time>2014-01-28T14:03:52Z</time>
      </trkpt>
      <trkpt lat="45.38254" lon="6.61382">
        <ele>2613.1</ele>
        <time>2014-01-28T14:03:56Z</time>
      </trkpt>
      <trkpt lat="45.38272" lon="6.61385">
        <ele>2606.49</ele>
        <time>2014-01-28T14:04:00Z</time>
      </trkpt>
      <trkpt lat="45.38291" lon="6.61375">
        <ele>2596.23</ele>
        <time>2014-01-28T14:04:06Z</time>
      </trkpt>
      <trkpt lat="45.38313" lon="6.61381">
        <ele>2589.5</ele>
        <time>2014-01-28T14:04:11Z</time>
      </trkpt>
      <trkpt lat="45.38332" lon="6.6139">
        <ele>2586.67</ele>
        <time>2014-01-28T14:04:15Z</time>
      </trkpt>
      <trkpt lat="45.38353" lon="6.61387">
        <ele>2579.91</ele>
        <time>2014-01-28T14:04:19Z</time>
      </trkpt>
      <trkpt lat="45.38353" lon="6.61358">
        <ele>2573.15</ele>
        <time>2014-01-28T14:04:23Z</time>
      </trkpt>
      <trkpt lat="45.38371" lon="6.61362">
        <ele>2568.42</ele>
        <time>2014-01-28T14:04:28Z</time>
      </trkpt>
      <trkpt lat="45.3839" lon="6.61374">
        <ele>2565.7</ele>
        <time>2014-01-28T14:04:31Z</time>
      </trkpt>
      <trkpt lat="45.38394" lon="6.61348">
        <ele>2559.3</ele>
        <time>2014-01-28T14:04:35Z</time>
      </trkpt>
      <trkpt lat="45.38397" lon="6.61322">
        <ele>2558.49</ele>
        <time>2014-01-28T14:04:38Z</time>
      </trkpt>
      <trkpt lat="45.38414" lon="6.61314">
        <ele>2553.14</ele>
        <time>2014-01-28T14:04:43Z</time>
      </trkpt>
      <trkpt lat="45.38433" lon="6.61311">
        <ele>2546.76</ele>
        <time>2014-01-28T14:04:47Z</time>
      </trkpt>
      <trkpt lat="45.38452" lon="6.6132">
        <ele>2538.3</ele>
        <time>2014-01-28T14:04:51Z</time>
      </trkpt>
      <trkpt lat="45.38469" lon="6.61332">
        <ele>2530.35</ele>
        <time>2014-01-28T14:04:57Z</time>
      </trkpt>
      <trkpt lat="45.38484" lon="6.61314">
        <ele>2527.72</ele>
        <time>2014-01-28T14:05:02Z</time>
      </trkpt>
      <trkpt lat="45.38503" lon="6.61317">
        <ele>2519.1</ele>
        <time>2014-01-28T14:05:08Z</time>
      </trkpt>
      <trkpt lat="45.38522" lon="6.61307">
        <ele>2510.68</ele>
        <time>2014-01-28T14:05:17Z</time>
      </trkpt>
      <trkpt lat="45.3854" lon="6.61292">
        <ele>2505.18</ele>
        <time>2014-01-28T14:05:22Z</time>
      </trkpt>
      <trkpt lat="45.38563" lon="6.61292">
        <ele>2494.83</ele>
        <time>2014-01-28T14:05:27Z</time>
      </trkpt>
      <trkpt lat="45.38576" lon="6.61313">
        <ele>2487.66</ele>
        <time>2014-01-28T14:05:31Z</time>
      </trkpt>
      <trkpt lat="45.38594" lon="6.61302">
        <ele>2480.71</ele>
        <time>2014-01-28T14:05:36Z</time>
      </trkpt>
      <trkpt lat="45.38611" lon="6.61288">
        <ele>2473.1</ele>
        <time>2014-01-28T14:05:43Z</time>
      </trkpt>
      <trkpt lat="45.38631" lon="6.61273">
        <ele>2465.19</ele>
        <time>2014-01-28T14:05:48Z</time>
      </trkpt>
      <trkpt lat="45.38651" lon="6.61271">
        <ele>2458.28</ele>
        <time>2014-01-28T14:05:53Z</time>
      </trkpt>
      <trkpt lat="45.38669" lon="6.61273">
        <ele>2452.35</ele>
        <time>2014-01-28T14:05:59Z</time>
      </trkpt>
      <trkpt lat="45.38687" lon="6.61263">
        <ele>2449.67</ele>
        <time>2014-01-28T14:06:04Z</time>
      </trkpt>
      <trkpt lat="45.38706" lon="6.61262">
        <ele>2442.34</ele>
        <time>2014-01-28T14:06:11Z</time>
      </trkpt>
      <trkpt lat="45.38724" lon="6.61251">
        <ele>2434.41</ele>
        <time>2014-01-28T14:06:14Z</time>
      </trkpt>
      <trkpt lat="45.38738" lon="6.61273">
        <ele>2429.26</ele>
        <time>2014-01-28T14:06:18Z</time>
      </trkpt>
      <trkpt lat="45.38752" lon="6.61255">
        <ele>2424.37</ele>
        <time>2014-01-28T14:06:21Z</time>
      </trkpt>
      <trkpt lat="45.38772" lon="6.61262">
        <ele>2418.29</ele>
        <time>2014-01-28T14:07:58Z</time>
      </trkpt>
      <trkpt lat="45.38795" lon="6.61251">
        <ele>2413.07</ele>
        <time>2014-01-28T14:08:02Z</time>
      </trkpt>
      <trkpt lat="45.38815" lon="6.61261">
        <ele>2407.06</ele>
        <time>2014-01-28T14:08:05Z</time>
      </trkpt>
      <trkpt lat="45.38834" lon="6.61258">
        <ele>2401.43</ele>
        <time>2014-01-28T14:08:09Z</time>
      </trkpt>
      <trkpt lat="45.38852" lon="6.61263">
        <ele>2393.94</ele>
        <time>2014-01-28T14:08:13Z</time>
      </trkpt>
      <trkpt lat="45.3887" lon="6.61262">
        <ele>2387.26</ele>
        <time>2014-01-28T14:08:17Z</time>
      </trkpt>
      <trkpt lat="45.38881" lon="6.61284">
        <ele>2381.51</ele>
        <time>2014-01-28T14:08:20Z</time>
      </trkpt>
      <trkpt lat="45.38903" lon="6.61273">
        <ele>2372.98</ele>
        <time>2014-01-28T14:08:24Z</time>
      </trkpt>
      <trkpt lat="45.38923" lon="6.61266">
        <ele>2365.58</ele>
        <time>2014-01-28T14:08:28Z</time>
      </trkpt>
      <trkpt lat="45.38942" lon="6.61273">
        <ele>2361.77</ele>
        <time>2014-01-28T14:08:32Z</time>
      </trkpt>
      <trkpt lat="45.38958" lon="6.61256">
        <ele>2358.74</ele>
        <time>2014-01-28T14:08:35Z</time>
      </trkpt>
      <trkpt lat="45.38973" lon="6.61232">
        <ele>2354.21</ele>
        <time>2014-01-28T14:08:38Z</time>
      </trkpt>
      <trkpt lat="45.38989" lon="6.61216">
        <ele>2347.41</ele>
        <time>2014-01-28T14:08:42Z</time>
      </trkpt>
      <trkpt lat="45.39009" lon="6.6121">
        <ele>2338.63</ele>
        <time>2014-01-28T14:08:45Z</time>
      </trkpt>
      <trkpt lat="45.39029" lon="6.61197">
        <ele>2329.37</ele>
        <time>2014-01-28T14:08:48Z</time>
      </trkpt>
      <trkpt lat="45.39043" lon="6.61213">
        <ele>2322.68</ele>
        <time>2014-01-28T14:08:51Z</time>
      </trkpt>
      <trkpt lat="45.39062" lon="6.61218">
        <ele>2314.15</ele>
        <time>2014-01-28T14:08:56Z</time>
      </trkpt>
      <trkpt lat="45.39083" lon="6.61222">
        <ele>2304.97</ele>
        <time>2014-01-28T14:09:00Z</time>
      </trkpt>
      <trkpt lat="45.39109" lon="6.61232">
        <ele>2295.16</ele>
        <time>2014-01-28T14:09:05Z</time>
      </trkpt>
      <trkpt lat="45.3913" lon="6.61232">
        <ele>2286.15</ele>
        <time>2014-01-28T14:09:08Z</time>
      </trkpt>
      <trkpt lat="45.39134" lon="6.61262">
        <ele>2278.36</ele>
        <time>2014-01-28T14:09:13Z</time>
      </trkpt>
      <trkpt lat="45.39135" lon="6.6129">
        <ele>2272.58</ele>
        <time>2014-01-28T14:09:15Z</time>
      </trkpt>
      <trkpt lat="45.39156" lon="6.61311">
        <ele>2266.16</ele>
        <time>2014-01-28T14:09:18Z</time>
      </trkpt>
      <trkpt lat="45.39173" lon="6.61325">
        <ele>2261.24</ele>
        <time>2014-01-28T14:09:20Z</time>
      </trkpt>
      <trkpt lat="45.39176" lon="6.61354">
        <ele>2258.43</ele>
        <time>2014-01-28T14:09:22Z</time>
      </trkpt>
      <trkpt lat="45.3918" lon="6.6138">
        <ele>2258.56</ele>
        <time>2014-01-28T14:09:24Z</time>
      </trkpt>
      <trkpt lat="45.39193" lon="6.61406">
        <ele>2255.04</ele>
        <time>2014-01-28T14:09:26Z</time>
      </trkpt>
      <trkpt lat="45.39215" lon="6.61432">
        <ele>2243.76</ele>
        <time>2014-01-28T14:09:28Z</time>
      </trkpt>
      <trkpt lat="45.39239" lon="6.61457">
        <ele>2235.79</ele>
        <time>2014-01-28T14:09:30Z</time>
      </trkpt>
      <trkpt lat="45.39252" lon="6.61483">
        <ele>2235.05</ele>
        <time>2014-01-28T14:09:32Z</time>
      </trkpt>
      <trkpt lat="45.39267" lon="6.61506">
        <ele>2233.13</ele>
        <time>2014-01-28T14:09:34Z</time>
      </trkpt>
      <trkpt lat="45.39284" lon="6.61528">
        <ele>2227.83</ele>
        <time>2014-01-28T14:09:37Z</time>
      </trkpt>
      <trkpt lat="45.39284" lon="6.61556">
        <ele>2221.19</ele>
        <time>2014-01-28T14:09:41Z</time>
      </trkpt>
      <trkpt lat="45.3927" lon="6.6158">
        <ele>2218.15</ele>
        <time>2014-01-28T14:09:45Z</time>
      </trkpt>
      <trkpt lat="45.39272" lon="6.61616">
        <ele>2211.69</ele>
        <time>2014-01-28T14:09:49Z</time>
      </trkpt>
      <trkpt lat="45.39282" lon="6.61645">
        <ele>2209.65</ele>
        <time>2014-01-28T14:09:52Z</time>
      </trkpt>
      <trkpt lat="45.39303" lon="6.61648">
        <ele>2203.9</ele>
        <time>2014-01-28T14:09:56Z</time>
      </trkpt>
      <trkpt lat="45.39323" lon="6.61658">
        <ele>2196.95</ele>
        <time>2014-01-28T14:10:00Z</time>
      </trkpt>
      <trkpt lat="45.39341" lon="6.61652">
        <ele>2191.24</ele>
        <time>2014-01-28T14:10:03Z</time>
      </trkpt>
      <trkpt lat="45.39356" lon="6.61634">
        <ele>2186.85</ele>
        <time>2014-01-28T14:10:06Z</time>
      </trkpt>
      <trkpt lat="45.39367" lon="6.61656">
        <ele>2179.67</ele>
        <time>2014-01-28T14:10:10Z</time>
      </trkpt>
      <trkpt lat="45.39388" lon="6.61656">
        <ele>2170.24</ele>
        <time>2014-01-28T14:10:14Z</time>
      </trkpt>
      <trkpt lat="45.39408" lon="6.61666">
        <ele>2162.91</ele>
        <time>2014-01-28T14:10:17Z</time>
      </trkpt>
      <trkpt lat="45.39421" lon="6.61694">
        <ele>2156.91</ele>
        <time>2014-01-28T14:10:20Z</time>
      </trkpt>
      <trkpt lat="45.39425" lon="6.61731">
        <ele>2148.29</ele>
        <time>2014-01-28T14:10:23Z</time>
      </trkpt>
      <trkpt lat="45.39438" lon="6.61749">
        <ele>2141.4</ele>
        <time>2014-01-28T14:10:25Z</time>
      </trkpt>
      <trkpt lat="45.39457" lon="6.61743">
        <ele>2136.32</ele>
        <time>2014-01-28T14:10:27Z</time>
      </trkpt>
      <trkpt lat="45.39478" lon="6.61741">
        <ele>2129.35</ele>
        <time>2014-01-28T14:10:29Z</time>
      </trkpt>
      <trkpt lat="45.39502" lon="6.61751">
        <ele>2121.5</ele>
        <time>2014-01-28T14:10:32Z</time>
      </trkpt>
      <trkpt lat="45.39522" lon="6.61742">
        <ele>2118.37</ele>
        <time>2014-01-28T14:10:35Z</time>
      </trkpt>
      <trkpt lat="45.39538" lon="6.61762">
        <ele>2112.32</ele>
        <time>2014-01-28T14:10:39Z</time>
      </trkpt>
      <trkpt lat="45.39538" lon="6.6179">
        <ele>2107.07</ele>
        <time>2014-01-28T14:10:41Z</time>
      </trkpt>
      <trkpt lat="45.39552" lon="6.61821">
        <ele>2099.33</ele>
        <time>2014-01-28T14:10:44Z</time>
      </trkpt>
      <trkpt lat="45.39577" lon="6.61832">
        <ele>2095.79</ele>
        <time>2014-01-28T14:10:47Z</time>
      </trkpt>
      <trkpt lat="45.39586" lon="6.61861">
        <ele>2092.25</ele>
        <time>2014-01-28T14:10:50Z</time>
      </trkpt>
      <trkpt lat="45.39604" lon="6.61879">
        <ele>2086.45</ele>
        <time>2014-01-28T14:10:54Z</time>
      </trkpt>
      <trkpt lat="45.39626" lon="6.61882">
        <ele>2081.79</ele>
        <time>2014-01-28T14:10:57Z</time>
      </trkpt>
      <trkpt lat="45.39643" lon="6.61895">
        <ele>2077.92</ele>
        <time>2014-01-28T14:11:01Z</time>
      </trkpt>
      <trkpt lat="45.39658" lon="6.61915">
        <ele>2074.33</ele>
        <time>2014-01-28T14:11:06Z</time>
      </trkpt>
      <trkpt lat="45.39671" lon="6.61941">
        <ele>2070.98</ele>
        <time>2014-01-28T14:11:11Z</time>
      </trkpt>
      <trkpt lat="45.39692" lon="6.61949">
        <ele>2065.52</ele>
        <time>2014-01-28T14:11:15Z</time>
      </trkpt>
      <trkpt lat="45.39713" lon="6.61947">
        <ele>2060.82</ele>
        <time>2014-01-28T14:11:18Z</time>
      </trkpt>
      <trkpt lat="45.39736" lon="6.61955">
        <ele>2054.3</ele>
        <time>2014-01-28T14:11:21Z</time>
      </trkpt>
      <trkpt lat="45.3976" lon="6.61955">
        <ele>2047.38</ele>
        <time>2014-01-28T14:11:24Z</time>
      </trkpt>
      <trkpt lat="45.39781" lon="6.61975">
        <ele>2039.97</ele>
        <time>2014-01-28T14:11:27Z</time>
      </trkpt>
      <trkpt lat="45.39799" lon="6.61987">
        <ele>2033.34</ele>
        <time>2014-01-28T14:11:29Z</time>
      </trkpt>
      <trkpt lat="45.39818" lon="6.61993">
        <ele>2027.6</ele>
        <time>2014-01-28T14:11:31Z</time>
      </trkpt>
      <trkpt lat="45.39836" lon="6.62012">
        <ele>2021.51</ele>
        <time>2014-01-28T14:11:33Z</time>
      </trkpt>
      <trkpt lat="45.39857" lon="6.6204">
        <ele>2014.05</ele>
        <time>2014-01-28T14:11:35Z</time>
      </trkpt>
      <trkpt lat="45.39883" lon="6.62052">
        <ele>2005.87</ele>
        <time>2014-01-28T14:11:37Z</time>
      </trkpt>
      <trkpt lat="45.3991" lon="6.62053">
        <ele>1998.08</ele>
        <time>2014-01-28T14:11:39Z</time>
      </trkpt>
      <trkpt lat="45.39934" lon="6.62065">
        <ele>1991.84</ele>
        <time>2014-01-28T14:11:41Z</time>
      </trkpt>
      <trkpt lat="45.3995" lon="6.62091">
        <ele>1988.81</ele>
        <time>2014-01-28T14:11:43Z</time>
      </trkpt>
      <trkpt lat="45.39961" lon="6.62117">
        <ele>1985.68</ele>
        <time>2014-01-28T14:11:45Z</time>
      </trkpt>
      <trkpt lat="45.39976" lon="6.62138">
        <ele>1981.29</ele>
        <time>2014-01-28T14:11:47Z</time>
      </trkpt>
      <trkpt lat="45.39994" lon="6.62158">
        <ele>1977.23</ele>
        <time>2014-01-28T14:11:48Z</time>
      </trkpt>
      <trkpt lat="45.4001" lon="6.62184">
        <ele>1973</ele>
        <time>2014-01-28T14:11:50Z</time>
      </trkpt>
      <trkpt lat="45.40028" lon="6.62208">
        <ele>1968.51</ele>
        <time>2014-01-28T14:11:52Z</time>
      </trkpt>
      <trkpt lat="45.4005" lon="6.62224">
        <ele>1964.26</ele>
        <time>2014-01-28T14:11:54Z</time>
      </trkpt>
      <trkpt lat="45.40072" lon="6.6224">
        <ele>1960.74</ele>
        <time>2014-01-28T14:11:56Z</time>
      </trkpt>
      <trkpt lat="45.40091" lon="6.62262">
        <ele>1956.96</ele>
        <time>2014-01-28T14:11:58Z</time>
      </trkpt>
      <trkpt lat="45.40105" lon="6.6229">
        <ele>1954.23</ele>
        <time>2014-01-28T14:12:00Z</time>
      </trkpt>
      <trkpt lat="45.40123" lon="6.62314">
        <ele>1951.28</ele>
        <time>2014-01-28T14:12:02Z</time>
      </trkpt>
      <trkpt lat="45.40147" lon="6.6233">
        <ele>1945.25</ele>
        <time>2014-01-28T14:12:04Z</time>
      </trkpt>
      <trkpt lat="45.40166" lon="6.62352">
        <ele>1939.77</ele>
        <time>2014-01-28T14:12:06Z</time>
      </trkpt>
      <trkpt lat="45.40181" lon="6.6238">
        <ele>1937.9</ele>
        <time>2014-01-28T14:12:08Z</time>
      </trkpt>
      <trkpt lat="45.40195" lon="6.62405">
        <ele>1935.33</ele>
        <time>2014-01-28T14:12:10Z</time>
      </trkpt>
      <trkpt lat="45.40209" lon="6.62426">
        <ele>1932.02</ele>
        <time>2014-01-28T14:12:12Z</time>
      </trkpt>
      <trkpt lat="45.40221" lon="6.62447">
        <ele>1929.58</ele>
        <time>2014-01-28T14:12:14Z</time>
      </trkpt>
      <trkpt lat="45.40236" lon="6.62463">
        <ele>1927.58</ele>
        <time>2014-01-28T14:12:16Z</time>
      </trkpt>
      <trkpt lat="45.40252" lon="6.62482">
        <ele>1925.37</ele>
        <time>2014-01-28T14:12:18Z</time>
      </trkpt>
      <trkpt lat="45.40264" lon="6.62503">
        <ele>1923.11</ele>
        <time>2014-01-28T14:12:20Z</time>
      </trkpt>
      <trkpt lat="45.40282" lon="6.62519">
        <ele>1918.88</ele>
        <time>2014-01-28T14:12:22Z</time>
      </trkpt>
      <trkpt lat="45.40302" lon="6.62534">
        <ele>1915.17</ele>
        <time>2014-01-28T14:12:24Z</time>
      </trkpt>
      <trkpt lat="45.40319" lon="6.6255">
        <ele>1912.38</ele>
        <time>2014-01-28T14:12:26Z</time>
      </trkpt>
      <trkpt lat="45.40334" lon="6.62569">
        <ele>1909.92</ele>
        <time>2014-01-28T14:12:28Z</time>
      </trkpt>
      <trkpt lat="45.4035" lon="6.62586">
        <ele>1907.92</ele>
        <time>2014-01-28T14:12:30Z</time>
      </trkpt>
      <trkpt lat="45.40368" lon="6.626">
        <ele>1903.55</ele>
        <time>2014-01-28T14:12:32Z</time>
      </trkpt>
      <trkpt lat="45.40385" lon="6.62614">
        <ele>1899.8</ele>
        <time>2014-01-28T14:12:34Z</time>
      </trkpt>
      <trkpt lat="45.40402" lon="6.62633">
        <ele>1897.96</ele>
        <time>2014-01-28T14:12:36Z</time>
      </trkpt>
      <trkpt lat="45.40418" lon="6.62654">
        <ele>1895.23</ele>
        <time>2014-01-28T14:12:38Z</time>
      </trkpt>
      <trkpt lat="45.40433" lon="6.62675">
        <ele>1892.65</ele>
        <time>2014-01-28T14:12:40Z</time>
      </trkpt>
      <trkpt lat="45.40447" lon="6.62691">
        <ele>1889.92</ele>
        <time>2014-01-28T14:12:42Z</time>
      </trkpt>
      <trkpt lat="45.40465" lon="6.62701">
        <ele>1888.37</ele>
        <time>2014-01-28T14:12:44Z</time>
      </trkpt>
      <trkpt lat="45.40483" lon="6.62708">
        <ele>1886.56</ele>
        <time>2014-01-28T14:12:46Z</time>
      </trkpt>
      <trkpt lat="45.40506" lon="6.62718">
        <ele>1884.08</ele>
        <time>2014-01-28T14:12:49Z</time>
      </trkpt>
      <trkpt lat="45.4053" lon="6.62729">
        <ele>1882.21</ele>
        <time>2014-01-28T14:12:52Z</time>
      </trkpt>
      <trkpt lat="45.40554" lon="6.62744">
        <ele>1878.41</ele>
        <time>2014-01-28T14:12:55Z</time>
      </trkpt>
      <trkpt lat="45.40568" lon="6.62761">
        <ele>1876.14</ele>
        <time>2014-01-28T14:12:57Z</time>
      </trkpt>
      <trkpt lat="45.40584" lon="6.62779">
        <ele>1872.9</ele>
        <time>2014-01-28T14:12:59Z</time>
      </trkpt>
      <trkpt lat="45.40599" lon="6.62797">
        <ele>1870.33</ele>
        <time>2014-01-28T14:13:01Z</time>
      </trkpt>
      <trkpt lat="45.40613" lon="6.62815">
        <ele>1868.92</ele>
        <time>2014-01-28T14:13:03Z</time>
      </trkpt>
      <trkpt lat="45.40627" lon="6.62832">
        <ele>1867.9</ele>
        <time>2014-01-28T14:13:05Z</time>
      </trkpt>
      <trkpt lat="45.40647" lon="6.62853">
        <ele>1865.79</ele>
        <time>2014-01-28T14:13:08Z</time>
      </trkpt>
      <trkpt lat="45.40666" lon="6.62868">
        <ele>1863.54</ele>
        <time>2014-01-28T14:13:11Z</time>
      </trkpt>
      <trkpt lat="45.40686" lon="6.62881">
        <ele>1862.58</ele>
        <time>2014-01-28T14:13:14Z</time>
      </trkpt>
      <trkpt lat="45.40707" lon="6.6289">
        <ele>1861.44</ele>
        <time>2014-01-28T14:13:17Z</time>
      </trkpt>
      <trkpt lat="45.4073" lon="6.62901">
        <ele>1859.42</ele>
        <time>2014-01-28T14:13:20Z</time>
      </trkpt>
      <trkpt lat="45.40752" lon="6.62909">
        <ele>1857.21</ele>
        <time>2014-01-28T14:13:23Z</time>
      </trkpt>
      <trkpt lat="45.40774" lon="6.6292">
        <ele>1855.93</ele>
        <time>2014-01-28T14:13:26Z</time>
      </trkpt>
      <trkpt lat="45.40797" lon="6.62933">
        <ele>1853.44</ele>
        <time>2014-01-28T14:13:29Z</time>
      </trkpt>
      <trkpt lat="45.40819" lon="6.62944">
        <ele>1851.14</ele>
        <time>2014-01-28T14:13:32Z</time>
      </trkpt>
      <trkpt lat="45.40837" lon="6.62953">
        <ele>1849.96</ele>
        <time>2014-01-28T14:13:35Z</time>
      </trkpt>
      <trkpt lat="45.40858" lon="6.62962">
        <ele>1849.45</ele>
        <time>2014-01-28T14:13:39Z</time>
      </trkpt>
      <trkpt lat="45.40877" lon="6.62973">
        <ele>1848.44</ele>
        <time>2014-01-28T14:13:43Z</time>
      </trkpt>
      <trkpt lat="45.40898" lon="6.6298">
        <ele>1848.49</ele>
        <time>2014-01-28T14:13:47Z</time>
      </trkpt>
      <trkpt lat="45.40919" lon="6.62987">
        <ele>1848.49</ele>
        <time>2014-01-28T14:13:52Z</time>
      </trkpt>
      <trkpt lat="45.40941" lon="6.62994">
        <ele>1848.1</ele>
        <time>2014-01-28T14:13:56Z</time>
      </trkpt>
      <trkpt lat="45.40959" lon="6.63">
        <ele>1848</ele>
        <time>2014-01-28T14:13:59Z</time>
      </trkpt>
      <trkpt lat="45.40983" lon="6.63004">
        <ele>1845.18</ele>
        <time>2014-01-28T14:14:02Z</time>
      </trkpt>
      <trkpt lat="45.41007" lon="6.63013">
        <ele>1839.49</ele>
        <time>2014-01-28T14:14:05Z</time>
      </trkpt>
      <trkpt lat="45.41029" lon="6.63029">
        <ele>1836.91</ele>
        <time>2014-01-28T14:14:08Z</time>
      </trkpt>
      <trkpt lat="45.41055" lon="6.63033">
        <ele>1831.12</ele>
        <time>2014-01-28T14:14:11Z</time>
      </trkpt>
      <trkpt lat="45.4108" lon="6.63045">
        <ele>1828.45</ele>
        <time>2014-01-28T14:14:14Z</time>
      </trkpt>
      <trkpt lat="45.41106" lon="6.63055">
        <ele>1825.64</ele>
        <time>2014-01-28T14:14:17Z</time>
      </trkpt>
      <trkpt lat="45.41123" lon="6.63061">
        <ele>1824.93</ele>
        <time>2014-01-28T14:14:19Z</time>
      </trkpt>
      <trkpt lat="45.41141" lon="6.63066">
        <ele>1823.63</ele>
        <time>2014-01-28T14:14:21Z</time>
      </trkpt>
      <trkpt lat="45.41166" lon="6.63069">
        <ele>1820.98</ele>
        <time>2014-01-28T14:14:24Z</time>
      </trkpt>
      <trkpt lat="45.41191" lon="6.6307">
        <ele>1821.12</ele>
        <time>2014-01-28T14:14:27Z</time>
      </trkpt>
      <trkpt lat="45.41219" lon="6.63076">
        <ele>1818.45</ele>
        <time>2014-01-28T14:14:30Z</time>
      </trkpt>
      <trkpt lat="45.41244" lon="6.63071">
        <ele>1811.03</ele>
        <time>2014-01-28T14:14:33Z</time>
      </trkpt>
      <trkpt lat="45.41264" lon="6.63086">
        <ele>1804.87</ele>
        <time>2014-01-28T14:14:36Z</time>
      </trkpt>
      <trkpt lat="45.4128" lon="6.63102">
        <ele>1800.85</ele>
        <time>2014-01-28T14:14:38Z</time>
      </trkpt>
      <trkpt lat="45.41295" lon="6.63125">
        <ele>1797.81</ele>
        <time>2014-01-28T14:14:40Z</time>
      </trkpt>
      <trkpt lat="45.41311" lon="6.6315">
        <ele>1792.25</ele>
        <time>2014-01-28T14:14:42Z</time>
      </trkpt>
      <trkpt lat="45.41325" lon="6.63175">
        <ele>1788.04</ele>
        <time>2014-01-28T14:14:44Z</time>
      </trkpt>
      <trkpt lat="45.4134" lon="6.63198">
        <ele>1784.39</ele>
        <time>2014-01-28T14:14:46Z</time>
      </trkpt>
      <trkpt lat="45.41356" lon="6.63218">
        <ele>1780.68</ele>
        <time>2014-01-28T14:14:48Z</time>
      </trkpt>
      <trkpt lat="45.41371" lon="6.63236">
        <ele>1777.45</ele>
        <time>2014-01-28T14:14:50Z</time>
      </trkpt>
      <trkpt lat="45.41388" lon="6.63247">
        <ele>1774.12</ele>
        <time>2014-01-28T14:14:52Z</time>
      </trkpt>
      <trkpt lat="45.41412" lon="6.6326">
        <ele>1769.52</ele>
        <time>2014-01-28T14:14:55Z</time>
      </trkpt>
      <trkpt lat="45.4143" lon="6.63259">
        <ele>1767.26</ele>
        <time>2014-01-28T14:15:23Z</time>
      </trkpt>
      <trkpt lat="45.41449" lon="6.63255">
        <ele>1765.27</ele>
        <time>2014-01-28T14:15:28Z</time>
      </trkpt>
      <trkpt lat="45.41468" lon="6.63252">
        <ele>1763.38</ele>
        <time>2014-01-28T14:15:33Z</time>
      </trkpt>
      <trkpt lat="45.4149" lon="6.63251">
        <ele>1759.18</ele>
        <time>2014-01-28T14:15:37Z</time>
      </trkpt>
      <trkpt lat="45.4151" lon="6.63255">
        <ele>1755.72</ele>
        <time>2014-01-28T14:15:40Z</time>
      </trkpt>
      <trkpt lat="45.41534" lon="6.63271">
        <ele>1752.07</ele>
        <time>2014-01-28T14:15:43Z</time>
      </trkpt>
      <trkpt lat="45.41551" lon="6.63288">
        <ele>1749.25</ele>
        <time>2014-01-28T14:15:45Z</time>
      </trkpt>
      <trkpt lat="45.41567" lon="6.63305">
        <ele>1745.45</ele>
        <time>2014-01-28T14:15:47Z</time>
      </trkpt>
      <trkpt lat="45.41589" lon="6.63325">
        <ele>1741.6</ele>
        <time>2014-01-28T14:15:50Z</time>
      </trkpt>
      <trkpt lat="45.41604" lon="6.63341">
        <ele>1738.83</ele>
        <time>2014-01-28T14:15:52Z</time>
      </trkpt>
      <trkpt lat="45.41623" lon="6.63353">
        <ele>1735.33</ele>
        <time>2014-01-28T14:15:54Z</time>
      </trkpt>
      <trkpt lat="45.41646" lon="6.63366">
        <ele>1731.13</ele>
        <time>2014-01-28T14:15:56Z</time>
      </trkpt>
      <trkpt lat="45.41672" lon="6.63376">
        <ele>1727.71</ele>
        <time>2014-01-28T14:15:58Z</time>
      </trkpt>
      <trkpt lat="45.41696" lon="6.63379">
        <ele>1723.78</ele>
        <time>2014-01-28T14:16:00Z</time>
      </trkpt>
      <trkpt lat="45.41719" lon="6.63372">
        <ele>1719.09</ele>
        <time>2014-01-28T14:16:02Z</time>
      </trkpt>
      <trkpt lat="45.41738" lon="6.63361">
        <ele>1717.33</ele>
        <time>2014-01-28T14:16:04Z</time>
      </trkpt>
      <trkpt lat="45.41755" lon="6.6335">
        <ele>1717.6</ele>
        <time>2014-01-28T14:16:06Z</time>
      </trkpt>
      <trkpt lat="45.41777" lon="6.63336">
        <ele>1717.47</ele>
        <time>2014-01-28T14:16:09Z</time>
      </trkpt>
      <trkpt lat="45.418" lon="6.63315">
        <ele>1719.85</ele>
        <time>2014-01-28T14:16:12Z</time>
      </trkpt>
      <trkpt lat="45.41818" lon="6.6329">
        <ele>1718.89</ele>
        <time>2014-01-28T14:16:15Z</time>
      </trkpt>
      <trkpt lat="45.41835" lon="6.63272">
        <ele>1716.64</ele>
        <time>2014-01-28T14:16:18Z</time>
      </trkpt>
      <trkpt lat="45.41855" lon="6.63261">
        <ele>1714.16</ele>
        <time>2014-01-28T14:16:21Z</time>
      </trkpt>
      <trkpt lat="45.41877" lon="6.63252">
        <ele>1710.96</ele>
        <time>2014-01-28T14:16:24Z</time>
      </trkpt>
      <trkpt lat="45.41899" lon="6.63247">
        <ele>1709.1</ele>
        <time>2014-01-28T14:16:27Z</time>
      </trkpt>
      <trkpt lat="45.4192" lon="6.63242">
        <ele>1708.49</ele>
        <time>2014-01-28T14:16:30Z</time>
      </trkpt>
      <trkpt lat="45.41939" lon="6.63233">
        <ele>1708.87</ele>
        <time>2014-01-28T14:16:33Z</time>
      </trkpt>
      <trkpt lat="45.41958" lon="6.63218">
        <ele>1707.12</ele>
        <time>2014-01-28T14:16:36Z</time>
      </trkpt>
      <trkpt lat="45.41979" lon="6.63207">
        <ele>1701.81</ele>
        <time>2014-01-28T14:16:39Z</time>
      </trkpt>
      <trkpt lat="45.41998" lon="6.63204">
        <ele>1696.72</ele>
        <time>2014-01-28T14:16:41Z</time>
      </trkpt>
      <trkpt lat="45.42021" lon="6.632">
        <ele>1691.64</ele>
        <time>2014-01-28T14:16:43Z</time>
      </trkpt>
      <trkpt lat="45.42042" lon="6.63195">
        <ele>1686.91</ele>
        <time>2014-01-28T14:16:45Z</time>
      </trkpt>
      <trkpt lat="45.4206" lon="6.63186">
        <ele>1684.42</ele>
        <time>2014-01-28T14:16:47Z</time>
      </trkpt>
      <trkpt lat="45.4208" lon="6.63176">
        <ele>1683.28</ele>
        <time>2014-01-28T14:16:49Z</time>
      </trkpt>
      <trkpt lat="45.421" lon="6.63167">
        <ele>1682.19</ele>
        <time>2014-01-28T14:16:51Z</time>
      </trkpt>
      <trkpt lat="45.42124" lon="6.63169">
        <ele>1677.58</ele>
        <time>2014-01-28T14:16:54Z</time>
      </trkpt>
      <trkpt lat="45.42143" lon="6.63194">
        <ele>1669.78</ele>
        <time>2014-01-28T14:16:57Z</time>
      </trkpt>
      <trkpt lat="45.42161" lon="6.63201">
        <ele>1663.14</ele>
        <time>2014-01-28T14:16:59Z</time>
      </trkpt>
      <trkpt lat="45.42178" lon="6.63207">
        <ele>1657.51</ele>
        <time>2014-01-28T14:17:01Z</time>
      </trkpt>
      <trkpt lat="45.42197" lon="6.63223">
        <ele>1651.21</ele>
        <time>2014-01-28T14:17:04Z</time>
      </trkpt>
      <trkpt lat="45.42215" lon="6.6324">
        <ele>1644.56</ele>
        <time>2014-01-28T14:17:07Z</time>
      </trkpt>
      <trkpt lat="45.42232" lon="6.63258">
        <ele>1637.68</ele>
        <time>2014-01-28T14:17:11Z</time>
      </trkpt>
      <trkpt lat="45.42251" lon="6.63283">
        <ele>1628.01</ele>
        <time>2014-01-28T14:17:14Z</time>
      </trkpt>
      <trkpt lat="45.42273" lon="6.63297">
        <ele>1618.26</ele>
        <time>2014-01-28T14:17:18Z</time>
      </trkpt>
      <trkpt lat="45.4229" lon="6.6332">
        <ele>1607.76</ele>
        <time>2014-01-28T14:17:21Z</time>
      </trkpt>
      <trkpt lat="45.42308" lon="6.63319">
        <ele>1601.74</ele>
        <time>2014-01-28T14:17:25Z</time>
      </trkpt>
      <trkpt lat="45.42327" lon="6.63317">
        <ele>1595.85</ele>
        <time>2014-01-28T14:17:28Z</time>
      </trkpt>
      <trkpt lat="45.4235" lon="6.63323">
        <ele>1585.37</ele>
        <time>2014-01-28T14:17:31Z</time>
      </trkpt>
      <trkpt lat="45.42373" lon="6.63334">
        <ele>1575.38</ele>
        <time>2014-01-28T14:17:34Z</time>
      </trkpt>
      <trkpt lat="45.42396" lon="6.63353">
        <ele>1566.93</ele>
        <time>2014-01-28T14:17:37Z</time>
      </trkpt>
      <trkpt lat="45.42417" lon="6.63356">
        <ele>1561.47</ele>
        <time>2014-01-28T14:17:40Z</time>
      </trkpt>
      <trkpt lat="45.42431" lon="6.63381">
        <ele>1554.57</ele>
        <time>2014-01-28T14:17:43Z</time>
      </trkpt>
      <trkpt lat="45.42452" lon="6.63396">
        <ele>1547.01</ele>
        <time>2014-01-28T14:17:47Z</time>
      </trkpt>
      <trkpt lat="45.42474" lon="6.63382">
        <ele>1541.62</ele>
        <time>2014-01-28T14:17:50Z</time>
      </trkpt>
      <trkpt lat="45.42487" lon="6.6336">
        <ele>1537.16</ele>
        <time>2014-01-28T14:17:53Z</time>
      </trkpt>
      <trkpt lat="45.42491" lon="6.63335">
        <ele>1536</ele>
        <time>2014-01-28T14:17:56Z</time>
      </trkpt>
      <trkpt lat="45.42501" lon="6.63303">
        <ele>1526.76</ele>
        <time>2014-01-28T14:17:59Z</time>
      </trkpt>
      <trkpt lat="45.42517" lon="6.63283">
        <ele>1512.99</ele>
        <time>2014-01-28T14:18:02Z</time>
      </trkpt>
      <trkpt lat="45.42537" lon="6.63274">
        <ele>1500.94</ele>
        <time>2014-01-28T14:18:04Z</time>
      </trkpt>
      <trkpt lat="45.42557" lon="6.63258">
        <ele>1494.74</ele>
        <time>2014-01-28T14:18:06Z</time>
      </trkpt>
      <trkpt lat="45.4257" lon="6.63234">
        <ele>1493.39</ele>
        <time>2014-01-28T14:18:09Z</time>
      </trkpt>
      <trkpt lat="45.42586" lon="6.63217">
        <ele>1488.72</ele>
        <time>2014-01-28T14:18:12Z</time>
      </trkpt>
      <trkpt lat="45.42613" lon="6.63217">
        <ele>1478.68</ele>
        <time>2014-01-28T14:18:15Z</time>
      </trkpt>
      <trkpt lat="45.42634" lon="6.63217">
        <ele>1469.45</ele>
        <time>2014-01-28T14:18:18Z</time>
      </trkpt>
      <trkpt lat="45.42648" lon="6.63195">
        <ele>1465.25</ele>
        <time>2014-01-28T14:18:21Z</time>
      </trkpt>
      <trkpt lat="45.42665" lon="6.63178">
        <ele>1455.65</ele>
        <time>2014-01-28T14:18:25Z</time>
      </trkpt>
      <trkpt lat="45.42684" lon="6.63185">
        <ele>1445.65</ele>
        <time>2014-01-28T14:18:27Z</time>
      </trkpt>
      <trkpt lat="45.42702" lon="6.6316">
        <ele>1438.23</ele>
        <time>2014-01-28T14:18:31Z</time>
      </trkpt>
      <trkpt lat="45.42715" lon="6.63133">
        <ele>1432.67</ele>
        <time>2014-01-28T14:18:34Z</time>
      </trkpt>
      <trkpt lat="45.42724" lon="6.63096">
        <ele>1424.22</ele>
        <time>2014-01-28T14:18:37Z</time>
      </trkpt>
      <trkpt lat="45.42734" lon="6.6307">
        <ele>1415.75</ele>
        <time>2014-01-28T14:18:39Z</time>
      </trkpt>
      <trkpt lat="45.42743" lon="6.6304">
        <ele>1412.23</ele>
        <time>2014-01-28T14:18:42Z</time>
      </trkpt>
      <trkpt lat="45.42745" lon="6.63007">
        <ele>1418.01</ele>
        <time>2014-01-28T14:18:46Z</time>
      </trkpt>
      <trkpt lat="45.42749" lon="6.62976">
        <ele>1420.28</ele>
        <time>2014-01-28T14:18:49Z</time>
      </trkpt>
      <trkpt lat="45.42756" lon="6.62942">
        <ele>1413.81</ele>
        <time>2014-01-28T14:18:52Z</time>
      </trkpt>
      <trkpt lat="45.42761" lon="6.62915">
        <ele>1408.41</ele>
        <time>2014-01-28T14:18:54Z</time>
      </trkpt>
      <trkpt lat="45.42767" lon="6.62884">
        <ele>1402.48</ele>
        <time>2014-01-28T14:18:56Z</time>
      </trkpt>
      <trkpt lat="45.42772" lon="6.62856">
        <ele>1398.3</ele>
        <time>2014-01-28T14:18:58Z</time>
      </trkpt>
      <trkpt lat="45.42779" lon="6.62825">
        <ele>1395.34</ele>
        <time>2014-01-28T14:19:00Z</time>
      </trkpt>
      <trkpt lat="45.4279" lon="6.62801">
        <ele>1391.67</ele>
        <time>2014-01-28T14:19:02Z</time>
      </trkpt>
      <trkpt lat="45.42802" lon="6.62781">
        <ele>1387.65</ele>
        <time>2014-01-28T14:19:04Z</time>
      </trkpt>
      <trkpt lat="45.42816" lon="6.62753">
        <ele>1383.15</ele>
        <time>2014-01-28T14:19:07Z</time>
      </trkpt>
      <trkpt lat="45.42828" lon="6.62729">
        <ele>1378.18</ele>
        <time>2014-01-28T14:19:09Z</time>
      </trkpt>
      <trkpt lat="45.42839" lon="6.62702">
        <ele>1373.69</ele>
        <time>2014-01-28T14:19:11Z</time>
      </trkpt>
      <trkpt lat="45.42853" lon="6.62678">
        <ele>1369.1</ele>
        <time>2014-01-28T14:19:13Z</time>
      </trkpt>
      <trkpt lat="45.42873" lon="6.62657">
        <ele>1361.88</ele>
        <time>2014-01-28T14:19:16Z</time>
      </trkpt>
      <trkpt lat="45.4289" lon="6.62635">
        <ele>1352.96</ele>
        <time>2014-01-28T14:19:19Z</time>
      </trkpt>
      <trkpt lat="45.42912" lon="6.62623">
        <ele>1348.08</ele>
        <time>2014-01-28T14:19:22Z</time>
      </trkpt>
      <trkpt lat="45.42933" lon="6.62612">
        <ele>1340.62</ele>
        <time>2014-01-28T14:19:24Z</time>
      </trkpt>
      <trkpt lat="45.42952" lon="6.62594">
        <ele>1332.8</ele>
        <time>2014-01-28T14:19:26Z</time>
      </trkpt>
      <trkpt lat="45.4296" lon="6.62568">
        <ele>1331.91</ele>
        <time>2014-01-28T14:19:28Z</time>
      </trkpt>
      <trkpt lat="45.42966" lon="6.6254">
        <ele>1332.21</ele>
        <time>2014-01-28T14:19:31Z</time>
      </trkpt>
      <trkpt lat="45.42977" lon="6.62517">
        <ele>1329.38</ele>
        <time>2014-01-28T14:19:34Z</time>
      </trkpt>
      <trkpt lat="45.42992" lon="6.6249">
        <ele>1324.3</ele>
        <time>2014-01-28T14:19:37Z</time>
      </trkpt>
      <trkpt lat="45.43004" lon="6.62468">
        <ele>1318.65</ele>
        <time>2014-01-28T14:19:39Z</time>
      </trkpt>
      <trkpt lat="45.43007" lon="6.62438">
        <ele>1318.32</ele>
        <time>2014-01-28T14:19:41Z</time>
      </trkpt>
      <trkpt lat="45.43007" lon="6.62409">
        <ele>1314.81</ele>
        <time>2014-01-28T14:19:43Z</time>
      </trkpt>
      <trkpt lat="45.43005" lon="6.62381">
        <ele>1311.52</ele>
        <time>2014-01-28T14:19:45Z</time>
      </trkpt>
      <trkpt lat="45.43001" lon="6.62354">
        <ele>1309.43</ele>
        <time>2014-01-28T14:19:47Z</time>
      </trkpt>
      <trkpt lat="45.42995" lon="6.6232">
        <ele>1309.23</ele>
        <time>2014-01-28T14:19:50Z</time>
      </trkpt>
      <trkpt lat="45.42998" lon="6.62293">
        <ele>1303.73</ele>
        <time>2014-01-28T14:19:52Z</time>
      </trkpt>
      <trkpt lat="45.43002" lon="6.62264">
        <ele>1298.68</ele>
        <time>2014-01-28T14:19:54Z</time>
      </trkpt>
      <trkpt lat="45.4301" lon="6.62236">
        <ele>1295.9</ele>
        <time>2014-01-28T14:19:56Z</time>
      </trkpt>
      <trkpt lat="45.43022" lon="6.62212">
        <ele>1290.29</ele>
        <time>2014-01-28T14:19:58Z</time>
      </trkpt>
      <trkpt lat="45.43034" lon="6.62189">
        <ele>1286.49</ele>
        <time>2014-01-28T14:20:00Z</time>
      </trkpt>
      <trkpt lat="45.43045" lon="6.62156">
        <ele>1279.73</ele>
        <time>2014-01-28T14:20:03Z</time>
      </trkpt>
      <trkpt lat="45.4305" lon="6.6213">
        <ele>1276.04</ele>
        <time>2014-01-28T14:20:05Z</time>
      </trkpt>
      <trkpt lat="45.43056" lon="6.621">
        <ele>1273.58</ele>
        <time>2014-01-28T14:20:07Z</time>
      </trkpt>
      <trkpt lat="45.43069" lon="6.62074">
        <ele>1270.75</ele>
        <time>2014-01-28T14:20:09Z</time>
      </trkpt>
      <trkpt lat="45.43083" lon="6.62057">
        <ele>1266.67</ele>
        <time>2014-01-28T14:20:11Z</time>
      </trkpt>
      <trkpt lat="45.43099" lon="6.62038">
        <ele>1265.03</ele>
        <time>2014-01-28T14:20:14Z</time>
      </trkpt>
      <trkpt lat="45.43113" lon="6.62016">
        <ele>1262.72</ele>
        <time>2014-01-28T14:20:17Z</time>
      </trkpt>
      <trkpt lat="45.43126" lon="6.61993">
        <ele>1261.65</ele>
        <time>2014-01-28T14:20:20Z</time>
      </trkpt>
      <trkpt lat="45.43141" lon="6.61971">
        <ele>1260</ele>
        <time>2014-01-28T14:20:25Z</time>
      </trkpt>
      <trkpt lat="45.4316" lon="6.61977">
        <ele>1260</ele>
        <time>2014-01-28T14:20:29Z</time>
      </trkpt>
      <trkpt lat="45.43179" lon="6.61989">
        <ele>1259.72</ele>
        <time>2014-01-28T14:20:34Z</time>
      </trkpt>
      <trkpt lat="45.43193" lon="6.62005">
        <ele>1259.04</ele>
        <time>2014-01-28T14:20:43Z</time>
      </trkpt>
      <trkpt lat="45.4317" lon="6.62011">
        <ele>1259.87</ele>
        <time>2014-01-28T14:23:00Z</time>
      </trkpt>
      <trkpt lat="45.43151" lon="6.62015">
        <ele>1260</ele>
        <time>2014-01-28T14:23:04Z</time>
      </trkpt>
      <trkpt lat="45.43132" lon="6.62013">
        <ele>1260.73</ele>
        <time>2014-01-28T14:23:09Z</time>
      </trkpt>
      <trkpt lat="45.43114" lon="6.6201">
        <ele>1262.93</ele>
        <time>2014-01-28T14:23:14Z</time>
      </trkpt>
      <trkpt lat="45.43095" lon="6.62007">
        <ele>1269.1</ele>
        <time>2014-01-28T14:23:20Z</time>
      </trkpt>
      <trkpt lat="45.43076" lon="6.62005">
        <ele>1278.52</ele>
        <time>2014-01-28T14:23:26Z</time>
      </trkpt>
      <trkpt lat="45.43058" lon="6.62001">
        <ele>1290.47</ele>
        <time>2014-01-28T14:23:32Z</time>
      </trkpt>
      <trkpt lat="45.43038" lon="6.61996">
        <ele>1309.67</ele>
        <time>2014-01-28T14:23:38Z</time>
      </trkpt>
      <trkpt lat="45.4302" lon="6.61993">
        <ele>1325.39</ele>
        <time>2014-01-28T14:23:44Z</time>
      </trkpt>
      <trkpt lat="45.43001" lon="6.6199">
        <ele>1337.92</ele>
        <time>2014-01-28T14:23:50Z</time>
      </trkpt>
      <trkpt lat="45.4298" lon="6.61988">
        <ele>1348.4</ele>
        <time>2014-01-28T14:23:56Z</time>
      </trkpt>
      <trkpt lat="45.4296" lon="6.61984">
        <ele>1356.72</ele>
        <time>2014-01-28T14:24:02Z</time>
      </trkpt>
      <trkpt lat="45.42941" lon="6.61981">
        <ele>1363.16</ele>
        <time>2014-01-28T14:24:08Z</time>
      </trkpt>
      <trkpt lat="45.42922" lon="6.61978">
        <ele>1368.07</ele>
        <time>2014-01-28T14:24:14Z</time>
      </trkpt>
      <trkpt lat="45.42904" lon="6.61975">
        <ele>1371.18</ele>
        <time>2014-01-28T14:24:19Z</time>
      </trkpt>
      <trkpt lat="45.42885" lon="6.61972">
        <ele>1373.4</ele>
        <time>2014-01-28T14:24:24Z</time>
      </trkpt>
      <trkpt lat="45.42866" lon="6.61968">
        <ele>1375.7</ele>
        <time>2014-01-28T14:24:29Z</time>
      </trkpt>
      <trkpt lat="45.42846" lon="6.61966">
        <ele>1377.97</ele>
        <time>2014-01-28T14:24:35Z</time>
      </trkpt>
      <trkpt lat="45.42827" lon="6.61967">
        <ele>1380.97</ele>
        <time>2014-01-28T14:24:40Z</time>
      </trkpt>
      <trkpt lat="45.42807" lon="6.61968">
        <ele>1387.11</ele>
        <time>2014-01-28T14:24:46Z</time>
      </trkpt>
      <trkpt lat="45.42787" lon="6.61969">
        <ele>1399.15</ele>
        <time>2014-01-28T14:24:52Z</time>
      </trkpt>
      <trkpt lat="45.42769" lon="6.61971">
        <ele>1412.74</ele>
        <time>2014-01-28T14:24:59Z</time>
      </trkpt>
      <trkpt lat="45.42749" lon="6.61972">
        <ele>1428.37</ele>
        <time>2014-01-28T14:25:09Z</time>
      </trkpt>
      <trkpt lat="45.42728" lon="6.61969">
        <ele>1443.79</ele>
        <time>2014-01-28T14:25:17Z</time>
      </trkpt>
      <trkpt lat="45.42708" lon="6.61961">
        <ele>1460.56</ele>
        <time>2014-01-28T14:25:21Z</time>
      </trkpt>
      <trkpt lat="45.42692" lon="6.61948">
        <ele>1477.35</ele>
        <time>2014-01-28T14:25:24Z</time>
      </trkpt>
      <trkpt lat="45.42672" lon="6.61936">
        <ele>1497.9</ele>
        <time>2014-01-28T14:25:29Z</time>
      </trkpt>
      <trkpt lat="45.42654" lon="6.61932">
        <ele>1515.96</ele>
        <time>2014-01-28T14:25:35Z</time>
      </trkpt>
      <trkpt lat="45.42636" lon="6.6193">
        <ele>1532.85</ele>
        <time>2014-01-28T14:25:42Z</time>
      </trkpt>
      <trkpt lat="45.42615" lon="6.61928">
        <ele>1547.33</ele>
        <time>2014-01-28T14:25:49Z</time>
      </trkpt>
      <trkpt lat="45.42596" lon="6.61924">
        <ele>1560.45</ele>
        <time>2014-01-28T14:25:54Z</time>
      </trkpt>
      <trkpt lat="45.42576" lon="6.61919">
        <ele>1574.16</ele>
        <time>2014-01-28T14:26:01Z</time>
      </trkpt>
      <trkpt lat="45.42557" lon="6.61915">
        <ele>1585.01</ele>
        <time>2014-01-28T14:26:08Z</time>
      </trkpt>
      <trkpt lat="45.42538" lon="6.61917">
        <ele>1596.85</ele>
        <time>2014-01-28T14:26:16Z</time>
      </trkpt>
      <trkpt lat="45.4252" lon="6.61926">
        <ele>1605.1</ele>
        <time>2014-01-28T14:26:22Z</time>
      </trkpt>
      <trkpt lat="45.42503" lon="6.61936">
        <ele>1609.82</ele>
        <time>2014-01-28T14:26:29Z</time>
      </trkpt>
      <trkpt lat="45.42485" lon="6.61947">
        <ele>1614.05</ele>
        <time>2014-01-28T14:26:39Z</time>
      </trkpt>
      <trkpt lat="45.42465" lon="6.61951">
        <ele>1621.98</ele>
        <time>2014-01-28T14:26:44Z</time>
      </trkpt>
      <trkpt lat="45.42445" lon="6.61945">
        <ele>1635.56</ele>
        <time>2014-01-28T14:26:47Z</time>
      </trkpt>
      <trkpt lat="45.42425" lon="6.61937">
        <ele>1648.65</ele>
        <time>2014-01-28T14:26:51Z</time>
      </trkpt>
      <trkpt lat="45.42407" lon="6.61929">
        <ele>1662.13</ele>
        <time>2014-01-28T14:26:55Z</time>
      </trkpt>
      <trkpt lat="45.42389" lon="6.61922">
        <ele>1678.61</ele>
        <time>2014-01-28T14:27:00Z</time>
      </trkpt>
      <trkpt lat="45.42371" lon="6.61916">
        <ele>1688.82</ele>
        <time>2014-01-28T14:27:05Z</time>
      </trkpt>
      <trkpt lat="45.42352" lon="6.61909">
        <ele>1698.88</ele>
        <time>2014-01-28T14:27:10Z</time>
      </trkpt>
      <trkpt lat="45.42333" lon="6.61905">
        <ele>1709.61</ele>
        <time>2014-01-28T14:27:16Z</time>
      </trkpt>
      <trkpt lat="45.42314" lon="6.61902">
        <ele>1717.38</ele>
        <time>2014-01-28T14:27:22Z</time>
      </trkpt>
      <trkpt lat="45.42296" lon="6.61897">
        <ele>1724.8</ele>
        <time>2014-01-28T14:27:28Z</time>
      </trkpt>
      <trkpt lat="45.42277" lon="6.61892">
        <ele>1732.14</ele>
        <time>2014-01-28T14:27:33Z</time>
      </trkpt>
      <trkpt lat="45.42259" lon="6.6189">
        <ele>1736.69</ele>
        <time>2014-01-28T14:27:39Z</time>
      </trkpt>
      <trkpt lat="45.42238" lon="6.61885">
        <ele>1746.73</ele>
        <time>2014-01-28T14:27:46Z</time>
      </trkpt>
      <trkpt lat="45.4222" lon="6.61882">
        <ele>1758.58</ele>
        <time>2014-01-28T14:27:52Z</time>
      </trkpt>
      <trkpt lat="45.42199" lon="6.61874">
        <ele>1769.52</ele>
        <time>2014-01-28T14:27:58Z</time>
      </trkpt>
      <trkpt lat="45.42182" lon="6.61858">
        <ele>1782.12</ele>
        <time>2014-01-28T14:28:02Z</time>
      </trkpt>
      <trkpt lat="45.42166" lon="6.61845">
        <ele>1792.26</ele>
        <time>2014-01-28T14:28:07Z</time>
      </trkpt>
      <trkpt lat="45.42146" lon="6.61841">
        <ele>1799.65</ele>
        <time>2014-01-28T14:28:15Z</time>
      </trkpt>
      <trkpt lat="45.42127" lon="6.61841">
        <ele>1806.41</ele>
        <time>2014-01-28T14:28:21Z</time>
      </trkpt>
      <trkpt lat="45.42107" lon="6.61839">
        <ele>1815.02</ele>
        <time>2014-01-28T14:28:27Z</time>
      </trkpt>
      <trkpt lat="45.42086" lon="6.61842">
        <ele>1828.16</ele>
        <time>2014-01-28T14:28:34Z</time>
      </trkpt>
      <trkpt lat="45.42068" lon="6.61842">
        <ele>1839.11</ele>
        <time>2014-01-28T14:28:40Z</time>
      </trkpt>
      <trkpt lat="45.42048" lon="6.61842">
        <ele>1850.25</ele>
        <time>2014-01-28T14:28:47Z</time>
      </trkpt>
      <trkpt lat="45.42028" lon="6.61841">
        <ele>1860.79</ele>
        <time>2014-01-28T14:28:54Z</time>
      </trkpt>
      <trkpt lat="45.42008" lon="6.61839">
        <ele>1871.18</ele>
        <time>2014-01-28T14:29:00Z</time>
      </trkpt>
      <trkpt lat="45.4199" lon="6.61834">
        <ele>1881.82</ele>
        <time>2014-01-28T14:29:06Z</time>
      </trkpt>
      <trkpt lat="45.41972" lon="6.61831">
        <ele>1892.53</ele>
        <time>2014-01-28T14:29:12Z</time>
      </trkpt>
      <trkpt lat="45.41952" lon="6.61829">
        <ele>1902.45</ele>
        <time>2014-01-28T14:29:18Z</time>
      </trkpt>
      <trkpt lat="45.41933" lon="6.61833">
        <ele>1911.58</ele>
        <time>2014-01-28T14:29:24Z</time>
      </trkpt>
      <trkpt lat="45.41913" lon="6.6184">
        <ele>1920.85</ele>
        <time>2014-01-28T14:29:30Z</time>
      </trkpt>
      <trkpt lat="45.41894" lon="6.61847">
        <ele>1932.39</ele>
        <time>2014-01-28T14:29:36Z</time>
      </trkpt>
      <trkpt lat="45.41874" lon="6.61851">
        <ele>1943.16</ele>
        <time>2014-01-28T14:29:42Z</time>
      </trkpt>
      <trkpt lat="45.41855" lon="6.61848">
        <ele>1954.82</ele>
        <time>2014-01-28T14:29:48Z</time>
      </trkpt>
      <trkpt lat="45.41835" lon="6.61832">
        <ele>1966.95</ele>
        <time>2014-01-28T14:29:52Z</time>
      </trkpt>
      <trkpt lat="45.41815" lon="6.6182">
        <ele>1983.12</ele>
        <time>2014-01-28T14:29:57Z</time>
      </trkpt>
      <trkpt lat="45.41795" lon="6.61812">
        <ele>1998.04</ele>
        <time>2014-01-28T14:30:03Z</time>
      </trkpt>
      <trkpt lat="45.41775" lon="6.6181">
        <ele>2011.32</ele>
        <time>2014-01-28T14:30:10Z</time>
      </trkpt>
      <trkpt lat="45.41757" lon="6.61804">
        <ele>2020.41</ele>
        <time>2014-01-28T14:30:16Z</time>
      </trkpt>
      <trkpt lat="45.41739" lon="6.61799">
        <ele>2026.05</ele>
        <time>2014-01-28T14:30:22Z</time>
      </trkpt>
      <trkpt lat="45.4172" lon="6.61795">
        <ele>2030.3</ele>
        <time>2014-01-28T14:30:28Z</time>
      </trkpt>
      <trkpt lat="45.417" lon="6.61789">
        <ele>2036.38</ele>
        <time>2014-01-28T14:30:34Z</time>
      </trkpt>
      <trkpt lat="45.4168" lon="6.61786">
        <ele>2043.43</ele>
        <time>2014-01-28T14:30:40Z</time>
      </trkpt>
      <trkpt lat="45.4166" lon="6.61783">
        <ele>2050.44</ele>
        <time>2014-01-28T14:30:46Z</time>
      </trkpt>
      <trkpt lat="45.4164" lon="6.6178">
        <ele>2057.38</ele>
        <time>2014-01-28T14:30:52Z</time>
      </trkpt>
      <trkpt lat="45.41618" lon="6.61778">
        <ele>2063.88</ele>
        <time>2014-01-28T14:30:58Z</time>
      </trkpt>
      <trkpt lat="45.41597" lon="6.61776">
        <ele>2067.52</ele>
        <time>2014-01-28T14:31:04Z</time>
      </trkpt>
      <trkpt lat="45.41578" lon="6.61781">
        <ele>2070.42</ele>
        <time>2014-01-28T14:31:10Z</time>
      </trkpt>
      <trkpt lat="45.4155" lon="6.61795">
        <ele>2077.76</ele>
        <time>2014-01-28T14:31:38Z</time>
      </trkpt>
      <trkpt lat="45.41554" lon="6.61751">
        <ele>2074.48</ele>
        <time>2014-01-28T14:32:57Z</time>
      </trkpt>
      <trkpt lat="45.41556" lon="6.61724">
        <ele>2073.01</ele>
        <time>2014-01-28T14:33:05Z</time>
      </trkpt>
      <trkpt lat="45.41559" lon="6.61696">
        <ele>2072.31</ele>
        <time>2014-01-28T14:33:17Z</time>
      </trkpt>
      <trkpt lat="45.41563" lon="6.6167">
        <ele>2071.13</ele>
        <time>2014-01-28T14:33:24Z</time>
      </trkpt>
      <trkpt lat="45.41578" lon="6.61653">
        <ele>2066.58</ele>
        <time>2014-01-28T14:33:36Z</time>
      </trkpt>
      <trkpt lat="45.41596" lon="6.61661">
        <ele>2061.47</ele>
        <time>2014-01-28T14:33:45Z</time>
      </trkpt>
      <trkpt lat="45.41609" lon="6.61679">
        <ele>2058.83</ele>
        <time>2014-01-28T14:33:49Z</time>
      </trkpt>
      <trkpt lat="45.41626" lon="6.61688">
        <ele>2053.35</ele>
        <time>2014-01-28T14:33:54Z</time>
      </trkpt>
      <trkpt lat="45.41633" lon="6.61652">
        <ele>2047.55</ele>
        <time>2014-01-28T14:33:58Z</time>
      </trkpt>
      <trkpt lat="45.41627" lon="6.61618">
        <ele>2044.2</ele>
        <time>2014-01-28T14:34:01Z</time>
      </trkpt>
      <trkpt lat="45.41626" lon="6.61582">
        <ele>2038.9</ele>
        <time>2014-01-28T14:34:04Z</time>
      </trkpt>
      <trkpt lat="45.41629" lon="6.6155">
        <ele>2033.35</ele>
        <time>2014-01-28T14:34:06Z</time>
      </trkpt>
      <trkpt lat="45.41634" lon="6.61519">
        <ele>2025.65</ele>
        <time>2014-01-28T14:34:08Z</time>
      </trkpt>
      <trkpt lat="45.41637" lon="6.6149">
        <ele>2019.03</ele>
        <time>2014-01-28T14:34:10Z</time>
      </trkpt>
      <trkpt lat="45.41639" lon="6.61463">
        <ele>2013.23</ele>
        <time>2014-01-28T14:34:12Z</time>
      </trkpt>
      <trkpt lat="45.41641" lon="6.61432">
        <ele>2008.61</ele>
        <time>2014-01-28T14:34:14Z</time>
      </trkpt>
      <trkpt lat="45.41638" lon="6.61402">
        <ele>2005.69</ele>
        <time>2014-01-28T14:34:16Z</time>
      </trkpt>
      <trkpt lat="45.41629" lon="6.61378">
        <ele>2003.92</ele>
        <time>2014-01-28T14:34:18Z</time>
      </trkpt>
      <trkpt lat="45.41619" lon="6.61354">
        <ele>2003.18</ele>
        <time>2014-01-28T14:34:20Z</time>
      </trkpt>
      <trkpt lat="45.41613" lon="6.6133">
        <ele>2000.69</ele>
        <time>2014-01-28T14:34:22Z</time>
      </trkpt>
      <trkpt lat="45.41604" lon="6.61294">
        <ele>1994.46</ele>
        <time>2014-01-28T14:34:25Z</time>
      </trkpt>
      <trkpt lat="45.41598" lon="6.61268">
        <ele>1987.77</ele>
        <time>2014-01-28T14:34:27Z</time>
      </trkpt>
      <trkpt lat="45.41586" lon="6.61245">
        <ele>1982.13</ele>
        <time>2014-01-28T14:34:29Z</time>
      </trkpt>
      <trkpt lat="45.41572" lon="6.61223">
        <ele>1979.27</ele>
        <time>2014-01-28T14:34:31Z</time>
      </trkpt>
      <trkpt lat="45.41555" lon="6.61207">
        <ele>1980.61</ele>
        <time>2014-01-28T14:34:33Z</time>
      </trkpt>
      <trkpt lat="45.41541" lon="6.61187">
        <ele>1976.72</ele>
        <time>2014-01-28T14:34:35Z</time>
      </trkpt>
      <trkpt lat="45.41528" lon="6.61166">
        <ele>1973.67</ele>
        <time>2014-01-28T14:34:37Z</time>
      </trkpt>
      <trkpt lat="45.41515" lon="6.61134">
        <ele>1971.22</ele>
        <time>2014-01-28T14:34:40Z</time>
      </trkpt>
      <trkpt lat="45.41507" lon="6.611">
        <ele>1968.39</ele>
        <time>2014-01-28T14:34:43Z</time>
      </trkpt>
      <trkpt lat="45.41495" lon="6.61075">
        <ele>1968.29</ele>
        <time>2014-01-28T14:34:46Z</time>
      </trkpt>
      <trkpt lat="45.41491" lon="6.61049">
        <ele>1966.23</ele>
        <time>2014-01-28T14:34:50Z</time>
      </trkpt>
      <trkpt lat="45.41514" lon="6.61046">
        <ele>1957.15</ele>
        <time>2014-01-28T14:34:54Z</time>
      </trkpt>
      <trkpt lat="45.41524" lon="6.61015">
        <ele>1948.87</ele>
        <time>2014-01-28T14:34:57Z</time>
      </trkpt>
      <trkpt lat="45.41533" lon="6.60984">
        <ele>1940.36</ele>
        <time>2014-01-28T14:35:00Z</time>
      </trkpt>
      <trkpt lat="45.41553" lon="6.60988">
        <ele>1932.22</ele>
        <time>2014-01-28T14:35:03Z</time>
      </trkpt>
      <trkpt lat="45.41571" lon="6.60976">
        <ele>1925.83</ele>
        <time>2014-01-28T14:35:07Z</time>
      </trkpt>
      <trkpt lat="45.41575" lon="6.60942">
        <ele>1919.11</ele>
        <time>2014-01-28T14:35:11Z</time>
      </trkpt>
      <trkpt lat="45.41599" lon="6.60946">
        <ele>1911.82</ele>
        <time>2014-01-28T14:35:15Z</time>
      </trkpt>
      <trkpt lat="45.41622" lon="6.60949">
        <ele>1903.18</ele>
        <time>2014-01-28T14:35:18Z</time>
      </trkpt>
      <trkpt lat="45.41636" lon="6.6093">
        <ele>1894.62</ele>
        <time>2014-01-28T14:35:20Z</time>
      </trkpt>
      <trkpt lat="45.41655" lon="6.60912">
        <ele>1886.73</ele>
        <time>2014-01-28T14:35:22Z</time>
      </trkpt>
      <trkpt lat="45.4167" lon="6.60892">
        <ele>1880.29</ele>
        <time>2014-01-28T14:35:24Z</time>
      </trkpt>
      <trkpt lat="45.41667" lon="6.60866">
        <ele>1877.49</ele>
        <time>2014-01-28T14:35:26Z</time>
      </trkpt>
      <trkpt lat="45.41658" lon="6.6084">
        <ele>1875.65</ele>
        <time>2014-01-28T14:35:28Z</time>
      </trkpt>
      <trkpt lat="45.41651" lon="6.60813">
        <ele>1874.23</ele>
        <time>2014-01-28T14:35:30Z</time>
      </trkpt>
      <trkpt lat="45.41643" lon="6.6079">
        <ele>1872.88</ele>
        <time>2014-01-28T14:35:32Z</time>
      </trkpt>
      <trkpt lat="45.41631" lon="6.60758">
        <ele>1871.99</ele>
        <time>2014-01-28T14:35:35Z</time>
      </trkpt>
      <trkpt lat="45.4162" lon="6.6073">
        <ele>1870.99</ele>
        <time>2014-01-28T14:35:39Z</time>
      </trkpt>
      <trkpt lat="45.41606" lon="6.60712">
        <ele>1871.06</ele>
        <time>2014-01-28T14:35:59Z</time>
      </trkpt>
      <trkpt lat="45.41589" lon="6.60702">
        <ele>1872.64</ele>
        <time>2014-01-28T14:36:22Z</time>
      </trkpt>
      <trkpt lat="45.41572" lon="6.60696">
        <ele>1875.27</ele>
        <time>2014-01-28T14:36:27Z</time>
      </trkpt>
      <trkpt lat="45.41554" lon="6.60687">
        <ele>1878.53</ele>
        <time>2014-01-28T14:36:32Z</time>
      </trkpt>
      <trkpt lat="45.41534" lon="6.60681">
        <ele>1885.91</ele>
        <time>2014-01-28T14:36:39Z</time>
      </trkpt>
      <trkpt lat="45.41515" lon="6.60673">
        <ele>1896.87</ele>
        <time>2014-01-28T14:36:45Z</time>
      </trkpt>
      <trkpt lat="45.41495" lon="6.60663">
        <ele>1910.98</ele>
        <time>2014-01-28T14:36:51Z</time>
      </trkpt>
      <trkpt lat="45.41477" lon="6.60654">
        <ele>1925.02</ele>
        <time>2014-01-28T14:36:58Z</time>
      </trkpt>
      <trkpt lat="45.41458" lon="6.60644">
        <ele>1937.57</ele>
        <time>2014-01-28T14:37:06Z</time>
      </trkpt>
      <trkpt lat="45.41439" lon="6.60634">
        <ele>1948.49</ele>
        <time>2014-01-28T14:37:12Z</time>
      </trkpt>
      <trkpt lat="45.41421" lon="6.60626">
        <ele>1955.36</ele>
        <time>2014-01-28T14:37:18Z</time>
      </trkpt>
      <trkpt lat="45.41402" lon="6.60617">
        <ele>1959.94</ele>
        <time>2014-01-28T14:37:25Z</time>
      </trkpt>
      <trkpt lat="45.41383" lon="6.60606">
        <ele>1964.09</ele>
        <time>2014-01-28T14:37:30Z</time>
      </trkpt>
      <trkpt lat="45.41364" lon="6.60594">
        <ele>1967.85</ele>
        <time>2014-01-28T14:37:36Z</time>
      </trkpt>
      <trkpt lat="45.41344" lon="6.60583">
        <ele>1973.68</ele>
        <time>2014-01-28T14:37:42Z</time>
      </trkpt>
      <trkpt lat="45.41325" lon="6.60573">
        <ele>1979.68</ele>
        <time>2014-01-28T14:37:49Z</time>
      </trkpt>
      <trkpt lat="45.41306" lon="6.60566">
        <ele>1986.82</ele>
        <time>2014-01-28T14:39:03Z</time>
      </trkpt>
      <trkpt lat="45.41287" lon="6.60557">
        <ele>1998.29</ele>
        <time>2014-01-28T14:39:13Z</time>
      </trkpt>
      <trkpt lat="45.41268" lon="6.60548">
        <ele>2011.1</ele>
        <time>2014-01-28T14:39:20Z</time>
      </trkpt>
      <trkpt lat="45.4125" lon="6.6054">
        <ele>2024.63</ele>
        <time>2014-01-28T14:39:27Z</time>
      </trkpt>
      <trkpt lat="45.41233" lon="6.60532">
        <ele>2035.82</ele>
        <time>2014-01-28T14:39:34Z</time>
      </trkpt>
      <trkpt lat="45.41214" lon="6.60524">
        <ele>2050.5</ele>
        <time>2014-01-28T14:39:40Z</time>
      </trkpt>
      <trkpt lat="45.41197" lon="6.60515">
        <ele>2070.14</ele>
        <time>2014-01-28T14:39:47Z</time>
      </trkpt>
      <trkpt lat="45.41178" lon="6.60504">
        <ele>2090</ele>
        <time>2014-01-28T14:39:55Z</time>
      </trkpt>
      <trkpt lat="45.41158" lon="6.60496">
        <ele>2107.64</ele>
        <time>2014-01-28T14:40:02Z</time>
      </trkpt>
      <trkpt lat="45.41139" lon="6.60486">
        <ele>2122.04</ele>
        <time>2014-01-28T14:40:10Z</time>
      </trkpt>
      <trkpt lat="45.41122" lon="6.60477">
        <ele>2136.92</ele>
        <time>2014-01-28T14:40:16Z</time>
      </trkpt>
      <trkpt lat="45.41104" lon="6.60468">
        <ele>2149.29</ele>
        <time>2014-01-28T14:40:22Z</time>
      </trkpt>
      <trkpt lat="45.41085" lon="6.60458">
        <ele>2157.79</ele>
        <time>2014-01-28T14:40:30Z</time>
      </trkpt>
      <trkpt lat="45.41066" lon="6.60446">
        <ele>2168.21</ele>
        <time>2014-01-28T14:40:37Z</time>
      </trkpt>
      <trkpt lat="45.41049" lon="6.60436">
        <ele>2179.11</ele>
        <time>2014-01-28T14:40:44Z</time>
      </trkpt>
      <trkpt lat="45.4103" lon="6.60424">
        <ele>2190.91</ele>
        <time>2014-01-28T14:40:50Z</time>
      </trkpt>
      <trkpt lat="45.41012" lon="6.60411">
        <ele>2205.66</ele>
        <time>2014-01-28T14:40:57Z</time>
      </trkpt>
      <trkpt lat="45.40993" lon="6.60404">
        <ele>2218.37</ele>
        <time>2014-01-28T14:41:04Z</time>
      </trkpt>
      <trkpt lat="45.40973" lon="6.60395">
        <ele>2226.81</ele>
        <time>2014-01-28T14:41:11Z</time>
      </trkpt>
      <trkpt lat="45.40954" lon="6.60385">
        <ele>2234.22</ele>
        <time>2014-01-28T14:41:18Z</time>
      </trkpt>
      <trkpt lat="45.40935" lon="6.60374">
        <ele>2242.56</ele>
        <time>2014-01-28T14:41:24Z</time>
      </trkpt>
      <trkpt lat="45.40918" lon="6.60362">
        <ele>2252.27</ele>
        <time>2014-01-28T14:41:30Z</time>
      </trkpt>
      <trkpt lat="45.40901" lon="6.6035">
        <ele>2260.4</ele>
        <time>2014-01-28T14:41:36Z</time>
      </trkpt>
      <trkpt lat="45.40882" lon="6.60344">
        <ele>2266.49</ele>
        <time>2014-01-28T14:41:42Z</time>
      </trkpt>
      <trkpt lat="45.40865" lon="6.60338">
        <ele>2273.49</ele>
        <time>2014-01-28T14:41:48Z</time>
      </trkpt>
      <trkpt lat="45.40845" lon="6.60331">
        <ele>2283.86</ele>
        <time>2014-01-28T14:41:55Z</time>
      </trkpt>
      <trkpt lat="45.40827" lon="6.60323">
        <ele>2291.15</ele>
        <time>2014-01-28T14:42:01Z</time>
      </trkpt>
      <trkpt lat="45.40809" lon="6.60315">
        <ele>2297.21</ele>
        <time>2014-01-28T14:42:07Z</time>
      </trkpt>
      <trkpt lat="45.40789" lon="6.60304">
        <ele>2300</ele>
        <time>2014-01-28T14:42:13Z</time>
      </trkpt>
      <trkpt lat="45.40772" lon="6.60295">
        <ele>2300</ele>
        <time>2014-01-28T14:42:19Z</time>
      </trkpt>
      <trkpt lat="45.40757" lon="6.6028">
        <ele>2300</ele>
        <time>2014-01-28T14:42:25Z</time>
      </trkpt>
      <trkpt lat="45.40742" lon="6.60264">
        <ele>2299.85</ele>
        <time>2014-01-28T14:42:45Z</time>
      </trkpt>
      <trkpt lat="45.40725" lon="6.60253">
        <ele>2299.9</ele>
        <time>2014-01-28T14:43:09Z</time>
      </trkpt>
      <trkpt lat="45.40709" lon="6.60239">
        <ele>2297.61</ele>
        <time>2014-01-28T14:43:24Z</time>
      </trkpt>
      <trkpt lat="45.40691" lon="6.6023">
        <ele>2294.85</ele>
        <time>2014-01-28T14:43:36Z</time>
      </trkpt>
      <trkpt lat="45.40672" lon="6.60222">
        <ele>2291.18</ele>
        <time>2014-01-28T14:43:41Z</time>
      </trkpt>
      <trkpt lat="45.40651" lon="6.60214">
        <ele>2290</ele>
        <time>2014-01-28T14:43:45Z</time>
      </trkpt>
      <trkpt lat="45.40629" lon="6.60202">
        <ele>2290</ele>
        <time>2014-01-28T14:43:49Z</time>
      </trkpt>
      <trkpt lat="45.4061" lon="6.60186">
        <ele>2288.24</ele>
        <time>2014-01-28T14:43:53Z</time>
      </trkpt>
      <trkpt lat="45.40619" lon="6.60163">
        <ele>2283.99</ele>
        <time>2014-01-28T14:43:57Z</time>
      </trkpt>
      <trkpt lat="45.40636" lon="6.60145">
        <ele>2278.77</ele>
        <time>2014-01-28T14:44:02Z</time>
      </trkpt>
      <trkpt lat="45.40653" lon="6.60132">
        <ele>2272.8</ele>
        <time>2014-01-28T14:44:05Z</time>
      </trkpt>
      <trkpt lat="45.40671" lon="6.60121">
        <ele>2266.4</ele>
        <time>2014-01-28T14:44:08Z</time>
      </trkpt>
      <trkpt lat="45.40685" lon="6.601">
        <ele>2257.3</ele>
        <time>2014-01-28T14:44:11Z</time>
      </trkpt>
      <trkpt lat="45.40705" lon="6.60075">
        <ele>2248.42</ele>
        <time>2014-01-28T14:44:14Z</time>
      </trkpt>
      <trkpt lat="45.40721" lon="6.60048">
        <ele>2243.15</ele>
        <time>2014-01-28T14:44:17Z</time>
      </trkpt>
      <trkpt lat="45.40738" lon="6.60024">
        <ele>2236.69</ele>
        <time>2014-01-28T14:44:20Z</time>
      </trkpt>
      <trkpt lat="45.40759" lon="6.60007">
        <ele>2232.3</ele>
        <time>2014-01-28T14:44:23Z</time>
      </trkpt>
      <trkpt lat="45.40777" lon="6.59992">
        <ele>2227.77</ele>
        <time>2014-01-28T14:44:25Z</time>
      </trkpt>
      <trkpt lat="45.40791" lon="6.59976">
        <ele>2223.48</ele>
        <time>2014-01-28T14:44:27Z</time>
      </trkpt>
      <trkpt lat="45.4081" lon="6.59957">
        <ele>2218.82</ele>
        <time>2014-01-28T14:44:30Z</time>
      </trkpt>
      <trkpt lat="45.40822" lon="6.59934">
        <ele>2211.57</ele>
        <time>2014-01-28T14:44:33Z</time>
      </trkpt>
      <trkpt lat="45.40837" lon="6.59918">
        <ele>2207.81</ele>
        <time>2014-01-28T14:44:36Z</time>
      </trkpt>
      <trkpt lat="45.4084" lon="6.59893">
        <ele>2203.85</ele>
        <time>2014-01-28T14:44:40Z</time>
      </trkpt>
      <trkpt lat="45.40857" lon="6.5988">
        <ele>2201.41</ele>
        <time>2014-01-28T14:44:43Z</time>
      </trkpt>
      <trkpt lat="45.4087" lon="6.59859">
        <ele>2195.1</ele>
        <time>2014-01-28T14:44:46Z</time>
      </trkpt>
      <trkpt lat="45.40893" lon="6.59843">
        <ele>2189.04</ele>
        <time>2014-01-28T14:44:49Z</time>
      </trkpt>
      <trkpt lat="45.40909" lon="6.59828">
        <ele>2181.74</ele>
        <time>2014-01-28T14:44:51Z</time>
      </trkpt>
      <trkpt lat="45.40927" lon="6.59822">
        <ele>2178.62</ele>
        <time>2014-01-28T14:44:53Z</time>
      </trkpt>
      <trkpt lat="45.4095" lon="6.59812">
        <ele>2175.35</ele>
        <time>2014-01-28T14:44:56Z</time>
      </trkpt>
      <trkpt lat="45.40971" lon="6.5981">
        <ele>2175.07</ele>
        <time>2014-01-28T14:44:59Z</time>
      </trkpt>
      <trkpt lat="45.4099" lon="6.59808">
        <ele>2174.04</ele>
        <time>2014-01-28T14:45:02Z</time>
      </trkpt>
      <trkpt lat="45.41009" lon="6.598">
        <ele>2168.33</ele>
        <time>2014-01-28T14:45:05Z</time>
      </trkpt>
      <trkpt lat="45.41026" lon="6.59806">
        <ele>2165.65</ele>
        <time>2014-01-28T14:45:08Z</time>
      </trkpt>
      <trkpt lat="45.41036" lon="6.59784">
        <ele>2155.71</ele>
        <time>2014-01-28T14:45:11Z</time>
      </trkpt>
      <trkpt lat="45.41056" lon="6.59775">
        <ele>2148.57</ele>
        <time>2014-01-28T14:45:16Z</time>
      </trkpt>
      <trkpt lat="45.41076" lon="6.5976">
        <ele>2140.23</ele>
        <time>2014-01-28T14:45:23Z</time>
      </trkpt>
      <trkpt lat="45.41085" lon="6.59732">
        <ele>2126.88</ele>
        <time>2014-01-28T14:45:27Z</time>
      </trkpt>
      <trkpt lat="45.41105" lon="6.59714">
        <ele>2118.07</ele>
        <time>2014-01-28T14:45:31Z</time>
      </trkpt>
      <trkpt lat="45.41101" lon="6.59686">
        <ele>2104.6</ele>
        <time>2014-01-28T14:45:35Z</time>
      </trkpt>
      <trkpt lat="45.41087" lon="6.59663">
        <ele>2095.19</ele>
        <time>2014-01-28T14:45:39Z</time>
      </trkpt>
      <trkpt lat="45.41064" lon="6.5966">
        <ele>2092.78</ele>
        <time>2014-01-28T14:45:42Z</time>
      </trkpt>
      <trkpt lat="45.41055" lon="6.59636">
        <ele>2081.86</ele>
        <time>2014-01-28T14:45:45Z</time>
      </trkpt>
      <trkpt lat="45.41036" lon="6.59636">
        <ele>2083.82</ele>
        <time>2014-01-28T14:45:48Z</time>
      </trkpt>
      <trkpt lat="45.41014" lon="6.59623">
        <ele>2081.55</ele>
        <time>2014-01-28T14:45:51Z</time>
      </trkpt>
      <trkpt lat="45.40994" lon="6.59611">
        <ele>2078.78</ele>
        <time>2014-01-28T14:45:54Z</time>
      </trkpt>
      <trkpt lat="45.40974" lon="6.59593">
        <ele>2073.84</ele>
        <time>2014-01-28T14:45:57Z</time>
      </trkpt>
      <trkpt lat="45.40955" lon="6.5958">
        <ele>2068.93</ele>
        <time>2014-01-28T14:46:00Z</time>
      </trkpt>
      <trkpt lat="45.40935" lon="6.59566">
        <ele>2062.57</ele>
        <time>2014-01-28T14:46:03Z</time>
      </trkpt>
      <trkpt lat="45.40915" lon="6.59554">
        <ele>2057.4</ele>
        <time>2014-01-28T14:46:06Z</time>
      </trkpt>
      <trkpt lat="45.40894" lon="6.59549">
        <ele>2053.42</ele>
        <time>2014-01-28T14:46:09Z</time>
      </trkpt>
      <trkpt lat="45.40874" lon="6.59541">
        <ele>2047.81</ele>
        <time>2014-01-28T14:46:12Z</time>
      </trkpt>
      <trkpt lat="45.40868" lon="6.59515">
        <ele>2037.71</ele>
        <time>2014-01-28T14:46:17Z</time>
      </trkpt>
      <trkpt lat="45.40882" lon="6.59488">
        <ele>2033.64</ele>
        <time>2014-01-28T14:46:21Z</time>
      </trkpt>
      <trkpt lat="45.4087" lon="6.59468">
        <ele>2025.41</ele>
        <time>2014-01-28T14:46:24Z</time>
      </trkpt>
      <trkpt lat="45.40855" lon="6.59447">
        <ele>2015.85</ele>
        <time>2014-01-28T14:46:28Z</time>
      </trkpt>
      <trkpt lat="45.40832" lon="6.5945">
        <ele>2010.61</ele>
        <time>2014-01-28T14:46:32Z</time>
      </trkpt>
      <trkpt lat="45.40813" lon="6.59436">
        <ele>2000</ele>
        <time>2014-01-28T14:46:35Z</time>
      </trkpt>
      <trkpt lat="45.40796" lon="6.59453">
        <ele>1999.91</ele>
        <time>2014-01-28T14:46:38Z</time>
      </trkpt>
      <trkpt lat="45.40774" lon="6.5944">
        <ele>1987.67</ele>
        <time>2014-01-28T14:46:42Z</time>
      </trkpt>
      <trkpt lat="45.40757" lon="6.59453">
        <ele>1986.19</ele>
        <time>2014-01-28T14:46:45Z</time>
      </trkpt>
      <trkpt lat="45.40739" lon="6.59466">
        <ele>1988.58</ele>
        <time>2014-01-28T14:46:47Z</time>
      </trkpt>
      <trkpt lat="45.40717" lon="6.5947">
        <ele>1992.42</ele>
        <time>2014-01-28T14:46:51Z</time>
      </trkpt>
      <trkpt lat="45.40708" lon="6.59441">
        <ele>1980.58</ele>
        <time>2014-01-28T14:46:55Z</time>
      </trkpt>
      <trkpt lat="45.40709" lon="6.59412">
        <ele>1966.41</ele>
        <time>2014-01-28T14:46:59Z</time>
      </trkpt>
      <trkpt lat="45.40689" lon="6.59413">
        <ele>1967.57</ele>
        <time>2014-01-28T14:47:02Z</time>
      </trkpt>
      <trkpt lat="45.40671" lon="6.59393">
        <ele>1959.76</ele>
        <time>2014-01-28T14:47:05Z</time>
      </trkpt>
      <trkpt lat="45.40653" lon="6.59373">
        <ele>1950.3</ele>
        <time>2014-01-28T14:47:08Z</time>
      </trkpt>
      <trkpt lat="45.40633" lon="6.59367">
        <ele>1947</ele>
        <time>2014-01-28T14:47:10Z</time>
      </trkpt>
      <trkpt lat="45.40615" lon="6.59352">
        <ele>1939.39</ele>
        <time>2014-01-28T14:47:12Z</time>
      </trkpt>
      <trkpt lat="45.40595" lon="6.59328">
        <ele>1933.53</ele>
        <time>2014-01-28T14:47:14Z</time>
      </trkpt>
      <trkpt lat="45.40575" lon="6.59321">
        <ele>1933.21</ele>
        <time>2014-01-28T14:47:16Z</time>
      </trkpt>
      <trkpt lat="45.40552" lon="6.59311">
        <ele>1934.56</ele>
        <time>2014-01-28T14:47:19Z</time>
      </trkpt>
      <trkpt lat="45.40532" lon="6.59297">
        <ele>1932.49</ele>
        <time>2014-01-28T14:47:23Z</time>
      </trkpt>
      <trkpt lat="45.40517" lon="6.59278">
        <ele>1928.28</ele>
        <time>2014-01-28T14:47:27Z</time>
      </trkpt>
      <trkpt lat="45.40499" lon="6.59257">
        <ele>1923.1</ele>
        <time>2014-01-28T14:47:31Z</time>
      </trkpt>
      <trkpt lat="45.40481" lon="6.59245">
        <ele>1917.19</ele>
        <time>2014-01-28T14:47:34Z</time>
      </trkpt>
      <trkpt lat="45.40461" lon="6.59232">
        <ele>1911.01</ele>
        <time>2014-01-28T14:47:37Z</time>
      </trkpt>
      <trkpt lat="45.40436" lon="6.59226">
        <ele>1906.63</ele>
        <time>2014-01-28T14:47:40Z</time>
      </trkpt>
      <trkpt lat="45.40417" lon="6.59213">
        <ele>1902.75</ele>
        <time>2014-01-28T14:47:42Z</time>
      </trkpt>
      <trkpt lat="45.40401" lon="6.59193">
        <ele>1898</ele>
        <time>2014-01-28T14:47:44Z</time>
      </trkpt>
      <trkpt lat="45.40377" lon="6.59187">
        <ele>1893.67</ele>
        <time>2014-01-28T14:47:47Z</time>
      </trkpt>
      <trkpt lat="45.40361" lon="6.59173">
        <ele>1888.27</ele>
        <time>2014-01-28T14:47:50Z</time>
      </trkpt>
      <trkpt lat="45.40339" lon="6.59156">
        <ele>1885.9</ele>
        <time>2014-01-28T14:47:54Z</time>
      </trkpt>
      <trkpt lat="45.40323" lon="6.59137">
        <ele>1882.46</ele>
        <time>2014-01-28T14:47:58Z</time>
      </trkpt>
      <trkpt lat="45.40322" lon="6.59106">
        <ele>1876.81</ele>
        <time>2014-01-28T14:48:00Z</time>
      </trkpt>
      <trkpt lat="45.40311" lon="6.59079">
        <ele>1872.43</ele>
        <time>2014-01-28T14:48:02Z</time>
      </trkpt>
      <trkpt lat="45.40299" lon="6.59056">
        <ele>1867.42</ele>
        <time>2014-01-28T14:48:04Z</time>
      </trkpt>
      <trkpt lat="45.40305" lon="6.59029">
        <ele>1861.3</ele>
        <time>2014-01-28T14:48:06Z</time>
      </trkpt>
      <trkpt lat="45.403" lon="6.58999">
        <ele>1851.09</ele>
        <time>2014-01-28T14:48:09Z</time>
      </trkpt>
      <trkpt lat="45.4028" lon="6.58977">
        <ele>1843.6</ele>
        <time>2014-01-28T14:48:12Z</time>
      </trkpt>
      <trkpt lat="45.40271" lon="6.58942">
        <ele>1834.44</ele>
        <time>2014-01-28T14:48:15Z</time>
      </trkpt>
      <trkpt lat="45.4026" lon="6.58913">
        <ele>1829.24</ele>
        <time>2014-01-28T14:48:17Z</time>
      </trkpt>
      <trkpt lat="45.40252" lon="6.58881">
        <ele>1824.72</ele>
        <time>2014-01-28T14:48:19Z</time>
      </trkpt>
      <trkpt lat="45.40245" lon="6.58849">
        <ele>1820.12</ele>
        <time>2014-01-28T14:48:21Z</time>
      </trkpt>
      <trkpt lat="45.40239" lon="6.58821">
        <ele>1818.54</ele>
        <time>2014-01-28T14:48:23Z</time>
      </trkpt>
      <trkpt lat="45.40233" lon="6.58793">
        <ele>1817.56</ele>
        <time>2014-01-28T14:48:25Z</time>
      </trkpt>
      <trkpt lat="45.40228" lon="6.58767">
        <ele>1816.62</ele>
        <time>2014-01-28T14:48:27Z</time>
      </trkpt>
      <trkpt lat="45.40222" lon="6.58732">
        <ele>1815.37</ele>
        <time>2014-01-28T14:48:30Z</time>
      </trkpt>
      <trkpt lat="45.40218" lon="6.58706">
        <ele>1815.01</ele>
        <time>2014-01-28T14:48:33Z</time>
      </trkpt>
      <trkpt lat="45.40215" lon="6.58679">
        <ele>1814.37</ele>
        <time>2014-01-28T14:48:38Z</time>
      </trkpt>
      <trkpt lat="45.40208" lon="6.58654">
        <ele>1813.81</ele>
        <time>2014-01-28T14:48:46Z</time>
      </trkpt>
      <trkpt lat="45.40201" lon="6.58628">
        <ele>1812.89</ele>
        <time>2014-01-28T14:48:51Z</time>
      </trkpt>
      <trkpt lat="45.40195" lon="6.58603">
        <ele>1811.4</ele>
        <time>2014-01-28T14:48:56Z</time>
      </trkpt>
      <trkpt lat="45.4019" lon="6.58576">
        <ele>1810.44</ele>
        <time>2014-01-28T14:49:03Z</time>
      </trkpt>
      <trkpt lat="45.40189" lon="6.58544">
        <ele>1809.62</ele>
        <time>2014-01-28T14:49:08Z</time>
      </trkpt>
      <trkpt lat="45.40195" lon="6.58515">
        <ele>1807.51</ele>
        <time>2014-01-28T14:49:12Z</time>
      </trkpt>
      <trkpt lat="45.40201" lon="6.58488">
        <ele>1805.8</ele>
        <time>2014-01-28T14:49:15Z</time>
      </trkpt>
      <trkpt lat="45.40214" lon="6.58462">
        <ele>1803.68</ele>
        <time>2014-01-28T14:49:18Z</time>
      </trkpt>
      <trkpt lat="45.4023" lon="6.58448">
        <ele>1801.41</ele>
        <time>2014-01-28T14:49:20Z</time>
      </trkpt>
      <trkpt lat="45.40247" lon="6.58439">
        <ele>1799.29</ele>
        <time>2014-01-28T14:49:22Z</time>
      </trkpt>
      <trkpt lat="45.40266" lon="6.58422">
        <ele>1796.77</ele>
        <time>2014-01-28T14:49:25Z</time>
      </trkpt>
      <trkpt lat="45.40289" lon="6.58407">
        <ele>1793.24</ele>
        <time>2014-01-28T14:49:28Z</time>
      </trkpt>
      <trkpt lat="45.40312" lon="6.58394">
        <ele>1789.65</ele>
        <time>2014-01-28T14:49:31Z</time>
      </trkpt>
      <trkpt lat="45.40329" lon="6.58373">
        <ele>1786.3</ele>
        <time>2014-01-28T14:49:34Z</time>
      </trkpt>
      <trkpt lat="45.4035" lon="6.58362">
        <ele>1783.84</ele>
        <time>2014-01-28T14:49:37Z</time>
      </trkpt>
      <trkpt lat="45.40374" lon="6.58349">
        <ele>1779.89</ele>
        <time>2014-01-28T14:49:40Z</time>
      </trkpt>
      <trkpt lat="45.40391" lon="6.58338">
        <ele>1776.08</ele>
        <time>2014-01-28T14:49:42Z</time>
      </trkpt>
      <trkpt lat="45.40407" lon="6.58326">
        <ele>1773.57</ele>
        <time>2014-01-28T14:49:44Z</time>
      </trkpt>
      <trkpt lat="45.40426" lon="6.58298">
        <ele>1769.23</ele>
        <time>2014-01-28T14:49:47Z</time>
      </trkpt>
      <trkpt lat="45.4044" lon="6.58272">
        <ele>1765.46</ele>
        <time>2014-01-28T14:49:49Z</time>
      </trkpt>
      <trkpt lat="45.40449" lon="6.58247">
        <ele>1762.3</ele>
        <time>2014-01-28T14:49:51Z</time>
      </trkpt>
      <trkpt lat="45.40458" lon="6.58224">
        <ele>1759.66</ele>
        <time>2014-01-28T14:49:53Z</time>
      </trkpt>
      <trkpt lat="45.40469" lon="6.58198">
        <ele>1756.62</ele>
        <time>2014-01-28T14:49:55Z</time>
      </trkpt>
      <trkpt lat="45.40477" lon="6.58169">
        <ele>1753.68</ele>
        <time>2014-01-28T14:49:57Z</time>
      </trkpt>
      <trkpt lat="45.4048" lon="6.58141">
        <ele>1750.65</ele>
        <time>2014-01-28T14:49:59Z</time>
      </trkpt>
      <trkpt lat="45.40488" lon="6.58106">
        <ele>1746.83</ele>
        <time>2014-01-28T14:50:02Z</time>
      </trkpt>
      <trkpt lat="45.40493" lon="6.5807">
        <ele>1742.28</ele>
        <time>2014-01-28T14:50:05Z</time>
      </trkpt>
      <trkpt lat="45.40496" lon="6.5804">
        <ele>1738.8</ele>
        <time>2014-01-28T14:50:07Z</time>
      </trkpt>
      <trkpt lat="45.40504" lon="6.5801">
        <ele>1734.09</ele>
        <time>2014-01-28T14:50:09Z</time>
      </trkpt>
      <trkpt lat="45.40508" lon="6.57977">
        <ele>1729.36</ele>
        <time>2014-01-28T14:50:11Z</time>
      </trkpt>
      <trkpt lat="45.40509" lon="6.57946">
        <ele>1725.87</ele>
        <time>2014-01-28T14:50:13Z</time>
      </trkpt>
      <trkpt lat="45.40515" lon="6.57918">
        <ele>1723.07</ele>
        <time>2014-01-28T14:50:15Z</time>
      </trkpt>
      <trkpt lat="45.4052" lon="6.57884">
        <ele>1719.47</ele>
        <time>2014-01-28T14:50:18Z</time>
      </trkpt>
      <trkpt lat="45.40513" lon="6.57854">
        <ele>1719</ele>
        <time>2014-01-28T14:50:21Z</time>
      </trkpt>
      <trkpt lat="45.40498" lon="6.57834">
        <ele>1719</ele>
        <time>2014-01-28T14:50:24Z</time>
      </trkpt>
      <trkpt lat="45.40479" lon="6.5782">
        <ele>1719.37</ele>
        <time>2014-01-28T14:50:28Z</time>
      </trkpt>
      <trkpt lat="45.40463" lon="6.57807">
        <ele>1719.95</ele>
        <time>2014-01-28T14:50:35Z</time>
      </trkpt>
      <trkpt lat="45.40446" lon="6.57797">
        <ele>1719.98</ele>
        <time>2014-01-28T14:50:46Z</time>
      </trkpt>
      <trkpt lat="45.40429" lon="6.57787">
        <ele>1721.26</ele>
        <time>2014-01-28T14:50:55Z</time>
      </trkpt>
      <trkpt lat="45.40412" lon="6.57775">
        <ele>1722.25</ele>
        <time>2014-01-28T14:51:10Z</time>
      </trkpt>
      <trkpt lat="45.40395" lon="6.57762">
        <ele>1722.56</ele>
        <time>2014-01-28T14:51:21Z</time>
      </trkpt>
      <trkpt lat="45.40378" lon="6.57751">
        <ele>1725.29</ele>
        <time>2014-01-28T14:51:34Z</time>
      </trkpt>
      <trkpt lat="45.4036" lon="6.57739">
        <ele>1728.54</ele>
        <time>2014-01-28T14:51:47Z</time>
      </trkpt>
      <trkpt lat="45.40345" lon="6.57724">
        <ele>1728</ele>
        <time>2014-01-28T14:51:58Z</time>
      </trkpt>
      <trkpt lat="45.40333" lon="6.57703">
        <ele>1725.57</ele>
        <time>2014-01-28T14:52:05Z</time>
      </trkpt>
      <trkpt lat="45.40317" lon="6.57686">
        <ele>1723.91</ele>
        <time>2014-01-28T14:52:11Z</time>
      </trkpt>
      <trkpt lat="45.403" lon="6.57671">
        <ele>1722.86</ele>
        <time>2014-01-28T14:52:16Z</time>
      </trkpt>
      <trkpt lat="45.40282" lon="6.57661">
        <ele>1721.78</ele>
        <time>2014-01-28T14:52:22Z</time>
      </trkpt>
      <trkpt lat="45.40264" lon="6.57649">
        <ele>1719.96</ele>
        <time>2014-01-28T14:52:29Z</time>
      </trkpt>
      <trkpt lat="45.40245" lon="6.57638">
        <ele>1718.08</ele>
        <time>2014-01-28T14:52:36Z</time>
      </trkpt>
      <trkpt lat="45.40227" lon="6.57629">
        <ele>1717.37</ele>
        <time>2014-01-28T14:52:42Z</time>
      </trkpt>
      <trkpt lat="45.40208" lon="6.57626">
        <ele>1719.04</ele>
        <time>2014-01-28T14:52:47Z</time>
      </trkpt>
      <trkpt lat="45.40189" lon="6.5762">
        <ele>1719.92</ele>
        <time>2014-01-28T14:52:52Z</time>
      </trkpt>
      <trkpt lat="45.40173" lon="6.57606">
        <ele>1718.43</ele>
        <time>2014-01-28T14:52:57Z</time>
      </trkpt>
      <trkpt lat="45.40155" lon="6.57593">
        <ele>1716.58</ele>
        <time>2014-01-28T14:53:02Z</time>
      </trkpt>
      <trkpt lat="45.40133" lon="6.57585">
        <ele>1714.89</ele>
        <time>2014-01-28T14:53:07Z</time>
      </trkpt>
      <trkpt lat="45.40115" lon="6.57579">
        <ele>1712.11</ele>
        <time>2014-01-28T14:53:11Z</time>
      </trkpt>
      <trkpt lat="45.40096" lon="6.57576">
        <ele>1709.57</ele>
        <time>2014-01-28T14:53:15Z</time>
      </trkpt>
      <trkpt lat="45.40077" lon="6.57576">
        <ele>1706.94</ele>
        <time>2014-01-28T14:53:19Z</time>
      </trkpt>
      <trkpt lat="45.40058" lon="6.57578">
        <ele>1704.08</ele>
        <time>2014-01-28T14:53:23Z</time>
      </trkpt>
      <trkpt lat="45.4004" lon="6.57582">
        <ele>1701.76</ele>
        <time>2014-01-28T14:53:27Z</time>
      </trkpt>
      <trkpt lat="45.40019" lon="6.57592">
        <ele>1699.56</ele>
        <time>2014-01-28T14:53:32Z</time>
      </trkpt>
      <trkpt lat="45.39996" lon="6.576">
        <ele>1695.78</ele>
        <time>2014-01-28T14:53:36Z</time>
      </trkpt>
      <trkpt lat="45.39975" lon="6.5761">
        <ele>1693.35</ele>
        <time>2014-01-28T14:53:40Z</time>
      </trkpt>
      <trkpt lat="45.39955" lon="6.5762">
        <ele>1695.35</ele>
        <time>2014-01-28T14:53:43Z</time>
      </trkpt>
      <trkpt lat="45.39933" lon="6.57623">
        <ele>1692.26</ele>
        <time>2014-01-28T14:53:46Z</time>
      </trkpt>
      <trkpt lat="45.39908" lon="6.57626">
        <ele>1684.5</ele>
        <time>2014-01-28T14:53:49Z</time>
      </trkpt>
      <trkpt lat="45.39884" lon="6.57636">
        <ele>1680.14</ele>
        <time>2014-01-28T14:53:52Z</time>
      </trkpt>
      <trkpt lat="45.39866" lon="6.57648">
        <ele>1677.89</ele>
        <time>2014-01-28T14:53:55Z</time>
      </trkpt>
      <trkpt lat="45.39849" lon="6.57663">
        <ele>1678.6</ele>
        <time>2014-01-28T14:53:58Z</time>
      </trkpt>
      <trkpt lat="45.39831" lon="6.5768">
        <ele>1681.48</ele>
        <time>2014-01-28T14:54:02Z</time>
      </trkpt>
      <trkpt lat="45.39811" lon="6.57695">
        <ele>1685.74</ele>
        <time>2014-01-28T14:54:06Z</time>
      </trkpt>
      <trkpt lat="45.3979" lon="6.57702">
        <ele>1690.09</ele>
        <time>2014-01-28T14:54:10Z</time>
      </trkpt>
      <trkpt lat="45.39768" lon="6.57703">
        <ele>1691.56</ele>
        <time>2014-01-28T14:54:14Z</time>
      </trkpt>
      <trkpt lat="45.39746" lon="6.57698">
        <ele>1689.42</ele>
        <time>2014-01-28T14:54:19Z</time>
      </trkpt>
      <trkpt lat="45.39728" lon="6.5769">
        <ele>1686.2</ele>
        <time>2014-01-28T14:54:23Z</time>
      </trkpt>
      <trkpt lat="45.39711" lon="6.57682">
        <ele>1682.48</ele>
        <time>2014-01-28T14:54:26Z</time>
      </trkpt>
      <trkpt lat="45.39692" lon="6.57677">
        <ele>1679.32</ele>
        <time>2014-01-28T14:54:29Z</time>
      </trkpt>
      <trkpt lat="45.39672" lon="6.57675">
        <ele>1675.09</ele>
        <time>2014-01-28T14:54:32Z</time>
      </trkpt>
      <trkpt lat="45.39652" lon="6.57675">
        <ele>1674.57</ele>
        <time>2014-01-28T14:54:35Z</time>
      </trkpt>
      <trkpt lat="45.39629" lon="6.57679">
        <ele>1677.06</ele>
        <time>2014-01-28T14:54:38Z</time>
      </trkpt>
      <trkpt lat="45.3961" lon="6.57678">
        <ele>1678.51</ele>
        <time>2014-01-28T14:54:41Z</time>
      </trkpt>
      <trkpt lat="45.39593" lon="6.57666">
        <ele>1678.5</ele>
        <time>2014-01-28T14:54:44Z</time>
      </trkpt>
      <trkpt lat="45.39577" lon="6.57648">
        <ele>1676.49</ele>
        <time>2014-01-28T14:54:47Z</time>
      </trkpt>
      <trkpt lat="45.39559" lon="6.57622">
        <ele>1672.38</ele>
        <time>2014-01-28T14:54:50Z</time>
      </trkpt>
      <trkpt lat="45.3955" lon="6.57587">
        <ele>1667.63</ele>
        <time>2014-01-28T14:54:53Z</time>
      </trkpt>
      <trkpt lat="45.39553" lon="6.57553">
        <ele>1663.66</ele>
        <time>2014-01-28T14:54:56Z</time>
      </trkpt>
      <trkpt lat="45.39567" lon="6.57522">
        <ele>1661.17</ele>
        <time>2014-01-28T14:54:59Z</time>
      </trkpt>
      <trkpt lat="45.39577" lon="6.57495">
        <ele>1660.27</ele>
        <time>2014-01-28T14:55:02Z</time>
      </trkpt>
      <trkpt lat="45.39587" lon="6.57469">
        <ele>1659.26</ele>
        <time>2014-01-28T14:55:05Z</time>
      </trkpt>
      <trkpt lat="45.39596" lon="6.57444">
        <ele>1657.74</ele>
        <time>2014-01-28T14:55:08Z</time>
      </trkpt>
      <trkpt lat="45.39604" lon="6.57421">
        <ele>1655.12</ele>
        <time>2014-01-28T14:55:11Z</time>
      </trkpt>
      <trkpt lat="45.39609" lon="6.57393">
        <ele>1651.82</ele>
        <time>2014-01-28T14:55:14Z</time>
      </trkpt>
      <trkpt lat="45.39618" lon="6.5737">
        <ele>1647.79</ele>
        <time>2014-01-28T14:55:17Z</time>
      </trkpt>
      <trkpt lat="45.39634" lon="6.57357">
        <ele>1641.95</ele>
        <time>2014-01-28T14:55:20Z</time>
      </trkpt>
      <trkpt lat="45.39644" lon="6.57336">
        <ele>1636.15</ele>
        <time>2014-01-28T14:55:24Z</time>
      </trkpt>
      <trkpt lat="45.39649" lon="6.5731">
        <ele>1629.97</ele>
        <time>2014-01-28T14:55:30Z</time>
      </trkpt>
      <trkpt lat="45.39634" lon="6.57291">
        <ele>1629.79</ele>
        <time>2014-01-28T14:55:33Z</time>
      </trkpt>
      <trkpt lat="45.39623" lon="6.5727">
        <ele>1627</ele>
        <time>2014-01-28T14:55:36Z</time>
      </trkpt>
      <trkpt lat="45.3964" lon="6.57243">
        <ele>1615.93</ele>
        <time>2014-01-28T14:55:41Z</time>
      </trkpt>
      <trkpt lat="45.39652" lon="6.57223">
        <ele>1607.82</ele>
        <time>2014-01-28T14:55:43Z</time>
      </trkpt>
      <trkpt lat="45.39673" lon="6.5721">
        <ele>1601.41</ele>
        <time>2014-01-28T14:55:46Z</time>
      </trkpt>
      <trkpt lat="45.39693" lon="6.57196">
        <ele>1595.39</ele>
        <time>2014-01-28T14:55:49Z</time>
      </trkpt>
      <trkpt lat="45.3969" lon="6.5717">
        <ele>1592.37</ele>
        <time>2014-01-28T14:55:52Z</time>
      </trkpt>
      <trkpt lat="45.39698" lon="6.57145">
        <ele>1589.68</ele>
        <time>2014-01-28T14:55:56Z</time>
      </trkpt>
      <trkpt lat="45.39702" lon="6.57115">
        <ele>1586.34</ele>
        <time>2014-01-28T14:56:00Z</time>
      </trkpt>
      <trkpt lat="45.39697" lon="6.57089">
        <ele>1583.46</ele>
        <time>2014-01-28T14:56:03Z</time>
      </trkpt>
      <trkpt lat="45.39687" lon="6.57065">
        <ele>1579.37</ele>
        <time>2014-01-28T14:56:06Z</time>
      </trkpt>
      <trkpt lat="45.3967" lon="6.5705">
        <ele>1574.57</ele>
        <time>2014-01-28T14:56:09Z</time>
      </trkpt>
      <trkpt lat="45.39652" lon="6.57039">
        <ele>1569.36</ele>
        <time>2014-01-28T14:56:12Z</time>
      </trkpt>
      <trkpt lat="45.39633" lon="6.57032">
        <ele>1564.08</ele>
        <time>2014-01-28T14:56:15Z</time>
      </trkpt>
      <trkpt lat="45.39614" lon="6.57026">
        <ele>1557.21</ele>
        <time>2014-01-28T14:56:18Z</time>
      </trkpt>
      <trkpt lat="45.39589" lon="6.57023">
        <ele>1552.03</ele>
        <time>2014-01-28T14:56:21Z</time>
      </trkpt>
      <trkpt lat="45.3957" lon="6.57016">
        <ele>1549.57</ele>
        <time>2014-01-28T14:56:23Z</time>
      </trkpt>
      <trkpt lat="45.39546" lon="6.57007">
        <ele>1548.07</ele>
        <time>2014-01-28T14:56:26Z</time>
      </trkpt>
      <trkpt lat="45.39525" lon="6.56993">
        <ele>1544.74</ele>
        <time>2014-01-28T14:56:29Z</time>
      </trkpt>
      <trkpt lat="45.39508" lon="6.56981">
        <ele>1539.65</ele>
        <time>2014-01-28T14:56:32Z</time>
      </trkpt>
      <trkpt lat="45.39487" lon="6.56972">
        <ele>1533.12</ele>
        <time>2014-01-28T14:56:35Z</time>
      </trkpt>
      <trkpt lat="45.39462" lon="6.56968">
        <ele>1526.47</ele>
        <time>2014-01-28T14:56:38Z</time>
      </trkpt>
      <trkpt lat="45.3944" lon="6.56967">
        <ele>1521.43</ele>
        <time>2014-01-28T14:56:41Z</time>
      </trkpt>
      <trkpt lat="45.39419" lon="6.5697">
        <ele>1519.29</ele>
        <time>2014-01-28T14:56:44Z</time>
      </trkpt>
      <trkpt lat="45.39398" lon="6.56975">
        <ele>1519.05</ele>
        <time>2014-01-28T14:56:46Z</time>
      </trkpt>
      <trkpt lat="45.39373" lon="6.56971">
        <ele>1515.76</ele>
        <time>2014-01-28T14:56:49Z</time>
      </trkpt>
      <trkpt lat="45.3935" lon="6.5697">
        <ele>1511.17</ele>
        <time>2014-01-28T14:56:52Z</time>
      </trkpt>
      <trkpt lat="45.39326" lon="6.56972">
        <ele>1503.52</ele>
        <time>2014-01-28T14:56:55Z</time>
      </trkpt>
      <trkpt lat="45.39305" lon="6.56975">
        <ele>1498.35</ele>
        <time>2014-01-28T14:56:58Z</time>
      </trkpt>
      <trkpt lat="45.39287" lon="6.56981">
        <ele>1498.41</ele>
        <time>2014-01-28T14:57:00Z</time>
      </trkpt>
      <trkpt lat="45.39261" lon="6.56983">
        <ele>1494.41</ele>
        <time>2014-01-28T14:57:03Z</time>
      </trkpt>
      <trkpt lat="45.39237" lon="6.56987">
        <ele>1490.41</ele>
        <time>2014-01-28T14:57:06Z</time>
      </trkpt>
      <trkpt lat="45.39215" lon="6.56991">
        <ele>1486.65</ele>
        <time>2014-01-28T14:57:09Z</time>
      </trkpt>
      <trkpt lat="45.3919" lon="6.5699">
        <ele>1481.37</ele>
        <time>2014-01-28T14:57:12Z</time>
      </trkpt>
      <trkpt lat="45.3917" lon="6.56994">
        <ele>1482.54</ele>
        <time>2014-01-28T14:57:15Z</time>
      </trkpt>
      <trkpt lat="45.39146" lon="6.56995">
        <ele>1479.46</ele>
        <time>2014-01-28T14:57:18Z</time>
      </trkpt>
      <trkpt lat="45.39124" lon="6.56988">
        <ele>1473.93</ele>
        <time>2014-01-28T14:57:22Z</time>
      </trkpt>
      <trkpt lat="45.39104" lon="6.56969">
        <ele>1468.44</ele>
        <time>2014-01-28T14:57:26Z</time>
      </trkpt>
      <trkpt lat="45.39102" lon="6.56941">
        <ele>1460.26</ele>
        <time>2014-01-28T14:57:29Z</time>
      </trkpt>
      <trkpt lat="45.39098" lon="6.56916">
        <ele>1454.33</ele>
        <time>2014-01-28T14:57:32Z</time>
      </trkpt>
      <trkpt lat="45.39097" lon="6.56889">
        <ele>1448.53</ele>
        <time>2014-01-28T14:57:36Z</time>
      </trkpt>
      <trkpt lat="45.39118" lon="6.56869">
        <ele>1444.42</ele>
        <time>2014-01-28T14:57:39Z</time>
      </trkpt>
      <trkpt lat="45.39123" lon="6.56844">
        <ele>1440.5</ele>
        <time>2014-01-28T14:57:43Z</time>
      </trkpt>
      <trkpt lat="45.39118" lon="6.56815">
        <ele>1439</ele>
        <time>2014-01-28T14:57:48Z</time>
      </trkpt>
      <trkpt lat="45.39104" lon="6.56789">
        <ele>1439</ele>
        <time>2014-01-28T14:59:06Z</time>
      </trkpt>
      <trkpt lat="45.39084" lon="6.56801">
        <ele>1439</ele>
        <time>2014-01-28T15:01:51Z</time>
      </trkpt>
      <trkpt lat="45.39063" lon="6.56797">
        <ele>1439</ele>
        <time>2014-01-28T15:01:55Z</time>
      </trkpt>
      <trkpt lat="45.39042" lon="6.56788">
        <ele>1439</ele>
        <time>2014-01-28T15:01:59Z</time>
      </trkpt>
      <trkpt lat="45.39023" lon="6.5678">
        <ele>1439.51</ele>
        <time>2014-01-28T15:02:03Z</time>
      </trkpt>
      <trkpt lat="45.39005" lon="6.56773">
        <ele>1442.26</ele>
        <time>2014-01-28T15:02:07Z</time>
      </trkpt>
      <trkpt lat="45.38986" lon="6.56765">
        <ele>1447.25</ele>
        <time>2014-01-28T15:02:12Z</time>
      </trkpt>
      <trkpt lat="45.38963" lon="6.5676">
        <ele>1452.98</ele>
        <time>2014-01-28T15:02:18Z</time>
      </trkpt>
      <trkpt lat="45.38945" lon="6.56754">
        <ele>1457.54</ele>
        <time>2014-01-28T15:02:22Z</time>
      </trkpt>
      <trkpt lat="45.38925" lon="6.56746">
        <ele>1465.24</ele>
        <time>2014-01-28T15:02:28Z</time>
      </trkpt>
      <trkpt lat="45.38903" lon="6.56737">
        <ele>1474.78</ele>
        <time>2014-01-28T15:02:34Z</time>
      </trkpt>
      <trkpt lat="45.38882" lon="6.56728">
        <ele>1484.22</ele>
        <time>2014-01-28T15:02:38Z</time>
      </trkpt>
      <trkpt lat="45.38863" lon="6.56721">
        <ele>1493.63</ele>
        <time>2014-01-28T15:02:43Z</time>
      </trkpt>
      <trkpt lat="45.38843" lon="6.56718">
        <ele>1501</ele>
        <time>2014-01-28T15:02:47Z</time>
      </trkpt>
      <trkpt lat="45.38824" lon="6.56711">
        <ele>1507.41</ele>
        <time>2014-01-28T15:02:51Z</time>
      </trkpt>
      <trkpt lat="45.38806" lon="6.56708">
        <ele>1512.07</ele>
        <time>2014-01-28T15:02:55Z</time>
      </trkpt>
      <trkpt lat="45.38784" lon="6.56706">
        <ele>1520.34</ele>
        <time>2014-01-28T15:03:00Z</time>
      </trkpt>
      <trkpt lat="45.38763" lon="6.56706">
        <ele>1526.04</ele>
        <time>2014-01-28T15:03:05Z</time>
      </trkpt>
      <trkpt lat="45.38741" lon="6.56704">
        <ele>1532.31</ele>
        <time>2014-01-28T15:03:10Z</time>
      </trkpt>
      <trkpt lat="45.3872" lon="6.56702">
        <ele>1540.8</ele>
        <time>2014-01-28T15:03:15Z</time>
      </trkpt>
      <trkpt lat="45.38701" lon="6.56702">
        <ele>1550.61</ele>
        <time>2014-01-28T15:03:20Z</time>
      </trkpt>
      <trkpt lat="45.38683" lon="6.56693">
        <ele>1561.02</ele>
        <time>2014-01-28T15:03:25Z</time>
      </trkpt>
      <trkpt lat="45.38666" lon="6.56678">
        <ele>1571.74</ele>
        <time>2014-01-28T15:03:29Z</time>
      </trkpt>
      <trkpt lat="45.38647" lon="6.56664">
        <ele>1584.54</ele>
        <time>2014-01-28T15:03:33Z</time>
      </trkpt>
      <trkpt lat="45.38628" lon="6.56654">
        <ele>1597.06</ele>
        <time>2014-01-28T15:03:38Z</time>
      </trkpt>
      <trkpt lat="45.38609" lon="6.56646">
        <ele>1608.97</ele>
        <time>2014-01-28T15:03:42Z</time>
      </trkpt>
      <trkpt lat="45.38589" lon="6.56639">
        <ele>1626.54</ele>
        <time>2014-01-28T15:03:47Z</time>
      </trkpt>
      <trkpt lat="45.38571" lon="6.56628">
        <ele>1637.42</ele>
        <time>2014-01-28T15:03:53Z</time>
      </trkpt>
      <trkpt lat="45.38554" lon="6.56613">
        <ele>1646</ele>
        <time>2014-01-28T15:03:59Z</time>
      </trkpt>
      <trkpt lat="45.38535" lon="6.56599">
        <ele>1651.6</ele>
        <time>2014-01-28T15:04:05Z</time>
      </trkpt>
      <trkpt lat="45.38517" lon="6.56594">
        <ele>1655.81</ele>
        <time>2014-01-28T15:04:10Z</time>
      </trkpt>
      <trkpt lat="45.38497" lon="6.56592">
        <ele>1661.27</ele>
        <time>2014-01-28T15:04:17Z</time>
      </trkpt>
      <trkpt lat="45.38478" lon="6.56593">
        <ele>1669.67</ele>
        <time>2014-01-28T15:04:22Z</time>
      </trkpt>
      <trkpt lat="45.38459" lon="6.56593">
        <ele>1680.12</ele>
        <time>2014-01-28T15:04:27Z</time>
      </trkpt>
      <trkpt lat="45.38441" lon="6.56592">
        <ele>1690.11</ele>
        <time>2014-01-28T15:04:32Z</time>
      </trkpt>
      <trkpt lat="45.38422" lon="6.56592">
        <ele>1699.39</ele>
        <time>2014-01-28T15:04:37Z</time>
      </trkpt>
      <trkpt lat="45.38404" lon="6.56594">
        <ele>1708.37</ele>
        <time>2014-01-28T15:04:42Z</time>
      </trkpt>
      <trkpt lat="45.38382" lon="6.56596">
        <ele>1718.4</ele>
        <time>2014-01-28T15:04:48Z</time>
      </trkpt>
      <trkpt lat="45.38364" lon="6.56599">
        <ele>1725.3</ele>
        <time>2014-01-28T15:04:53Z</time>
      </trkpt>
      <trkpt lat="45.38345" lon="6.56602">
        <ele>1733.51</ele>
        <time>2014-01-28T15:04:58Z</time>
      </trkpt>
      <trkpt lat="45.38326" lon="6.56603">
        <ele>1742.42</ele>
        <time>2014-01-28T15:05:05Z</time>
      </trkpt>
      <trkpt lat="45.38308" lon="6.56597">
        <ele>1752.2</ele>
        <time>2014-01-28T15:05:09Z</time>
      </trkpt>
      <trkpt lat="45.3829" lon="6.56585">
        <ele>1763.72</ele>
        <time>2014-01-28T15:05:13Z</time>
      </trkpt>
      <trkpt lat="45.3827" lon="6.56572">
        <ele>1774.03</ele>
        <time>2014-01-28T15:05:17Z</time>
      </trkpt>
      <trkpt lat="45.38248" lon="6.56558">
        <ele>1782.35</ele>
        <time>2014-01-28T15:05:21Z</time>
      </trkpt>
      <trkpt lat="45.38233" lon="6.56538">
        <ele>1787.38</ele>
        <time>2014-01-28T15:05:25Z</time>
      </trkpt>
      <trkpt lat="45.38214" lon="6.5652">
        <ele>1793.68</ele>
        <time>2014-01-28T15:05:29Z</time>
      </trkpt>
      <trkpt lat="45.38195" lon="6.56506">
        <ele>1799.44</ele>
        <time>2014-01-28T15:05:34Z</time>
      </trkpt>
      <trkpt lat="45.38178" lon="6.56495">
        <ele>1805.08</ele>
        <time>2014-01-28T15:05:38Z</time>
      </trkpt>
      <trkpt lat="45.38158" lon="6.56485">
        <ele>1811.15</ele>
        <time>2014-01-28T15:05:43Z</time>
      </trkpt>
      <trkpt lat="45.38138" lon="6.5648">
        <ele>1816.74</ele>
        <time>2014-01-28T15:05:47Z</time>
      </trkpt>
      <trkpt lat="45.38118" lon="6.56475">
        <ele>1823.46</ele>
        <time>2014-01-28T15:05:51Z</time>
      </trkpt>
      <trkpt lat="45.38099" lon="6.5647">
        <ele>1829.32</ele>
        <time>2014-01-28T15:05:56Z</time>
      </trkpt>
      <trkpt lat="45.38081" lon="6.56465">
        <ele>1834.34</ele>
        <time>2014-01-28T15:06:00Z</time>
      </trkpt>
      <trkpt lat="45.3806" lon="6.56458">
        <ele>1838.31</ele>
        <time>2014-01-28T15:06:05Z</time>
      </trkpt>
      <trkpt lat="45.38042" lon="6.56452">
        <ele>1840.75</ele>
        <time>2014-01-28T15:06:09Z</time>
      </trkpt>
      <trkpt lat="45.38023" lon="6.56444">
        <ele>1843.07</ele>
        <time>2014-01-28T15:06:14Z</time>
      </trkpt>
      <trkpt lat="45.38004" lon="6.56436">
        <ele>1844.46</ele>
        <time>2014-01-28T15:06:19Z</time>
      </trkpt>
      <trkpt lat="45.37987" lon="6.5643">
        <ele>1847.28</ele>
        <time>2014-01-28T15:06:23Z</time>
      </trkpt>
      <trkpt lat="45.37967" lon="6.5642">
        <ele>1852.21</ele>
        <time>2014-01-28T15:06:28Z</time>
      </trkpt>
      <trkpt lat="45.37948" lon="6.56412">
        <ele>1857.58</ele>
        <time>2014-01-28T15:06:33Z</time>
      </trkpt>
      <trkpt lat="45.3793" lon="6.56404">
        <ele>1863.31</ele>
        <time>2014-01-28T15:06:38Z</time>
      </trkpt>
      <trkpt lat="45.37909" lon="6.56398">
        <ele>1870.55</ele>
        <time>2014-01-28T15:06:43Z</time>
      </trkpt>
      <trkpt lat="45.37889" lon="6.56396">
        <ele>1876.91</ele>
        <time>2014-01-28T15:06:49Z</time>
      </trkpt>
      <trkpt lat="45.3787" lon="6.56388">
        <ele>1882.59</ele>
        <time>2014-01-28T15:06:56Z</time>
      </trkpt>
      <trkpt lat="45.37852" lon="6.56377">
        <ele>1888.48</ele>
        <time>2014-01-28T15:07:02Z</time>
      </trkpt>
      <trkpt lat="45.37834" lon="6.56365">
        <ele>1894.08</ele>
        <time>2014-01-28T15:07:08Z</time>
      </trkpt>
      <trkpt lat="45.37817" lon="6.56351">
        <ele>1900.11</ele>
        <time>2014-01-28T15:07:15Z</time>
      </trkpt>
      <trkpt lat="45.37799" lon="6.56341">
        <ele>1904.73</ele>
        <time>2014-01-28T15:07:21Z</time>
      </trkpt>
      <trkpt lat="45.3778" lon="6.56334">
        <ele>1906.8</ele>
        <time>2014-01-28T15:07:27Z</time>
      </trkpt>
      <trkpt lat="45.3775" lon="6.56351">
        <ele>1911.06</ele>
        <time>2014-01-28T15:08:42Z</time>
      </trkpt>
      <trkpt lat="45.37729" lon="6.56351">
        <ele>1912.87</ele>
        <time>2014-01-28T15:08:57Z</time>
      </trkpt>
      <trkpt lat="45.37705" lon="6.56347">
        <ele>1916.29</ele>
        <time>2014-01-28T15:09:04Z</time>
      </trkpt>
      <trkpt lat="45.37686" lon="6.56331">
        <ele>1921.68</ele>
        <time>2014-01-28T15:09:14Z</time>
      </trkpt>
      <trkpt lat="45.37669" lon="6.56319">
        <ele>1923.98</ele>
        <time>2014-01-28T15:09:53Z</time>
      </trkpt>
      <trkpt lat="45.37648" lon="6.56308">
        <ele>1927.7</ele>
        <time>2014-01-28T15:09:58Z</time>
      </trkpt>
      <trkpt lat="45.37629" lon="6.56297">
        <ele>1932.33</ele>
        <time>2014-01-28T15:10:03Z</time>
      </trkpt>
      <trkpt lat="45.37611" lon="6.56287">
        <ele>1936.66</ele>
        <time>2014-01-28T15:10:08Z</time>
      </trkpt>
      <trkpt lat="45.3759" lon="6.56279">
        <ele>1943.32</ele>
        <time>2014-01-28T15:10:15Z</time>
      </trkpt>
      <trkpt lat="45.37571" lon="6.56273">
        <ele>1950.23</ele>
        <time>2014-01-28T15:10:19Z</time>
      </trkpt>
      <trkpt lat="45.37549" lon="6.56268">
        <ele>1958.55</ele>
        <time>2014-01-28T15:10:24Z</time>
      </trkpt>
      <trkpt lat="45.3753" lon="6.56263">
        <ele>1964.92</ele>
        <time>2014-01-28T15:10:29Z</time>
      </trkpt>
      <trkpt lat="45.37511" lon="6.56255">
        <ele>1971.03</ele>
        <time>2014-01-28T15:10:34Z</time>
      </trkpt>
      <trkpt lat="45.37494" lon="6.56248">
        <ele>1976.15</ele>
        <time>2014-01-28T15:10:39Z</time>
      </trkpt>
      <trkpt lat="45.37473" lon="6.56238">
        <ele>1981.96</ele>
        <time>2014-01-28T15:10:44Z</time>
      </trkpt>
      <trkpt lat="45.37454" lon="6.5623">
        <ele>1984.97</ele>
        <time>2014-01-28T15:10:49Z</time>
      </trkpt>
      <trkpt lat="45.37436" lon="6.56222">
        <ele>1987.58</ele>
        <time>2014-01-28T15:10:54Z</time>
      </trkpt>
      <trkpt lat="45.37418" lon="6.56215">
        <ele>1990.76</ele>
        <time>2014-01-28T15:10:59Z</time>
      </trkpt>
      <trkpt lat="45.37398" lon="6.56206">
        <ele>1996.78</ele>
        <time>2014-01-28T15:11:04Z</time>
      </trkpt>
      <trkpt lat="45.37381" lon="6.56198">
        <ele>2002.43</ele>
        <time>2014-01-28T15:11:08Z</time>
      </trkpt>
      <trkpt lat="45.37363" lon="6.56189">
        <ele>2009.3</ele>
        <time>2014-01-28T15:11:13Z</time>
      </trkpt>
      <trkpt lat="45.37343" lon="6.56182">
        <ele>2015.45</ele>
        <time>2014-01-28T15:11:18Z</time>
      </trkpt>
      <trkpt lat="45.37324" lon="6.56176">
        <ele>2019.88</ele>
        <time>2014-01-28T15:11:23Z</time>
      </trkpt>
      <trkpt lat="45.37307" lon="6.56169">
        <ele>2021.29</ele>
        <time>2014-01-28T15:11:28Z</time>
      </trkpt>
      <trkpt lat="45.37286" lon="6.56163">
        <ele>2027</ele>
        <time>2014-01-28T15:11:33Z</time>
      </trkpt>
      <trkpt lat="45.37267" lon="6.56155">
        <ele>2034.13</ele>
        <time>2014-01-28T15:11:38Z</time>
      </trkpt>
      <trkpt lat="45.3725" lon="6.56148">
        <ele>2042.68</ele>
        <time>2014-01-28T15:11:43Z</time>
      </trkpt>
      <trkpt lat="45.37232" lon="6.5614">
        <ele>2046.72</ele>
        <time>2014-01-28T15:11:48Z</time>
      </trkpt>
      <trkpt lat="45.37211" lon="6.56132">
        <ele>2056.19</ele>
        <time>2014-01-28T15:11:54Z</time>
      </trkpt>
      <trkpt lat="45.37191" lon="6.56123">
        <ele>2069.2</ele>
        <time>2014-01-28T15:12:00Z</time>
      </trkpt>
      <trkpt lat="45.37172" lon="6.56117">
        <ele>2081.01</ele>
        <time>2014-01-28T15:12:06Z</time>
      </trkpt>
      <trkpt lat="45.37154" lon="6.56113">
        <ele>2091.25</ele>
        <time>2014-01-28T15:12:11Z</time>
      </trkpt>
      <trkpt lat="45.37135" lon="6.56106">
        <ele>2103.4</ele>
        <time>2014-01-28T15:12:17Z</time>
      </trkpt>
      <trkpt lat="45.37118" lon="6.56098">
        <ele>2115.03</ele>
        <time>2014-01-28T15:12:22Z</time>
      </trkpt>
      <trkpt lat="45.37098" lon="6.56089">
        <ele>2127.69</ele>
        <time>2014-01-28T15:12:28Z</time>
      </trkpt>
      <trkpt lat="45.37079" lon="6.56082">
        <ele>2139.09</ele>
        <time>2014-01-28T15:12:33Z</time>
      </trkpt>
      <trkpt lat="45.37058" lon="6.56074">
        <ele>2149.49</ele>
        <time>2014-01-28T15:12:39Z</time>
      </trkpt>
      <trkpt lat="45.3704" lon="6.56066">
        <ele>2158.86</ele>
        <time>2014-01-28T15:12:44Z</time>
      </trkpt>
      <trkpt lat="45.37023" lon="6.56057">
        <ele>2166.95</ele>
        <time>2014-01-28T15:12:49Z</time>
      </trkpt>
      <trkpt lat="45.37005" lon="6.56048">
        <ele>2174.46</ele>
        <time>2014-01-28T15:12:54Z</time>
      </trkpt>
      <trkpt lat="45.36988" lon="6.56038">
        <ele>2179.91</ele>
        <time>2014-01-28T15:12:59Z</time>
      </trkpt>
      <trkpt lat="45.36968" lon="6.56031">
        <ele>2184.18</ele>
        <time>2014-01-28T15:13:04Z</time>
      </trkpt>
      <trkpt lat="45.36948" lon="6.56024">
        <ele>2187.92</ele>
        <time>2014-01-28T15:13:09Z</time>
      </trkpt>
      <trkpt lat="45.36928" lon="6.56016">
        <ele>2196.92</ele>
        <time>2014-01-28T15:13:14Z</time>
      </trkpt>
      <trkpt lat="45.36909" lon="6.56007">
        <ele>2204.67</ele>
        <time>2014-01-28T15:13:19Z</time>
      </trkpt>
      <trkpt lat="45.3689" lon="6.55999">
        <ele>2210.84</ele>
        <time>2014-01-28T15:13:24Z</time>
      </trkpt>
      <trkpt lat="45.36872" lon="6.55991">
        <ele>2216.09</ele>
        <time>2014-01-28T15:13:29Z</time>
      </trkpt>
      <trkpt lat="45.36853" lon="6.55981">
        <ele>2222.6</ele>
        <time>2014-01-28T15:13:35Z</time>
      </trkpt>
      <trkpt lat="45.36834" lon="6.55971">
        <ele>2228</ele>
        <time>2014-01-28T15:13:41Z</time>
      </trkpt>
      <trkpt lat="45.36813" lon="6.55963">
        <ele>2239.65</ele>
        <time>2014-01-28T15:13:46Z</time>
      </trkpt>
      <trkpt lat="45.36793" lon="6.5596">
        <ele>2249.83</ele>
        <time>2014-01-28T15:13:51Z</time>
      </trkpt>
      <trkpt lat="45.36774" lon="6.55958">
        <ele>2259.12</ele>
        <time>2014-01-28T15:13:58Z</time>
      </trkpt>
      <trkpt lat="45.36753" lon="6.5595">
        <ele>2269.58</ele>
        <time>2014-01-28T15:14:04Z</time>
      </trkpt>
      <trkpt lat="45.36736" lon="6.55941">
        <ele>2279.08</ele>
        <time>2014-01-28T15:14:08Z</time>
      </trkpt>
      <trkpt lat="45.36716" lon="6.55933">
        <ele>2289.25</ele>
        <time>2014-01-28T15:14:13Z</time>
      </trkpt>
      <trkpt lat="45.36697" lon="6.55927">
        <ele>2297.64</ele>
        <time>2014-01-28T15:14:19Z</time>
      </trkpt>
      <trkpt lat="45.36679" lon="6.5592">
        <ele>2306.03</ele>
        <time>2014-01-28T15:14:24Z</time>
      </trkpt>
      <trkpt lat="45.36659" lon="6.55913">
        <ele>2316.32</ele>
        <time>2014-01-28T15:14:30Z</time>
      </trkpt>
      <trkpt lat="45.3664" lon="6.55903">
        <ele>2326.5</ele>
        <time>2014-01-28T15:14:34Z</time>
      </trkpt>
      <trkpt lat="45.36619" lon="6.55893">
        <ele>2333.32</ele>
        <time>2014-01-28T15:14:39Z</time>
      </trkpt>
      <trkpt lat="45.36601" lon="6.55886">
        <ele>2338.84</ele>
        <time>2014-01-28T15:14:44Z</time>
      </trkpt>
      <trkpt lat="45.36583" lon="6.55877">
        <ele>2343.62</ele>
        <time>2014-01-28T15:14:49Z</time>
      </trkpt>
      <trkpt lat="45.36564" lon="6.5587">
        <ele>2348.69</ele>
        <time>2014-01-28T15:14:54Z</time>
      </trkpt>
      <trkpt lat="45.36546" lon="6.55863">
        <ele>2354.06</ele>
        <time>2014-01-28T15:14:59Z</time>
      </trkpt>
      <trkpt lat="45.36527" lon="6.55855">
        <ele>2361.91</ele>
        <time>2014-01-28T15:15:04Z</time>
      </trkpt>
      <trkpt lat="45.36508" lon="6.55848">
        <ele>2372.66</ele>
        <time>2014-01-28T15:15:09Z</time>
      </trkpt>
      <trkpt lat="45.3649" lon="6.5584">
        <ele>2382.56</ele>
        <time>2014-01-28T15:15:14Z</time>
      </trkpt>
      <trkpt lat="45.36472" lon="6.55835">
        <ele>2390.08</ele>
        <time>2014-01-28T15:15:19Z</time>
      </trkpt>
      <trkpt lat="45.36453" lon="6.55829">
        <ele>2395.35</ele>
        <time>2014-01-28T15:15:24Z</time>
      </trkpt>
      <trkpt lat="45.36436" lon="6.55821">
        <ele>2403.81</ele>
        <time>2014-01-28T15:15:29Z</time>
      </trkpt>
      <trkpt lat="45.36418" lon="6.55815">
        <ele>2409.71</ele>
        <time>2014-01-28T15:15:34Z</time>
      </trkpt>
      <trkpt lat="45.36401" lon="6.55805">
        <ele>2412.54</ele>
        <time>2014-01-28T15:15:44Z</time>
      </trkpt>
      <trkpt lat="45.36413" lon="6.55784">
        <ele>2404.6</ele>
        <time>2014-01-28T15:15:58Z</time>
      </trkpt>
      <trkpt lat="45.3643" lon="6.55774">
        <ele>2403.59</ele>
        <time>2014-01-28T15:16:09Z</time>
      </trkpt>
      <trkpt lat="45.36448" lon="6.5576">
        <ele>2400.64</ele>
        <time>2014-01-28T15:16:17Z</time>
      </trkpt>
      <trkpt lat="45.36465" lon="6.5575">
        <ele>2399.02</ele>
        <time>2014-01-28T15:16:25Z</time>
      </trkpt>
      <trkpt lat="45.36484" lon="6.55742">
        <ele>2400.81</ele>
        <time>2014-01-28T15:16:31Z</time>
      </trkpt>
      <trkpt lat="45.36502" lon="6.55731">
        <ele>2402.96</ele>
        <time>2014-01-28T15:16:36Z</time>
      </trkpt>
      <trkpt lat="45.36519" lon="6.55722">
        <ele>2404.26</ele>
        <time>2014-01-28T15:16:40Z</time>
      </trkpt>
      <trkpt lat="45.36538" lon="6.55712">
        <ele>2402.35</ele>
        <time>2014-01-28T15:16:45Z</time>
      </trkpt>
      <trkpt lat="45.36558" lon="6.55701">
        <ele>2407.86</ele>
        <time>2014-01-28T15:16:50Z</time>
      </trkpt>
      <trkpt lat="45.36576" lon="6.55688">
        <ele>2402.51</ele>
        <time>2014-01-28T15:16:55Z</time>
      </trkpt>
      <trkpt lat="45.36592" lon="6.55671">
        <ele>2392.19</ele>
        <time>2014-01-28T15:16:58Z</time>
      </trkpt>
      <trkpt lat="45.36613" lon="6.55667">
        <ele>2389.46</ele>
        <time>2014-01-28T15:17:01Z</time>
      </trkpt>
      <trkpt lat="45.36634" lon="6.55667">
        <ele>2385.31</ele>
        <time>2014-01-28T15:17:04Z</time>
      </trkpt>
      <trkpt lat="45.36648" lon="6.55649">
        <ele>2377.54</ele>
        <time>2014-01-28T15:17:07Z</time>
      </trkpt>
      <trkpt lat="45.36667" lon="6.55624">
        <ele>2364.52</ele>
        <time>2014-01-28T15:17:10Z</time>
      </trkpt>
      <trkpt lat="45.36683" lon="6.55604">
        <ele>2358.17</ele>
        <time>2014-01-28T15:17:12Z</time>
      </trkpt>
      <trkpt lat="45.36696" lon="6.55586">
        <ele>2354.72</ele>
        <time>2014-01-28T15:17:14Z</time>
      </trkpt>
      <trkpt lat="45.3671" lon="6.55563">
        <ele>2350.89</ele>
        <time>2014-01-28T15:17:16Z</time>
      </trkpt>
      <trkpt lat="45.3672" lon="6.55539">
        <ele>2346.14</ele>
        <time>2014-01-28T15:17:18Z</time>
      </trkpt>
      <trkpt lat="45.36732" lon="6.55514">
        <ele>2342.14</ele>
        <time>2014-01-28T15:17:20Z</time>
      </trkpt>
      <trkpt lat="45.36738" lon="6.55486">
        <ele>2339.05</ele>
        <time>2014-01-28T15:17:22Z</time>
      </trkpt>
      <trkpt lat="45.36744" lon="6.55458">
        <ele>2338.44</ele>
        <time>2014-01-28T15:17:24Z</time>
      </trkpt>
      <trkpt lat="45.3675" lon="6.55432">
        <ele>2337.85</ele>
        <time>2014-01-28T15:17:26Z</time>
      </trkpt>
      <trkpt lat="45.3676" lon="6.55405">
        <ele>2334.53</ele>
        <time>2014-01-28T15:17:29Z</time>
      </trkpt>
      <trkpt lat="45.3678" lon="6.5538">
        <ele>2332.41</ele>
        <time>2014-01-28T15:17:32Z</time>
      </trkpt>
      <trkpt lat="45.36794" lon="6.5536">
        <ele>2329.03</ele>
        <time>2014-01-28T15:17:34Z</time>
      </trkpt>
      <trkpt lat="45.36812" lon="6.55339">
        <ele>2319.04</ele>
        <time>2014-01-28T15:17:36Z</time>
      </trkpt>
      <trkpt lat="45.36828" lon="6.55316">
        <ele>2309.89</ele>
        <time>2014-01-28T15:17:38Z</time>
      </trkpt>
      <trkpt lat="45.36839" lon="6.55293">
        <ele>2305.89</ele>
        <time>2014-01-28T15:17:40Z</time>
      </trkpt>
      <trkpt lat="45.36848" lon="6.55259">
        <ele>2304.48</ele>
        <time>2014-01-28T15:17:43Z</time>
      </trkpt>
      <trkpt lat="45.36853" lon="6.55227">
        <ele>2304.3</ele>
        <time>2014-01-28T15:17:46Z</time>
      </trkpt>
      <trkpt lat="45.3687" lon="6.55203">
        <ele>2306.7</ele>
        <time>2014-01-28T15:17:49Z</time>
      </trkpt>
      <trkpt lat="45.36893" lon="6.55187">
        <ele>2307.92</ele>
        <time>2014-01-28T15:17:52Z</time>
      </trkpt>
      <trkpt lat="45.36916" lon="6.5517">
        <ele>2303.89</ele>
        <time>2014-01-28T15:17:55Z</time>
      </trkpt>
      <trkpt lat="45.36935" lon="6.55152">
        <ele>2302.72</ele>
        <time>2014-01-28T15:17:58Z</time>
      </trkpt>
      <trkpt lat="45.36953" lon="6.55134">
        <ele>2301.58</ele>
        <time>2014-01-28T15:18:01Z</time>
      </trkpt>
      <trkpt lat="45.36968" lon="6.55113">
        <ele>2299.13</ele>
        <time>2014-01-28T15:18:04Z</time>
      </trkpt>
      <trkpt lat="45.36983" lon="6.55091">
        <ele>2297.39</ele>
        <time>2014-01-28T15:18:07Z</time>
      </trkpt>
      <trkpt lat="45.36996" lon="6.55071">
        <ele>2296.78</ele>
        <time>2014-01-28T15:18:10Z</time>
      </trkpt>
      <trkpt lat="45.37011" lon="6.5505">
        <ele>2295.08</ele>
        <time>2014-01-28T15:18:13Z</time>
      </trkpt>
      <trkpt lat="45.37029" lon="6.55029">
        <ele>2293.44</ele>
        <time>2014-01-28T15:18:16Z</time>
      </trkpt>
      <trkpt lat="45.37051" lon="6.55017">
        <ele>2292.93</ele>
        <time>2014-01-28T15:18:19Z</time>
      </trkpt>
      <trkpt lat="45.37075" lon="6.55014">
        <ele>2291.88</ele>
        <time>2014-01-28T15:18:22Z</time>
      </trkpt>
      <trkpt lat="45.37097" lon="6.55011">
        <ele>2290.42</ele>
        <time>2014-01-28T15:18:25Z</time>
      </trkpt>
      <trkpt lat="45.37121" lon="6.55007">
        <ele>2288.4</ele>
        <time>2014-01-28T15:18:28Z</time>
      </trkpt>
      <trkpt lat="45.37146" lon="6.54998">
        <ele>2285.48</ele>
        <time>2014-01-28T15:18:31Z</time>
      </trkpt>
      <trkpt lat="45.37168" lon="6.5499">
        <ele>2283.27</ele>
        <time>2014-01-28T15:18:34Z</time>
      </trkpt>
      <trkpt lat="45.37189" lon="6.54989">
        <ele>2283.86</ele>
        <time>2014-01-28T15:18:37Z</time>
      </trkpt>
      <trkpt lat="45.37211" lon="6.54994">
        <ele>2282.52</ele>
        <time>2014-01-28T15:18:40Z</time>
      </trkpt>
      <trkpt lat="45.37233" lon="6.55002">
        <ele>2280.08</ele>
        <time>2014-01-28T15:18:43Z</time>
      </trkpt>
      <trkpt lat="45.37254" lon="6.55013">
        <ele>2277.53</ele>
        <time>2014-01-28T15:18:46Z</time>
      </trkpt>
      <trkpt lat="45.37275" lon="6.55027">
        <ele>2275.37</ele>
        <time>2014-01-28T15:18:49Z</time>
      </trkpt>
      <trkpt lat="45.37293" lon="6.55037">
        <ele>2274.21</ele>
        <time>2014-01-28T15:18:51Z</time>
      </trkpt>
      <trkpt lat="45.37317" lon="6.55031">
        <ele>2268.88</ele>
        <time>2014-01-28T15:18:54Z</time>
      </trkpt>
      <trkpt lat="45.37333" lon="6.55017">
        <ele>2264.01</ele>
        <time>2014-01-28T15:18:56Z</time>
      </trkpt>
      <trkpt lat="45.37347" lon="6.54988">
        <ele>2257.96</ele>
        <time>2014-01-28T15:18:59Z</time>
      </trkpt>
      <trkpt lat="45.37368" lon="6.54982">
        <ele>2253.54</ele>
        <time>2014-01-28T15:19:02Z</time>
      </trkpt>
      <trkpt lat="45.37378" lon="6.54952">
        <ele>2244.88</ele>
        <time>2014-01-28T15:19:06Z</time>
      </trkpt>
      <trkpt lat="45.37393" lon="6.54931">
        <ele>2235.81</ele>
        <time>2014-01-28T15:19:09Z</time>
      </trkpt>
      <trkpt lat="45.37409" lon="6.54903">
        <ele>2227.2</ele>
        <time>2014-01-28T15:19:12Z</time>
      </trkpt>
      <trkpt lat="45.37424" lon="6.54881">
        <ele>2220.19</ele>
        <time>2014-01-28T15:19:15Z</time>
      </trkpt>
      <trkpt lat="45.3743" lon="6.54856">
        <ele>2213.72</ele>
        <time>2014-01-28T15:19:18Z</time>
      </trkpt>
      <trkpt lat="45.37452" lon="6.54847">
        <ele>2207.49</ele>
        <time>2014-01-28T15:19:22Z</time>
      </trkpt>
      <trkpt lat="45.37461" lon="6.54823">
        <ele>2196.58</ele>
        <time>2014-01-28T15:19:25Z</time>
      </trkpt>
      <trkpt lat="45.37478" lon="6.54795">
        <ele>2182.7</ele>
        <time>2014-01-28T15:19:28Z</time>
      </trkpt>
      <trkpt lat="45.37492" lon="6.54767">
        <ele>2170.04</ele>
        <time>2014-01-28T15:19:30Z</time>
      </trkpt>
      <trkpt lat="45.37505" lon="6.54738">
        <ele>2158.95</ele>
        <time>2014-01-28T15:19:32Z</time>
      </trkpt>
      <trkpt lat="45.37512" lon="6.54707">
        <ele>2152.14</ele>
        <time>2014-01-28T15:19:35Z</time>
      </trkpt>
      <trkpt lat="45.375" lon="6.54679">
        <ele>2146.4</ele>
        <time>2014-01-28T15:19:38Z</time>
      </trkpt>
      <trkpt lat="45.37514" lon="6.54659">
        <ele>2143.38</ele>
        <time>2014-01-28T15:19:42Z</time>
      </trkpt>
      <trkpt lat="45.37506" lon="6.54635">
        <ele>2139.56</ele>
        <time>2014-01-28T15:19:45Z</time>
      </trkpt>
      <trkpt lat="45.37514" lon="6.5461">
        <ele>2133.18</ele>
        <time>2014-01-28T15:19:49Z</time>
      </trkpt>
      <trkpt lat="45.37523" lon="6.54585">
        <ele>2123.56</ele>
        <time>2014-01-28T15:19:52Z</time>
      </trkpt>
      <trkpt lat="45.37515" lon="6.54557">
        <ele>2117.23</ele>
        <time>2014-01-28T15:19:54Z</time>
      </trkpt>
      <trkpt lat="45.37532" lon="6.54526">
        <ele>2109.01</ele>
        <time>2014-01-28T15:19:57Z</time>
      </trkpt>
      <trkpt lat="45.37544" lon="6.54506">
        <ele>2103.73</ele>
        <time>2014-01-28T15:19:59Z</time>
      </trkpt>
      <trkpt lat="45.37546" lon="6.5448">
        <ele>2095.9</ele>
        <time>2014-01-28T15:20:01Z</time>
      </trkpt>
      <trkpt lat="45.37554" lon="6.54457">
        <ele>2086.12</ele>
        <time>2014-01-28T15:20:03Z</time>
      </trkpt>
      <trkpt lat="45.37566" lon="6.54429">
        <ele>2079.1</ele>
        <time>2014-01-28T15:20:05Z</time>
      </trkpt>
      <trkpt lat="45.37574" lon="6.544">
        <ele>2072.99</ele>
        <time>2014-01-28T15:20:07Z</time>
      </trkpt>
      <trkpt lat="45.37583" lon="6.5436">
        <ele>2065.95</ele>
        <time>2014-01-28T15:20:09Z</time>
      </trkpt>
      <trkpt lat="45.37594" lon="6.54316">
        <ele>2061.35</ele>
        <time>2014-01-28T15:20:11Z</time>
      </trkpt>
      <trkpt lat="45.37602" lon="6.54276">
        <ele>2060</ele>
        <time>2014-01-28T15:20:13Z</time>
      </trkpt>
      <trkpt lat="45.37608" lon="6.54243">
        <ele>2059.27</ele>
        <time>2014-01-28T15:20:15Z</time>
      </trkpt>
      <trkpt lat="45.37611" lon="6.54214">
        <ele>2056.37</ele>
        <time>2014-01-28T15:20:17Z</time>
      </trkpt>
      <trkpt lat="45.37615" lon="6.54176">
        <ele>2052.72</ele>
        <time>2014-01-28T15:20:20Z</time>
      </trkpt>
      <trkpt lat="45.37612" lon="6.54143">
        <ele>2049.25</ele>
        <time>2014-01-28T15:20:23Z</time>
      </trkpt>
      <trkpt lat="45.37612" lon="6.54108">
        <ele>2039.92</ele>
        <time>2014-01-28T15:20:26Z</time>
      </trkpt>
      <trkpt lat="45.37614" lon="6.54082">
        <ele>2032.92</ele>
        <time>2014-01-28T15:20:28Z</time>
      </trkpt>
      <trkpt lat="45.3762" lon="6.54053">
        <ele>2028.44</ele>
        <time>2014-01-28T15:20:30Z</time>
      </trkpt>
      <trkpt lat="45.37624" lon="6.54022">
        <ele>2025.74</ele>
        <time>2014-01-28T15:20:32Z</time>
      </trkpt>
      <trkpt lat="45.37622" lon="6.53992">
        <ele>2022.54</ele>
        <time>2014-01-28T15:20:34Z</time>
      </trkpt>
      <trkpt lat="45.3762" lon="6.53957">
        <ele>2018.84</ele>
        <time>2014-01-28T15:20:37Z</time>
      </trkpt>
      <trkpt lat="45.37606" lon="6.53931">
        <ele>2013.63</ele>
        <time>2014-01-28T15:20:41Z</time>
      </trkpt>
      <trkpt lat="45.37602" lon="6.53905">
        <ele>2009.75</ele>
        <time>2014-01-28T15:20:44Z</time>
      </trkpt>
      <trkpt lat="45.3759" lon="6.53885">
        <ele>2006.53</ele>
        <time>2014-01-28T15:20:47Z</time>
      </trkpt>
      <trkpt lat="45.37586" lon="6.53848">
        <ele>2000.19</ele>
        <time>2014-01-28T15:20:51Z</time>
      </trkpt>
      <trkpt lat="45.37579" lon="6.53825">
        <ele>1995.94</ele>
        <time>2014-01-28T15:20:53Z</time>
      </trkpt>
      <trkpt lat="45.37587" lon="6.53788">
        <ele>1990.48</ele>
        <time>2014-01-28T15:20:56Z</time>
      </trkpt>
      <trkpt lat="45.37595" lon="6.53761">
        <ele>1985.28</ele>
        <time>2014-01-28T15:20:58Z</time>
      </trkpt>
      <trkpt lat="45.37597" lon="6.53725">
        <ele>1979.91</ele>
        <time>2014-01-28T15:21:00Z</time>
      </trkpt>
      <trkpt lat="45.37596" lon="6.53689">
        <ele>1976.47</ele>
        <time>2014-01-28T15:21:02Z</time>
      </trkpt>
      <trkpt lat="45.37596" lon="6.53656">
        <ele>1973.72</ele>
        <time>2014-01-28T15:21:04Z</time>
      </trkpt>
      <trkpt lat="45.37598" lon="6.53623">
        <ele>1971.14</ele>
        <time>2014-01-28T15:21:07Z</time>
      </trkpt>
      <trkpt lat="45.37601" lon="6.53596">
        <ele>1968.48</ele>
        <time>2014-01-28T15:21:10Z</time>
      </trkpt>
      <trkpt lat="45.37604" lon="6.53571">
        <ele>1965.91</ele>
        <time>2014-01-28T15:21:12Z</time>
      </trkpt>
      <trkpt lat="45.37614" lon="6.53538">
        <ele>1962.44</ele>
        <time>2014-01-28T15:21:15Z</time>
      </trkpt>
      <trkpt lat="45.37626" lon="6.53511">
        <ele>1958.64</ele>
        <time>2014-01-28T15:21:17Z</time>
      </trkpt>
      <trkpt lat="45.37635" lon="6.5348">
        <ele>1954.27</ele>
        <time>2014-01-28T15:21:19Z</time>
      </trkpt>
      <trkpt lat="45.37639" lon="6.53452">
        <ele>1950.1</ele>
        <time>2014-01-28T15:21:21Z</time>
      </trkpt>
      <trkpt lat="45.37646" lon="6.53424">
        <ele>1945.82</ele>
        <time>2014-01-28T15:21:23Z</time>
      </trkpt>
      <trkpt lat="45.37651" lon="6.53391">
        <ele>1940.4</ele>
        <time>2014-01-28T15:21:25Z</time>
      </trkpt>
      <trkpt lat="45.37652" lon="6.5336">
        <ele>1938.51</ele>
        <time>2014-01-28T15:21:27Z</time>
      </trkpt>
      <trkpt lat="45.37655" lon="6.53333">
        <ele>1937.38</ele>
        <time>2014-01-28T15:21:29Z</time>
      </trkpt>
      <trkpt lat="45.37658" lon="6.53304">
        <ele>1935.59</ele>
        <time>2014-01-28T15:21:31Z</time>
      </trkpt>
      <trkpt lat="45.37658" lon="6.53274">
        <ele>1934.36</ele>
        <time>2014-01-28T15:21:33Z</time>
      </trkpt>
      <trkpt lat="45.37661" lon="6.53246">
        <ele>1932.5</ele>
        <time>2014-01-28T15:21:35Z</time>
      </trkpt>
      <trkpt lat="45.37665" lon="6.53218">
        <ele>1930.91</ele>
        <time>2014-01-28T15:21:37Z</time>
      </trkpt>
      <trkpt lat="45.37661" lon="6.53191">
        <ele>1929.26</ele>
        <time>2014-01-28T15:21:39Z</time>
      </trkpt>
      <trkpt lat="45.37655" lon="6.53158">
        <ele>1926.2</ele>
        <time>2014-01-28T15:21:42Z</time>
      </trkpt>
      <trkpt lat="45.37645" lon="6.53134">
        <ele>1924.91</ele>
        <time>2014-01-28T15:21:45Z</time>
      </trkpt>
      <trkpt lat="45.37632" lon="6.53102">
        <ele>1914.33</ele>
        <time>2014-01-28T15:21:48Z</time>
      </trkpt>
      <trkpt lat="45.3762" lon="6.53083">
        <ele>1912.75</ele>
        <time>2014-01-28T15:21:50Z</time>
      </trkpt>
      <trkpt lat="45.37614" lon="6.53055">
        <ele>1908.91</ele>
        <time>2014-01-28T15:21:53Z</time>
      </trkpt>
      <trkpt lat="45.37601" lon="6.53033">
        <ele>1902.4</ele>
        <time>2014-01-28T15:21:56Z</time>
      </trkpt>
      <trkpt lat="45.37594" lon="6.53003">
        <ele>1893.86</ele>
        <time>2014-01-28T15:21:59Z</time>
      </trkpt>
      <trkpt lat="45.3759" lon="6.52972">
        <ele>1887.2</ele>
        <time>2014-01-28T15:22:02Z</time>
      </trkpt>
      <trkpt lat="45.37599" lon="6.52941">
        <ele>1883.36</ele>
        <time>2014-01-28T15:22:05Z</time>
      </trkpt>
      <trkpt lat="45.37601" lon="6.52908">
        <ele>1877.26</ele>
        <time>2014-01-28T15:22:08Z</time>
      </trkpt>
      <trkpt lat="45.37604" lon="6.52874">
        <ele>1869.33</ele>
        <time>2014-01-28T15:22:11Z</time>
      </trkpt>
      <trkpt lat="45.37595" lon="6.52852">
        <ele>1863.7</ele>
        <time>2014-01-28T15:22:13Z</time>
      </trkpt>
      <trkpt lat="45.37595" lon="6.52816">
        <ele>1855.17</ele>
        <time>2014-01-28T15:22:16Z</time>
      </trkpt>
      <trkpt lat="45.37591" lon="6.52784">
        <ele>1849.85</ele>
        <time>2014-01-28T15:22:18Z</time>
      </trkpt>
      <trkpt lat="45.37587" lon="6.52753">
        <ele>1845.81</ele>
        <time>2014-01-28T15:22:20Z</time>
      </trkpt>
      <trkpt lat="45.37584" lon="6.52723">
        <ele>1841.04</ele>
        <time>2014-01-28T15:22:22Z</time>
      </trkpt>
      <trkpt lat="45.3758" lon="6.52694">
        <ele>1835.25</ele>
        <time>2014-01-28T15:22:24Z</time>
      </trkpt>
      <trkpt lat="45.37563" lon="6.5267">
        <ele>1824.62</ele>
        <time>2014-01-28T15:22:27Z</time>
      </trkpt>
      <trkpt lat="45.37544" lon="6.52673">
        <ele>1821.32</ele>
        <time>2014-01-28T15:22:30Z</time>
      </trkpt>
      <trkpt lat="45.37526" lon="6.52683">
        <ele>1820.95</ele>
        <time>2014-01-28T15:22:33Z</time>
      </trkpt>
      <trkpt lat="45.37504" lon="6.52696">
        <ele>1821.62</ele>
        <time>2014-01-28T15:22:37Z</time>
      </trkpt>
      <trkpt lat="45.37486" lon="6.52707">
        <ele>1822.02</ele>
        <time>2014-01-28T15:22:40Z</time>
      </trkpt>
      <trkpt lat="45.37468" lon="6.52716">
        <ele>1821.17</ele>
        <time>2014-01-28T15:22:44Z</time>
      </trkpt>
      <trkpt lat="45.3745" lon="6.52725">
        <ele>1820.19</ele>
        <time>2014-01-28T15:22:49Z</time>
      </trkpt>
      <trkpt lat="45.37437" lon="6.52748">
        <ele>1812.34</ele>
        <time>2014-01-28T15:22:58Z</time>
      </trkpt>
      <trkpt lat="45.37426" lon="6.52773">
        <ele>1806.79</ele>
        <time>2014-01-28T15:23:03Z</time>
      </trkpt>
      <trkpt lat="45.37416" lon="6.528">
        <ele>1804.18</ele>
        <time>2014-01-28T15:23:07Z</time>
      </trkpt>
      <trkpt lat="45.37407" lon="6.52823">
        <ele>1804.23</ele>
        <time>2014-01-28T15:23:10Z</time>
      </trkpt>
      <trkpt lat="45.37397" lon="6.52847">
        <ele>1802.49</ele>
        <time>2014-01-28T15:23:13Z</time>
      </trkpt>
      <trkpt lat="45.37387" lon="6.5287">
        <ele>1801.09</ele>
        <time>2014-01-28T15:23:16Z</time>
      </trkpt>
      <trkpt lat="45.37376" lon="6.52893">
        <ele>1804.67</ele>
        <time>2014-01-28T15:23:19Z</time>
      </trkpt>
      <trkpt lat="45.37359" lon="6.52916">
        <ele>1803.87</ele>
        <time>2014-01-28T15:23:22Z</time>
      </trkpt>
      <trkpt lat="45.37332" lon="6.52921">
        <ele>1803.25</ele>
        <time>2014-01-28T15:23:25Z</time>
      </trkpt>
      <trkpt lat="45.37307" lon="6.52917">
        <ele>1801.18</ele>
        <time>2014-01-28T15:23:28Z</time>
      </trkpt>
      <trkpt lat="45.37289" lon="6.52894">
        <ele>1796.11</ele>
        <time>2014-01-28T15:23:31Z</time>
      </trkpt>
      <trkpt lat="45.37278" lon="6.52872">
        <ele>1792.82</ele>
        <time>2014-01-28T15:23:34Z</time>
      </trkpt>
      <trkpt lat="45.3726" lon="6.52867">
        <ele>1788.15</ele>
        <time>2014-01-28T15:23:46Z</time>
      </trkpt>
      <trkpt lat="45.37259" lon="6.52897">
        <ele>1791.35</ele>
        <time>2014-01-28T15:24:17Z</time>
      </trkpt>
      <trkpt lat="45.37252" lon="6.52922">
        <ele>1794.52</ele>
        <time>2014-01-28T15:24:23Z</time>
      </trkpt>
      <trkpt lat="45.37242" lon="6.52947">
        <ele>1799.78</ele>
        <time>2014-01-28T15:24:28Z</time>
      </trkpt>
      <trkpt lat="45.37234" lon="6.52971">
        <ele>1803.31</ele>
        <time>2014-01-28T15:24:33Z</time>
      </trkpt>
      <trkpt lat="45.37226" lon="6.53">
        <ele>1807.27</ele>
        <time>2014-01-28T15:24:39Z</time>
      </trkpt>
      <trkpt lat="45.37218" lon="6.5303">
        <ele>1811.09</ele>
        <time>2014-01-28T15:24:44Z</time>
      </trkpt>
      <trkpt lat="45.37212" lon="6.53055">
        <ele>1814.55</ele>
        <time>2014-01-28T15:24:47Z</time>
      </trkpt>
      <trkpt lat="45.37206" lon="6.53079">
        <ele>1818.01</ele>
        <time>2014-01-28T15:24:51Z</time>
      </trkpt>
      <trkpt lat="45.37198" lon="6.53106">
        <ele>1822.88</ele>
        <time>2014-01-28T15:24:56Z</time>
      </trkpt>
      <trkpt lat="45.3719" lon="6.53131">
        <ele>1829.41</ele>
        <time>2014-01-28T15:25:00Z</time>
      </trkpt>
      <trkpt lat="45.37184" lon="6.53156">
        <ele>1838.51</ele>
        <time>2014-01-28T15:25:04Z</time>
      </trkpt>
      <trkpt lat="45.37177" lon="6.5318">
        <ele>1848.75</ele>
        <time>2014-01-28T15:25:08Z</time>
      </trkpt>
      <trkpt lat="45.37169" lon="6.53208">
        <ele>1858.82</ele>
        <time>2014-01-28T15:25:14Z</time>
      </trkpt>
      <trkpt lat="45.37161" lon="6.53235">
        <ele>1867.4</ele>
        <time>2014-01-28T15:25:19Z</time>
      </trkpt>
      <trkpt lat="45.37154" lon="6.5326">
        <ele>1873</ele>
        <time>2014-01-28T15:25:24Z</time>
      </trkpt>
      <trkpt lat="45.37146" lon="6.53286">
        <ele>1876.43</ele>
        <time>2014-01-28T15:25:28Z</time>
      </trkpt>
      <trkpt lat="45.37139" lon="6.53314">
        <ele>1879.9</ele>
        <time>2014-01-28T15:25:33Z</time>
      </trkpt>
      <trkpt lat="45.37131" lon="6.53344">
        <ele>1883.87</ele>
        <time>2014-01-28T15:25:38Z</time>
      </trkpt>
      <trkpt lat="45.37125" lon="6.53368">
        <ele>1886.66</ele>
        <time>2014-01-28T15:25:42Z</time>
      </trkpt>
      <trkpt lat="45.37117" lon="6.53395">
        <ele>1890.15</ele>
        <time>2014-01-28T15:25:47Z</time>
      </trkpt>
      <trkpt lat="45.3711" lon="6.5342">
        <ele>1894.66</ele>
        <time>2014-01-28T15:25:51Z</time>
      </trkpt>
      <trkpt lat="45.37102" lon="6.53448">
        <ele>1900.13</ele>
        <time>2014-01-28T15:25:56Z</time>
      </trkpt>
      <trkpt lat="45.37095" lon="6.53472">
        <ele>1903.6</ele>
        <time>2014-01-28T15:26:01Z</time>
      </trkpt>
      <trkpt lat="45.37088" lon="6.53496">
        <ele>1906.57</ele>
        <time>2014-01-28T15:26:05Z</time>
      </trkpt>
      <trkpt lat="45.37081" lon="6.53526">
        <ele>1910.58</ele>
        <time>2014-01-28T15:26:10Z</time>
      </trkpt>
      <trkpt lat="45.37073" lon="6.53553">
        <ele>1916.49</ele>
        <time>2014-01-28T15:26:15Z</time>
      </trkpt>
      <trkpt lat="45.37065" lon="6.5358">
        <ele>1922.21</ele>
        <time>2014-01-28T15:26:20Z</time>
      </trkpt>
      <trkpt lat="45.37058" lon="6.53604">
        <ele>1928.33</ele>
        <time>2014-01-28T15:26:24Z</time>
      </trkpt>
      <trkpt lat="45.37051" lon="6.53631">
        <ele>1936.55</ele>
        <time>2014-01-28T15:26:29Z</time>
      </trkpt>
      <trkpt lat="45.37043" lon="6.53658">
        <ele>1940.66</ele>
        <time>2014-01-28T15:26:34Z</time>
      </trkpt>
      <trkpt lat="45.37035" lon="6.53687">
        <ele>1945.07</ele>
        <time>2014-01-28T15:26:39Z</time>
      </trkpt>
      <trkpt lat="45.37028" lon="6.53713">
        <ele>1953.24</ele>
        <time>2014-01-28T15:26:44Z</time>
      </trkpt>
      <trkpt lat="45.37021" lon="6.5374">
        <ele>1962.22</ele>
        <time>2014-01-28T15:26:49Z</time>
      </trkpt>
      <trkpt lat="45.37012" lon="6.53769">
        <ele>1968.62</ele>
        <time>2014-01-28T15:26:54Z</time>
      </trkpt>
      <trkpt lat="45.37005" lon="6.53795">
        <ele>1973.35</ele>
        <time>2014-01-28T15:26:58Z</time>
      </trkpt>
      <trkpt lat="45.36997" lon="6.53824">
        <ele>1979.17</ele>
        <time>2014-01-28T15:27:03Z</time>
      </trkpt>
      <trkpt lat="45.36989" lon="6.53852">
        <ele>1987.3</ele>
        <time>2014-01-28T15:27:08Z</time>
      </trkpt>
      <trkpt lat="45.36981" lon="6.53879">
        <ele>1992.14</ele>
        <time>2014-01-28T15:27:13Z</time>
      </trkpt>
      <trkpt lat="45.36974" lon="6.53904">
        <ele>1995.33</ele>
        <time>2014-01-28T15:27:18Z</time>
      </trkpt>
      <trkpt lat="45.36967" lon="6.53931">
        <ele>1998.86</ele>
        <time>2014-01-28T15:27:22Z</time>
      </trkpt>
      <trkpt lat="45.3696" lon="6.53957">
        <ele>2001.31</ele>
        <time>2014-01-28T15:27:27Z</time>
      </trkpt>
      <trkpt lat="45.36952" lon="6.53982">
        <ele>2004.56</ele>
        <time>2014-01-28T15:27:32Z</time>
      </trkpt>
      <trkpt lat="45.36945" lon="6.54009">
        <ele>2008.64</ele>
        <time>2014-01-28T15:27:38Z</time>
      </trkpt>
      <trkpt lat="45.36937" lon="6.54034">
        <ele>2011.58</ele>
        <time>2014-01-28T15:27:44Z</time>
      </trkpt>
      <trkpt lat="45.3693" lon="6.54058">
        <ele>2014.43</ele>
        <time>2014-01-28T15:27:49Z</time>
      </trkpt>
      <trkpt lat="45.36923" lon="6.54084">
        <ele>2023</ele>
        <time>2014-01-28T15:27:54Z</time>
      </trkpt>
      <trkpt lat="45.36916" lon="6.54108">
        <ele>2032.51</ele>
        <time>2014-01-28T15:27:59Z</time>
      </trkpt>
      <trkpt lat="45.36908" lon="6.54135">
        <ele>2045.26</ele>
        <time>2014-01-28T15:28:05Z</time>
      </trkpt>
      <trkpt lat="45.369" lon="6.54166">
        <ele>2058.73</ele>
        <time>2014-01-28T15:28:10Z</time>
      </trkpt>
      <trkpt lat="45.36893" lon="6.54191">
        <ele>2069.15</ele>
        <time>2014-01-28T15:28:14Z</time>
      </trkpt>
      <trkpt lat="45.36886" lon="6.54216">
        <ele>2076.4</ele>
        <time>2014-01-28T15:28:18Z</time>
      </trkpt>
      <trkpt lat="45.36878" lon="6.54242">
        <ele>2080.52</ele>
        <time>2014-01-28T15:28:25Z</time>
      </trkpt>
      <trkpt lat="45.36871" lon="6.54266">
        <ele>2086.41</ele>
        <time>2014-01-28T15:28:31Z</time>
      </trkpt>
      <trkpt lat="45.36864" lon="6.54293">
        <ele>2093.03</ele>
        <time>2014-01-28T15:28:36Z</time>
      </trkpt>
      <trkpt lat="45.36856" lon="6.54322">
        <ele>2096.29</ele>
        <time>2014-01-28T15:28:41Z</time>
      </trkpt>
      <trkpt lat="45.36848" lon="6.5435">
        <ele>2093.88</ele>
        <time>2014-01-28T15:28:46Z</time>
      </trkpt>
      <trkpt lat="45.3684" lon="6.54376">
        <ele>2095.34</ele>
        <time>2014-01-28T15:28:51Z</time>
      </trkpt>
      <trkpt lat="45.36831" lon="6.54405">
        <ele>2099.32</ele>
        <time>2014-01-28T15:28:55Z</time>
      </trkpt>
      <trkpt lat="45.36823" lon="6.54435">
        <ele>2102.55</ele>
        <time>2014-01-28T15:28:59Z</time>
      </trkpt>
      <trkpt lat="45.36815" lon="6.54461">
        <ele>2108.45</ele>
        <time>2014-01-28T15:29:03Z</time>
      </trkpt>
      <trkpt lat="45.36808" lon="6.54492">
        <ele>2117.86</ele>
        <time>2014-01-28T15:29:07Z</time>
      </trkpt>
      <trkpt lat="45.36801" lon="6.54521">
        <ele>2123.58</ele>
        <time>2014-01-28T15:29:11Z</time>
      </trkpt>
      <trkpt lat="45.36794" lon="6.5455">
        <ele>2127.64</ele>
        <time>2014-01-28T15:29:15Z</time>
      </trkpt>
      <trkpt lat="45.36788" lon="6.54575">
        <ele>2129.58</ele>
        <time>2014-01-28T15:29:19Z</time>
      </trkpt>
      <trkpt lat="45.3678" lon="6.54601">
        <ele>2130.36</ele>
        <time>2014-01-28T15:29:24Z</time>
      </trkpt>
      <trkpt lat="45.36772" lon="6.54627">
        <ele>2133.03</ele>
        <time>2014-01-28T15:29:29Z</time>
      </trkpt>
      <trkpt lat="45.36765" lon="6.54653">
        <ele>2138.38</ele>
        <time>2014-01-28T15:29:35Z</time>
      </trkpt>
      <trkpt lat="45.36759" lon="6.54678">
        <ele>2143.47</ele>
        <time>2014-01-28T15:29:44Z</time>
      </trkpt>
      <trkpt lat="45.36751" lon="6.54701">
        <ele>2149.51</ele>
        <time>2014-01-28T15:29:50Z</time>
      </trkpt>
      <trkpt lat="45.36742" lon="6.54726">
        <ele>2163.52</ele>
        <time>2014-01-28T15:29:54Z</time>
      </trkpt>
      <trkpt lat="45.36735" lon="6.54752">
        <ele>2179.6</ele>
        <time>2014-01-28T15:29:57Z</time>
      </trkpt>
      <trkpt lat="45.36727" lon="6.5478">
        <ele>2185.69</ele>
        <time>2014-01-28T15:30:00Z</time>
      </trkpt>
      <trkpt lat="45.3672" lon="6.54807">
        <ele>2186.67</ele>
        <time>2014-01-28T15:30:04Z</time>
      </trkpt>
      <trkpt lat="45.36711" lon="6.54836">
        <ele>2190.17</ele>
        <time>2014-01-28T15:30:09Z</time>
      </trkpt>
      <trkpt lat="45.36703" lon="6.54864">
        <ele>2194.8</ele>
        <time>2014-01-28T15:30:14Z</time>
      </trkpt>
      <trkpt lat="45.36696" lon="6.54889">
        <ele>2197.08</ele>
        <time>2014-01-28T15:30:18Z</time>
      </trkpt>
      <trkpt lat="45.36688" lon="6.54917">
        <ele>2198.71</ele>
        <time>2014-01-28T15:30:23Z</time>
      </trkpt>
      <trkpt lat="45.36682" lon="6.54942">
        <ele>2194.09</ele>
        <time>2014-01-28T15:30:27Z</time>
      </trkpt>
      <trkpt lat="45.36675" lon="6.54968">
        <ele>2194.19</ele>
        <time>2014-01-28T15:30:31Z</time>
      </trkpt>
      <trkpt lat="45.36668" lon="6.54996">
        <ele>2198.99</ele>
        <time>2014-01-28T15:30:36Z</time>
      </trkpt>
      <trkpt lat="45.36662" lon="6.55023">
        <ele>2203.27</ele>
        <time>2014-01-28T15:30:41Z</time>
      </trkpt>
      <trkpt lat="45.36655" lon="6.55051">
        <ele>2210.32</ele>
        <time>2014-01-28T15:30:47Z</time>
      </trkpt>
      <trkpt lat="45.36647" lon="6.55078">
        <ele>2217.11</ele>
        <time>2014-01-28T15:30:52Z</time>
      </trkpt>
      <trkpt lat="45.3664" lon="6.55103">
        <ele>2224.18</ele>
        <time>2014-01-28T15:30:57Z</time>
      </trkpt>
      <trkpt lat="45.36632" lon="6.55128">
        <ele>2231.36</ele>
        <time>2014-01-28T15:31:01Z</time>
      </trkpt>
      <trkpt lat="45.36624" lon="6.55153">
        <ele>2238.14</ele>
        <time>2014-01-28T15:31:05Z</time>
      </trkpt>
      <trkpt lat="45.36615" lon="6.55181">
        <ele>2244.96</ele>
        <time>2014-01-28T15:31:10Z</time>
      </trkpt>
      <trkpt lat="45.36607" lon="6.55209">
        <ele>2250.39</ele>
        <time>2014-01-28T15:31:15Z</time>
      </trkpt>
      <trkpt lat="45.36599" lon="6.55236">
        <ele>2255.31</ele>
        <time>2014-01-28T15:31:20Z</time>
      </trkpt>
      <trkpt lat="45.36593" lon="6.5526">
        <ele>2259.5</ele>
        <time>2014-01-28T15:31:24Z</time>
      </trkpt>
      <trkpt lat="45.36586" lon="6.55289">
        <ele>2263.3</ele>
        <time>2014-01-28T15:31:29Z</time>
      </trkpt>
      <trkpt lat="45.36578" lon="6.55319">
        <ele>2264.82</ele>
        <time>2014-01-28T15:31:34Z</time>
      </trkpt>
      <trkpt lat="45.36571" lon="6.55345">
        <ele>2267.68</ele>
        <time>2014-01-28T15:31:38Z</time>
      </trkpt>
      <trkpt lat="45.36562" lon="6.55374">
        <ele>2275.99</ele>
        <time>2014-01-28T15:31:43Z</time>
      </trkpt>
      <trkpt lat="45.36554" lon="6.554">
        <ele>2283.56</ele>
        <time>2014-01-28T15:31:48Z</time>
      </trkpt>
      <trkpt lat="45.36546" lon="6.55428">
        <ele>2288.66</ele>
        <time>2014-01-28T15:31:53Z</time>
      </trkpt>
      <trkpt lat="45.36538" lon="6.55457">
        <ele>2292.93</ele>
        <time>2014-01-28T15:31:58Z</time>
      </trkpt>
      <trkpt lat="45.36531" lon="6.55485">
        <ele>2296.75</ele>
        <time>2014-01-28T15:32:03Z</time>
      </trkpt>
      <trkpt lat="45.36524" lon="6.55511">
        <ele>2303.28</ele>
        <time>2014-01-28T15:32:09Z</time>
      </trkpt>
      <trkpt lat="45.36516" lon="6.55534">
        <ele>2310.88</ele>
        <time>2014-01-28T15:32:15Z</time>
      </trkpt>
      <trkpt lat="45.36508" lon="6.55564">
        <ele>2318.82</ele>
        <time>2014-01-28T15:32:21Z</time>
      </trkpt>
      <trkpt lat="45.36504" lon="6.5559">
        <ele>2327.16</ele>
        <time>2014-01-28T15:32:24Z</time>
      </trkpt>
      <trkpt lat="45.36498" lon="6.55619">
        <ele>2342.55</ele>
        <time>2014-01-28T15:32:28Z</time>
      </trkpt>
      <trkpt lat="45.36492" lon="6.55642">
        <ele>2358.77</ele>
        <time>2014-01-28T15:32:33Z</time>
      </trkpt>
      <trkpt lat="45.36483" lon="6.5567">
        <ele>2369.47</ele>
        <time>2014-01-28T15:32:38Z</time>
      </trkpt>
      <trkpt lat="45.36474" lon="6.55696">
        <ele>2381.03</ele>
        <time>2014-01-28T15:32:42Z</time>
      </trkpt>
      <trkpt lat="45.36469" lon="6.55722">
        <ele>2389.27</ele>
        <time>2014-01-28T15:32:50Z</time>
      </trkpt>
      <trkpt lat="45.36489" lon="6.55717">
        <ele>2394.81</ele>
        <time>2014-01-28T15:33:00Z</time>
      </trkpt>
      <trkpt lat="45.36508" lon="6.55708">
        <ele>2395.71</ele>
        <time>2014-01-28T15:33:06Z</time>
      </trkpt>
      <trkpt lat="45.36527" lon="6.55698">
        <ele>2393.82</ele>
        <time>2014-01-28T15:33:11Z</time>
      </trkpt>
      <trkpt lat="45.36547" lon="6.55686">
        <ele>2397.42</ele>
        <time>2014-01-28T15:33:16Z</time>
      </trkpt>
      <trkpt lat="45.36563" lon="6.55673">
        <ele>2392.8</ele>
        <time>2014-01-28T15:33:22Z</time>
      </trkpt>
      <trkpt lat="45.36585" lon="6.55674">
        <ele>2393.86</ele>
        <time>2014-01-28T15:33:29Z</time>
      </trkpt>
      <trkpt lat="45.36606" lon="6.55661">
        <ele>2386.53</ele>
        <time>2014-01-28T15:33:32Z</time>
      </trkpt>
      <trkpt lat="45.36626" lon="6.55661">
        <ele>2384.59</ele>
        <time>2014-01-28T15:33:35Z</time>
      </trkpt>
      <trkpt lat="45.36647" lon="6.5566">
        <ele>2380.34</ele>
        <time>2014-01-28T15:33:39Z</time>
      </trkpt>
      <trkpt lat="45.36662" lon="6.55639">
        <ele>2371.25</ele>
        <time>2014-01-28T15:33:42Z</time>
      </trkpt>
      <trkpt lat="45.36683" lon="6.55624">
        <ele>2364.46</ele>
        <time>2014-01-28T15:33:45Z</time>
      </trkpt>
      <trkpt lat="45.36699" lon="6.55598">
        <ele>2357.73</ele>
        <time>2014-01-28T15:33:48Z</time>
      </trkpt>
      <trkpt lat="45.36715" lon="6.5557">
        <ele>2353.49</ele>
        <time>2014-01-28T15:33:51Z</time>
      </trkpt>
      <trkpt lat="45.36722" lon="6.55533">
        <ele>2344.94</ele>
        <time>2014-01-28T15:33:54Z</time>
      </trkpt>
      <trkpt lat="45.36736" lon="6.55501">
        <ele>2340.7</ele>
        <time>2014-01-28T15:33:57Z</time>
      </trkpt>
      <trkpt lat="45.36742" lon="6.55476">
        <ele>2338.89</ele>
        <time>2014-01-28T15:33:59Z</time>
      </trkpt>
      <trkpt lat="45.36748" lon="6.55446">
        <ele>2338.94</ele>
        <time>2014-01-28T15:34:02Z</time>
      </trkpt>
      <trkpt lat="45.36759" lon="6.55421">
        <ele>2336.8</ele>
        <time>2014-01-28T15:34:05Z</time>
      </trkpt>
      <trkpt lat="45.36768" lon="6.55395">
        <ele>2334.03</ele>
        <time>2014-01-28T15:34:08Z</time>
      </trkpt>
      <trkpt lat="45.36786" lon="6.55372">
        <ele>2330.97</ele>
        <time>2014-01-28T15:34:11Z</time>
      </trkpt>
      <trkpt lat="45.36803" lon="6.55353">
        <ele>2326.46</ele>
        <time>2014-01-28T15:34:13Z</time>
      </trkpt>
      <trkpt lat="45.36819" lon="6.55331">
        <ele>2315.27</ele>
        <time>2014-01-28T15:34:15Z</time>
      </trkpt>
      <trkpt lat="45.36834" lon="6.5531">
        <ele>2308.24</ele>
        <time>2014-01-28T15:34:17Z</time>
      </trkpt>
      <trkpt lat="45.36843" lon="6.55287">
        <ele>2306.34</ele>
        <time>2014-01-28T15:34:19Z</time>
      </trkpt>
      <trkpt lat="45.36847" lon="6.55261">
        <ele>2304.08</ele>
        <time>2014-01-28T15:34:21Z</time>
      </trkpt>
      <trkpt lat="45.36851" lon="6.55228">
        <ele>2302.97</ele>
        <time>2014-01-28T15:34:24Z</time>
      </trkpt>
      <trkpt lat="45.36865" lon="6.55207">
        <ele>2306.36</ele>
        <time>2014-01-28T15:34:27Z</time>
      </trkpt>
      <trkpt lat="45.36886" lon="6.55191">
        <ele>2308.11</ele>
        <time>2014-01-28T15:34:30Z</time>
      </trkpt>
      <trkpt lat="45.36907" lon="6.55176">
        <ele>2305.08</ele>
        <time>2014-01-28T15:34:33Z</time>
      </trkpt>
      <trkpt lat="45.36928" lon="6.55158">
        <ele>2302.52</ele>
        <time>2014-01-28T15:34:36Z</time>
      </trkpt>
      <trkpt lat="45.36947" lon="6.55139">
        <ele>2302.35</ele>
        <time>2014-01-28T15:34:39Z</time>
      </trkpt>
      <trkpt lat="45.36964" lon="6.55116">
        <ele>2299.02</ele>
        <time>2014-01-28T15:34:42Z</time>
      </trkpt>
      <trkpt lat="45.3698" lon="6.55093">
        <ele>2297.01</ele>
        <time>2014-01-28T15:34:45Z</time>
      </trkpt>
      <trkpt lat="45.36995" lon="6.55071">
        <ele>2296.32</ele>
        <time>2014-01-28T15:34:48Z</time>
      </trkpt>
      <trkpt lat="45.37009" lon="6.55051">
        <ele>2294.8</ele>
        <time>2014-01-28T15:34:51Z</time>
      </trkpt>
      <trkpt lat="45.37025" lon="6.55029">
        <ele>2292.71</ele>
        <time>2014-01-28T15:34:55Z</time>
      </trkpt>
      <trkpt lat="45.37037" lon="6.55004">
        <ele>2288.61</ele>
        <time>2014-01-28T15:35:18Z</time>
      </trkpt>
      <trkpt lat="45.37036" lon="6.54973">
        <ele>2281.83</ele>
        <time>2014-01-28T15:35:22Z</time>
      </trkpt>
      <trkpt lat="45.37049" lon="6.5495">
        <ele>2276.8</ele>
        <time>2014-01-28T15:35:26Z</time>
      </trkpt>
      <trkpt lat="45.37057" lon="6.54926">
        <ele>2270.16</ele>
        <time>2014-01-28T15:35:29Z</time>
      </trkpt>
      <trkpt lat="45.37071" lon="6.54905">
        <ele>2266.59</ele>
        <time>2014-01-28T15:36:05Z</time>
      </trkpt>
      <trkpt lat="45.37083" lon="6.54885">
        <ele>2262.77</ele>
        <time>2014-01-28T15:36:10Z</time>
      </trkpt>
      <trkpt lat="45.37088" lon="6.54857">
        <ele>2254.07</ele>
        <time>2014-01-28T15:36:16Z</time>
      </trkpt>
      <trkpt lat="45.37094" lon="6.54832">
        <ele>2246.11</ele>
        <time>2014-01-28T15:36:24Z</time>
      </trkpt>
      <trkpt lat="45.37111" lon="6.54807">
        <ele>2238.62</ele>
        <time>2014-01-28T15:36:29Z</time>
      </trkpt>
      <trkpt lat="45.3711" lon="6.54782">
        <ele>2229.24</ele>
        <time>2014-01-28T15:36:35Z</time>
      </trkpt>
      <trkpt lat="45.37106" lon="6.54755">
        <ele>2219.16</ele>
        <time>2014-01-28T15:36:40Z</time>
      </trkpt>
      <trkpt lat="45.37108" lon="6.54725">
        <ele>2209.46</ele>
        <time>2014-01-28T15:36:48Z</time>
      </trkpt>
      <trkpt lat="45.37122" lon="6.54707">
        <ele>2205.61</ele>
        <time>2014-01-28T15:36:52Z</time>
      </trkpt>
      <trkpt lat="45.37121" lon="6.54677">
        <ele>2194.08</ele>
        <time>2014-01-28T15:37:00Z</time>
      </trkpt>
      <trkpt lat="45.37135" lon="6.54656">
        <ele>2189.15</ele>
        <time>2014-01-28T15:37:04Z</time>
      </trkpt>
      <trkpt lat="45.3715" lon="6.54638">
        <ele>2185.39</ele>
        <time>2014-01-28T15:37:08Z</time>
      </trkpt>
      <trkpt lat="45.37166" lon="6.54624">
        <ele>2183.58</ele>
        <time>2014-01-28T15:37:13Z</time>
      </trkpt>
      <trkpt lat="45.37184" lon="6.54609">
        <ele>2180.12</ele>
        <time>2014-01-28T15:37:18Z</time>
      </trkpt>
      <trkpt lat="45.37167" lon="6.54597">
        <ele>2173.91</ele>
        <time>2014-01-28T15:37:24Z</time>
      </trkpt>
      <trkpt lat="45.37166" lon="6.54568">
        <ele>2162</ele>
        <time>2014-01-28T15:37:33Z</time>
      </trkpt>
      <trkpt lat="45.37148" lon="6.54557">
        <ele>2152.92</ele>
        <time>2014-01-28T15:37:38Z</time>
      </trkpt>
      <trkpt lat="45.37149" lon="6.54531">
        <ele>2144.09</ele>
        <time>2014-01-28T15:37:45Z</time>
      </trkpt>
      <trkpt lat="45.37156" lon="6.54504">
        <ele>2139.09</ele>
        <time>2014-01-28T15:37:56Z</time>
      </trkpt>
      <trkpt lat="45.37141" lon="6.54486">
        <ele>2133.61</ele>
        <time>2014-01-28T15:38:00Z</time>
      </trkpt>
      <trkpt lat="45.37128" lon="6.5446">
        <ele>2130.43</ele>
        <time>2014-01-28T15:38:06Z</time>
      </trkpt>
      <trkpt lat="45.37127" lon="6.54433">
        <ele>2124.4</ele>
        <time>2014-01-28T15:38:21Z</time>
      </trkpt>
      <trkpt lat="45.37139" lon="6.54412">
        <ele>2116.81</ele>
        <time>2014-01-28T15:38:57Z</time>
      </trkpt>
      <trkpt lat="45.37154" lon="6.54398">
        <ele>2113.07</ele>
        <time>2014-01-28T15:39:03Z</time>
      </trkpt>
      <trkpt lat="45.37166" lon="6.54373">
        <ele>2103.08</ele>
        <time>2014-01-28T15:39:09Z</time>
      </trkpt>
      <trkpt lat="45.37173" lon="6.54348">
        <ele>2092.93</ele>
        <time>2014-01-28T15:39:13Z</time>
      </trkpt>
      <trkpt lat="45.37189" lon="6.54329">
        <ele>2086.23</ele>
        <time>2014-01-28T15:39:17Z</time>
      </trkpt>
      <trkpt lat="45.37182" lon="6.54306">
        <ele>2076.17</ele>
        <time>2014-01-28T15:39:22Z</time>
      </trkpt>
      <trkpt lat="45.37201" lon="6.54288">
        <ele>2071.09</ele>
        <time>2014-01-28T15:39:27Z</time>
      </trkpt>
      <trkpt lat="45.37212" lon="6.54268">
        <ele>2065.37</ele>
        <time>2014-01-28T15:39:32Z</time>
      </trkpt>
      <trkpt lat="45.37228" lon="6.5425">
        <ele>2060.09</ele>
        <time>2014-01-28T15:39:37Z</time>
      </trkpt>
      <trkpt lat="45.37235" lon="6.54223">
        <ele>2050</ele>
        <time>2014-01-28T15:39:41Z</time>
      </trkpt>
      <trkpt lat="45.37216" lon="6.54213">
        <ele>2044.78</ele>
        <time>2014-01-28T15:39:46Z</time>
      </trkpt>
      <trkpt lat="45.3723" lon="6.5419">
        <ele>2041.93</ele>
        <time>2014-01-28T15:39:50Z</time>
      </trkpt>
      <trkpt lat="45.37228" lon="6.54164">
        <ele>2037.31</ele>
        <time>2014-01-28T15:39:53Z</time>
      </trkpt>
      <trkpt lat="45.37222" lon="6.54139">
        <ele>2033.02</ele>
        <time>2014-01-28T15:39:56Z</time>
      </trkpt>
      <trkpt lat="45.37216" lon="6.54113">
        <ele>2029.67</ele>
        <time>2014-01-28T15:39:59Z</time>
      </trkpt>
      <trkpt lat="45.37209" lon="6.54089">
        <ele>2027.51</ele>
        <time>2014-01-28T15:40:02Z</time>
      </trkpt>
      <trkpt lat="45.37207" lon="6.54063">
        <ele>2024.47</ele>
        <time>2014-01-28T15:40:06Z</time>
      </trkpt>
      <trkpt lat="45.37207" lon="6.54035">
        <ele>2021.31</ele>
        <time>2014-01-28T15:40:10Z</time>
      </trkpt>
      <trkpt lat="45.37208" lon="6.54006">
        <ele>2017.07</ele>
        <time>2014-01-28T15:40:14Z</time>
      </trkpt>
      <trkpt lat="45.37206" lon="6.5398">
        <ele>2011.3</ele>
        <time>2014-01-28T15:40:18Z</time>
      </trkpt>
      <trkpt lat="45.37211" lon="6.53955">
        <ele>2005.2</ele>
        <time>2014-01-28T15:40:23Z</time>
      </trkpt>
      <trkpt lat="45.37203" lon="6.53931">
        <ele>1999.78</ele>
        <time>2014-01-28T15:40:39Z</time>
      </trkpt>
      <trkpt lat="45.37196" lon="6.53903">
        <ele>1994.33</ele>
        <time>2014-01-28T15:40:51Z</time>
      </trkpt>
      <trkpt lat="45.37186" lon="6.5388">
        <ele>1989.94</ele>
        <time>2014-01-28T15:40:55Z</time>
      </trkpt>
      <trkpt lat="45.37189" lon="6.53852">
        <ele>1983.79</ele>
        <time>2014-01-28T15:41:00Z</time>
      </trkpt>
      <trkpt lat="45.37187" lon="6.53825">
        <ele>1977.43</ele>
        <time>2014-01-28T15:41:06Z</time>
      </trkpt>
      <trkpt lat="45.37183" lon="6.53795">
        <ele>1970.25</ele>
        <time>2014-01-28T15:41:11Z</time>
      </trkpt>
      <trkpt lat="45.37178" lon="6.5377">
        <ele>1965.43</ele>
        <time>2014-01-28T15:41:15Z</time>
      </trkpt>
      <trkpt lat="45.37178" lon="6.53739">
        <ele>1961.06</ele>
        <time>2014-01-28T15:41:19Z</time>
      </trkpt>
      <trkpt lat="45.37185" lon="6.53714">
        <ele>1957.31</ele>
        <time>2014-01-28T15:41:42Z</time>
      </trkpt>
      <trkpt lat="45.37195" lon="6.53692">
        <ele>1951.28</ele>
        <time>2014-01-28T15:41:49Z</time>
      </trkpt>
      <trkpt lat="45.37201" lon="6.53666">
        <ele>1945.03</ele>
        <time>2014-01-28T15:41:53Z</time>
      </trkpt>
      <trkpt lat="45.37199" lon="6.53636">
        <ele>1937.95</ele>
        <time>2014-01-28T15:41:57Z</time>
      </trkpt>
      <trkpt lat="45.37188" lon="6.53612">
        <ele>1933.17</ele>
        <time>2014-01-28T15:42:01Z</time>
      </trkpt>
      <trkpt lat="45.37177" lon="6.53585">
        <ele>1928.89</ele>
        <time>2014-01-28T15:42:19Z</time>
      </trkpt>
      <trkpt lat="45.37164" lon="6.53564">
        <ele>1926.64</ele>
        <time>2014-01-28T15:42:23Z</time>
      </trkpt>
      <trkpt lat="45.37169" lon="6.53536">
        <ele>1923.81</ele>
        <time>2014-01-28T15:42:29Z</time>
      </trkpt>
      <trkpt lat="45.37186" lon="6.53523">
        <ele>1921.66</ele>
        <time>2014-01-28T15:42:32Z</time>
      </trkpt>
      <trkpt lat="45.37204" lon="6.53508">
        <ele>1917.32</ele>
        <time>2014-01-28T15:42:37Z</time>
      </trkpt>
      <trkpt lat="45.37214" lon="6.53481">
        <ele>1909.69</ele>
        <time>2014-01-28T15:42:44Z</time>
      </trkpt>
      <trkpt lat="45.37212" lon="6.53453">
        <ele>1903.71</ele>
        <time>2014-01-28T15:42:47Z</time>
      </trkpt>
      <trkpt lat="45.372" lon="6.53428">
        <ele>1897.61</ele>
        <time>2014-01-28T15:43:14Z</time>
      </trkpt>
      <trkpt lat="45.37184" lon="6.53416">
        <ele>1892.58</ele>
        <time>2014-01-28T15:43:24Z</time>
      </trkpt>
      <trkpt lat="45.37184" lon="6.53389">
        <ele>1887.92</ele>
        <time>2014-01-28T15:43:37Z</time>
      </trkpt>
      <trkpt lat="45.37192" lon="6.53364">
        <ele>1883.7</ele>
        <time>2014-01-28T15:43:43Z</time>
      </trkpt>
      <trkpt lat="45.37193" lon="6.53336">
        <ele>1877.66</ele>
        <time>2014-01-28T15:43:54Z</time>
      </trkpt>
      <trkpt lat="45.37187" lon="6.53309">
        <ele>1872.9</ele>
        <time>2014-01-28T15:44:11Z</time>
      </trkpt>
      <trkpt lat="45.37189" lon="6.5328">
        <ele>1864.03</ele>
        <time>2014-01-28T15:44:31Z</time>
      </trkpt>
      <trkpt lat="45.3719" lon="6.53253">
        <ele>1859.42</ele>
        <time>2014-01-28T15:44:47Z</time>
      </trkpt>
      <trkpt lat="45.37184" lon="6.53228">
        <ele>1857.83</ele>
        <time>2014-01-28T15:44:53Z</time>
      </trkpt>
      <trkpt lat="45.37174" lon="6.53204">
        <ele>1855.91</ele>
        <time>2014-01-28T15:44:58Z</time>
      </trkpt>
      <trkpt lat="45.37186" lon="6.53181">
        <ele>1845.5</ele>
        <time>2014-01-28T15:45:24Z</time>
      </trkpt>
      <trkpt lat="45.37196" lon="6.53151">
        <ele>1832.99</ele>
        <time>2014-01-28T15:45:27Z</time>
      </trkpt>
      <trkpt lat="45.37199" lon="6.53121">
        <ele>1825.88</ele>
        <time>2014-01-28T15:45:29Z</time>
      </trkpt>
      <trkpt lat="45.37212" lon="6.53093">
        <ele>1820.09</ele>
        <time>2014-01-28T15:45:31Z</time>
      </trkpt>
      <trkpt lat="45.37224" lon="6.53068">
        <ele>1816.35</ele>
        <time>2014-01-28T15:45:33Z</time>
      </trkpt>
      <trkpt lat="45.37233" lon="6.53038">
        <ele>1812.73</ele>
        <time>2014-01-28T15:45:35Z</time>
      </trkpt>
      <trkpt lat="45.37245" lon="6.53006">
        <ele>1809.35</ele>
        <time>2014-01-28T15:45:37Z</time>
      </trkpt>
      <trkpt lat="45.37261" lon="6.5298">
        <ele>1805.17</ele>
        <time>2014-01-28T15:45:39Z</time>
      </trkpt>
      <trkpt lat="45.37276" lon="6.52954">
        <ele>1801.31</ele>
        <time>2014-01-28T15:45:41Z</time>
      </trkpt>
      <trkpt lat="45.37288" lon="6.52929">
        <ele>1799.65</ele>
        <time>2014-01-28T15:45:43Z</time>
      </trkpt>
      <trkpt lat="45.37294" lon="6.52905">
        <ele>1798.08</ele>
        <time>2014-01-28T15:45:45Z</time>
      </trkpt>
      <trkpt lat="45.37295" lon="6.52878">
        <ele>1795.49</ele>
        <time>2014-01-28T15:45:47Z</time>
      </trkpt>
      <trkpt lat="45.37297" lon="6.52842">
        <ele>1792.63</ele>
        <time>2014-01-28T15:45:50Z</time>
      </trkpt>
      <trkpt lat="45.37297" lon="6.52815">
        <ele>1791.65</ele>
        <time>2014-01-28T15:45:52Z</time>
      </trkpt>
      <trkpt lat="45.37296" lon="6.52786">
        <ele>1790.09</ele>
        <time>2014-01-28T15:45:54Z</time>
      </trkpt>
      <trkpt lat="45.37296" lon="6.5275">
        <ele>1787.56</ele>
        <time>2014-01-28T15:45:57Z</time>
      </trkpt>
      <trkpt lat="45.37295" lon="6.52716">
        <ele>1781.44</ele>
        <time>2014-01-28T15:46:00Z</time>
      </trkpt>
      <trkpt lat="45.37291" lon="6.52691">
        <ele>1778.17</ele>
        <time>2014-01-28T15:46:02Z</time>
      </trkpt>
      <trkpt lat="45.37285" lon="6.52662">
        <ele>1775.45</ele>
        <time>2014-01-28T15:46:04Z</time>
      </trkpt>
      <trkpt lat="45.3728" lon="6.52631">
        <ele>1772.66</ele>
        <time>2014-01-28T15:46:06Z</time>
      </trkpt>
      <trkpt lat="45.37274" lon="6.52599">
        <ele>1770.09</ele>
        <time>2014-01-28T15:46:08Z</time>
      </trkpt>
      <trkpt lat="45.3727" lon="6.52569">
        <ele>1768.32</ele>
        <time>2014-01-28T15:46:10Z</time>
      </trkpt>
      <trkpt lat="45.37272" lon="6.52533">
        <ele>1765.59</ele>
        <time>2014-01-28T15:46:13Z</time>
      </trkpt>
      <trkpt lat="45.37284" lon="6.52506">
        <ele>1764.46</ele>
        <time>2014-01-28T15:46:16Z</time>
      </trkpt>
      <trkpt lat="45.37298" lon="6.5248">
        <ele>1761.49</ele>
        <time>2014-01-28T15:46:19Z</time>
      </trkpt>
      <trkpt lat="45.3731" lon="6.52458">
        <ele>1757.66</ele>
        <time>2014-01-28T15:46:22Z</time>
      </trkpt>
      <trkpt lat="45.37324" lon="6.52435">
        <ele>1757.06</ele>
        <time>2014-01-28T15:46:25Z</time>
      </trkpt>
      <trkpt lat="45.3734" lon="6.52412">
        <ele>1757.43</ele>
        <time>2014-01-28T15:46:28Z</time>
      </trkpt>
      <trkpt lat="45.37357" lon="6.52382">
        <ele>1753.81</ele>
        <time>2014-01-28T15:46:31Z</time>
      </trkpt>
      <trkpt lat="45.37381" lon="6.52375">
        <ele>1755.43</ele>
        <time>2014-01-28T15:46:34Z</time>
      </trkpt>
      <trkpt lat="45.374" lon="6.52369">
        <ele>1756.35</ele>
        <time>2014-01-28T15:46:36Z</time>
      </trkpt>
      <trkpt lat="45.37422" lon="6.52362">
        <ele>1754.51</ele>
        <time>2014-01-28T15:46:38Z</time>
      </trkpt>
      <trkpt lat="45.37442" lon="6.52353">
        <ele>1746.45</ele>
        <time>2014-01-28T15:46:40Z</time>
      </trkpt>
      <trkpt lat="45.37461" lon="6.52338">
        <ele>1743.06</ele>
        <time>2014-01-28T15:46:42Z</time>
      </trkpt>
      <trkpt lat="45.3748" lon="6.52327">
        <ele>1738.84</ele>
        <time>2014-01-28T15:46:44Z</time>
      </trkpt>
      <trkpt lat="45.37499" lon="6.52318">
        <ele>1736.33</ele>
        <time>2014-01-28T15:46:46Z</time>
      </trkpt>
      <trkpt lat="45.37516" lon="6.52302">
        <ele>1732.66</ele>
        <time>2014-01-28T15:46:48Z</time>
      </trkpt>
      <trkpt lat="45.37531" lon="6.52283">
        <ele>1727.66</ele>
        <time>2014-01-28T15:46:50Z</time>
      </trkpt>
      <trkpt lat="45.37541" lon="6.52258">
        <ele>1724.32</ele>
        <time>2014-01-28T15:46:52Z</time>
      </trkpt>
      <trkpt lat="45.3755" lon="6.52234">
        <ele>1721.33</ele>
        <time>2014-01-28T15:46:54Z</time>
      </trkpt>
      <trkpt lat="45.37556" lon="6.52208">
        <ele>1717.89</ele>
        <time>2014-01-28T15:46:56Z</time>
      </trkpt>
      <trkpt lat="45.37559" lon="6.52179">
        <ele>1715.11</ele>
        <time>2014-01-28T15:46:58Z</time>
      </trkpt>
      <trkpt lat="45.37564" lon="6.52154">
        <ele>1714.76</ele>
        <time>2014-01-28T15:47:00Z</time>
      </trkpt>
      <trkpt lat="45.37583" lon="6.52133">
        <ele>1718.82</ele>
        <time>2014-01-28T15:47:03Z</time>
      </trkpt>
      <trkpt lat="45.37602" lon="6.52131">
        <ele>1718.59</ele>
        <time>2014-01-28T15:47:05Z</time>
      </trkpt>
      <trkpt lat="45.37622" lon="6.52137">
        <ele>1717.89</ele>
        <time>2014-01-28T15:47:07Z</time>
      </trkpt>
      <trkpt lat="45.37647" lon="6.52148">
        <ele>1715.88</ele>
        <time>2014-01-28T15:47:10Z</time>
      </trkpt>
      <trkpt lat="45.37666" lon="6.52151">
        <ele>1711.16</ele>
        <time>2014-01-28T15:47:13Z</time>
      </trkpt>
      <trkpt lat="45.37664" lon="6.52112">
        <ele>1703.64</ele>
        <time>2014-01-28T15:47:16Z</time>
      </trkpt>
      <trkpt lat="45.37647" lon="6.52076">
        <ele>1700.03</ele>
        <time>2014-01-28T15:47:18Z</time>
      </trkpt>
      <trkpt lat="45.37628" lon="6.5205">
        <ele>1696.76</ele>
        <time>2014-01-28T15:47:20Z</time>
      </trkpt>
      <trkpt lat="45.37614" lon="6.52029">
        <ele>1695.38</ele>
        <time>2014-01-28T15:47:22Z</time>
      </trkpt>
      <trkpt lat="45.37607" lon="6.52005">
        <ele>1691.54</ele>
        <time>2014-01-28T15:47:24Z</time>
      </trkpt>
      <trkpt lat="45.37602" lon="6.51973">
        <ele>1684.91</ele>
        <time>2014-01-28T15:47:27Z</time>
      </trkpt>
      <trkpt lat="45.37609" lon="6.51945">
        <ele>1678.13</ele>
        <time>2014-01-28T15:47:30Z</time>
      </trkpt>
      <trkpt lat="45.37628" lon="6.51931">
        <ele>1680.7</ele>
        <time>2014-01-28T15:47:33Z</time>
      </trkpt>
      <trkpt lat="45.37656" lon="6.51929">
        <ele>1682.74</ele>
        <time>2014-01-28T15:47:36Z</time>
      </trkpt>
      <trkpt lat="45.37678" lon="6.51924">
        <ele>1678.96</ele>
        <time>2014-01-28T15:47:38Z</time>
      </trkpt>
      <trkpt lat="45.37699" lon="6.51919">
        <ele>1674.36</ele>
        <time>2014-01-28T15:47:40Z</time>
      </trkpt>
      <trkpt lat="45.37718" lon="6.51908">
        <ele>1672.05</ele>
        <time>2014-01-28T15:47:42Z</time>
      </trkpt>
      <trkpt lat="45.37735" lon="6.51896">
        <ele>1669.94</ele>
        <time>2014-01-28T15:47:44Z</time>
      </trkpt>
      <trkpt lat="45.37754" lon="6.51873">
        <ele>1662.71</ele>
        <time>2014-01-28T15:47:47Z</time>
      </trkpt>
      <trkpt lat="45.37761" lon="6.51849">
        <ele>1657.86</ele>
        <time>2014-01-28T15:47:49Z</time>
      </trkpt>
      <trkpt lat="45.37756" lon="6.51818">
        <ele>1651.28</ele>
        <time>2014-01-28T15:47:51Z</time>
      </trkpt>
      <trkpt lat="45.37755" lon="6.51786">
        <ele>1647.22</ele>
        <time>2014-01-28T15:47:53Z</time>
      </trkpt>
      <trkpt lat="45.37746" lon="6.51747">
        <ele>1644.16</ele>
        <time>2014-01-28T15:47:55Z</time>
      </trkpt>
      <trkpt lat="45.37731" lon="6.51716">
        <ele>1640.82</ele>
        <time>2014-01-28T15:47:57Z</time>
      </trkpt>
      <trkpt lat="45.37712" lon="6.51695">
        <ele>1639.63</ele>
        <time>2014-01-28T15:47:59Z</time>
      </trkpt>
      <trkpt lat="45.37696" lon="6.51675">
        <ele>1637.74</ele>
        <time>2014-01-28T15:48:01Z</time>
      </trkpt>
      <trkpt lat="45.37687" lon="6.51652">
        <ele>1636.76</ele>
        <time>2014-01-28T15:48:03Z</time>
      </trkpt>
      <trkpt lat="45.37678" lon="6.51628">
        <ele>1636.79</ele>
        <time>2014-01-28T15:48:05Z</time>
      </trkpt>
      <trkpt lat="45.37665" lon="6.51597">
        <ele>1635.2</ele>
        <time>2014-01-28T15:48:08Z</time>
      </trkpt>
      <trkpt lat="45.37658" lon="6.51568">
        <ele>1631.69</ele>
        <time>2014-01-28T15:48:11Z</time>
      </trkpt>
      <trkpt lat="45.3765" lon="6.51544">
        <ele>1630.08</ele>
        <time>2014-01-28T15:48:14Z</time>
      </trkpt>
      <trkpt lat="45.3764" lon="6.51514">
        <ele>1628.07</ele>
        <time>2014-01-28T15:48:17Z</time>
      </trkpt>
      <trkpt lat="45.37623" lon="6.51489">
        <ele>1620.97</ele>
        <time>2014-01-28T15:48:20Z</time>
      </trkpt>
      <trkpt lat="45.37616" lon="6.51462">
        <ele>1615.92</ele>
        <time>2014-01-28T15:48:23Z</time>
      </trkpt>
      <trkpt lat="45.37605" lon="6.5144">
        <ele>1611.67</ele>
        <time>2014-01-28T15:48:26Z</time>
      </trkpt>
      <trkpt lat="45.37592" lon="6.51416">
        <ele>1606.42</ele>
        <time>2014-01-28T15:48:30Z</time>
      </trkpt>
      <trkpt lat="45.37583" lon="6.51386">
        <ele>1601.42</ele>
        <time>2014-01-28T15:48:33Z</time>
      </trkpt>
      <trkpt lat="45.37573" lon="6.51363">
        <ele>1597.24</ele>
        <time>2014-01-28T15:48:35Z</time>
      </trkpt>
      <trkpt lat="45.37561" lon="6.51343">
        <ele>1593.4</ele>
        <time>2014-01-28T15:48:37Z</time>
      </trkpt>
      <trkpt lat="45.37551" lon="6.51322">
        <ele>1590.61</ele>
        <time>2014-01-28T15:48:39Z</time>
      </trkpt>
      <trkpt lat="45.37543" lon="6.51296">
        <ele>1587.37</ele>
        <time>2014-01-28T15:48:41Z</time>
      </trkpt>
      <trkpt lat="45.37531" lon="6.51274">
        <ele>1583.83</ele>
        <time>2014-01-28T15:48:43Z</time>
      </trkpt>
      <trkpt lat="45.3753" lon="6.51238">
        <ele>1579.89</ele>
        <time>2014-01-28T15:48:46Z</time>
      </trkpt>
      <trkpt lat="45.37519" lon="6.51207">
        <ele>1575.02</ele>
        <time>2014-01-28T15:48:49Z</time>
      </trkpt>
      <trkpt lat="45.37502" lon="6.51185">
        <ele>1571.16</ele>
        <time>2014-01-28T15:48:52Z</time>
      </trkpt>
      <trkpt lat="45.37498" lon="6.5116">
        <ele>1567.7</ele>
        <time>2014-01-28T15:48:55Z</time>
      </trkpt>
      <trkpt lat="45.37489" lon="6.51133">
        <ele>1562.57</ele>
        <time>2014-01-28T15:48:58Z</time>
      </trkpt>
      <trkpt lat="45.37472" lon="6.51111">
        <ele>1559.01</ele>
        <time>2014-01-28T15:49:01Z</time>
      </trkpt>
      <trkpt lat="45.37463" lon="6.51078">
        <ele>1555.3</ele>
        <time>2014-01-28T15:49:04Z</time>
      </trkpt>
      <trkpt lat="45.37454" lon="6.51052">
        <ele>1553.05</ele>
        <time>2014-01-28T15:49:07Z</time>
      </trkpt>
      <trkpt lat="45.37478" lon="6.51038">
        <ele>1552.22</ele>
        <time>2014-01-28T15:49:11Z</time>
      </trkpt>
      <trkpt lat="45.37499" lon="6.51027">
        <ele>1551.86</ele>
        <time>2014-01-28T15:49:14Z</time>
      </trkpt>
      <trkpt lat="45.37499" lon="6.50995">
        <ele>1546.46</ele>
        <time>2014-01-28T15:49:17Z</time>
      </trkpt>
      <trkpt lat="45.37512" lon="6.50972">
        <ele>1536.08</ele>
        <time>2014-01-28T15:49:20Z</time>
      </trkpt>
      <trkpt lat="45.37509" lon="6.50943">
        <ele>1530.29</ele>
        <time>2014-01-28T15:49:24Z</time>
      </trkpt>
      <trkpt lat="45.37515" lon="6.50915">
        <ele>1520.09</ele>
        <time>2014-01-28T15:49:27Z</time>
      </trkpt>
      <trkpt lat="45.37528" lon="6.50883">
        <ele>1510.64</ele>
        <time>2014-01-28T15:49:30Z</time>
      </trkpt>
      <trkpt lat="45.3754" lon="6.50862">
        <ele>1509.13</ele>
        <time>2014-01-28T15:49:32Z</time>
      </trkpt>
      <trkpt lat="45.37553" lon="6.50843">
        <ele>1507.3</ele>
        <time>2014-01-28T15:49:34Z</time>
      </trkpt>
      <trkpt lat="45.37571" lon="6.50822">
        <ele>1503.49</ele>
        <time>2014-01-28T15:49:37Z</time>
      </trkpt>
      <trkpt lat="45.37584" lon="6.50795">
        <ele>1498.62</ele>
        <time>2014-01-28T15:49:40Z</time>
      </trkpt>
      <trkpt lat="45.37601" lon="6.50784">
        <ele>1494.4</ele>
        <time>2014-01-28T15:49:43Z</time>
      </trkpt>
      <trkpt lat="45.37619" lon="6.50776">
        <ele>1490.62</ele>
        <time>2014-01-28T15:49:46Z</time>
      </trkpt>
      <trkpt lat="45.37641" lon="6.50762">
        <ele>1486.24</ele>
        <time>2014-01-28T15:49:49Z</time>
      </trkpt>
      <trkpt lat="45.37657" lon="6.5075">
        <ele>1480.32</ele>
        <time>2014-01-28T15:49:51Z</time>
      </trkpt>
      <trkpt lat="45.37676" lon="6.50728">
        <ele>1470.31</ele>
        <time>2014-01-28T15:49:54Z</time>
      </trkpt>
      <trkpt lat="45.37681" lon="6.50697">
        <ele>1463.76</ele>
        <time>2014-01-28T15:49:58Z</time>
      </trkpt>
      <trkpt lat="45.37681" lon="6.5066">
        <ele>1457.28</ele>
        <time>2014-01-28T15:50:01Z</time>
      </trkpt>
      <trkpt lat="45.37681" lon="6.50624">
        <ele>1451.44</ele>
        <time>2014-01-28T15:50:04Z</time>
      </trkpt>
      <trkpt lat="45.3769" lon="6.50601">
        <ele>1446.12</ele>
        <time>2014-01-28T15:50:06Z</time>
      </trkpt>
      <trkpt lat="45.37706" lon="6.50577">
        <ele>1441.06</ele>
        <time>2014-01-28T15:50:09Z</time>
      </trkpt>
      <trkpt lat="45.37706" lon="6.50549">
        <ele>1437.25</ele>
        <time>2014-01-28T15:50:12Z</time>
      </trkpt>
      <trkpt lat="45.37713" lon="6.50525">
        <ele>1433.91</ele>
        <time>2014-01-28T15:50:15Z</time>
      </trkpt>
      <trkpt lat="45.37724" lon="6.50497">
        <ele>1429.63</ele>
        <time>2014-01-28T15:50:20Z</time>
      </trkpt>
      <trkpt lat="45.37741" lon="6.50487">
        <ele>1427.44</ele>
        <time>2014-01-28T15:50:24Z</time>
      </trkpt>
      <trkpt lat="45.37758" lon="6.50475">
        <ele>1425.33</ele>
        <time>2014-01-28T15:50:30Z</time>
      </trkpt>
      <trkpt lat="45.37749" lon="6.50451">
        <ele>1422.9</ele>
        <time>2014-01-28T15:50:59Z</time>
      </trkpt>
      <trkpt lat="45.37729" lon="6.50428">
        <ele>1423.3</ele>
        <time>2014-01-28T15:56:49Z</time>
      </trkpt>
      <trkpt lat="45.37747" lon="6.50427">
        <ele>1420.55</ele>
        <time>2014-01-28T15:57:48Z</time>
      </trkpt>
      <trkpt lat="45.37751" lon="6.50456">
        <ele>1423.24</ele>
        <time>2014-01-28T15:59:35Z</time>
      </trkpt>
    </trkseg>
  </trk>
</gpx>